<?xml version="1.0" encoding="UTF-8" standalone="no" ?>
<gpx xmlns="http://www.topografix.com/GPX/1/1" xmlns:xsi="http://www.w3.org/2001/XMLSchema-instance" xsi:schemaLocation="http://www.topografix.com/GPX/1/1 http://www.topografix.com/GPX/1/1/gpx.xsd" version="1.1" creator="VisuGPX - https://www.visugpx.com">
  <metadata>
    <name>Randonnée de Saint Herblain 09 oct 2011</name>
    <desc><![CDATA[\"RANDONNEE MOULINS ET MARAIS\" Organisateur : UNION SPORTIVE ST HERBLAIN]]></desc>
  </metadata>
  <trk>
    <name><![CDATA[Track 002]]></name>
    <desc><![CDATA[9 oct. 2011  8:03 am]]></desc>
    <trkseg>
      <trkpt lat="47.2488" lon="-1.64025">
        <ele>46</ele>
        <time>2011-10-09T06:04:20Z</time>
      </trkpt>
      <trkpt lat="47.24894" lon="-1.64017">
        <ele>47</ele>
        <time>2011-10-09T06:05:52Z</time>
      </trkpt>
      <trkpt lat="47.24917" lon="-1.63993">
        <ele>51</ele>
        <time>2011-10-09T06:05:59Z</time>
      </trkpt>
      <trkpt lat="47.2494" lon="-1.63966">
        <ele>53</ele>
        <time>2011-10-09T06:06:09Z</time>
      </trkpt>
      <trkpt lat="47.24962" lon="-1.63943">
        <ele>54</ele>
        <time>2011-10-09T06:06:17Z</time>
      </trkpt>
      <trkpt lat="47.24989" lon="-1.63963">
        <ele>54</ele>
        <time>2011-10-09T06:06:27Z</time>
      </trkpt>
      <trkpt lat="47.25006" lon="-1.64">
        <ele>54</ele>
        <time>2011-10-09T06:06:35Z</time>
      </trkpt>
      <trkpt lat="47.25022" lon="-1.64036">
        <ele>53</ele>
        <time>2011-10-09T06:06:42Z</time>
      </trkpt>
      <trkpt lat="47.25032" lon="-1.64073">
        <ele>52</ele>
        <time>2011-10-09T06:06:53Z</time>
      </trkpt>
      <trkpt lat="47.25043" lon="-1.64123">
        <ele>50</ele>
        <time>2011-10-09T06:07:06Z</time>
      </trkpt>
      <trkpt lat="47.25052" lon="-1.64168">
        <ele>51</ele>
        <time>2011-10-09T06:07:14Z</time>
      </trkpt>
      <trkpt lat="47.25056" lon="-1.6419">
        <ele>51</ele>
        <time>2011-10-09T06:07:17Z</time>
      </trkpt>
      <trkpt lat="47.25061" lon="-1.64216">
        <ele>51</ele>
        <time>2011-10-09T06:07:20Z</time>
      </trkpt>
      <trkpt lat="47.25065" lon="-1.64232">
        <ele>51</ele>
        <time>2011-10-09T06:07:22Z</time>
      </trkpt>
      <trkpt lat="47.25068" lon="-1.64248">
        <ele>51</ele>
        <time>2011-10-09T06:07:24Z</time>
      </trkpt>
      <trkpt lat="47.25074" lon="-1.64264">
        <ele>51</ele>
        <time>2011-10-09T06:07:26Z</time>
      </trkpt>
      <trkpt lat="47.25083" lon="-1.64286">
        <ele>51</ele>
        <time>2011-10-09T06:07:29Z</time>
      </trkpt>
      <trkpt lat="47.25089" lon="-1.64298">
        <ele>53</ele>
        <time>2011-10-09T06:07:31Z</time>
      </trkpt>
      <trkpt lat="47.25089" lon="-1.64298">
        <ele>53</ele>
        <time>2011-10-09T06:07:33Z</time>
      </trkpt>
      <trkpt lat="47.25101" lon="-1.64321">
        <ele>52</ele>
        <time>2011-10-09T06:07:37Z</time>
      </trkpt>
      <trkpt lat="47.25106" lon="-1.64329">
        <ele>52</ele>
        <time>2011-10-09T06:07:39Z</time>
      </trkpt>
      <trkpt lat="47.25106" lon="-1.64329">
        <ele>52</ele>
        <time>2011-10-09T06:07:42Z</time>
      </trkpt>
      <trkpt lat="47.2513" lon="-1.64361">
        <ele>52</ele>
        <time>2011-10-09T06:07:51Z</time>
      </trkpt>
      <trkpt lat="47.2513" lon="-1.64361">
        <ele>52</ele>
        <time>2011-10-09T06:07:55Z</time>
      </trkpt>
      <trkpt lat="47.25131" lon="-1.64405">
        <ele>51</ele>
        <time>2011-10-09T06:08:01Z</time>
      </trkpt>
      <trkpt lat="47.25125" lon="-1.64419">
        <ele>50</ele>
        <time>2011-10-09T06:08:03Z</time>
      </trkpt>
      <trkpt lat="47.25107" lon="-1.64448">
        <ele>49</ele>
        <time>2011-10-09T06:08:06Z</time>
      </trkpt>
      <trkpt lat="47.25103" lon="-1.64486">
        <ele>49</ele>
        <time>2011-10-09T06:08:11Z</time>
      </trkpt>
      <trkpt lat="47.25103" lon="-1.64507">
        <ele>48</ele>
        <time>2011-10-09T06:08:14Z</time>
      </trkpt>
      <trkpt lat="47.25098" lon="-1.64544">
        <ele>48</ele>
        <time>2011-10-09T06:08:18Z</time>
      </trkpt>
      <trkpt lat="47.25099" lon="-1.64569">
        <ele>47</ele>
        <time>2011-10-09T06:08:21Z</time>
      </trkpt>
      <trkpt lat="47.25101" lon="-1.646">
        <ele>47</ele>
        <time>2011-10-09T06:08:24Z</time>
      </trkpt>
      <trkpt lat="47.25103" lon="-1.64624">
        <ele>47</ele>
        <time>2011-10-09T06:08:27Z</time>
      </trkpt>
      <trkpt lat="47.25102" lon="-1.64637">
        <ele>47</ele>
        <time>2011-10-09T06:08:29Z</time>
      </trkpt>
      <trkpt lat="47.251" lon="-1.64654">
        <ele>46</ele>
        <time>2011-10-09T06:08:32Z</time>
      </trkpt>
      <trkpt lat="47.25099" lon="-1.64665">
        <ele>46</ele>
        <time>2011-10-09T06:08:34Z</time>
      </trkpt>
      <trkpt lat="47.25097" lon="-1.64683">
        <ele>46</ele>
        <time>2011-10-09T06:08:37Z</time>
      </trkpt>
      <trkpt lat="47.25095" lon="-1.647">
        <ele>46</ele>
        <time>2011-10-09T06:08:39Z</time>
      </trkpt>
      <trkpt lat="47.25092" lon="-1.64726">
        <ele>45</ele>
        <time>2011-10-09T06:08:42Z</time>
      </trkpt>
      <trkpt lat="47.25088" lon="-1.64755">
        <ele>44</ele>
        <time>2011-10-09T06:08:45Z</time>
      </trkpt>
      <trkpt lat="47.25085" lon="-1.64787">
        <ele>45</ele>
        <time>2011-10-09T06:08:48Z</time>
      </trkpt>
      <trkpt lat="47.25085" lon="-1.64805">
        <ele>45</ele>
        <time>2011-10-09T06:08:50Z</time>
      </trkpt>
      <trkpt lat="47.25087" lon="-1.64816">
        <ele>44</ele>
        <time>2011-10-09T06:08:52Z</time>
      </trkpt>
      <trkpt lat="47.25091" lon="-1.64824">
        <ele>44</ele>
        <time>2011-10-09T06:08:54Z</time>
      </trkpt>
      <trkpt lat="47.25095" lon="-1.64832">
        <ele>44</ele>
        <time>2011-10-09T06:08:57Z</time>
      </trkpt>
      <trkpt lat="47.25102" lon="-1.64839">
        <ele>44</ele>
        <time>2011-10-09T06:09:00Z</time>
      </trkpt>
      <trkpt lat="47.25107" lon="-1.64842">
        <ele>45</ele>
        <time>2011-10-09T06:09:03Z</time>
      </trkpt>
      <trkpt lat="47.25128" lon="-1.64869">
        <ele>46</ele>
        <time>2011-10-09T06:09:16Z</time>
      </trkpt>
      <trkpt lat="47.25134" lon="-1.64879">
        <ele>46</ele>
        <time>2011-10-09T06:09:18Z</time>
      </trkpt>
      <trkpt lat="47.25134" lon="-1.64879">
        <ele>46</ele>
        <time>2011-10-09T06:09:20Z</time>
      </trkpt>
      <trkpt lat="47.2515" lon="-1.64926">
        <ele>48</ele>
        <time>2011-10-09T06:09:28Z</time>
      </trkpt>
      <trkpt lat="47.25155" lon="-1.64952">
        <ele>48</ele>
        <time>2011-10-09T06:09:31Z</time>
      </trkpt>
      <trkpt lat="47.25158" lon="-1.64968">
        <ele>48</ele>
        <time>2011-10-09T06:09:33Z</time>
      </trkpt>
      <trkpt lat="47.25158" lon="-1.64968">
        <ele>48</ele>
        <time>2011-10-09T06:09:35Z</time>
      </trkpt>
      <trkpt lat="47.2516" lon="-1.65019">
        <ele>49</ele>
        <time>2011-10-09T06:09:41Z</time>
      </trkpt>
      <trkpt lat="47.2516" lon="-1.65039">
        <ele>49</ele>
        <time>2011-10-09T06:09:43Z</time>
      </trkpt>
      <trkpt lat="47.25161" lon="-1.65059">
        <ele>49</ele>
        <time>2011-10-09T06:09:45Z</time>
      </trkpt>
      <trkpt lat="47.2516" lon="-1.65089">
        <ele>50</ele>
        <time>2011-10-09T06:09:48Z</time>
      </trkpt>
      <trkpt lat="47.25155" lon="-1.65113">
        <ele>49</ele>
        <time>2011-10-09T06:09:51Z</time>
      </trkpt>
      <trkpt lat="47.25148" lon="-1.65135">
        <ele>48</ele>
        <time>2011-10-09T06:09:54Z</time>
      </trkpt>
      <trkpt lat="47.25143" lon="-1.65171">
        <ele>48</ele>
        <time>2011-10-09T06:09:57Z</time>
      </trkpt>
      <trkpt lat="47.25142" lon="-1.65202">
        <ele>47</ele>
        <time>2011-10-09T06:10:00Z</time>
      </trkpt>
      <trkpt lat="47.25141" lon="-1.6523">
        <ele>47</ele>
        <time>2011-10-09T06:10:03Z</time>
      </trkpt>
      <trkpt lat="47.25142" lon="-1.65265">
        <ele>46</ele>
        <time>2011-10-09T06:10:06Z</time>
      </trkpt>
      <trkpt lat="47.25138" lon="-1.65303">
        <ele>45</ele>
        <time>2011-10-09T06:10:09Z</time>
      </trkpt>
      <trkpt lat="47.25137" lon="-1.65346">
        <ele>43</ele>
        <time>2011-10-09T06:10:12Z</time>
      </trkpt>
      <trkpt lat="47.2513" lon="-1.65384">
        <ele>42</ele>
        <time>2011-10-09T06:10:15Z</time>
      </trkpt>
      <trkpt lat="47.25118" lon="-1.65417">
        <ele>39</ele>
        <time>2011-10-09T06:10:18Z</time>
      </trkpt>
      <trkpt lat="47.25107" lon="-1.65449">
        <ele>38</ele>
        <time>2011-10-09T06:10:21Z</time>
      </trkpt>
      <trkpt lat="47.251" lon="-1.65479">
        <ele>37</ele>
        <time>2011-10-09T06:10:24Z</time>
      </trkpt>
      <trkpt lat="47.25099" lon="-1.655">
        <ele>37</ele>
        <time>2011-10-09T06:10:26Z</time>
      </trkpt>
      <trkpt lat="47.25095" lon="-1.65531">
        <ele>36</ele>
        <time>2011-10-09T06:10:29Z</time>
      </trkpt>
      <trkpt lat="47.25086" lon="-1.65562">
        <ele>35</ele>
        <time>2011-10-09T06:10:32Z</time>
      </trkpt>
      <trkpt lat="47.25075" lon="-1.65596">
        <ele>33</ele>
        <time>2011-10-09T06:10:35Z</time>
      </trkpt>
      <trkpt lat="47.25067" lon="-1.65627">
        <ele>33</ele>
        <time>2011-10-09T06:10:38Z</time>
      </trkpt>
      <trkpt lat="47.25061" lon="-1.65656">
        <ele>32</ele>
        <time>2011-10-09T06:10:41Z</time>
      </trkpt>
      <trkpt lat="47.25067" lon="-1.65671">
        <ele>33</ele>
        <time>2011-10-09T06:10:44Z</time>
      </trkpt>
      <trkpt lat="47.25083" lon="-1.65679">
        <ele>34</ele>
        <time>2011-10-09T06:10:47Z</time>
      </trkpt>
      <trkpt lat="47.25094" lon="-1.65684">
        <ele>35</ele>
        <time>2011-10-09T06:10:49Z</time>
      </trkpt>
      <trkpt lat="47.25106" lon="-1.65688">
        <ele>35</ele>
        <time>2011-10-09T06:10:51Z</time>
      </trkpt>
      <trkpt lat="47.25117" lon="-1.6569">
        <ele>36</ele>
        <time>2011-10-09T06:10:53Z</time>
      </trkpt>
      <trkpt lat="47.25134" lon="-1.65694">
        <ele>37</ele>
        <time>2011-10-09T06:10:56Z</time>
      </trkpt>
      <trkpt lat="47.25152" lon="-1.657">
        <ele>37</ele>
        <time>2011-10-09T06:10:59Z</time>
      </trkpt>
      <trkpt lat="47.25163" lon="-1.65703">
        <ele>38</ele>
        <time>2011-10-09T06:11:01Z</time>
      </trkpt>
      <trkpt lat="47.25178" lon="-1.65717">
        <ele>40</ele>
        <time>2011-10-09T06:11:04Z</time>
      </trkpt>
      <trkpt lat="47.25191" lon="-1.65731">
        <ele>40</ele>
        <time>2011-10-09T06:11:07Z</time>
      </trkpt>
      <trkpt lat="47.25196" lon="-1.65747">
        <ele>40</ele>
        <time>2011-10-09T06:11:09Z</time>
      </trkpt>
      <trkpt lat="47.25198" lon="-1.65761">
        <ele>42</ele>
        <time>2011-10-09T06:11:11Z</time>
      </trkpt>
      <trkpt lat="47.25202" lon="-1.65781">
        <ele>42</ele>
        <time>2011-10-09T06:11:14Z</time>
      </trkpt>
      <trkpt lat="47.25209" lon="-1.65803">
        <ele>42</ele>
        <time>2011-10-09T06:11:17Z</time>
      </trkpt>
      <trkpt lat="47.25216" lon="-1.65826">
        <ele>43</ele>
        <time>2011-10-09T06:11:20Z</time>
      </trkpt>
      <trkpt lat="47.2522" lon="-1.65841">
        <ele>43</ele>
        <time>2011-10-09T06:11:22Z</time>
      </trkpt>
      <trkpt lat="47.25224" lon="-1.65856">
        <ele>43</ele>
        <time>2011-10-09T06:11:24Z</time>
      </trkpt>
      <trkpt lat="47.25229" lon="-1.65879">
        <ele>43</ele>
        <time>2011-10-09T06:11:27Z</time>
      </trkpt>
      <trkpt lat="47.25233" lon="-1.65894">
        <ele>43</ele>
        <time>2011-10-09T06:11:29Z</time>
      </trkpt>
      <trkpt lat="47.2524" lon="-1.65917">
        <ele>44</ele>
        <time>2011-10-09T06:11:32Z</time>
      </trkpt>
      <trkpt lat="47.25248" lon="-1.65942">
        <ele>44</ele>
        <time>2011-10-09T06:11:35Z</time>
      </trkpt>
      <trkpt lat="47.25256" lon="-1.65964">
        <ele>45</ele>
        <time>2011-10-09T06:11:38Z</time>
      </trkpt>
      <trkpt lat="47.25265" lon="-1.65985">
        <ele>45</ele>
        <time>2011-10-09T06:11:41Z</time>
      </trkpt>
      <trkpt lat="47.25276" lon="-1.66007">
        <ele>45</ele>
        <time>2011-10-09T06:11:44Z</time>
      </trkpt>
      <trkpt lat="47.25287" lon="-1.66028">
        <ele>45</ele>
        <time>2011-10-09T06:11:47Z</time>
      </trkpt>
      <trkpt lat="47.25295" lon="-1.66047">
        <ele>45</ele>
        <time>2011-10-09T06:11:50Z</time>
      </trkpt>
      <trkpt lat="47.25301" lon="-1.6606">
        <ele>45</ele>
        <time>2011-10-09T06:11:52Z</time>
      </trkpt>
      <trkpt lat="47.25311" lon="-1.66082">
        <ele>45</ele>
        <time>2011-10-09T06:11:55Z</time>
      </trkpt>
      <trkpt lat="47.25315" lon="-1.66099">
        <ele>44</ele>
        <time>2011-10-09T06:11:57Z</time>
      </trkpt>
      <trkpt lat="47.25316" lon="-1.66127">
        <ele>44</ele>
        <time>2011-10-09T06:12:00Z</time>
      </trkpt>
      <trkpt lat="47.25317" lon="-1.66146">
        <ele>44</ele>
        <time>2011-10-09T06:12:02Z</time>
      </trkpt>
      <trkpt lat="47.25317" lon="-1.66175">
        <ele>44</ele>
        <time>2011-10-09T06:12:05Z</time>
      </trkpt>
      <trkpt lat="47.25317" lon="-1.66192">
        <ele>43</ele>
        <time>2011-10-09T06:12:07Z</time>
      </trkpt>
      <trkpt lat="47.25316" lon="-1.6621">
        <ele>43</ele>
        <time>2011-10-09T06:12:09Z</time>
      </trkpt>
      <trkpt lat="47.25316" lon="-1.66239">
        <ele>42</ele>
        <time>2011-10-09T06:12:12Z</time>
      </trkpt>
      <trkpt lat="47.25315" lon="-1.66259">
        <ele>42</ele>
        <time>2011-10-09T06:12:14Z</time>
      </trkpt>
      <trkpt lat="47.25314" lon="-1.66289">
        <ele>41</ele>
        <time>2011-10-09T06:12:17Z</time>
      </trkpt>
      <trkpt lat="47.25317" lon="-1.6632">
        <ele>41</ele>
        <time>2011-10-09T06:12:20Z</time>
      </trkpt>
      <trkpt lat="47.25319" lon="-1.6634">
        <ele>41</ele>
        <time>2011-10-09T06:12:22Z</time>
      </trkpt>
      <trkpt lat="47.25321" lon="-1.66369">
        <ele>41</ele>
        <time>2011-10-09T06:12:25Z</time>
      </trkpt>
      <trkpt lat="47.25321" lon="-1.66394">
        <ele>41</ele>
        <time>2011-10-09T06:12:28Z</time>
      </trkpt>
      <trkpt lat="47.25322" lon="-1.66411">
        <ele>41</ele>
        <time>2011-10-09T06:12:30Z</time>
      </trkpt>
      <trkpt lat="47.25323" lon="-1.66436">
        <ele>41</ele>
        <time>2011-10-09T06:12:33Z</time>
      </trkpt>
      <trkpt lat="47.25323" lon="-1.66453">
        <ele>41</ele>
        <time>2011-10-09T06:12:35Z</time>
      </trkpt>
      <trkpt lat="47.25323" lon="-1.66479">
        <ele>41</ele>
        <time>2011-10-09T06:12:38Z</time>
      </trkpt>
      <trkpt lat="47.25323" lon="-1.66496">
        <ele>41</ele>
        <time>2011-10-09T06:12:40Z</time>
      </trkpt>
      <trkpt lat="47.25324" lon="-1.66505">
        <ele>41</ele>
        <time>2011-10-09T06:12:42Z</time>
      </trkpt>
      <trkpt lat="47.25329" lon="-1.66519">
        <ele>41</ele>
        <time>2011-10-09T06:12:45Z</time>
      </trkpt>
      <trkpt lat="47.25331" lon="-1.66531">
        <ele>41</ele>
        <time>2011-10-09T06:12:48Z</time>
      </trkpt>
      <trkpt lat="47.25335" lon="-1.6652">
        <ele>43</ele>
        <time>2011-10-09T06:12:51Z</time>
      </trkpt>
      <trkpt lat="47.25356" lon="-1.66504">
        <ele>43</ele>
        <time>2011-10-09T06:12:55Z</time>
      </trkpt>
      <trkpt lat="47.25382" lon="-1.66485">
        <ele>44</ele>
        <time>2011-10-09T06:12:58Z</time>
      </trkpt>
      <trkpt lat="47.25382" lon="-1.66485">
        <ele>44</ele>
        <time>2011-10-09T06:13:02Z</time>
      </trkpt>
      <trkpt lat="47.2541" lon="-1.66473">
        <ele>45</ele>
        <time>2011-10-09T06:13:06Z</time>
      </trkpt>
      <trkpt lat="47.2541" lon="-1.66473">
        <ele>45</ele>
        <time>2011-10-09T06:13:09Z</time>
      </trkpt>
      <trkpt lat="47.25436" lon="-1.66463">
        <ele>46</ele>
        <time>2011-10-09T06:13:13Z</time>
      </trkpt>
      <trkpt lat="47.25441" lon="-1.66456">
        <ele>47</ele>
        <time>2011-10-09T06:13:15Z</time>
      </trkpt>
      <trkpt lat="47.2545" lon="-1.66447">
        <ele>47</ele>
        <time>2011-10-09T06:13:18Z</time>
      </trkpt>
      <trkpt lat="47.25456" lon="-1.66442">
        <ele>47</ele>
        <time>2011-10-09T06:13:20Z</time>
      </trkpt>
      <trkpt lat="47.25466" lon="-1.66436">
        <ele>47</ele>
        <time>2011-10-09T06:13:23Z</time>
      </trkpt>
      <trkpt lat="47.25478" lon="-1.66426">
        <ele>47</ele>
        <time>2011-10-09T06:13:26Z</time>
      </trkpt>
      <trkpt lat="47.25487" lon="-1.66411">
        <ele>48</ele>
        <time>2011-10-09T06:13:29Z</time>
      </trkpt>
      <trkpt lat="47.25495" lon="-1.66395">
        <ele>48</ele>
        <time>2011-10-09T06:13:32Z</time>
      </trkpt>
      <trkpt lat="47.25503" lon="-1.66382">
        <ele>48</ele>
        <time>2011-10-09T06:13:35Z</time>
      </trkpt>
      <trkpt lat="47.25507" lon="-1.66377">
        <ele>48</ele>
        <time>2011-10-09T06:13:37Z</time>
      </trkpt>
      <trkpt lat="47.25526" lon="-1.66348">
        <ele>48</ele>
        <time>2011-10-09T06:13:46Z</time>
      </trkpt>
      <trkpt lat="47.25532" lon="-1.66342">
        <ele>48</ele>
        <time>2011-10-09T06:13:48Z</time>
      </trkpt>
      <trkpt lat="47.25539" lon="-1.66331">
        <ele>49</ele>
        <time>2011-10-09T06:13:51Z</time>
      </trkpt>
      <trkpt lat="47.25548" lon="-1.66314">
        <ele>49</ele>
        <time>2011-10-09T06:13:54Z</time>
      </trkpt>
      <trkpt lat="47.25554" lon="-1.66304">
        <ele>49</ele>
        <time>2011-10-09T06:13:56Z</time>
      </trkpt>
      <trkpt lat="47.25563" lon="-1.66291">
        <ele>50</ele>
        <time>2011-10-09T06:13:59Z</time>
      </trkpt>
      <trkpt lat="47.2557" lon="-1.66271">
        <ele>50</ele>
        <time>2011-10-09T06:14:02Z</time>
      </trkpt>
      <trkpt lat="47.2558" lon="-1.66252">
        <ele>51</ele>
        <time>2011-10-09T06:14:05Z</time>
      </trkpt>
      <trkpt lat="47.25586" lon="-1.66229">
        <ele>51</ele>
        <time>2011-10-09T06:14:08Z</time>
      </trkpt>
      <trkpt lat="47.25592" lon="-1.66219">
        <ele>51</ele>
        <time>2011-10-09T06:14:11Z</time>
      </trkpt>
      <trkpt lat="47.25602" lon="-1.66205">
        <ele>52</ele>
        <time>2011-10-09T06:14:14Z</time>
      </trkpt>
      <trkpt lat="47.25611" lon="-1.66194">
        <ele>52</ele>
        <time>2011-10-09T06:14:17Z</time>
      </trkpt>
      <trkpt lat="47.25621" lon="-1.66174">
        <ele>52</ele>
        <time>2011-10-09T06:14:20Z</time>
      </trkpt>
      <trkpt lat="47.25621" lon="-1.66174">
        <ele>52</ele>
        <time>2011-10-09T06:14:22Z</time>
      </trkpt>
      <trkpt lat="47.25635" lon="-1.66146">
        <ele>53</ele>
        <time>2011-10-09T06:14:28Z</time>
      </trkpt>
      <trkpt lat="47.25642" lon="-1.66134">
        <ele>53</ele>
        <time>2011-10-09T06:14:30Z</time>
      </trkpt>
      <trkpt lat="47.25651" lon="-1.66116">
        <ele>53</ele>
        <time>2011-10-09T06:14:33Z</time>
      </trkpt>
      <trkpt lat="47.25658" lon="-1.66107">
        <ele>54</ele>
        <time>2011-10-09T06:14:35Z</time>
      </trkpt>
      <trkpt lat="47.25667" lon="-1.66094">
        <ele>55</ele>
        <time>2011-10-09T06:14:38Z</time>
      </trkpt>
      <trkpt lat="47.25677" lon="-1.66066">
        <ele>55</ele>
        <time>2011-10-09T06:14:41Z</time>
      </trkpt>
      <trkpt lat="47.25687" lon="-1.66042">
        <ele>56</ele>
        <time>2011-10-09T06:14:44Z</time>
      </trkpt>
      <trkpt lat="47.25698" lon="-1.66014">
        <ele>56</ele>
        <time>2011-10-09T06:14:47Z</time>
      </trkpt>
      <trkpt lat="47.25708" lon="-1.65996">
        <ele>56</ele>
        <time>2011-10-09T06:14:50Z</time>
      </trkpt>
      <trkpt lat="47.25715" lon="-1.65984">
        <ele>57</ele>
        <time>2011-10-09T06:14:52Z</time>
      </trkpt>
      <trkpt lat="47.25725" lon="-1.6597">
        <ele>57</ele>
        <time>2011-10-09T06:14:55Z</time>
      </trkpt>
      <trkpt lat="47.25729" lon="-1.65956">
        <ele>57</ele>
        <time>2011-10-09T06:14:57Z</time>
      </trkpt>
      <trkpt lat="47.25737" lon="-1.65933">
        <ele>58</ele>
        <time>2011-10-09T06:15:00Z</time>
      </trkpt>
      <trkpt lat="47.25746" lon="-1.65916">
        <ele>59</ele>
        <time>2011-10-09T06:15:03Z</time>
      </trkpt>
      <trkpt lat="47.25752" lon="-1.65904">
        <ele>59</ele>
        <time>2011-10-09T06:15:05Z</time>
      </trkpt>
      <trkpt lat="47.25763" lon="-1.65884">
        <ele>59</ele>
        <time>2011-10-09T06:15:08Z</time>
      </trkpt>
      <trkpt lat="47.25776" lon="-1.6586">
        <ele>59</ele>
        <time>2011-10-09T06:15:11Z</time>
      </trkpt>
      <trkpt lat="47.25785" lon="-1.65837">
        <ele>59</ele>
        <time>2011-10-09T06:15:14Z</time>
      </trkpt>
      <trkpt lat="47.25794" lon="-1.65819">
        <ele>60</ele>
        <time>2011-10-09T06:15:17Z</time>
      </trkpt>
      <trkpt lat="47.25799" lon="-1.65808">
        <ele>60</ele>
        <time>2011-10-09T06:15:19Z</time>
      </trkpt>
      <trkpt lat="47.25805" lon="-1.65787">
        <ele>60</ele>
        <time>2011-10-09T06:15:22Z</time>
      </trkpt>
      <trkpt lat="47.25807" lon="-1.65775">
        <ele>61</ele>
        <time>2011-10-09T06:15:24Z</time>
      </trkpt>
      <trkpt lat="47.25812" lon="-1.65766">
        <ele>61</ele>
        <time>2011-10-09T06:15:26Z</time>
      </trkpt>
      <trkpt lat="47.2582" lon="-1.65757">
        <ele>61</ele>
        <time>2011-10-09T06:15:29Z</time>
      </trkpt>
      <trkpt lat="47.25825" lon="-1.65747">
        <ele>62</ele>
        <time>2011-10-09T06:15:31Z</time>
      </trkpt>
      <trkpt lat="47.25833" lon="-1.65734">
        <ele>62</ele>
        <time>2011-10-09T06:15:34Z</time>
      </trkpt>
      <trkpt lat="47.2584" lon="-1.65723">
        <ele>63</ele>
        <time>2011-10-09T06:15:36Z</time>
      </trkpt>
      <trkpt lat="47.25851" lon="-1.65704">
        <ele>63</ele>
        <time>2011-10-09T06:15:39Z</time>
      </trkpt>
      <trkpt lat="47.25859" lon="-1.65691">
        <ele>63</ele>
        <time>2011-10-09T06:15:42Z</time>
      </trkpt>
      <trkpt lat="47.25868" lon="-1.65676">
        <ele>63</ele>
        <time>2011-10-09T06:15:45Z</time>
      </trkpt>
      <trkpt lat="47.2588" lon="-1.65655">
        <ele>63</ele>
        <time>2011-10-09T06:15:48Z</time>
      </trkpt>
      <trkpt lat="47.25891" lon="-1.65633">
        <ele>63</ele>
        <time>2011-10-09T06:15:51Z</time>
      </trkpt>
      <trkpt lat="47.25901" lon="-1.65606">
        <ele>63</ele>
        <time>2011-10-09T06:15:54Z</time>
      </trkpt>
      <trkpt lat="47.25909" lon="-1.65576">
        <ele>63</ele>
        <time>2011-10-09T06:15:57Z</time>
      </trkpt>
      <trkpt lat="47.25915" lon="-1.6556">
        <ele>63</ele>
        <time>2011-10-09T06:15:59Z</time>
      </trkpt>
      <trkpt lat="47.25923" lon="-1.65541">
        <ele>64</ele>
        <time>2011-10-09T06:16:02Z</time>
      </trkpt>
      <trkpt lat="47.25928" lon="-1.65529">
        <ele>64</ele>
        <time>2011-10-09T06:16:04Z</time>
      </trkpt>
      <trkpt lat="47.25931" lon="-1.65516">
        <ele>64</ele>
        <time>2011-10-09T06:16:07Z</time>
      </trkpt>
      <trkpt lat="47.25931" lon="-1.65516">
        <ele>64</ele>
        <time>2011-10-09T06:16:08Z</time>
      </trkpt>
      <trkpt lat="47.25936" lon="-1.65494">
        <ele>65</ele>
        <time>2011-10-09T06:16:18Z</time>
      </trkpt>
      <trkpt lat="47.25943" lon="-1.65478">
        <ele>65</ele>
        <time>2011-10-09T06:16:21Z</time>
      </trkpt>
      <trkpt lat="47.25948" lon="-1.65458">
        <ele>65</ele>
        <time>2011-10-09T06:16:24Z</time>
      </trkpt>
      <trkpt lat="47.25945" lon="-1.6544">
        <ele>65</ele>
        <time>2011-10-09T06:16:26Z</time>
      </trkpt>
      <trkpt lat="47.25949" lon="-1.65417">
        <ele>65</ele>
        <time>2011-10-09T06:16:29Z</time>
      </trkpt>
      <trkpt lat="47.25954" lon="-1.65396">
        <ele>65</ele>
        <time>2011-10-09T06:16:32Z</time>
      </trkpt>
      <trkpt lat="47.25963" lon="-1.65376">
        <ele>65</ele>
        <time>2011-10-09T06:16:35Z</time>
      </trkpt>
      <trkpt lat="47.25972" lon="-1.65366">
        <ele>65</ele>
        <time>2011-10-09T06:16:37Z</time>
      </trkpt>
      <trkpt lat="47.25981" lon="-1.65356">
        <ele>66</ele>
        <time>2011-10-09T06:16:39Z</time>
      </trkpt>
      <trkpt lat="47.25994" lon="-1.65342">
        <ele>66</ele>
        <time>2011-10-09T06:16:42Z</time>
      </trkpt>
      <trkpt lat="47.26005" lon="-1.65325">
        <ele>66</ele>
        <time>2011-10-09T06:16:45Z</time>
      </trkpt>
      <trkpt lat="47.26012" lon="-1.65313">
        <ele>66</ele>
        <time>2011-10-09T06:16:47Z</time>
      </trkpt>
      <trkpt lat="47.2602" lon="-1.65302">
        <ele>66</ele>
        <time>2011-10-09T06:16:49Z</time>
      </trkpt>
      <trkpt lat="47.26036" lon="-1.65288">
        <ele>66</ele>
        <time>2011-10-09T06:16:52Z</time>
      </trkpt>
      <trkpt lat="47.26046" lon="-1.65282">
        <ele>66</ele>
        <time>2011-10-09T06:16:54Z</time>
      </trkpt>
      <trkpt lat="47.26057" lon="-1.65277">
        <ele>66</ele>
        <time>2011-10-09T06:16:56Z</time>
      </trkpt>
      <trkpt lat="47.26073" lon="-1.65269">
        <ele>66</ele>
        <time>2011-10-09T06:16:59Z</time>
      </trkpt>
      <trkpt lat="47.26089" lon="-1.65261">
        <ele>65</ele>
        <time>2011-10-09T06:17:02Z</time>
      </trkpt>
      <trkpt lat="47.261" lon="-1.65256">
        <ele>66</ele>
        <time>2011-10-09T06:17:04Z</time>
      </trkpt>
      <trkpt lat="47.26117" lon="-1.65249">
        <ele>66</ele>
        <time>2011-10-09T06:17:07Z</time>
      </trkpt>
      <trkpt lat="47.2613" lon="-1.65248">
        <ele>66</ele>
        <time>2011-10-09T06:17:09Z</time>
      </trkpt>
      <trkpt lat="47.26153" lon="-1.65246">
        <ele>67</ele>
        <time>2011-10-09T06:17:12Z</time>
      </trkpt>
      <trkpt lat="47.26174" lon="-1.6524">
        <ele>67</ele>
        <time>2011-10-09T06:17:15Z</time>
      </trkpt>
      <trkpt lat="47.26186" lon="-1.65237">
        <ele>67</ele>
        <time>2011-10-09T06:17:17Z</time>
      </trkpt>
      <trkpt lat="47.26204" lon="-1.65231">
        <ele>66</ele>
        <time>2011-10-09T06:17:20Z</time>
      </trkpt>
      <trkpt lat="47.26223" lon="-1.65226">
        <ele>66</ele>
        <time>2011-10-09T06:17:23Z</time>
      </trkpt>
      <trkpt lat="47.2624" lon="-1.65223">
        <ele>66</ele>
        <time>2011-10-09T06:17:26Z</time>
      </trkpt>
      <trkpt lat="47.26251" lon="-1.6522">
        <ele>65</ele>
        <time>2011-10-09T06:17:29Z</time>
      </trkpt>
      <trkpt lat="47.26257" lon="-1.65221">
        <ele>65</ele>
        <time>2011-10-09T06:17:31Z</time>
      </trkpt>
      <trkpt lat="47.26271" lon="-1.65225">
        <ele>65</ele>
        <time>2011-10-09T06:17:35Z</time>
      </trkpt>
      <trkpt lat="47.26285" lon="-1.65225">
        <ele>65</ele>
        <time>2011-10-09T06:17:38Z</time>
      </trkpt>
      <trkpt lat="47.263" lon="-1.65227">
        <ele>65</ele>
        <time>2011-10-09T06:17:41Z</time>
      </trkpt>
      <trkpt lat="47.26317" lon="-1.65224">
        <ele>65</ele>
        <time>2011-10-09T06:17:44Z</time>
      </trkpt>
      <trkpt lat="47.26334" lon="-1.65223">
        <ele>64</ele>
        <time>2011-10-09T06:17:47Z</time>
      </trkpt>
      <trkpt lat="47.26352" lon="-1.65221">
        <ele>63</ele>
        <time>2011-10-09T06:17:50Z</time>
      </trkpt>
      <trkpt lat="47.26364" lon="-1.65222">
        <ele>63</ele>
        <time>2011-10-09T06:17:52Z</time>
      </trkpt>
      <trkpt lat="47.26383" lon="-1.6522">
        <ele>63</ele>
        <time>2011-10-09T06:17:55Z</time>
      </trkpt>
      <trkpt lat="47.26396" lon="-1.65222">
        <ele>63</ele>
        <time>2011-10-09T06:17:57Z</time>
      </trkpt>
      <trkpt lat="47.2641" lon="-1.65223">
        <ele>63</ele>
        <time>2011-10-09T06:17:59Z</time>
      </trkpt>
      <trkpt lat="47.26431" lon="-1.65227">
        <ele>62</ele>
        <time>2011-10-09T06:18:02Z</time>
      </trkpt>
      <trkpt lat="47.26452" lon="-1.65229">
        <ele>61</ele>
        <time>2011-10-09T06:18:05Z</time>
      </trkpt>
      <trkpt lat="47.26474" lon="-1.65233">
        <ele>61</ele>
        <time>2011-10-09T06:18:08Z</time>
      </trkpt>
      <trkpt lat="47.26496" lon="-1.65236">
        <ele>60</ele>
        <time>2011-10-09T06:18:11Z</time>
      </trkpt>
      <trkpt lat="47.26516" lon="-1.65239">
        <ele>59</ele>
        <time>2011-10-09T06:18:14Z</time>
      </trkpt>
      <trkpt lat="47.2653" lon="-1.65242">
        <ele>59</ele>
        <time>2011-10-09T06:18:16Z</time>
      </trkpt>
      <trkpt lat="47.26543" lon="-1.65244">
        <ele>59</ele>
        <time>2011-10-09T06:18:18Z</time>
      </trkpt>
      <trkpt lat="47.26562" lon="-1.65254">
        <ele>57</ele>
        <time>2011-10-09T06:18:21Z</time>
      </trkpt>
      <trkpt lat="47.26571" lon="-1.65253">
        <ele>58</ele>
        <time>2011-10-09T06:18:24Z</time>
      </trkpt>
      <trkpt lat="47.26598" lon="-1.65258">
        <ele>55</ele>
        <time>2011-10-09T06:18:39Z</time>
      </trkpt>
      <trkpt lat="47.26598" lon="-1.65258">
        <ele>55</ele>
        <time>2011-10-09T06:18:43Z</time>
      </trkpt>
      <trkpt lat="47.26625" lon="-1.65278">
        <ele>53</ele>
        <time>2011-10-09T06:18:59Z</time>
      </trkpt>
      <trkpt lat="47.26652" lon="-1.65296">
        <ele>52</ele>
        <time>2011-10-09T06:19:11Z</time>
      </trkpt>
      <trkpt lat="47.26665" lon="-1.65307">
        <ele>51</ele>
        <time>2011-10-09T06:19:14Z</time>
      </trkpt>
      <trkpt lat="47.26665" lon="-1.65307">
        <ele>51</ele>
        <time>2011-10-09T06:19:15Z</time>
      </trkpt>
      <trkpt lat="47.26689" lon="-1.65326">
        <ele>46</ele>
        <time>2011-10-09T06:19:22Z</time>
      </trkpt>
      <trkpt lat="47.26689" lon="-1.65326">
        <ele>46</ele>
        <time>2011-10-09T06:19:25Z</time>
      </trkpt>
      <trkpt lat="47.26717" lon="-1.65348">
        <ele>43</ele>
        <time>2011-10-09T06:19:31Z</time>
      </trkpt>
      <trkpt lat="47.26729" lon="-1.65364">
        <ele>43</ele>
        <time>2011-10-09T06:19:34Z</time>
      </trkpt>
      <trkpt lat="47.26734" lon="-1.65379">
        <ele>43</ele>
        <time>2011-10-09T06:19:36Z</time>
      </trkpt>
      <trkpt lat="47.26738" lon="-1.65402">
        <ele>42</ele>
        <time>2011-10-09T06:19:38Z</time>
      </trkpt>
      <trkpt lat="47.26745" lon="-1.65429">
        <ele>42</ele>
        <time>2011-10-09T06:19:41Z</time>
      </trkpt>
      <trkpt lat="47.26751" lon="-1.65448">
        <ele>38</ele>
        <time>2011-10-09T06:19:43Z</time>
      </trkpt>
      <trkpt lat="47.26761" lon="-1.65472">
        <ele>38</ele>
        <time>2011-10-09T06:19:46Z</time>
      </trkpt>
      <trkpt lat="47.26762" lon="-1.65481">
        <ele>38</ele>
        <time>2011-10-09T06:19:48Z</time>
      </trkpt>
      <trkpt lat="47.26762" lon="-1.65481">
        <ele>38</ele>
        <time>2011-10-09T06:19:49Z</time>
      </trkpt>
      <trkpt lat="47.26775" lon="-1.65513">
        <ele>37</ele>
        <time>2011-10-09T06:19:56Z</time>
      </trkpt>
      <trkpt lat="47.26785" lon="-1.65516">
        <ele>36</ele>
        <time>2011-10-09T06:19:59Z</time>
      </trkpt>
      <trkpt lat="47.268" lon="-1.65513">
        <ele>35</ele>
        <time>2011-10-09T06:20:02Z</time>
      </trkpt>
      <trkpt lat="47.26809" lon="-1.65512">
        <ele>34</ele>
        <time>2011-10-09T06:20:04Z</time>
      </trkpt>
      <trkpt lat="47.26842" lon="-1.65537">
        <ele>34</ele>
        <time>2011-10-09T06:20:29Z</time>
      </trkpt>
      <trkpt lat="47.26842" lon="-1.65537">
        <ele>34</ele>
        <time>2011-10-09T06:20:33Z</time>
      </trkpt>
      <trkpt lat="47.26867" lon="-1.65563">
        <ele>35</ele>
        <time>2011-10-09T06:20:49Z</time>
      </trkpt>
      <trkpt lat="47.26892" lon="-1.65587">
        <ele>37</ele>
        <time>2011-10-09T06:20:59Z</time>
      </trkpt>
      <trkpt lat="47.26918" lon="-1.65604">
        <ele>42</ele>
        <time>2011-10-09T06:21:09Z</time>
      </trkpt>
      <trkpt lat="47.26944" lon="-1.65618">
        <ele>43</ele>
        <time>2011-10-09T06:21:26Z</time>
      </trkpt>
      <trkpt lat="47.26944" lon="-1.65618">
        <ele>43</ele>
        <time>2011-10-09T06:21:43Z</time>
      </trkpt>
      <trkpt lat="47.26972" lon="-1.6563">
        <ele>44</ele>
        <time>2011-10-09T06:21:46Z</time>
      </trkpt>
      <trkpt lat="47.26998" lon="-1.65639">
        <ele>45</ele>
        <time>2011-10-09T06:21:53Z</time>
      </trkpt>
      <trkpt lat="47.27027" lon="-1.65647">
        <ele>47</ele>
        <time>2011-10-09T06:22:06Z</time>
      </trkpt>
      <trkpt lat="47.27036" lon="-1.6565">
        <ele>48</ele>
        <time>2011-10-09T06:22:11Z</time>
      </trkpt>
      <trkpt lat="47.27042" lon="-1.65652">
        <ele>48</ele>
        <time>2011-10-09T06:22:13Z</time>
      </trkpt>
      <trkpt lat="47.27037" lon="-1.65655">
        <ele>48</ele>
        <time>2011-10-09T06:22:25Z</time>
      </trkpt>
      <trkpt lat="47.27037" lon="-1.65655">
        <ele>48</ele>
        <time>2011-10-09T06:22:26Z</time>
      </trkpt>
      <trkpt lat="47.27033" lon="-1.657">
        <ele>48</ele>
        <time>2011-10-09T06:22:39Z</time>
      </trkpt>
      <trkpt lat="47.27033" lon="-1.657">
        <ele>48</ele>
        <time>2011-10-09T06:22:52Z</time>
      </trkpt>
      <trkpt lat="47.27025" lon="-1.65719">
        <ele>48</ele>
        <time>2011-10-09T06:22:59Z</time>
      </trkpt>
      <trkpt lat="47.27017" lon="-1.65721">
        <ele>48</ele>
        <time>2011-10-09T06:23:02Z</time>
      </trkpt>
      <trkpt lat="47.26986" lon="-1.65712">
        <ele>45</ele>
        <time>2011-10-09T06:23:11Z</time>
      </trkpt>
      <trkpt lat="47.26972" lon="-1.65704">
        <ele>45</ele>
        <time>2011-10-09T06:23:15Z</time>
      </trkpt>
      <trkpt lat="47.26962" lon="-1.657">
        <ele>45</ele>
        <time>2011-10-09T06:23:18Z</time>
      </trkpt>
      <trkpt lat="47.26956" lon="-1.65699">
        <ele>45</ele>
        <time>2011-10-09T06:23:20Z</time>
      </trkpt>
      <trkpt lat="47.2695" lon="-1.65701">
        <ele>45</ele>
        <time>2011-10-09T06:23:23Z</time>
      </trkpt>
      <trkpt lat="47.26944" lon="-1.65705">
        <ele>44</ele>
        <time>2011-10-09T06:23:26Z</time>
      </trkpt>
      <trkpt lat="47.26934" lon="-1.65707">
        <ele>44</ele>
        <time>2011-10-09T06:23:29Z</time>
      </trkpt>
      <trkpt lat="47.26928" lon="-1.65705">
        <ele>44</ele>
        <time>2011-10-09T06:23:32Z</time>
      </trkpt>
      <trkpt lat="47.26922" lon="-1.65701">
        <ele>44</ele>
        <time>2011-10-09T06:23:38Z</time>
      </trkpt>
      <trkpt lat="47.26918" lon="-1.65697">
        <ele>44</ele>
        <time>2011-10-09T06:23:43Z</time>
      </trkpt>
      <trkpt lat="47.26918" lon="-1.65697">
        <ele>44</ele>
        <time>2011-10-09T06:23:52Z</time>
      </trkpt>
      <trkpt lat="47.26901" lon="-1.65664">
        <ele>39</ele>
        <time>2011-10-09T06:24:06Z</time>
      </trkpt>
      <trkpt lat="47.26901" lon="-1.65644">
        <ele>38</ele>
        <time>2011-10-09T06:24:18Z</time>
      </trkpt>
      <trkpt lat="47.26896" lon="-1.6563">
        <ele>37</ele>
        <time>2011-10-09T06:24:23Z</time>
      </trkpt>
      <trkpt lat="47.26883" lon="-1.65588">
        <ele>37</ele>
        <time>2011-10-09T06:24:35Z</time>
      </trkpt>
      <trkpt lat="47.26876" lon="-1.65576">
        <ele>36</ele>
        <time>2011-10-09T06:24:38Z</time>
      </trkpt>
      <trkpt lat="47.26872" lon="-1.6557">
        <ele>35</ele>
        <time>2011-10-09T06:24:41Z</time>
      </trkpt>
      <trkpt lat="47.26865" lon="-1.65561">
        <ele>35</ele>
        <time>2011-10-09T06:24:44Z</time>
      </trkpt>
      <trkpt lat="47.26858" lon="-1.65552">
        <ele>35</ele>
        <time>2011-10-09T06:24:53Z</time>
      </trkpt>
      <trkpt lat="47.26858" lon="-1.65552">
        <ele>35</ele>
        <time>2011-10-09T06:25:04Z</time>
      </trkpt>
      <trkpt lat="47.26858" lon="-1.65552">
        <ele>35</ele>
        <time>2011-10-09T06:25:24Z</time>
      </trkpt>
      <trkpt lat="47.26881" lon="-1.65608">
        <ele>37</ele>
        <time>2011-10-09T06:25:50Z</time>
      </trkpt>
      <trkpt lat="47.26884" lon="-1.65617">
        <ele>37</ele>
        <time>2011-10-09T06:25:52Z</time>
      </trkpt>
      <trkpt lat="47.26888" lon="-1.65632">
        <ele>37</ele>
        <time>2011-10-09T06:25:56Z</time>
      </trkpt>
      <trkpt lat="47.26891" lon="-1.65672">
        <ele>40</ele>
        <time>2011-10-09T06:26:10Z</time>
      </trkpt>
      <trkpt lat="47.2689" lon="-1.65679">
        <ele>40</ele>
        <time>2011-10-09T06:26:13Z</time>
      </trkpt>
      <trkpt lat="47.2689" lon="-1.65691">
        <ele>40</ele>
        <time>2011-10-09T06:26:16Z</time>
      </trkpt>
      <trkpt lat="47.26891" lon="-1.65699">
        <ele>40</ele>
        <time>2011-10-09T06:26:18Z</time>
      </trkpt>
      <trkpt lat="47.26891" lon="-1.65705">
        <ele>40</ele>
        <time>2011-10-09T06:26:21Z</time>
      </trkpt>
      <trkpt lat="47.26892" lon="-1.6572">
        <ele>41</ele>
        <time>2011-10-09T06:26:27Z</time>
      </trkpt>
      <trkpt lat="47.26893" lon="-1.6573">
        <ele>41</ele>
        <time>2011-10-09T06:26:29Z</time>
      </trkpt>
      <trkpt lat="47.26894" lon="-1.65741">
        <ele>41</ele>
        <time>2011-10-09T06:26:31Z</time>
      </trkpt>
      <trkpt lat="47.26895" lon="-1.65758">
        <ele>44</ele>
        <time>2011-10-09T06:26:34Z</time>
      </trkpt>
      <trkpt lat="47.26893" lon="-1.65777">
        <ele>45</ele>
        <time>2011-10-09T06:26:37Z</time>
      </trkpt>
      <trkpt lat="47.26894" lon="-1.65798">
        <ele>45</ele>
        <time>2011-10-09T06:26:40Z</time>
      </trkpt>
      <trkpt lat="47.26894" lon="-1.65807">
        <ele>46</ele>
        <time>2011-10-09T06:26:42Z</time>
      </trkpt>
      <trkpt lat="47.26894" lon="-1.65816">
        <ele>46</ele>
        <time>2011-10-09T06:26:44Z</time>
      </trkpt>
      <trkpt lat="47.26893" lon="-1.65824">
        <ele>46</ele>
        <time>2011-10-09T06:26:47Z</time>
      </trkpt>
      <trkpt lat="47.26882" lon="-1.65849">
        <ele>49</ele>
        <time>2011-10-09T06:26:54Z</time>
      </trkpt>
      <trkpt lat="47.26877" lon="-1.65855">
        <ele>49</ele>
        <time>2011-10-09T06:26:56Z</time>
      </trkpt>
      <trkpt lat="47.26871" lon="-1.65858">
        <ele>49</ele>
        <time>2011-10-09T06:26:58Z</time>
      </trkpt>
      <trkpt lat="47.26861" lon="-1.65864">
        <ele>49</ele>
        <time>2011-10-09T06:27:01Z</time>
      </trkpt>
      <trkpt lat="47.26854" lon="-1.65868">
        <ele>49</ele>
        <time>2011-10-09T06:27:03Z</time>
      </trkpt>
      <trkpt lat="47.26843" lon="-1.65874">
        <ele>49</ele>
        <time>2011-10-09T06:27:06Z</time>
      </trkpt>
      <trkpt lat="47.26833" lon="-1.65877">
        <ele>49</ele>
        <time>2011-10-09T06:27:09Z</time>
      </trkpt>
      <trkpt lat="47.26833" lon="-1.65877">
        <ele>49</ele>
        <time>2011-10-09T06:27:25Z</time>
      </trkpt>
      <trkpt lat="47.26799" lon="-1.65894">
        <ele>48</ele>
        <time>2011-10-09T06:27:33Z</time>
      </trkpt>
      <trkpt lat="47.26766" lon="-1.659">
        <ele>49</ele>
        <time>2011-10-09T06:27:41Z</time>
      </trkpt>
      <trkpt lat="47.26755" lon="-1.65903">
        <ele>49</ele>
        <time>2011-10-09T06:27:43Z</time>
      </trkpt>
      <trkpt lat="47.26733" lon="-1.65911">
        <ele>49</ele>
        <time>2011-10-09T06:27:46Z</time>
      </trkpt>
      <trkpt lat="47.26714" lon="-1.65917">
        <ele>52</ele>
        <time>2011-10-09T06:27:48Z</time>
      </trkpt>
      <trkpt lat="47.26679" lon="-1.65928">
        <ele>51</ele>
        <time>2011-10-09T06:27:51Z</time>
      </trkpt>
      <trkpt lat="47.26656" lon="-1.65934">
        <ele>47</ele>
        <time>2011-10-09T06:27:53Z</time>
      </trkpt>
      <trkpt lat="47.26637" lon="-1.6594">
        <ele>45</ele>
        <time>2011-10-09T06:27:55Z</time>
      </trkpt>
      <trkpt lat="47.26606" lon="-1.65951">
        <ele>43</ele>
        <time>2011-10-09T06:27:58Z</time>
      </trkpt>
      <trkpt lat="47.26583" lon="-1.65958">
        <ele>36</ele>
        <time>2011-10-09T06:28:01Z</time>
      </trkpt>
      <trkpt lat="47.26571" lon="-1.65952">
        <ele>36</ele>
        <time>2011-10-09T06:28:03Z</time>
      </trkpt>
      <trkpt lat="47.26559" lon="-1.65951">
        <ele>36</ele>
        <time>2011-10-09T06:28:05Z</time>
      </trkpt>
      <trkpt lat="47.26534" lon="-1.65964">
        <ele>35</ele>
        <time>2011-10-09T06:28:08Z</time>
      </trkpt>
      <trkpt lat="47.26527" lon="-1.65984">
        <ele>34</ele>
        <time>2011-10-09T06:28:11Z</time>
      </trkpt>
      <trkpt lat="47.2653" lon="-1.66004">
        <ele>35</ele>
        <time>2011-10-09T06:28:14Z</time>
      </trkpt>
      <trkpt lat="47.26532" lon="-1.66013">
        <ele>35</ele>
        <time>2011-10-09T06:28:16Z</time>
      </trkpt>
      <trkpt lat="47.26539" lon="-1.66023">
        <ele>36</ele>
        <time>2011-10-09T06:28:19Z</time>
      </trkpt>
      <trkpt lat="47.26544" lon="-1.66028">
        <ele>36</ele>
        <time>2011-10-09T06:28:21Z</time>
      </trkpt>
      <trkpt lat="47.26554" lon="-1.66035">
        <ele>37</ele>
        <time>2011-10-09T06:28:24Z</time>
      </trkpt>
      <trkpt lat="47.26565" lon="-1.6604">
        <ele>37</ele>
        <time>2011-10-09T06:28:27Z</time>
      </trkpt>
      <trkpt lat="47.26577" lon="-1.66048">
        <ele>37</ele>
        <time>2011-10-09T06:28:30Z</time>
      </trkpt>
      <trkpt lat="47.26585" lon="-1.6606">
        <ele>41</ele>
        <time>2011-10-09T06:28:32Z</time>
      </trkpt>
      <trkpt lat="47.266" lon="-1.66081">
        <ele>41</ele>
        <time>2011-10-09T06:28:35Z</time>
      </trkpt>
      <trkpt lat="47.26605" lon="-1.6609">
        <ele>41</ele>
        <time>2011-10-09T06:28:37Z</time>
      </trkpt>
      <trkpt lat="47.26608" lon="-1.66095">
        <ele>41</ele>
        <time>2011-10-09T06:28:39Z</time>
      </trkpt>
      <trkpt lat="47.26627" lon="-1.66123">
        <ele>42</ele>
        <time>2011-10-09T06:28:45Z</time>
      </trkpt>
      <trkpt lat="47.26627" lon="-1.66123">
        <ele>42</ele>
        <time>2011-10-09T06:28:49Z</time>
      </trkpt>
      <trkpt lat="47.26651" lon="-1.66149">
        <ele>43</ele>
        <time>2011-10-09T06:28:57Z</time>
      </trkpt>
      <trkpt lat="47.26651" lon="-1.66149">
        <ele>43</ele>
        <time>2011-10-09T06:29:00Z</time>
      </trkpt>
      <trkpt lat="47.26668" lon="-1.66183">
        <ele>46</ele>
        <time>2011-10-09T06:29:13Z</time>
      </trkpt>
      <trkpt lat="47.26683" lon="-1.66217">
        <ele>47</ele>
        <time>2011-10-09T06:29:27Z</time>
      </trkpt>
      <trkpt lat="47.2669" lon="-1.66226">
        <ele>47</ele>
        <time>2011-10-09T06:29:30Z</time>
      </trkpt>
      <trkpt lat="47.26699" lon="-1.66235">
        <ele>48</ele>
        <time>2011-10-09T06:29:36Z</time>
      </trkpt>
      <trkpt lat="47.26709" lon="-1.66243">
        <ele>49</ele>
        <time>2011-10-09T06:29:41Z</time>
      </trkpt>
      <trkpt lat="47.26709" lon="-1.66243">
        <ele>49</ele>
        <time>2011-10-09T06:29:55Z</time>
      </trkpt>
      <trkpt lat="47.26725" lon="-1.66278">
        <ele>49</ele>
        <time>2011-10-09T06:29:58Z</time>
      </trkpt>
      <trkpt lat="47.26747" lon="-1.66303">
        <ele>49</ele>
        <time>2011-10-09T06:30:12Z</time>
      </trkpt>
      <trkpt lat="47.26772" lon="-1.6632">
        <ele>53</ele>
        <time>2011-10-09T06:30:22Z</time>
      </trkpt>
      <trkpt lat="47.268" lon="-1.66334">
        <ele>52</ele>
        <time>2011-10-09T06:30:34Z</time>
      </trkpt>
      <trkpt lat="47.26825" lon="-1.66368">
        <ele>52</ele>
        <time>2011-10-09T06:30:43Z</time>
      </trkpt>
      <trkpt lat="47.26843" lon="-1.66397">
        <ele>54</ele>
        <time>2011-10-09T06:30:46Z</time>
      </trkpt>
      <trkpt lat="47.26853" lon="-1.66418">
        <ele>53</ele>
        <time>2011-10-09T06:30:48Z</time>
      </trkpt>
      <trkpt lat="47.26866" lon="-1.66448">
        <ele>53</ele>
        <time>2011-10-09T06:30:51Z</time>
      </trkpt>
      <trkpt lat="47.26875" lon="-1.66465">
        <ele>53</ele>
        <time>2011-10-09T06:30:53Z</time>
      </trkpt>
      <trkpt lat="47.2689" lon="-1.66486">
        <ele>54</ele>
        <time>2011-10-09T06:30:56Z</time>
      </trkpt>
      <trkpt lat="47.26909" lon="-1.66497">
        <ele>55</ele>
        <time>2011-10-09T06:30:59Z</time>
      </trkpt>
      <trkpt lat="47.26923" lon="-1.665">
        <ele>55</ele>
        <time>2011-10-09T06:31:01Z</time>
      </trkpt>
      <trkpt lat="47.26945" lon="-1.66505">
        <ele>54</ele>
        <time>2011-10-09T06:31:04Z</time>
      </trkpt>
      <trkpt lat="47.26958" lon="-1.66508">
        <ele>55</ele>
        <time>2011-10-09T06:31:06Z</time>
      </trkpt>
      <trkpt lat="47.26976" lon="-1.6651">
        <ele>55</ele>
        <time>2011-10-09T06:31:09Z</time>
      </trkpt>
      <trkpt lat="47.26988" lon="-1.66508">
        <ele>56</ele>
        <time>2011-10-09T06:31:11Z</time>
      </trkpt>
      <trkpt lat="47.27005" lon="-1.66507">
        <ele>57</ele>
        <time>2011-10-09T06:31:14Z</time>
      </trkpt>
      <trkpt lat="47.27016" lon="-1.66509">
        <ele>57</ele>
        <time>2011-10-09T06:31:16Z</time>
      </trkpt>
      <trkpt lat="47.27027" lon="-1.66511">
        <ele>57</ele>
        <time>2011-10-09T06:31:18Z</time>
      </trkpt>
      <trkpt lat="47.27041" lon="-1.6652">
        <ele>57</ele>
        <time>2011-10-09T06:31:21Z</time>
      </trkpt>
      <trkpt lat="47.2705" lon="-1.66526">
        <ele>57</ele>
        <time>2011-10-09T06:31:23Z</time>
      </trkpt>
      <trkpt lat="47.27065" lon="-1.66534">
        <ele>57</ele>
        <time>2011-10-09T06:31:26Z</time>
      </trkpt>
      <trkpt lat="47.27079" lon="-1.66542">
        <ele>57</ele>
        <time>2011-10-09T06:31:29Z</time>
      </trkpt>
      <trkpt lat="47.27089" lon="-1.66547">
        <ele>58</ele>
        <time>2011-10-09T06:31:31Z</time>
      </trkpt>
      <trkpt lat="47.27104" lon="-1.66555">
        <ele>58</ele>
        <time>2011-10-09T06:31:34Z</time>
      </trkpt>
      <trkpt lat="47.27119" lon="-1.66566">
        <ele>59</ele>
        <time>2011-10-09T06:31:37Z</time>
      </trkpt>
      <trkpt lat="47.27129" lon="-1.66574">
        <ele>59</ele>
        <time>2011-10-09T06:31:39Z</time>
      </trkpt>
      <trkpt lat="47.27139" lon="-1.66581">
        <ele>59</ele>
        <time>2011-10-09T06:31:41Z</time>
      </trkpt>
      <trkpt lat="47.27152" lon="-1.66591">
        <ele>59</ele>
        <time>2011-10-09T06:31:44Z</time>
      </trkpt>
      <trkpt lat="47.2716" lon="-1.66597">
        <ele>59</ele>
        <time>2011-10-09T06:31:46Z</time>
      </trkpt>
      <trkpt lat="47.27171" lon="-1.66604">
        <ele>60</ele>
        <time>2011-10-09T06:31:49Z</time>
      </trkpt>
      <trkpt lat="47.27178" lon="-1.66608">
        <ele>60</ele>
        <time>2011-10-09T06:31:51Z</time>
      </trkpt>
      <trkpt lat="47.27189" lon="-1.66614">
        <ele>61</ele>
        <time>2011-10-09T06:31:54Z</time>
      </trkpt>
      <trkpt lat="47.27197" lon="-1.66617">
        <ele>61</ele>
        <time>2011-10-09T06:31:56Z</time>
      </trkpt>
      <trkpt lat="47.2721" lon="-1.66622">
        <ele>61</ele>
        <time>2011-10-09T06:31:59Z</time>
      </trkpt>
      <trkpt lat="47.27223" lon="-1.66625">
        <ele>61</ele>
        <time>2011-10-09T06:32:02Z</time>
      </trkpt>
      <trkpt lat="47.27231" lon="-1.66627">
        <ele>61</ele>
        <time>2011-10-09T06:32:04Z</time>
      </trkpt>
      <trkpt lat="47.27239" lon="-1.66629">
        <ele>61</ele>
        <time>2011-10-09T06:32:06Z</time>
      </trkpt>
      <trkpt lat="47.27251" lon="-1.66631">
        <ele>62</ele>
        <time>2011-10-09T06:32:09Z</time>
      </trkpt>
      <trkpt lat="47.27262" lon="-1.66631">
        <ele>62</ele>
        <time>2011-10-09T06:32:12Z</time>
      </trkpt>
      <trkpt lat="47.27272" lon="-1.66633">
        <ele>62</ele>
        <time>2011-10-09T06:32:15Z</time>
      </trkpt>
      <trkpt lat="47.27283" lon="-1.66634">
        <ele>62</ele>
        <time>2011-10-09T06:32:18Z</time>
      </trkpt>
      <trkpt lat="47.27295" lon="-1.66626">
        <ele>61</ele>
        <time>2011-10-09T06:32:21Z</time>
      </trkpt>
      <trkpt lat="47.27301" lon="-1.66618">
        <ele>62</ele>
        <time>2011-10-09T06:32:23Z</time>
      </trkpt>
      <trkpt lat="47.27305" lon="-1.66599">
        <ele>62</ele>
        <time>2011-10-09T06:32:26Z</time>
      </trkpt>
      <trkpt lat="47.27309" lon="-1.6658">
        <ele>62</ele>
        <time>2011-10-09T06:32:29Z</time>
      </trkpt>
      <trkpt lat="47.2731" lon="-1.66566">
        <ele>62</ele>
        <time>2011-10-09T06:32:31Z</time>
      </trkpt>
      <trkpt lat="47.27312" lon="-1.66553">
        <ele>62</ele>
        <time>2011-10-09T06:32:33Z</time>
      </trkpt>
      <trkpt lat="47.27314" lon="-1.66533">
        <ele>62</ele>
        <time>2011-10-09T06:32:36Z</time>
      </trkpt>
      <trkpt lat="47.27315" lon="-1.66513">
        <ele>62</ele>
        <time>2011-10-09T06:32:39Z</time>
      </trkpt>
      <trkpt lat="47.27316" lon="-1.66494">
        <ele>63</ele>
        <time>2011-10-09T06:32:42Z</time>
      </trkpt>
      <trkpt lat="47.27317" lon="-1.66479">
        <ele>63</ele>
        <time>2011-10-09T06:32:44Z</time>
      </trkpt>
      <trkpt lat="47.27319" lon="-1.66457">
        <ele>63</ele>
        <time>2011-10-09T06:32:47Z</time>
      </trkpt>
      <trkpt lat="47.2732" lon="-1.66442">
        <ele>64</ele>
        <time>2011-10-09T06:32:49Z</time>
      </trkpt>
      <trkpt lat="47.27321" lon="-1.66427">
        <ele>64</ele>
        <time>2011-10-09T06:32:51Z</time>
      </trkpt>
      <trkpt lat="47.27324" lon="-1.66401">
        <ele>64</ele>
        <time>2011-10-09T06:32:54Z</time>
      </trkpt>
      <trkpt lat="47.27326" lon="-1.6637">
        <ele>63</ele>
        <time>2011-10-09T06:32:57Z</time>
      </trkpt>
      <trkpt lat="47.27329" lon="-1.66339">
        <ele>63</ele>
        <time>2011-10-09T06:33:00Z</time>
      </trkpt>
      <trkpt lat="47.2733" lon="-1.66319">
        <ele>62</ele>
        <time>2011-10-09T06:33:02Z</time>
      </trkpt>
      <trkpt lat="47.27333" lon="-1.6629">
        <ele>63</ele>
        <time>2011-10-09T06:33:05Z</time>
      </trkpt>
      <trkpt lat="47.27337" lon="-1.66261">
        <ele>62</ele>
        <time>2011-10-09T06:33:08Z</time>
      </trkpt>
      <trkpt lat="47.27342" lon="-1.66231">
        <ele>62</ele>
        <time>2011-10-09T06:33:11Z</time>
      </trkpt>
      <trkpt lat="47.27346" lon="-1.6621">
        <ele>62</ele>
        <time>2011-10-09T06:33:13Z</time>
      </trkpt>
      <trkpt lat="47.27351" lon="-1.6619">
        <ele>62</ele>
        <time>2011-10-09T06:33:15Z</time>
      </trkpt>
      <trkpt lat="47.27356" lon="-1.66171">
        <ele>62</ele>
        <time>2011-10-09T06:33:17Z</time>
      </trkpt>
      <trkpt lat="47.27366" lon="-1.66143">
        <ele>62</ele>
        <time>2011-10-09T06:33:20Z</time>
      </trkpt>
      <trkpt lat="47.27373" lon="-1.66125">
        <ele>62</ele>
        <time>2011-10-09T06:33:22Z</time>
      </trkpt>
      <trkpt lat="47.27383" lon="-1.66097">
        <ele>62</ele>
        <time>2011-10-09T06:33:25Z</time>
      </trkpt>
      <trkpt lat="47.27389" lon="-1.66078">
        <ele>62</ele>
        <time>2011-10-09T06:33:27Z</time>
      </trkpt>
      <trkpt lat="47.27396" lon="-1.66051">
        <ele>62</ele>
        <time>2011-10-09T06:33:30Z</time>
      </trkpt>
      <trkpt lat="47.27401" lon="-1.66034">
        <ele>62</ele>
        <time>2011-10-09T06:33:32Z</time>
      </trkpt>
      <trkpt lat="47.27407" lon="-1.66017">
        <ele>62</ele>
        <time>2011-10-09T06:33:34Z</time>
      </trkpt>
      <trkpt lat="47.27412" lon="-1.65999">
        <ele>63</ele>
        <time>2011-10-09T06:33:36Z</time>
      </trkpt>
      <trkpt lat="47.27418" lon="-1.65981">
        <ele>64</ele>
        <time>2011-10-09T06:33:38Z</time>
      </trkpt>
      <trkpt lat="47.2743" lon="-1.65959">
        <ele>64</ele>
        <time>2011-10-09T06:33:41Z</time>
      </trkpt>
      <trkpt lat="47.27438" lon="-1.65948">
        <ele>65</ele>
        <time>2011-10-09T06:33:43Z</time>
      </trkpt>
      <trkpt lat="47.27449" lon="-1.65933">
        <ele>65</ele>
        <time>2011-10-09T06:33:46Z</time>
      </trkpt>
      <trkpt lat="47.27459" lon="-1.65915">
        <ele>65</ele>
        <time>2011-10-09T06:33:49Z</time>
      </trkpt>
      <trkpt lat="47.27467" lon="-1.65905">
        <ele>65</ele>
        <time>2011-10-09T06:33:51Z</time>
      </trkpt>
      <trkpt lat="47.27485" lon="-1.65902">
        <ele>65</ele>
        <time>2011-10-09T06:33:54Z</time>
      </trkpt>
      <trkpt lat="47.27494" lon="-1.65897">
        <ele>65</ele>
        <time>2011-10-09T06:33:56Z</time>
      </trkpt>
      <trkpt lat="47.27504" lon="-1.65895">
        <ele>66</ele>
        <time>2011-10-09T06:33:58Z</time>
      </trkpt>
      <trkpt lat="47.2752" lon="-1.65888">
        <ele>66</ele>
        <time>2011-10-09T06:34:01Z</time>
      </trkpt>
      <trkpt lat="47.27531" lon="-1.65883">
        <ele>66</ele>
        <time>2011-10-09T06:34:03Z</time>
      </trkpt>
      <trkpt lat="47.27548" lon="-1.65877">
        <ele>66</ele>
        <time>2011-10-09T06:34:06Z</time>
      </trkpt>
      <trkpt lat="47.27565" lon="-1.65867">
        <ele>66</ele>
        <time>2011-10-09T06:34:09Z</time>
      </trkpt>
      <trkpt lat="47.27583" lon="-1.65858">
        <ele>65</ele>
        <time>2011-10-09T06:34:12Z</time>
      </trkpt>
      <trkpt lat="47.27602" lon="-1.65855">
        <ele>65</ele>
        <time>2011-10-09T06:34:15Z</time>
      </trkpt>
      <trkpt lat="47.27621" lon="-1.65859">
        <ele>65</ele>
        <time>2011-10-09T06:34:18Z</time>
      </trkpt>
      <trkpt lat="47.27631" lon="-1.65862">
        <ele>65</ele>
        <time>2011-10-09T06:34:20Z</time>
      </trkpt>
      <trkpt lat="47.27647" lon="-1.65866">
        <ele>65</ele>
        <time>2011-10-09T06:34:23Z</time>
      </trkpt>
      <trkpt lat="47.27658" lon="-1.65872">
        <ele>65</ele>
        <time>2011-10-09T06:34:25Z</time>
      </trkpt>
      <trkpt lat="47.2767" lon="-1.65879">
        <ele>65</ele>
        <time>2011-10-09T06:34:27Z</time>
      </trkpt>
      <trkpt lat="47.27689" lon="-1.65888">
        <ele>65</ele>
        <time>2011-10-09T06:34:30Z</time>
      </trkpt>
      <trkpt lat="47.27701" lon="-1.65893">
        <ele>65</ele>
        <time>2011-10-09T06:34:32Z</time>
      </trkpt>
      <trkpt lat="47.27718" lon="-1.659">
        <ele>65</ele>
        <time>2011-10-09T06:34:35Z</time>
      </trkpt>
      <trkpt lat="47.27735" lon="-1.65908">
        <ele>65</ele>
        <time>2011-10-09T06:34:38Z</time>
      </trkpt>
      <trkpt lat="47.27751" lon="-1.65915">
        <ele>65</ele>
        <time>2011-10-09T06:34:41Z</time>
      </trkpt>
      <trkpt lat="47.27767" lon="-1.65929">
        <ele>65</ele>
        <time>2011-10-09T06:34:44Z</time>
      </trkpt>
      <trkpt lat="47.27779" lon="-1.6594">
        <ele>66</ele>
        <time>2011-10-09T06:34:46Z</time>
      </trkpt>
      <trkpt lat="47.27799" lon="-1.65952">
        <ele>66</ele>
        <time>2011-10-09T06:34:49Z</time>
      </trkpt>
      <trkpt lat="47.27811" lon="-1.65959">
        <ele>66</ele>
        <time>2011-10-09T06:34:51Z</time>
      </trkpt>
      <trkpt lat="47.27824" lon="-1.65965">
        <ele>66</ele>
        <time>2011-10-09T06:34:53Z</time>
      </trkpt>
      <trkpt lat="47.27844" lon="-1.65973">
        <ele>65</ele>
        <time>2011-10-09T06:34:56Z</time>
      </trkpt>
      <trkpt lat="47.27856" lon="-1.65978">
        <ele>65</ele>
        <time>2011-10-09T06:34:58Z</time>
      </trkpt>
      <trkpt lat="47.27869" lon="-1.65983">
        <ele>65</ele>
        <time>2011-10-09T06:35:00Z</time>
      </trkpt>
      <trkpt lat="47.27888" lon="-1.65992">
        <ele>65</ele>
        <time>2011-10-09T06:35:03Z</time>
      </trkpt>
      <trkpt lat="47.27907" lon="-1.66">
        <ele>65</ele>
        <time>2011-10-09T06:35:06Z</time>
      </trkpt>
      <trkpt lat="47.27919" lon="-1.65991">
        <ele>65</ele>
        <time>2011-10-09T06:35:09Z</time>
      </trkpt>
      <trkpt lat="47.27923" lon="-1.65977">
        <ele>64</ele>
        <time>2011-10-09T06:35:11Z</time>
      </trkpt>
      <trkpt lat="47.27924" lon="-1.6596">
        <ele>64</ele>
        <time>2011-10-09T06:35:13Z</time>
      </trkpt>
      <trkpt lat="47.27924" lon="-1.65943">
        <ele>64</ele>
        <time>2011-10-09T06:35:15Z</time>
      </trkpt>
      <trkpt lat="47.27922" lon="-1.65914">
        <ele>65</ele>
        <time>2011-10-09T06:35:18Z</time>
      </trkpt>
      <trkpt lat="47.27919" lon="-1.65892">
        <ele>64</ele>
        <time>2011-10-09T06:35:20Z</time>
      </trkpt>
      <trkpt lat="47.27915" lon="-1.65856">
        <ele>64</ele>
        <time>2011-10-09T06:35:23Z</time>
      </trkpt>
      <trkpt lat="47.27913" lon="-1.65822">
        <ele>64</ele>
        <time>2011-10-09T06:35:26Z</time>
      </trkpt>
      <trkpt lat="47.27913" lon="-1.65788">
        <ele>63</ele>
        <time>2011-10-09T06:35:29Z</time>
      </trkpt>
      <trkpt lat="47.27911" lon="-1.65756">
        <ele>63</ele>
        <time>2011-10-09T06:35:32Z</time>
      </trkpt>
      <trkpt lat="47.27911" lon="-1.65722">
        <ele>62</ele>
        <time>2011-10-09T06:35:35Z</time>
      </trkpt>
      <trkpt lat="47.27913" lon="-1.65687">
        <ele>62</ele>
        <time>2011-10-09T06:35:38Z</time>
      </trkpt>
      <trkpt lat="47.27915" lon="-1.65665">
        <ele>62</ele>
        <time>2011-10-09T06:35:40Z</time>
      </trkpt>
      <trkpt lat="47.27917" lon="-1.65633">
        <ele>61</ele>
        <time>2011-10-09T06:35:43Z</time>
      </trkpt>
      <trkpt lat="47.27917" lon="-1.65614">
        <ele>61</ele>
        <time>2011-10-09T06:35:45Z</time>
      </trkpt>
      <trkpt lat="47.27915" lon="-1.65585">
        <ele>61</ele>
        <time>2011-10-09T06:35:48Z</time>
      </trkpt>
      <trkpt lat="47.27913" lon="-1.65565">
        <ele>61</ele>
        <time>2011-10-09T06:35:50Z</time>
      </trkpt>
      <trkpt lat="47.27909" lon="-1.65534">
        <ele>61</ele>
        <time>2011-10-09T06:35:53Z</time>
      </trkpt>
      <trkpt lat="47.27901" lon="-1.65504">
        <ele>61</ele>
        <time>2011-10-09T06:35:56Z</time>
      </trkpt>
      <trkpt lat="47.27891" lon="-1.65477">
        <ele>60</ele>
        <time>2011-10-09T06:35:59Z</time>
      </trkpt>
      <trkpt lat="47.27878" lon="-1.65459">
        <ele>60</ele>
        <time>2011-10-09T06:36:02Z</time>
      </trkpt>
      <trkpt lat="47.27867" lon="-1.65455">
        <ele>60</ele>
        <time>2011-10-09T06:36:04Z</time>
      </trkpt>
      <trkpt lat="47.27855" lon="-1.65453">
        <ele>60</ele>
        <time>2011-10-09T06:36:06Z</time>
      </trkpt>
      <trkpt lat="47.27843" lon="-1.65451">
        <ele>60</ele>
        <time>2011-10-09T06:36:08Z</time>
      </trkpt>
      <trkpt lat="47.27826" lon="-1.6545">
        <ele>60</ele>
        <time>2011-10-09T06:36:11Z</time>
      </trkpt>
      <trkpt lat="47.27809" lon="-1.65448">
        <ele>60</ele>
        <time>2011-10-09T06:36:14Z</time>
      </trkpt>
      <trkpt lat="47.27793" lon="-1.65444">
        <ele>60</ele>
        <time>2011-10-09T06:36:17Z</time>
      </trkpt>
      <trkpt lat="47.27783" lon="-1.6544">
        <ele>60</ele>
        <time>2011-10-09T06:36:19Z</time>
      </trkpt>
      <trkpt lat="47.27772" lon="-1.65436">
        <ele>60</ele>
        <time>2011-10-09T06:36:21Z</time>
      </trkpt>
      <trkpt lat="47.27757" lon="-1.65432">
        <ele>60</ele>
        <time>2011-10-09T06:36:24Z</time>
      </trkpt>
      <trkpt lat="47.27746" lon="-1.6543">
        <ele>60</ele>
        <time>2011-10-09T06:36:26Z</time>
      </trkpt>
      <trkpt lat="47.27729" lon="-1.6542">
        <ele>59</ele>
        <time>2011-10-09T06:36:29Z</time>
      </trkpt>
      <trkpt lat="47.27716" lon="-1.65403">
        <ele>58</ele>
        <time>2011-10-09T06:36:32Z</time>
      </trkpt>
      <trkpt lat="47.2771" lon="-1.65388">
        <ele>58</ele>
        <time>2011-10-09T06:36:34Z</time>
      </trkpt>
      <trkpt lat="47.27704" lon="-1.65375">
        <ele>58</ele>
        <time>2011-10-09T06:36:36Z</time>
      </trkpt>
      <trkpt lat="47.27696" lon="-1.65356">
        <ele>58</ele>
        <time>2011-10-09T06:36:39Z</time>
      </trkpt>
      <trkpt lat="47.27687" lon="-1.65341">
        <ele>58</ele>
        <time>2011-10-09T06:36:42Z</time>
      </trkpt>
      <trkpt lat="47.27683" lon="-1.65338">
        <ele>59</ele>
        <time>2011-10-09T06:36:44Z</time>
      </trkpt>
      <trkpt lat="47.27669" lon="-1.65331">
        <ele>59</ele>
        <time>2011-10-09T06:36:49Z</time>
      </trkpt>
      <trkpt lat="47.27663" lon="-1.65327">
        <ele>59</ele>
        <time>2011-10-09T06:36:51Z</time>
      </trkpt>
      <trkpt lat="47.27656" lon="-1.65321">
        <ele>59</ele>
        <time>2011-10-09T06:36:54Z</time>
      </trkpt>
      <trkpt lat="47.27656" lon="-1.65321">
        <ele>59</ele>
        <time>2011-10-09T06:36:55Z</time>
      </trkpt>
      <trkpt lat="47.27638" lon="-1.65287">
        <ele>60</ele>
        <time>2011-10-09T06:37:11Z</time>
      </trkpt>
      <trkpt lat="47.27638" lon="-1.65287">
        <ele>60</ele>
        <time>2011-10-09T06:37:14Z</time>
      </trkpt>
      <trkpt lat="47.27623" lon="-1.6525">
        <ele>60</ele>
        <time>2011-10-09T06:37:21Z</time>
      </trkpt>
      <trkpt lat="47.27615" lon="-1.65234">
        <ele>63</ele>
        <time>2011-10-09T06:37:23Z</time>
      </trkpt>
      <trkpt lat="47.27604" lon="-1.65214">
        <ele>63</ele>
        <time>2011-10-09T06:37:26Z</time>
      </trkpt>
      <trkpt lat="47.27596" lon="-1.65203">
        <ele>64</ele>
        <time>2011-10-09T06:37:28Z</time>
      </trkpt>
      <trkpt lat="47.27586" lon="-1.65185">
        <ele>64</ele>
        <time>2011-10-09T06:37:31Z</time>
      </trkpt>
      <trkpt lat="47.2758" lon="-1.65173">
        <ele>64</ele>
        <time>2011-10-09T06:37:33Z</time>
      </trkpt>
      <trkpt lat="47.27573" lon="-1.65155">
        <ele>63</ele>
        <time>2011-10-09T06:37:36Z</time>
      </trkpt>
      <trkpt lat="47.27566" lon="-1.65138">
        <ele>62</ele>
        <time>2011-10-09T06:37:39Z</time>
      </trkpt>
      <trkpt lat="47.27558" lon="-1.65118">
        <ele>61</ele>
        <time>2011-10-09T06:37:42Z</time>
      </trkpt>
      <trkpt lat="47.27553" lon="-1.65102">
        <ele>61</ele>
        <time>2011-10-09T06:37:44Z</time>
      </trkpt>
      <trkpt lat="47.27547" lon="-1.65076">
        <ele>61</ele>
        <time>2011-10-09T06:37:47Z</time>
      </trkpt>
      <trkpt lat="47.27543" lon="-1.6505">
        <ele>61</ele>
        <time>2011-10-09T06:37:50Z</time>
      </trkpt>
      <trkpt lat="47.27539" lon="-1.65026">
        <ele>61</ele>
        <time>2011-10-09T06:37:53Z</time>
      </trkpt>
      <trkpt lat="47.27535" lon="-1.65002">
        <ele>61</ele>
        <time>2011-10-09T06:37:56Z</time>
      </trkpt>
      <trkpt lat="47.27531" lon="-1.64978">
        <ele>61</ele>
        <time>2011-10-09T06:37:59Z</time>
      </trkpt>
      <trkpt lat="47.27531" lon="-1.64955">
        <ele>62</ele>
        <time>2011-10-09T06:38:02Z</time>
      </trkpt>
      <trkpt lat="47.27532" lon="-1.64939">
        <ele>62</ele>
        <time>2011-10-09T06:38:04Z</time>
      </trkpt>
      <trkpt lat="47.27531" lon="-1.64916">
        <ele>62</ele>
        <time>2011-10-09T06:38:07Z</time>
      </trkpt>
      <trkpt lat="47.2753" lon="-1.64899">
        <ele>62</ele>
        <time>2011-10-09T06:38:09Z</time>
      </trkpt>
      <trkpt lat="47.27527" lon="-1.64871">
        <ele>62</ele>
        <time>2011-10-09T06:38:12Z</time>
      </trkpt>
      <trkpt lat="47.27532" lon="-1.64845">
        <ele>62</ele>
        <time>2011-10-09T06:38:15Z</time>
      </trkpt>
      <trkpt lat="47.27544" lon="-1.64833">
        <ele>62</ele>
        <time>2011-10-09T06:38:18Z</time>
      </trkpt>
      <trkpt lat="47.27559" lon="-1.64829">
        <ele>62</ele>
        <time>2011-10-09T06:38:21Z</time>
      </trkpt>
      <trkpt lat="47.27576" lon="-1.64829">
        <ele>62</ele>
        <time>2011-10-09T06:38:24Z</time>
      </trkpt>
      <trkpt lat="47.27588" lon="-1.6483">
        <ele>63</ele>
        <time>2011-10-09T06:38:26Z</time>
      </trkpt>
      <trkpt lat="47.27604" lon="-1.6483">
        <ele>63</ele>
        <time>2011-10-09T06:38:29Z</time>
      </trkpt>
      <trkpt lat="47.27615" lon="-1.6483">
        <ele>63</ele>
        <time>2011-10-09T06:38:31Z</time>
      </trkpt>
      <trkpt lat="47.27626" lon="-1.6483">
        <ele>63</ele>
        <time>2011-10-09T06:38:33Z</time>
      </trkpt>
      <trkpt lat="47.27643" lon="-1.64831">
        <ele>63</ele>
        <time>2011-10-09T06:38:36Z</time>
      </trkpt>
      <trkpt lat="47.2766" lon="-1.64833">
        <ele>64</ele>
        <time>2011-10-09T06:38:39Z</time>
      </trkpt>
      <trkpt lat="47.27677" lon="-1.64836">
        <ele>65</ele>
        <time>2011-10-09T06:38:42Z</time>
      </trkpt>
      <trkpt lat="47.27694" lon="-1.64835">
        <ele>66</ele>
        <time>2011-10-09T06:38:45Z</time>
      </trkpt>
      <trkpt lat="47.27712" lon="-1.64829">
        <ele>65</ele>
        <time>2011-10-09T06:38:48Z</time>
      </trkpt>
      <trkpt lat="47.27724" lon="-1.64824">
        <ele>65</ele>
        <time>2011-10-09T06:38:50Z</time>
      </trkpt>
      <trkpt lat="47.27735" lon="-1.64819">
        <ele>66</ele>
        <time>2011-10-09T06:38:52Z</time>
      </trkpt>
      <trkpt lat="47.27753" lon="-1.64812">
        <ele>66</ele>
        <time>2011-10-09T06:38:55Z</time>
      </trkpt>
      <trkpt lat="47.27764" lon="-1.64807">
        <ele>66</ele>
        <time>2011-10-09T06:38:57Z</time>
      </trkpt>
      <trkpt lat="47.27781" lon="-1.64802">
        <ele>66</ele>
        <time>2011-10-09T06:39:00Z</time>
      </trkpt>
      <trkpt lat="47.27799" lon="-1.648">
        <ele>66</ele>
        <time>2011-10-09T06:39:03Z</time>
      </trkpt>
      <trkpt lat="47.27815" lon="-1.64799">
        <ele>66</ele>
        <time>2011-10-09T06:39:06Z</time>
      </trkpt>
      <trkpt lat="47.27826" lon="-1.64799">
        <ele>66</ele>
        <time>2011-10-09T06:39:08Z</time>
      </trkpt>
      <trkpt lat="47.27837" lon="-1.64798">
        <ele>66</ele>
        <time>2011-10-09T06:39:10Z</time>
      </trkpt>
      <trkpt lat="47.27854" lon="-1.64796">
        <ele>66</ele>
        <time>2011-10-09T06:39:13Z</time>
      </trkpt>
      <trkpt lat="47.27865" lon="-1.64791">
        <ele>67</ele>
        <time>2011-10-09T06:39:15Z</time>
      </trkpt>
      <trkpt lat="47.27881" lon="-1.64779">
        <ele>67</ele>
        <time>2011-10-09T06:39:18Z</time>
      </trkpt>
      <trkpt lat="47.27897" lon="-1.64764">
        <ele>67</ele>
        <time>2011-10-09T06:39:21Z</time>
      </trkpt>
      <trkpt lat="47.27908" lon="-1.64755">
        <ele>67</ele>
        <time>2011-10-09T06:39:23Z</time>
      </trkpt>
      <trkpt lat="47.27923" lon="-1.64738">
        <ele>67</ele>
        <time>2011-10-09T06:39:26Z</time>
      </trkpt>
      <trkpt lat="47.2794" lon="-1.64723">
        <ele>67</ele>
        <time>2011-10-09T06:39:29Z</time>
      </trkpt>
      <trkpt lat="47.27958" lon="-1.64713">
        <ele>67</ele>
        <time>2011-10-09T06:39:32Z</time>
      </trkpt>
      <trkpt lat="47.2797" lon="-1.64707">
        <ele>66</ele>
        <time>2011-10-09T06:39:34Z</time>
      </trkpt>
      <trkpt lat="47.27989" lon="-1.64699">
        <ele>66</ele>
        <time>2011-10-09T06:39:37Z</time>
      </trkpt>
      <trkpt lat="47.28008" lon="-1.6469">
        <ele>66</ele>
        <time>2011-10-09T06:39:40Z</time>
      </trkpt>
      <trkpt lat="47.2802" lon="-1.64682">
        <ele>66</ele>
        <time>2011-10-09T06:39:42Z</time>
      </trkpt>
      <trkpt lat="47.28032" lon="-1.64674">
        <ele>65</ele>
        <time>2011-10-09T06:39:44Z</time>
      </trkpt>
      <trkpt lat="47.2805" lon="-1.64661">
        <ele>65</ele>
        <time>2011-10-09T06:39:47Z</time>
      </trkpt>
      <trkpt lat="47.28062" lon="-1.64652">
        <ele>65</ele>
        <time>2011-10-09T06:39:49Z</time>
      </trkpt>
      <trkpt lat="47.28075" lon="-1.64644">
        <ele>65</ele>
        <time>2011-10-09T06:39:51Z</time>
      </trkpt>
      <trkpt lat="47.28094" lon="-1.64631">
        <ele>66</ele>
        <time>2011-10-09T06:39:54Z</time>
      </trkpt>
      <trkpt lat="47.28107" lon="-1.64624">
        <ele>66</ele>
        <time>2011-10-09T06:39:56Z</time>
      </trkpt>
      <trkpt lat="47.28125" lon="-1.64611">
        <ele>66</ele>
        <time>2011-10-09T06:39:59Z</time>
      </trkpt>
      <trkpt lat="47.28136" lon="-1.64603">
        <ele>66</ele>
        <time>2011-10-09T06:40:01Z</time>
      </trkpt>
      <trkpt lat="47.28147" lon="-1.64594">
        <ele>67</ele>
        <time>2011-10-09T06:40:03Z</time>
      </trkpt>
      <trkpt lat="47.28165" lon="-1.64586">
        <ele>68</ele>
        <time>2011-10-09T06:40:06Z</time>
      </trkpt>
      <trkpt lat="47.28182" lon="-1.64575">
        <ele>68</ele>
        <time>2011-10-09T06:40:09Z</time>
      </trkpt>
      <trkpt lat="47.28198" lon="-1.64562">
        <ele>68</ele>
        <time>2011-10-09T06:40:12Z</time>
      </trkpt>
      <trkpt lat="47.28207" lon="-1.64554">
        <ele>68</ele>
        <time>2011-10-09T06:40:14Z</time>
      </trkpt>
      <trkpt lat="47.28214" lon="-1.64546">
        <ele>68</ele>
        <time>2011-10-09T06:40:16Z</time>
      </trkpt>
      <trkpt lat="47.28225" lon="-1.64535">
        <ele>68</ele>
        <time>2011-10-09T06:40:19Z</time>
      </trkpt>
      <trkpt lat="47.28234" lon="-1.64527">
        <ele>68</ele>
        <time>2011-10-09T06:40:21Z</time>
      </trkpt>
      <trkpt lat="47.28249" lon="-1.64511">
        <ele>68</ele>
        <time>2011-10-09T06:40:24Z</time>
      </trkpt>
      <trkpt lat="47.28263" lon="-1.64494">
        <ele>68</ele>
        <time>2011-10-09T06:40:27Z</time>
      </trkpt>
      <trkpt lat="47.2827" lon="-1.6448">
        <ele>68</ele>
        <time>2011-10-09T06:40:29Z</time>
      </trkpt>
      <trkpt lat="47.28282" lon="-1.64459">
        <ele>68</ele>
        <time>2011-10-09T06:40:32Z</time>
      </trkpt>
      <trkpt lat="47.2829" lon="-1.64445">
        <ele>68</ele>
        <time>2011-10-09T06:40:34Z</time>
      </trkpt>
      <trkpt lat="47.28301" lon="-1.64425">
        <ele>68</ele>
        <time>2011-10-09T06:40:37Z</time>
      </trkpt>
      <trkpt lat="47.28309" lon="-1.64413">
        <ele>68</ele>
        <time>2011-10-09T06:40:39Z</time>
      </trkpt>
      <trkpt lat="47.2832" lon="-1.64395">
        <ele>68</ele>
        <time>2011-10-09T06:40:42Z</time>
      </trkpt>
      <trkpt lat="47.28327" lon="-1.64382">
        <ele>68</ele>
        <time>2011-10-09T06:40:44Z</time>
      </trkpt>
      <trkpt lat="47.28336" lon="-1.6436">
        <ele>67</ele>
        <time>2011-10-09T06:40:47Z</time>
      </trkpt>
      <trkpt lat="47.2834" lon="-1.64343">
        <ele>67</ele>
        <time>2011-10-09T06:40:49Z</time>
      </trkpt>
      <trkpt lat="47.28347" lon="-1.64317">
        <ele>66</ele>
        <time>2011-10-09T06:40:52Z</time>
      </trkpt>
      <trkpt lat="47.28351" lon="-1.643">
        <ele>66</ele>
        <time>2011-10-09T06:40:54Z</time>
      </trkpt>
      <trkpt lat="47.2836" lon="-1.64275">
        <ele>66</ele>
        <time>2011-10-09T06:40:57Z</time>
      </trkpt>
      <trkpt lat="47.28368" lon="-1.64249">
        <ele>67</ele>
        <time>2011-10-09T06:41:00Z</time>
      </trkpt>
      <trkpt lat="47.28375" lon="-1.64222">
        <ele>67</ele>
        <time>2011-10-09T06:41:03Z</time>
      </trkpt>
      <trkpt lat="47.28382" lon="-1.64197">
        <ele>67</ele>
        <time>2011-10-09T06:41:06Z</time>
      </trkpt>
      <trkpt lat="47.28386" lon="-1.64179">
        <ele>67</ele>
        <time>2011-10-09T06:41:08Z</time>
      </trkpt>
      <trkpt lat="47.28391" lon="-1.64162">
        <ele>68</ele>
        <time>2011-10-09T06:41:10Z</time>
      </trkpt>
      <trkpt lat="47.28397" lon="-1.64145">
        <ele>68</ele>
        <time>2011-10-09T06:41:12Z</time>
      </trkpt>
      <trkpt lat="47.28404" lon="-1.64119">
        <ele>68</ele>
        <time>2011-10-09T06:41:15Z</time>
      </trkpt>
      <trkpt lat="47.28412" lon="-1.64095">
        <ele>68</ele>
        <time>2011-10-09T06:41:18Z</time>
      </trkpt>
      <trkpt lat="47.28417" lon="-1.64079">
        <ele>68</ele>
        <time>2011-10-09T06:41:20Z</time>
      </trkpt>
      <trkpt lat="47.28424" lon="-1.64055">
        <ele>68</ele>
        <time>2011-10-09T06:41:23Z</time>
      </trkpt>
      <trkpt lat="47.28431" lon="-1.64032">
        <ele>68</ele>
        <time>2011-10-09T06:41:26Z</time>
      </trkpt>
      <trkpt lat="47.28436" lon="-1.64016">
        <ele>68</ele>
        <time>2011-10-09T06:41:28Z</time>
      </trkpt>
      <trkpt lat="47.2844" lon="-1.64001">
        <ele>68</ele>
        <time>2011-10-09T06:41:30Z</time>
      </trkpt>
      <trkpt lat="47.28445" lon="-1.63977">
        <ele>69</ele>
        <time>2011-10-09T06:41:33Z</time>
      </trkpt>
      <trkpt lat="47.2845" lon="-1.63953">
        <ele>69</ele>
        <time>2011-10-09T06:41:36Z</time>
      </trkpt>
      <trkpt lat="47.28455" lon="-1.63929">
        <ele>70</ele>
        <time>2011-10-09T06:41:39Z</time>
      </trkpt>
      <trkpt lat="47.2846" lon="-1.63906">
        <ele>70</ele>
        <time>2011-10-09T06:41:42Z</time>
      </trkpt>
      <trkpt lat="47.28464" lon="-1.6389">
        <ele>70</ele>
        <time>2011-10-09T06:41:44Z</time>
      </trkpt>
      <trkpt lat="47.28469" lon="-1.63866">
        <ele>70</ele>
        <time>2011-10-09T06:41:47Z</time>
      </trkpt>
      <trkpt lat="47.28474" lon="-1.63842">
        <ele>70</ele>
        <time>2011-10-09T06:41:50Z</time>
      </trkpt>
      <trkpt lat="47.28477" lon="-1.63826">
        <ele>68</ele>
        <time>2011-10-09T06:41:52Z</time>
      </trkpt>
      <trkpt lat="47.28479" lon="-1.6381">
        <ele>68</ele>
        <time>2011-10-09T06:41:54Z</time>
      </trkpt>
      <trkpt lat="47.28465" lon="-1.63786">
        <ele>67</ele>
        <time>2011-10-09T06:41:57Z</time>
      </trkpt>
      <trkpt lat="47.28454" lon="-1.63771">
        <ele>67</ele>
        <time>2011-10-09T06:41:59Z</time>
      </trkpt>
      <trkpt lat="47.28437" lon="-1.63751">
        <ele>66</ele>
        <time>2011-10-09T06:42:02Z</time>
      </trkpt>
      <trkpt lat="47.28416" lon="-1.63732">
        <ele>63</ele>
        <time>2011-10-09T06:42:05Z</time>
      </trkpt>
      <trkpt lat="47.28396" lon="-1.63717">
        <ele>63</ele>
        <time>2011-10-09T06:42:08Z</time>
      </trkpt>
      <trkpt lat="47.28377" lon="-1.63702">
        <ele>63</ele>
        <time>2011-10-09T06:42:11Z</time>
      </trkpt>
      <trkpt lat="47.28357" lon="-1.63688">
        <ele>63</ele>
        <time>2011-10-09T06:42:14Z</time>
      </trkpt>
      <trkpt lat="47.28344" lon="-1.6368">
        <ele>62</ele>
        <time>2011-10-09T06:42:16Z</time>
      </trkpt>
      <trkpt lat="47.28323" lon="-1.63669">
        <ele>63</ele>
        <time>2011-10-09T06:42:19Z</time>
      </trkpt>
      <trkpt lat="47.2831" lon="-1.63662">
        <ele>62</ele>
        <time>2011-10-09T06:42:21Z</time>
      </trkpt>
      <trkpt lat="47.28291" lon="-1.63648">
        <ele>63</ele>
        <time>2011-10-09T06:42:24Z</time>
      </trkpt>
      <trkpt lat="47.28279" lon="-1.63638">
        <ele>63</ele>
        <time>2011-10-09T06:42:26Z</time>
      </trkpt>
      <trkpt lat="47.28261" lon="-1.63618">
        <ele>63</ele>
        <time>2011-10-09T06:42:29Z</time>
      </trkpt>
      <trkpt lat="47.28251" lon="-1.63603">
        <ele>62</ele>
        <time>2011-10-09T06:42:31Z</time>
      </trkpt>
      <trkpt lat="47.28236" lon="-1.63578">
        <ele>62</ele>
        <time>2011-10-09T06:42:34Z</time>
      </trkpt>
      <trkpt lat="47.28227" lon="-1.63559">
        <ele>62</ele>
        <time>2011-10-09T06:42:36Z</time>
      </trkpt>
      <trkpt lat="47.28214" lon="-1.63531">
        <ele>62</ele>
        <time>2011-10-09T06:42:39Z</time>
      </trkpt>
      <trkpt lat="47.28201" lon="-1.63503">
        <ele>62</ele>
        <time>2011-10-09T06:42:42Z</time>
      </trkpt>
      <trkpt lat="47.28194" lon="-1.63484">
        <ele>62</ele>
        <time>2011-10-09T06:42:44Z</time>
      </trkpt>
      <trkpt lat="47.28185" lon="-1.63455">
        <ele>61</ele>
        <time>2011-10-09T06:42:47Z</time>
      </trkpt>
      <trkpt lat="47.28177" lon="-1.63428">
        <ele>61</ele>
        <time>2011-10-09T06:42:50Z</time>
      </trkpt>
      <trkpt lat="47.28172" lon="-1.63411">
        <ele>61</ele>
        <time>2011-10-09T06:42:52Z</time>
      </trkpt>
      <trkpt lat="47.28166" lon="-1.63394">
        <ele>61</ele>
        <time>2011-10-09T06:42:54Z</time>
      </trkpt>
      <trkpt lat="47.28156" lon="-1.6337">
        <ele>62</ele>
        <time>2011-10-09T06:42:57Z</time>
      </trkpt>
      <trkpt lat="47.28149" lon="-1.63355">
        <ele>62</ele>
        <time>2011-10-09T06:42:59Z</time>
      </trkpt>
      <trkpt lat="47.28138" lon="-1.63333">
        <ele>62</ele>
        <time>2011-10-09T06:43:02Z</time>
      </trkpt>
      <trkpt lat="47.28127" lon="-1.63311">
        <ele>61</ele>
        <time>2011-10-09T06:43:05Z</time>
      </trkpt>
      <trkpt lat="47.28115" lon="-1.63288">
        <ele>61</ele>
        <time>2011-10-09T06:43:08Z</time>
      </trkpt>
      <trkpt lat="47.28108" lon="-1.63273">
        <ele>61</ele>
        <time>2011-10-09T06:43:10Z</time>
      </trkpt>
      <trkpt lat="47.28101" lon="-1.63256">
        <ele>61</ele>
        <time>2011-10-09T06:43:12Z</time>
      </trkpt>
      <trkpt lat="47.28092" lon="-1.63231">
        <ele>60</ele>
        <time>2011-10-09T06:43:15Z</time>
      </trkpt>
      <trkpt lat="47.28084" lon="-1.63204">
        <ele>59</ele>
        <time>2011-10-09T06:43:18Z</time>
      </trkpt>
      <trkpt lat="47.28076" lon="-1.63175">
        <ele>59</ele>
        <time>2011-10-09T06:43:21Z</time>
      </trkpt>
      <trkpt lat="47.28068" lon="-1.63146">
        <ele>58</ele>
        <time>2011-10-09T06:43:24Z</time>
      </trkpt>
      <trkpt lat="47.28057" lon="-1.63118">
        <ele>58</ele>
        <time>2011-10-09T06:43:27Z</time>
      </trkpt>
      <trkpt lat="47.28044" lon="-1.63092">
        <ele>57</ele>
        <time>2011-10-09T06:43:30Z</time>
      </trkpt>
      <trkpt lat="47.28044" lon="-1.63075">
        <ele>58</ele>
        <time>2011-10-09T06:43:32Z</time>
      </trkpt>
      <trkpt lat="47.28051" lon="-1.63062">
        <ele>58</ele>
        <time>2011-10-09T06:43:35Z</time>
      </trkpt>
      <trkpt lat="47.28056" lon="-1.63049">
        <ele>58</ele>
        <time>2011-10-09T06:43:37Z</time>
      </trkpt>
      <trkpt lat="47.28064" lon="-1.63032">
        <ele>59</ele>
        <time>2011-10-09T06:43:39Z</time>
      </trkpt>
      <trkpt lat="47.28072" lon="-1.63011">
        <ele>60</ele>
        <time>2011-10-09T06:43:42Z</time>
      </trkpt>
      <trkpt lat="47.28083" lon="-1.62981">
        <ele>60</ele>
        <time>2011-10-09T06:43:45Z</time>
      </trkpt>
      <trkpt lat="47.28093" lon="-1.62949">
        <ele>58</ele>
        <time>2011-10-09T06:43:48Z</time>
      </trkpt>
      <trkpt lat="47.28108" lon="-1.62921">
        <ele>58</ele>
        <time>2011-10-09T06:43:51Z</time>
      </trkpt>
      <trkpt lat="47.28122" lon="-1.6289">
        <ele>55</ele>
        <time>2011-10-09T06:43:54Z</time>
      </trkpt>
      <trkpt lat="47.28131" lon="-1.62867">
        <ele>54</ele>
        <time>2011-10-09T06:43:56Z</time>
      </trkpt>
      <trkpt lat="47.28164" lon="-1.62853">
        <ele>53</ele>
        <time>2011-10-09T06:43:59Z</time>
      </trkpt>
      <trkpt lat="47.2817" lon="-1.62841">
        <ele>53</ele>
        <time>2011-10-09T06:44:02Z</time>
      </trkpt>
      <trkpt lat="47.28172" lon="-1.62819">
        <ele>52</ele>
        <time>2011-10-09T06:44:05Z</time>
      </trkpt>
      <trkpt lat="47.28171" lon="-1.62804">
        <ele>52</ele>
        <time>2011-10-09T06:44:08Z</time>
      </trkpt>
      <trkpt lat="47.28171" lon="-1.62804">
        <ele>52</ele>
        <time>2011-10-09T06:44:09Z</time>
      </trkpt>
      <trkpt lat="47.28176" lon="-1.62757">
        <ele>51</ele>
        <time>2011-10-09T06:44:13Z</time>
      </trkpt>
      <trkpt lat="47.28179" lon="-1.62732">
        <ele>50</ele>
        <time>2011-10-09T06:44:15Z</time>
      </trkpt>
      <trkpt lat="47.28184" lon="-1.62712">
        <ele>50</ele>
        <time>2011-10-09T06:44:17Z</time>
      </trkpt>
      <trkpt lat="47.2819" lon="-1.62691">
        <ele>50</ele>
        <time>2011-10-09T06:44:19Z</time>
      </trkpt>
      <trkpt lat="47.28201" lon="-1.62651">
        <ele>49</ele>
        <time>2011-10-09T06:44:22Z</time>
      </trkpt>
      <trkpt lat="47.2821" lon="-1.62626">
        <ele>49</ele>
        <time>2011-10-09T06:44:24Z</time>
      </trkpt>
      <trkpt lat="47.28224" lon="-1.62594">
        <ele>49</ele>
        <time>2011-10-09T06:44:27Z</time>
      </trkpt>
      <trkpt lat="47.28236" lon="-1.6257">
        <ele>48</ele>
        <time>2011-10-09T06:44:30Z</time>
      </trkpt>
      <trkpt lat="47.28241" lon="-1.6256">
        <ele>48</ele>
        <time>2011-10-09T06:44:32Z</time>
      </trkpt>
      <trkpt lat="47.28254" lon="-1.62548">
        <ele>47</ele>
        <time>2011-10-09T06:44:35Z</time>
      </trkpt>
      <trkpt lat="47.28274" lon="-1.62544">
        <ele>47</ele>
        <time>2011-10-09T06:44:38Z</time>
      </trkpt>
      <trkpt lat="47.28289" lon="-1.62541">
        <ele>47</ele>
        <time>2011-10-09T06:44:40Z</time>
      </trkpt>
      <trkpt lat="47.28311" lon="-1.62533">
        <ele>46</ele>
        <time>2011-10-09T06:44:43Z</time>
      </trkpt>
      <trkpt lat="47.28323" lon="-1.62527">
        <ele>46</ele>
        <time>2011-10-09T06:44:45Z</time>
      </trkpt>
      <trkpt lat="47.28334" lon="-1.6252">
        <ele>47</ele>
        <time>2011-10-09T06:44:47Z</time>
      </trkpt>
      <trkpt lat="47.28346" lon="-1.62512">
        <ele>47</ele>
        <time>2011-10-09T06:44:50Z</time>
      </trkpt>
      <trkpt lat="47.28357" lon="-1.62505">
        <ele>47</ele>
        <time>2011-10-09T06:44:53Z</time>
      </trkpt>
      <trkpt lat="47.28369" lon="-1.62495">
        <ele>47</ele>
        <time>2011-10-09T06:44:55Z</time>
      </trkpt>
      <trkpt lat="47.28386" lon="-1.62491">
        <ele>48</ele>
        <time>2011-10-09T06:44:58Z</time>
      </trkpt>
      <trkpt lat="47.28396" lon="-1.62493">
        <ele>49</ele>
        <time>2011-10-09T06:45:00Z</time>
      </trkpt>
      <trkpt lat="47.28408" lon="-1.62491">
        <ele>50</ele>
        <time>2011-10-09T06:45:03Z</time>
      </trkpt>
      <trkpt lat="47.28417" lon="-1.62492">
        <ele>51</ele>
        <time>2011-10-09T06:45:06Z</time>
      </trkpt>
      <trkpt lat="47.28429" lon="-1.62489">
        <ele>51</ele>
        <time>2011-10-09T06:45:09Z</time>
      </trkpt>
      <trkpt lat="47.28437" lon="-1.62487">
        <ele>51</ele>
        <time>2011-10-09T06:45:11Z</time>
      </trkpt>
      <trkpt lat="47.28446" lon="-1.62484">
        <ele>51</ele>
        <time>2011-10-09T06:45:13Z</time>
      </trkpt>
      <trkpt lat="47.28459" lon="-1.62485">
        <ele>51</ele>
        <time>2011-10-09T06:45:16Z</time>
      </trkpt>
      <trkpt lat="47.28469" lon="-1.62487">
        <ele>51</ele>
        <time>2011-10-09T06:45:18Z</time>
      </trkpt>
      <trkpt lat="47.28476" lon="-1.62492">
        <ele>51</ele>
        <time>2011-10-09T06:45:20Z</time>
      </trkpt>
      <trkpt lat="47.28476" lon="-1.62492">
        <ele>51</ele>
        <time>2011-10-09T06:45:23Z</time>
      </trkpt>
      <trkpt lat="47.28496" lon="-1.625">
        <ele>53</ele>
        <time>2011-10-09T06:45:27Z</time>
      </trkpt>
      <trkpt lat="47.28511" lon="-1.62502">
        <ele>53</ele>
        <time>2011-10-09T06:45:30Z</time>
      </trkpt>
      <trkpt lat="47.28523" lon="-1.62506">
        <ele>53</ele>
        <time>2011-10-09T06:45:33Z</time>
      </trkpt>
      <trkpt lat="47.28532" lon="-1.62511">
        <ele>54</ele>
        <time>2011-10-09T06:45:36Z</time>
      </trkpt>
      <trkpt lat="47.28542" lon="-1.62515">
        <ele>54</ele>
        <time>2011-10-09T06:45:39Z</time>
      </trkpt>
      <trkpt lat="47.28547" lon="-1.62515">
        <ele>54</ele>
        <time>2011-10-09T06:45:40Z</time>
      </trkpt>
      <trkpt lat="47.28576" lon="-1.62522">
        <ele>54</ele>
        <time>2011-10-09T06:45:48Z</time>
      </trkpt>
      <trkpt lat="47.28586" lon="-1.62526">
        <ele>57</ele>
        <time>2011-10-09T06:45:50Z</time>
      </trkpt>
      <trkpt lat="47.28586" lon="-1.62526">
        <ele>57</ele>
        <time>2011-10-09T06:45:51Z</time>
      </trkpt>
      <trkpt lat="47.28614" lon="-1.62537">
        <ele>57</ele>
        <time>2011-10-09T06:45:58Z</time>
      </trkpt>
      <trkpt lat="47.28614" lon="-1.62537">
        <ele>57</ele>
        <time>2011-10-09T06:46:01Z</time>
      </trkpt>
      <trkpt lat="47.28641" lon="-1.62536">
        <ele>58</ele>
        <time>2011-10-09T06:46:12Z</time>
      </trkpt>
      <trkpt lat="47.28641" lon="-1.62536">
        <ele>58</ele>
        <time>2011-10-09T06:46:16Z</time>
      </trkpt>
      <trkpt lat="47.28671" lon="-1.62542">
        <ele>61</ele>
        <time>2011-10-09T06:46:20Z</time>
      </trkpt>
      <trkpt lat="47.28699" lon="-1.62549">
        <ele>61</ele>
        <time>2011-10-09T06:46:26Z</time>
      </trkpt>
      <trkpt lat="47.28727" lon="-1.62549">
        <ele>61</ele>
        <time>2011-10-09T06:46:34Z</time>
      </trkpt>
      <trkpt lat="47.28739" lon="-1.62547">
        <ele>61</ele>
        <time>2011-10-09T06:46:36Z</time>
      </trkpt>
      <trkpt lat="47.2876" lon="-1.62546">
        <ele>62</ele>
        <time>2011-10-09T06:46:38Z</time>
      </trkpt>
      <trkpt lat="47.2878" lon="-1.62547">
        <ele>61</ele>
        <time>2011-10-09T06:46:41Z</time>
      </trkpt>
      <trkpt lat="47.28789" lon="-1.62549">
        <ele>61</ele>
        <time>2011-10-09T06:46:43Z</time>
      </trkpt>
      <trkpt lat="47.28798" lon="-1.62553">
        <ele>61</ele>
        <time>2011-10-09T06:46:45Z</time>
      </trkpt>
      <trkpt lat="47.28809" lon="-1.62561">
        <ele>61</ele>
        <time>2011-10-09T06:46:48Z</time>
      </trkpt>
      <trkpt lat="47.28819" lon="-1.62565">
        <ele>61</ele>
        <time>2011-10-09T06:46:51Z</time>
      </trkpt>
      <trkpt lat="47.28824" lon="-1.62571">
        <ele>62</ele>
        <time>2011-10-09T06:46:53Z</time>
      </trkpt>
      <trkpt lat="47.28856" lon="-1.62582">
        <ele>61</ele>
        <time>2011-10-09T06:46:57Z</time>
      </trkpt>
      <trkpt lat="47.28867" lon="-1.62586">
        <ele>60</ele>
        <time>2011-10-09T06:46:59Z</time>
      </trkpt>
      <trkpt lat="47.28869" lon="-1.62577">
        <ele>61</ele>
        <time>2011-10-09T06:47:01Z</time>
      </trkpt>
      <trkpt lat="47.28882" lon="-1.62567">
        <ele>61</ele>
        <time>2011-10-09T06:47:04Z</time>
      </trkpt>
      <trkpt lat="47.28905" lon="-1.62549">
        <ele>61</ele>
        <time>2011-10-09T06:47:06Z</time>
      </trkpt>
      <trkpt lat="47.28942" lon="-1.62533">
        <ele>58</ele>
        <time>2011-10-09T06:47:09Z</time>
      </trkpt>
      <trkpt lat="47.28966" lon="-1.62525">
        <ele>58</ele>
        <time>2011-10-09T06:47:11Z</time>
      </trkpt>
      <trkpt lat="47.28996" lon="-1.62514">
        <ele>58</ele>
        <time>2011-10-09T06:47:14Z</time>
      </trkpt>
      <trkpt lat="47.29007" lon="-1.62507">
        <ele>56</ele>
        <time>2011-10-09T06:47:16Z</time>
      </trkpt>
      <trkpt lat="47.29028" lon="-1.62491">
        <ele>54</ele>
        <time>2011-10-09T06:47:20Z</time>
      </trkpt>
      <trkpt lat="47.29033" lon="-1.62477">
        <ele>53</ele>
        <time>2011-10-09T06:47:22Z</time>
      </trkpt>
      <trkpt lat="47.29039" lon="-1.62455">
        <ele>52</ele>
        <time>2011-10-09T06:47:25Z</time>
      </trkpt>
      <trkpt lat="47.29041" lon="-1.62442">
        <ele>52</ele>
        <time>2011-10-09T06:47:27Z</time>
      </trkpt>
      <trkpt lat="47.29041" lon="-1.6243">
        <ele>52</ele>
        <time>2011-10-09T06:47:29Z</time>
      </trkpt>
      <trkpt lat="47.29041" lon="-1.62422">
        <ele>52</ele>
        <time>2011-10-09T06:47:31Z</time>
      </trkpt>
      <trkpt lat="47.29039" lon="-1.62379">
        <ele>52</ele>
        <time>2011-10-09T06:47:40Z</time>
      </trkpt>
      <trkpt lat="47.29039" lon="-1.62379">
        <ele>52</ele>
        <time>2011-10-09T06:47:44Z</time>
      </trkpt>
      <trkpt lat="47.29028" lon="-1.62339">
        <ele>52</ele>
        <time>2011-10-09T06:47:51Z</time>
      </trkpt>
      <trkpt lat="47.29028" lon="-1.62339">
        <ele>52</ele>
        <time>2011-10-09T06:47:54Z</time>
      </trkpt>
      <trkpt lat="47.29004" lon="-1.62315">
        <ele>51</ele>
        <time>2011-10-09T06:48:09Z</time>
      </trkpt>
      <trkpt lat="47.28978" lon="-1.62295">
        <ele>54</ele>
        <time>2011-10-09T06:48:18Z</time>
      </trkpt>
      <trkpt lat="47.28971" lon="-1.62292">
        <ele>54</ele>
        <time>2011-10-09T06:48:20Z</time>
      </trkpt>
      <trkpt lat="47.28929" lon="-1.62268">
        <ele>55</ele>
        <time>2011-10-09T06:48:24Z</time>
      </trkpt>
      <trkpt lat="47.28929" lon="-1.62268">
        <ele>55</ele>
        <time>2011-10-09T06:48:27Z</time>
      </trkpt>
      <trkpt lat="47.28901" lon="-1.62254">
        <ele>56</ele>
        <time>2011-10-09T06:48:30Z</time>
      </trkpt>
      <trkpt lat="47.28883" lon="-1.62241">
        <ele>53</ele>
        <time>2011-10-09T06:48:32Z</time>
      </trkpt>
      <trkpt lat="47.28867" lon="-1.62232">
        <ele>53</ele>
        <time>2011-10-09T06:48:34Z</time>
      </trkpt>
      <trkpt lat="47.2886" lon="-1.62228">
        <ele>53</ele>
        <time>2011-10-09T06:48:36Z</time>
      </trkpt>
      <trkpt lat="47.28829" lon="-1.62216">
        <ele>52</ele>
        <time>2011-10-09T06:48:39Z</time>
      </trkpt>
      <trkpt lat="47.28818" lon="-1.62213">
        <ele>51</ele>
        <time>2011-10-09T06:48:41Z</time>
      </trkpt>
      <trkpt lat="47.28805" lon="-1.62195">
        <ele>50</ele>
        <time>2011-10-09T06:48:44Z</time>
      </trkpt>
      <trkpt lat="47.28803" lon="-1.6217">
        <ele>50</ele>
        <time>2011-10-09T06:48:47Z</time>
      </trkpt>
      <trkpt lat="47.28806" lon="-1.6215">
        <ele>47</ele>
        <time>2011-10-09T06:48:49Z</time>
      </trkpt>
      <trkpt lat="47.28811" lon="-1.62122">
        <ele>46</ele>
        <time>2011-10-09T06:48:52Z</time>
      </trkpt>
      <trkpt lat="47.28816" lon="-1.62095">
        <ele>46</ele>
        <time>2011-10-09T06:48:55Z</time>
      </trkpt>
      <trkpt lat="47.28819" lon="-1.62078">
        <ele>45</ele>
        <time>2011-10-09T06:48:57Z</time>
      </trkpt>
      <trkpt lat="47.28823" lon="-1.62052">
        <ele>44</ele>
        <time>2011-10-09T06:49:00Z</time>
      </trkpt>
      <trkpt lat="47.28828" lon="-1.62031">
        <ele>44</ele>
        <time>2011-10-09T06:49:03Z</time>
      </trkpt>
      <trkpt lat="47.28832" lon="-1.62014">
        <ele>45</ele>
        <time>2011-10-09T06:49:06Z</time>
      </trkpt>
      <trkpt lat="47.28845" lon="-1.62006">
        <ele>47</ele>
        <time>2011-10-09T06:49:09Z</time>
      </trkpt>
      <trkpt lat="47.28855" lon="-1.62015">
        <ele>47</ele>
        <time>2011-10-09T06:49:12Z</time>
      </trkpt>
      <trkpt lat="47.28857" lon="-1.62021">
        <ele>47</ele>
        <time>2011-10-09T06:49:13Z</time>
      </trkpt>
      <trkpt lat="47.28889" lon="-1.62028">
        <ele>48</ele>
        <time>2011-10-09T06:49:27Z</time>
      </trkpt>
      <trkpt lat="47.28889" lon="-1.62028">
        <ele>48</ele>
        <time>2011-10-09T06:49:30Z</time>
      </trkpt>
      <trkpt lat="47.28916" lon="-1.62022">
        <ele>49</ele>
        <time>2011-10-09T06:49:37Z</time>
      </trkpt>
      <trkpt lat="47.28916" lon="-1.62022">
        <ele>49</ele>
        <time>2011-10-09T06:49:40Z</time>
      </trkpt>
      <trkpt lat="47.28942" lon="-1.62005">
        <ele>51</ele>
        <time>2011-10-09T06:49:52Z</time>
      </trkpt>
      <trkpt lat="47.28969" lon="-1.6199">
        <ele>54</ele>
        <time>2011-10-09T06:50:08Z</time>
      </trkpt>
      <trkpt lat="47.28994" lon="-1.61972">
        <ele>55</ele>
        <time>2011-10-09T06:50:15Z</time>
      </trkpt>
      <trkpt lat="47.29006" lon="-1.61963">
        <ele>57</ele>
        <time>2011-10-09T06:50:18Z</time>
      </trkpt>
      <trkpt lat="47.29025" lon="-1.61949">
        <ele>58</ele>
        <time>2011-10-09T06:50:21Z</time>
      </trkpt>
      <trkpt lat="47.2904" lon="-1.61934">
        <ele>58</ele>
        <time>2011-10-09T06:50:24Z</time>
      </trkpt>
      <trkpt lat="47.29045" lon="-1.6193">
        <ele>58</ele>
        <time>2011-10-09T06:50:27Z</time>
      </trkpt>
      <trkpt lat="47.29068" lon="-1.61901">
        <ele>60</ele>
        <time>2011-10-09T06:50:37Z</time>
      </trkpt>
      <trkpt lat="47.29068" lon="-1.61901">
        <ele>60</ele>
        <time>2011-10-09T06:50:41Z</time>
      </trkpt>
      <trkpt lat="47.29088" lon="-1.61867">
        <ele>62</ele>
        <time>2011-10-09T06:50:46Z</time>
      </trkpt>
      <trkpt lat="47.29088" lon="-1.61867">
        <ele>62</ele>
        <time>2011-10-09T06:50:49Z</time>
      </trkpt>
      <trkpt lat="47.29114" lon="-1.61812">
        <ele>62</ele>
        <time>2011-10-09T06:51:02Z</time>
      </trkpt>
      <trkpt lat="47.29125" lon="-1.61795">
        <ele>62</ele>
        <time>2011-10-09T06:51:05Z</time>
      </trkpt>
      <trkpt lat="47.29131" lon="-1.61775">
        <ele>62</ele>
        <time>2011-10-09T06:51:07Z</time>
      </trkpt>
      <trkpt lat="47.2914" lon="-1.61746">
        <ele>61</ele>
        <time>2011-10-09T06:51:10Z</time>
      </trkpt>
      <trkpt lat="47.29144" lon="-1.61726">
        <ele>61</ele>
        <time>2011-10-09T06:51:12Z</time>
      </trkpt>
      <trkpt lat="47.29148" lon="-1.61708">
        <ele>61</ele>
        <time>2011-10-09T06:51:14Z</time>
      </trkpt>
      <trkpt lat="47.29153" lon="-1.61681">
        <ele>61</ele>
        <time>2011-10-09T06:51:17Z</time>
      </trkpt>
      <trkpt lat="47.29159" lon="-1.61654">
        <ele>61</ele>
        <time>2011-10-09T06:51:20Z</time>
      </trkpt>
      <trkpt lat="47.29166" lon="-1.61639">
        <ele>61</ele>
        <time>2011-10-09T06:51:22Z</time>
      </trkpt>
      <trkpt lat="47.29182" lon="-1.61622">
        <ele>59</ele>
        <time>2011-10-09T06:51:25Z</time>
      </trkpt>
      <trkpt lat="47.29193" lon="-1.61607">
        <ele>59</ele>
        <time>2011-10-09T06:51:27Z</time>
      </trkpt>
      <trkpt lat="47.29211" lon="-1.61582">
        <ele>60</ele>
        <time>2011-10-09T06:51:30Z</time>
      </trkpt>
      <trkpt lat="47.29222" lon="-1.61566">
        <ele>60</ele>
        <time>2011-10-09T06:51:32Z</time>
      </trkpt>
      <trkpt lat="47.29238" lon="-1.61544">
        <ele>60</ele>
        <time>2011-10-09T06:51:35Z</time>
      </trkpt>
      <trkpt lat="47.29253" lon="-1.61523">
        <ele>59</ele>
        <time>2011-10-09T06:51:38Z</time>
      </trkpt>
      <trkpt lat="47.29268" lon="-1.61503">
        <ele>59</ele>
        <time>2011-10-09T06:51:41Z</time>
      </trkpt>
      <trkpt lat="47.29277" lon="-1.61479">
        <ele>59</ele>
        <time>2011-10-09T06:51:44Z</time>
      </trkpt>
      <trkpt lat="47.29277" lon="-1.61449">
        <ele>59</ele>
        <time>2011-10-09T06:51:47Z</time>
      </trkpt>
      <trkpt lat="47.29264" lon="-1.61427">
        <ele>59</ele>
        <time>2011-10-09T06:51:50Z</time>
      </trkpt>
      <trkpt lat="47.29249" lon="-1.61408">
        <ele>59</ele>
        <time>2011-10-09T06:51:53Z</time>
      </trkpt>
      <trkpt lat="47.29235" lon="-1.61388">
        <ele>59</ele>
        <time>2011-10-09T06:51:56Z</time>
      </trkpt>
      <trkpt lat="47.2922" lon="-1.61366">
        <ele>58</ele>
        <time>2011-10-09T06:51:59Z</time>
      </trkpt>
      <trkpt lat="47.29211" lon="-1.6135">
        <ele>58</ele>
        <time>2011-10-09T06:52:01Z</time>
      </trkpt>
      <trkpt lat="47.29201" lon="-1.61333">
        <ele>58</ele>
        <time>2011-10-09T06:52:03Z</time>
      </trkpt>
      <trkpt lat="47.29187" lon="-1.61307">
        <ele>58</ele>
        <time>2011-10-09T06:52:06Z</time>
      </trkpt>
      <trkpt lat="47.29172" lon="-1.61281">
        <ele>58</ele>
        <time>2011-10-09T06:52:09Z</time>
      </trkpt>
      <trkpt lat="47.29159" lon="-1.61253">
        <ele>58</ele>
        <time>2011-10-09T06:52:12Z</time>
      </trkpt>
      <trkpt lat="47.29148" lon="-1.61228">
        <ele>59</ele>
        <time>2011-10-09T06:52:15Z</time>
      </trkpt>
      <trkpt lat="47.29137" lon="-1.61205">
        <ele>60</ele>
        <time>2011-10-09T06:52:18Z</time>
      </trkpt>
      <trkpt lat="47.29127" lon="-1.61182">
        <ele>60</ele>
        <time>2011-10-09T06:52:21Z</time>
      </trkpt>
      <trkpt lat="47.29117" lon="-1.61159">
        <ele>62</ele>
        <time>2011-10-09T06:52:24Z</time>
      </trkpt>
      <trkpt lat="47.2911" lon="-1.61145">
        <ele>62</ele>
        <time>2011-10-09T06:52:26Z</time>
      </trkpt>
      <trkpt lat="47.29098" lon="-1.61125">
        <ele>62</ele>
        <time>2011-10-09T06:52:29Z</time>
      </trkpt>
      <trkpt lat="47.29089" lon="-1.61113">
        <ele>62</ele>
        <time>2011-10-09T06:52:31Z</time>
      </trkpt>
      <trkpt lat="47.2908" lon="-1.61102">
        <ele>62</ele>
        <time>2011-10-09T06:52:33Z</time>
      </trkpt>
      <trkpt lat="47.29072" lon="-1.61091">
        <ele>62</ele>
        <time>2011-10-09T06:52:35Z</time>
      </trkpt>
      <trkpt lat="47.29064" lon="-1.61081">
        <ele>63</ele>
        <time>2011-10-09T06:52:37Z</time>
      </trkpt>
      <trkpt lat="47.29056" lon="-1.6107">
        <ele>63</ele>
        <time>2011-10-09T06:52:39Z</time>
      </trkpt>
      <trkpt lat="47.29045" lon="-1.61056">
        <ele>63</ele>
        <time>2011-10-09T06:52:42Z</time>
      </trkpt>
      <trkpt lat="47.29035" lon="-1.61043">
        <ele>63</ele>
        <time>2011-10-09T06:52:45Z</time>
      </trkpt>
      <trkpt lat="47.29024" lon="-1.61031">
        <ele>63</ele>
        <time>2011-10-09T06:52:48Z</time>
      </trkpt>
      <trkpt lat="47.29016" lon="-1.61023">
        <ele>63</ele>
        <time>2011-10-09T06:52:50Z</time>
      </trkpt>
      <trkpt lat="47.29004" lon="-1.61014">
        <ele>63</ele>
        <time>2011-10-09T06:52:53Z</time>
      </trkpt>
      <trkpt lat="47.28995" lon="-1.61008">
        <ele>63</ele>
        <time>2011-10-09T06:52:55Z</time>
      </trkpt>
      <trkpt lat="47.28984" lon="-1.60998">
        <ele>63</ele>
        <time>2011-10-09T06:52:58Z</time>
      </trkpt>
      <trkpt lat="47.28976" lon="-1.60992">
        <ele>64</ele>
        <time>2011-10-09T06:53:00Z</time>
      </trkpt>
      <trkpt lat="47.28967" lon="-1.60982">
        <ele>64</ele>
        <time>2011-10-09T06:53:03Z</time>
      </trkpt>
      <trkpt lat="47.28963" lon="-1.60975">
        <ele>64</ele>
        <time>2011-10-09T06:53:05Z</time>
      </trkpt>
      <trkpt lat="47.28966" lon="-1.60963">
        <ele>64</ele>
        <time>2011-10-09T06:53:08Z</time>
      </trkpt>
      <trkpt lat="47.28973" lon="-1.60948">
        <ele>64</ele>
        <time>2011-10-09T06:53:11Z</time>
      </trkpt>
      <trkpt lat="47.28982" lon="-1.60933">
        <ele>64</ele>
        <time>2011-10-09T06:53:14Z</time>
      </trkpt>
      <trkpt lat="47.28992" lon="-1.60916">
        <ele>64</ele>
        <time>2011-10-09T06:53:17Z</time>
      </trkpt>
      <trkpt lat="47.29003" lon="-1.60899">
        <ele>64</ele>
        <time>2011-10-09T06:53:20Z</time>
      </trkpt>
      <trkpt lat="47.29014" lon="-1.60881">
        <ele>63</ele>
        <time>2011-10-09T06:53:23Z</time>
      </trkpt>
      <trkpt lat="47.29022" lon="-1.6087">
        <ele>63</ele>
        <time>2011-10-09T06:53:25Z</time>
      </trkpt>
      <trkpt lat="47.29031" lon="-1.60857">
        <ele>63</ele>
        <time>2011-10-09T06:53:27Z</time>
      </trkpt>
      <trkpt lat="47.29044" lon="-1.60836">
        <ele>63</ele>
        <time>2011-10-09T06:53:30Z</time>
      </trkpt>
      <trkpt lat="47.29055" lon="-1.60815">
        <ele>62</ele>
        <time>2011-10-09T06:53:33Z</time>
      </trkpt>
      <trkpt lat="47.29058" lon="-1.60795">
        <ele>62</ele>
        <time>2011-10-09T06:53:36Z</time>
      </trkpt>
      <trkpt lat="47.29069" lon="-1.6078">
        <ele>62</ele>
        <time>2011-10-09T06:53:43Z</time>
      </trkpt>
      <trkpt lat="47.29076" lon="-1.60772">
        <ele>62</ele>
        <time>2011-10-09T06:53:45Z</time>
      </trkpt>
      <trkpt lat="47.29088" lon="-1.60762">
        <ele>62</ele>
        <time>2011-10-09T06:53:47Z</time>
      </trkpt>
      <trkpt lat="47.29106" lon="-1.60744">
        <ele>62</ele>
        <time>2011-10-09T06:53:50Z</time>
      </trkpt>
      <trkpt lat="47.29117" lon="-1.60732">
        <ele>62</ele>
        <time>2011-10-09T06:53:52Z</time>
      </trkpt>
      <trkpt lat="47.29132" lon="-1.60711">
        <ele>61</ele>
        <time>2011-10-09T06:53:55Z</time>
      </trkpt>
      <trkpt lat="47.29143" lon="-1.60695">
        <ele>61</ele>
        <time>2011-10-09T06:53:57Z</time>
      </trkpt>
      <trkpt lat="47.29153" lon="-1.60676">
        <ele>61</ele>
        <time>2011-10-09T06:53:59Z</time>
      </trkpt>
      <trkpt lat="47.29167" lon="-1.60648">
        <ele>61</ele>
        <time>2011-10-09T06:54:02Z</time>
      </trkpt>
      <trkpt lat="47.29179" lon="-1.60617">
        <ele>60</ele>
        <time>2011-10-09T06:54:05Z</time>
      </trkpt>
      <trkpt lat="47.29191" lon="-1.60588">
        <ele>59</ele>
        <time>2011-10-09T06:54:08Z</time>
      </trkpt>
      <trkpt lat="47.29198" lon="-1.60567">
        <ele>58</ele>
        <time>2011-10-09T06:54:10Z</time>
      </trkpt>
      <trkpt lat="47.29208" lon="-1.60536">
        <ele>58</ele>
        <time>2011-10-09T06:54:13Z</time>
      </trkpt>
      <trkpt lat="47.29217" lon="-1.60517">
        <ele>58</ele>
        <time>2011-10-09T06:54:15Z</time>
      </trkpt>
      <trkpt lat="47.2923" lon="-1.60489">
        <ele>57</ele>
        <time>2011-10-09T06:54:18Z</time>
      </trkpt>
      <trkpt lat="47.29243" lon="-1.60475">
        <ele>57</ele>
        <time>2011-10-09T06:54:20Z</time>
      </trkpt>
      <trkpt lat="47.29264" lon="-1.60461">
        <ele>56</ele>
        <time>2011-10-09T06:54:23Z</time>
      </trkpt>
      <trkpt lat="47.29286" lon="-1.60448">
        <ele>56</ele>
        <time>2011-10-09T06:54:26Z</time>
      </trkpt>
      <trkpt lat="47.29306" lon="-1.60428">
        <ele>56</ele>
        <time>2011-10-09T06:54:29Z</time>
      </trkpt>
      <trkpt lat="47.29317" lon="-1.60413">
        <ele>55</ele>
        <time>2011-10-09T06:54:31Z</time>
      </trkpt>
      <trkpt lat="47.29327" lon="-1.60399">
        <ele>55</ele>
        <time>2011-10-09T06:54:33Z</time>
      </trkpt>
      <trkpt lat="47.29336" lon="-1.60385">
        <ele>56</ele>
        <time>2011-10-09T06:54:35Z</time>
      </trkpt>
      <trkpt lat="47.2935" lon="-1.60367">
        <ele>56</ele>
        <time>2011-10-09T06:54:38Z</time>
      </trkpt>
      <trkpt lat="47.29365" lon="-1.60348">
        <ele>56</ele>
        <time>2011-10-09T06:54:41Z</time>
      </trkpt>
      <trkpt lat="47.2938" lon="-1.60326">
        <ele>56</ele>
        <time>2011-10-09T06:54:44Z</time>
      </trkpt>
      <trkpt lat="47.29394" lon="-1.60304">
        <ele>57</ele>
        <time>2011-10-09T06:54:47Z</time>
      </trkpt>
      <trkpt lat="47.29404" lon="-1.60289">
        <ele>57</ele>
        <time>2011-10-09T06:54:49Z</time>
      </trkpt>
      <trkpt lat="47.29417" lon="-1.60268">
        <ele>59</ele>
        <time>2011-10-09T06:54:52Z</time>
      </trkpt>
      <trkpt lat="47.29429" lon="-1.60249">
        <ele>59</ele>
        <time>2011-10-09T06:54:55Z</time>
      </trkpt>
      <trkpt lat="47.29441" lon="-1.6023">
        <ele>59</ele>
        <time>2011-10-09T06:54:58Z</time>
      </trkpt>
      <trkpt lat="47.29449" lon="-1.60218">
        <ele>60</ele>
        <time>2011-10-09T06:55:00Z</time>
      </trkpt>
      <trkpt lat="47.29454" lon="-1.60193">
        <ele>60</ele>
        <time>2011-10-09T06:55:03Z</time>
      </trkpt>
      <trkpt lat="47.29454" lon="-1.60175">
        <ele>60</ele>
        <time>2011-10-09T06:55:05Z</time>
      </trkpt>
      <trkpt lat="47.29453" lon="-1.60148">
        <ele>60</ele>
        <time>2011-10-09T06:55:08Z</time>
      </trkpt>
      <trkpt lat="47.29451" lon="-1.60121">
        <ele>60</ele>
        <time>2011-10-09T06:55:11Z</time>
      </trkpt>
      <trkpt lat="47.2945" lon="-1.60095">
        <ele>59</ele>
        <time>2011-10-09T06:55:14Z</time>
      </trkpt>
      <trkpt lat="47.29449" lon="-1.60069">
        <ele>59</ele>
        <time>2011-10-09T06:55:17Z</time>
      </trkpt>
      <trkpt lat="47.29448" lon="-1.60052">
        <ele>59</ele>
        <time>2011-10-09T06:55:19Z</time>
      </trkpt>
      <trkpt lat="47.29444" lon="-1.60024">
        <ele>59</ele>
        <time>2011-10-09T06:55:22Z</time>
      </trkpt>
      <trkpt lat="47.29441" lon="-1.60005">
        <ele>58</ele>
        <time>2011-10-09T06:55:24Z</time>
      </trkpt>
      <trkpt lat="47.29438" lon="-1.59975">
        <ele>58</ele>
        <time>2011-10-09T06:55:27Z</time>
      </trkpt>
      <trkpt lat="47.29439" lon="-1.59953">
        <ele>58</ele>
        <time>2011-10-09T06:55:30Z</time>
      </trkpt>
      <trkpt lat="47.29439" lon="-1.59953">
        <ele>58</ele>
        <time>2011-10-09T06:55:31Z</time>
      </trkpt>
      <trkpt lat="47.29439" lon="-1.59953">
        <ele>58</ele>
        <time>2011-10-09T06:56:09Z</time>
      </trkpt>
      <trkpt lat="47.29438" lon="-1.59916">
        <ele>56</ele>
        <time>2011-10-09T06:56:28Z</time>
      </trkpt>
      <trkpt lat="47.29438" lon="-1.59916">
        <ele>56</ele>
        <time>2011-10-09T06:56:29Z</time>
      </trkpt>
      <trkpt lat="47.29438" lon="-1.59916">
        <ele>56</ele>
        <time>2011-10-09T06:56:29Z</time>
      </trkpt>
      <trkpt lat="47.29438" lon="-1.59883">
        <ele>56</ele>
        <time>2011-10-09T06:56:32Z</time>
      </trkpt>
      <trkpt lat="47.29438" lon="-1.59861">
        <ele>56</ele>
        <time>2011-10-09T06:56:34Z</time>
      </trkpt>
      <trkpt lat="47.29438" lon="-1.59839">
        <ele>56</ele>
        <time>2011-10-09T06:56:36Z</time>
      </trkpt>
      <trkpt lat="47.29436" lon="-1.59807">
        <ele>55</ele>
        <time>2011-10-09T06:56:39Z</time>
      </trkpt>
      <trkpt lat="47.29431" lon="-1.59778">
        <ele>55</ele>
        <time>2011-10-09T06:56:42Z</time>
      </trkpt>
      <trkpt lat="47.29427" lon="-1.59757">
        <ele>55</ele>
        <time>2011-10-09T06:56:44Z</time>
      </trkpt>
      <trkpt lat="47.29423" lon="-1.59737">
        <ele>55</ele>
        <time>2011-10-09T06:56:46Z</time>
      </trkpt>
      <trkpt lat="47.2942" lon="-1.59705">
        <ele>56</ele>
        <time>2011-10-09T06:56:49Z</time>
      </trkpt>
      <trkpt lat="47.29419" lon="-1.59682">
        <ele>56</ele>
        <time>2011-10-09T06:56:51Z</time>
      </trkpt>
      <trkpt lat="47.29417" lon="-1.59659">
        <ele>56</ele>
        <time>2011-10-09T06:56:53Z</time>
      </trkpt>
      <trkpt lat="47.29415" lon="-1.59626">
        <ele>56</ele>
        <time>2011-10-09T06:56:56Z</time>
      </trkpt>
      <trkpt lat="47.29414" lon="-1.59596">
        <ele>57</ele>
        <time>2011-10-09T06:56:59Z</time>
      </trkpt>
      <trkpt lat="47.29413" lon="-1.59567">
        <ele>57</ele>
        <time>2011-10-09T06:57:02Z</time>
      </trkpt>
      <trkpt lat="47.29411" lon="-1.59539">
        <ele>57</ele>
        <time>2011-10-09T06:57:05Z</time>
      </trkpt>
      <trkpt lat="47.2941" lon="-1.5951">
        <ele>58</ele>
        <time>2011-10-09T06:57:08Z</time>
      </trkpt>
      <trkpt lat="47.29408" lon="-1.59481">
        <ele>57</ele>
        <time>2011-10-09T06:57:11Z</time>
      </trkpt>
      <trkpt lat="47.29405" lon="-1.59452">
        <ele>57</ele>
        <time>2011-10-09T06:57:14Z</time>
      </trkpt>
      <trkpt lat="47.29402" lon="-1.59421">
        <ele>57</ele>
        <time>2011-10-09T06:57:17Z</time>
      </trkpt>
      <trkpt lat="47.29402" lon="-1.59401">
        <ele>56</ele>
        <time>2011-10-09T06:57:19Z</time>
      </trkpt>
      <trkpt lat="47.29401" lon="-1.5938">
        <ele>56</ele>
        <time>2011-10-09T06:57:21Z</time>
      </trkpt>
      <trkpt lat="47.29402" lon="-1.59359">
        <ele>55</ele>
        <time>2011-10-09T06:57:23Z</time>
      </trkpt>
      <trkpt lat="47.2941" lon="-1.59349">
        <ele>55</ele>
        <time>2011-10-09T06:57:26Z</time>
      </trkpt>
      <trkpt lat="47.29415" lon="-1.59357">
        <ele>55</ele>
        <time>2011-10-09T06:57:28Z</time>
      </trkpt>
      <trkpt lat="47.29421" lon="-1.59369">
        <ele>57</ele>
        <time>2011-10-09T06:57:31Z</time>
      </trkpt>
      <trkpt lat="47.29428" lon="-1.59377">
        <ele>57</ele>
        <time>2011-10-09T06:57:34Z</time>
      </trkpt>
      <trkpt lat="47.29443" lon="-1.59369">
        <ele>57</ele>
        <time>2011-10-09T06:57:37Z</time>
      </trkpt>
      <trkpt lat="47.29454" lon="-1.59365">
        <ele>57</ele>
        <time>2011-10-09T06:57:39Z</time>
      </trkpt>
      <trkpt lat="47.29474" lon="-1.5936">
        <ele>57</ele>
        <time>2011-10-09T06:57:42Z</time>
      </trkpt>
      <trkpt lat="47.29495" lon="-1.59349">
        <ele>58</ele>
        <time>2011-10-09T06:57:45Z</time>
      </trkpt>
      <trkpt lat="47.29516" lon="-1.59335">
        <ele>58</ele>
        <time>2011-10-09T06:57:48Z</time>
      </trkpt>
      <trkpt lat="47.29538" lon="-1.59324">
        <ele>57</ele>
        <time>2011-10-09T06:57:51Z</time>
      </trkpt>
      <trkpt lat="47.29559" lon="-1.59313">
        <ele>57</ele>
        <time>2011-10-09T06:57:54Z</time>
      </trkpt>
      <trkpt lat="47.2958" lon="-1.59302">
        <ele>57</ele>
        <time>2011-10-09T06:57:57Z</time>
      </trkpt>
      <trkpt lat="47.29594" lon="-1.59295">
        <ele>58</ele>
        <time>2011-10-09T06:57:59Z</time>
      </trkpt>
      <trkpt lat="47.29614" lon="-1.59286">
        <ele>58</ele>
        <time>2011-10-09T06:58:02Z</time>
      </trkpt>
      <trkpt lat="47.29627" lon="-1.59279">
        <ele>58</ele>
        <time>2011-10-09T06:58:04Z</time>
      </trkpt>
      <trkpt lat="47.29639" lon="-1.59273">
        <ele>58</ele>
        <time>2011-10-09T06:58:06Z</time>
      </trkpt>
      <trkpt lat="47.29657" lon="-1.59264">
        <ele>58</ele>
        <time>2011-10-09T06:58:09Z</time>
      </trkpt>
      <trkpt lat="47.2967" lon="-1.59258">
        <ele>59</ele>
        <time>2011-10-09T06:58:11Z</time>
      </trkpt>
      <trkpt lat="47.2969" lon="-1.59247">
        <ele>59</ele>
        <time>2011-10-09T06:58:14Z</time>
      </trkpt>
      <trkpt lat="47.29703" lon="-1.59239">
        <ele>59</ele>
        <time>2011-10-09T06:58:16Z</time>
      </trkpt>
      <trkpt lat="47.29715" lon="-1.59232">
        <ele>59</ele>
        <time>2011-10-09T06:58:18Z</time>
      </trkpt>
      <trkpt lat="47.29729" lon="-1.59225">
        <ele>59</ele>
        <time>2011-10-09T06:58:20Z</time>
      </trkpt>
      <trkpt lat="47.29749" lon="-1.59216">
        <ele>59</ele>
        <time>2011-10-09T06:58:23Z</time>
      </trkpt>
      <trkpt lat="47.29762" lon="-1.5921">
        <ele>60</ele>
        <time>2011-10-09T06:58:25Z</time>
      </trkpt>
      <trkpt lat="47.29775" lon="-1.59204">
        <ele>60</ele>
        <time>2011-10-09T06:58:27Z</time>
      </trkpt>
      <trkpt lat="47.29794" lon="-1.59196">
        <ele>59</ele>
        <time>2011-10-09T06:58:30Z</time>
      </trkpt>
      <trkpt lat="47.29807" lon="-1.5919">
        <ele>59</ele>
        <time>2011-10-09T06:58:32Z</time>
      </trkpt>
      <trkpt lat="47.29827" lon="-1.59182">
        <ele>59</ele>
        <time>2011-10-09T06:58:35Z</time>
      </trkpt>
      <trkpt lat="47.29847" lon="-1.59172">
        <ele>59</ele>
        <time>2011-10-09T06:58:38Z</time>
      </trkpt>
      <trkpt lat="47.29863" lon="-1.59162">
        <ele>59</ele>
        <time>2011-10-09T06:58:41Z</time>
      </trkpt>
      <trkpt lat="47.29873" lon="-1.59161">
        <ele>59</ele>
        <time>2011-10-09T06:58:43Z</time>
      </trkpt>
      <trkpt lat="47.29888" lon="-1.59151">
        <ele>59</ele>
        <time>2011-10-09T06:58:46Z</time>
      </trkpt>
      <trkpt lat="47.29908" lon="-1.5914">
        <ele>59</ele>
        <time>2011-10-09T06:58:49Z</time>
      </trkpt>
      <trkpt lat="47.29933" lon="-1.59123">
        <ele>58</ele>
        <time>2011-10-09T06:58:52Z</time>
      </trkpt>
      <trkpt lat="47.29951" lon="-1.59115">
        <ele>57</ele>
        <time>2011-10-09T06:58:54Z</time>
      </trkpt>
      <trkpt lat="47.29982" lon="-1.59104">
        <ele>56</ele>
        <time>2011-10-09T06:58:57Z</time>
      </trkpt>
      <trkpt lat="47.30001" lon="-1.59096">
        <ele>55</ele>
        <time>2011-10-09T06:58:59Z</time>
      </trkpt>
      <trkpt lat="47.30023" lon="-1.59088">
        <ele>55</ele>
        <time>2011-10-09T06:59:02Z</time>
      </trkpt>
      <trkpt lat="47.30034" lon="-1.59084">
        <ele>54</ele>
        <time>2011-10-09T06:59:04Z</time>
      </trkpt>
      <trkpt lat="47.30043" lon="-1.59063">
        <ele>52</ele>
        <time>2011-10-09T06:59:07Z</time>
      </trkpt>
      <trkpt lat="47.30048" lon="-1.5905">
        <ele>52</ele>
        <time>2011-10-09T06:59:09Z</time>
      </trkpt>
      <trkpt lat="47.30048" lon="-1.59035">
        <ele>52</ele>
        <time>2011-10-09T06:59:11Z</time>
      </trkpt>
      <trkpt lat="47.30055" lon="-1.59017">
        <ele>51</ele>
        <time>2011-10-09T06:59:14Z</time>
      </trkpt>
      <trkpt lat="47.30072" lon="-1.58997">
        <ele>49</ele>
        <time>2011-10-09T06:59:16Z</time>
      </trkpt>
      <trkpt lat="47.30095" lon="-1.5897">
        <ele>46</ele>
        <time>2011-10-09T06:59:19Z</time>
      </trkpt>
      <trkpt lat="47.30112" lon="-1.58973">
        <ele>46</ele>
        <time>2011-10-09T06:59:21Z</time>
      </trkpt>
      <trkpt lat="47.30138" lon="-1.58976">
        <ele>45</ele>
        <time>2011-10-09T06:59:24Z</time>
      </trkpt>
      <trkpt lat="47.30162" lon="-1.58976">
        <ele>44</ele>
        <time>2011-10-09T06:59:27Z</time>
      </trkpt>
      <trkpt lat="47.30186" lon="-1.58977">
        <ele>43</ele>
        <time>2011-10-09T06:59:30Z</time>
      </trkpt>
      <trkpt lat="47.3021" lon="-1.58979">
        <ele>43</ele>
        <time>2011-10-09T06:59:33Z</time>
      </trkpt>
      <trkpt lat="47.30232" lon="-1.58984">
        <ele>43</ele>
        <time>2011-10-09T06:59:36Z</time>
      </trkpt>
      <trkpt lat="47.30253" lon="-1.58989">
        <ele>43</ele>
        <time>2011-10-09T06:59:39Z</time>
      </trkpt>
      <trkpt lat="47.3027" lon="-1.58993">
        <ele>43</ele>
        <time>2011-10-09T06:59:42Z</time>
      </trkpt>
      <trkpt lat="47.30284" lon="-1.58995">
        <ele>42</ele>
        <time>2011-10-09T06:59:45Z</time>
      </trkpt>
      <trkpt lat="47.30299" lon="-1.58993">
        <ele>42</ele>
        <time>2011-10-09T06:59:48Z</time>
      </trkpt>
      <trkpt lat="47.30315" lon="-1.58987">
        <ele>41</ele>
        <time>2011-10-09T06:59:51Z</time>
      </trkpt>
      <trkpt lat="47.30331" lon="-1.58977">
        <ele>41</ele>
        <time>2011-10-09T06:59:54Z</time>
      </trkpt>
      <trkpt lat="47.30342" lon="-1.5897">
        <ele>40</ele>
        <time>2011-10-09T06:59:56Z</time>
      </trkpt>
      <trkpt lat="47.30359" lon="-1.58965">
        <ele>39</ele>
        <time>2011-10-09T06:59:59Z</time>
      </trkpt>
      <trkpt lat="47.3037" lon="-1.58962">
        <ele>39</ele>
        <time>2011-10-09T07:00:01Z</time>
      </trkpt>
      <trkpt lat="47.30381" lon="-1.58959">
        <ele>39</ele>
        <time>2011-10-09T07:00:03Z</time>
      </trkpt>
      <trkpt lat="47.30393" lon="-1.58956">
        <ele>39</ele>
        <time>2011-10-09T07:00:05Z</time>
      </trkpt>
      <trkpt lat="47.30405" lon="-1.58953">
        <ele>39</ele>
        <time>2011-10-09T07:00:08Z</time>
      </trkpt>
      <trkpt lat="47.30419" lon="-1.58949">
        <ele>38</ele>
        <time>2011-10-09T07:00:11Z</time>
      </trkpt>
      <trkpt lat="47.30434" lon="-1.58947">
        <ele>37</ele>
        <time>2011-10-09T07:00:14Z</time>
      </trkpt>
      <trkpt lat="47.30451" lon="-1.58942">
        <ele>37</ele>
        <time>2011-10-09T07:00:17Z</time>
      </trkpt>
      <trkpt lat="47.30468" lon="-1.58938">
        <ele>37</ele>
        <time>2011-10-09T07:00:20Z</time>
      </trkpt>
      <trkpt lat="47.3048" lon="-1.58937">
        <ele>37</ele>
        <time>2011-10-09T07:00:22Z</time>
      </trkpt>
      <trkpt lat="47.30488" lon="-1.58933">
        <ele>37</ele>
        <time>2011-10-09T07:00:25Z</time>
      </trkpt>
      <trkpt lat="47.3051" lon="-1.58944">
        <ele>35</ele>
        <time>2011-10-09T07:00:36Z</time>
      </trkpt>
      <trkpt lat="47.30516" lon="-1.58946">
        <ele>35</ele>
        <time>2011-10-09T07:00:38Z</time>
      </trkpt>
      <trkpt lat="47.30521" lon="-1.58949">
        <ele>35</ele>
        <time>2011-10-09T07:00:40Z</time>
      </trkpt>
      <trkpt lat="47.30521" lon="-1.58949">
        <ele>35</ele>
        <time>2011-10-09T07:00:41Z</time>
      </trkpt>
      <trkpt lat="47.30531" lon="-1.58976">
        <ele>35</ele>
        <time>2011-10-09T07:00:47Z</time>
      </trkpt>
      <trkpt lat="47.30532" lon="-1.58987">
        <ele>35</ele>
        <time>2011-10-09T07:00:49Z</time>
      </trkpt>
      <trkpt lat="47.30532" lon="-1.58996">
        <ele>35</ele>
        <time>2011-10-09T07:00:51Z</time>
      </trkpt>
      <trkpt lat="47.30532" lon="-1.58996">
        <ele>35</ele>
        <time>2011-10-09T07:00:53Z</time>
      </trkpt>
      <trkpt lat="47.30535" lon="-1.59049">
        <ele>35</ele>
        <time>2011-10-09T07:01:16Z</time>
      </trkpt>
      <trkpt lat="47.30536" lon="-1.59075">
        <ele>35</ele>
        <time>2011-10-09T07:01:21Z</time>
      </trkpt>
      <trkpt lat="47.30531" lon="-1.59083">
        <ele>35</ele>
        <time>2011-10-09T07:01:23Z</time>
      </trkpt>
      <trkpt lat="47.30524" lon="-1.59097">
        <ele>35</ele>
        <time>2011-10-09T07:01:26Z</time>
      </trkpt>
      <trkpt lat="47.3052" lon="-1.59106">
        <ele>35</ele>
        <time>2011-10-09T07:01:28Z</time>
      </trkpt>
      <trkpt lat="47.30514" lon="-1.5912">
        <ele>35</ele>
        <time>2011-10-09T07:01:31Z</time>
      </trkpt>
      <trkpt lat="47.30511" lon="-1.59127">
        <ele>34</ele>
        <time>2011-10-09T07:01:33Z</time>
      </trkpt>
      <trkpt lat="47.30508" lon="-1.59137">
        <ele>34</ele>
        <time>2011-10-09T07:01:36Z</time>
      </trkpt>
      <trkpt lat="47.30496" lon="-1.59179">
        <ele>34</ele>
        <time>2011-10-09T07:01:41Z</time>
      </trkpt>
      <trkpt lat="47.30491" lon="-1.59201">
        <ele>34</ele>
        <time>2011-10-09T07:01:44Z</time>
      </trkpt>
      <trkpt lat="47.30487" lon="-1.59225">
        <ele>34</ele>
        <time>2011-10-09T07:01:47Z</time>
      </trkpt>
      <trkpt lat="47.30485" lon="-1.5924">
        <ele>34</ele>
        <time>2011-10-09T07:01:49Z</time>
      </trkpt>
      <trkpt lat="47.30483" lon="-1.59256">
        <ele>35</ele>
        <time>2011-10-09T07:01:51Z</time>
      </trkpt>
      <trkpt lat="47.30481" lon="-1.59278">
        <ele>35</ele>
        <time>2011-10-09T07:01:54Z</time>
      </trkpt>
      <trkpt lat="47.30481" lon="-1.59292">
        <ele>35</ele>
        <time>2011-10-09T07:01:56Z</time>
      </trkpt>
      <trkpt lat="47.30479" lon="-1.5931">
        <ele>36</ele>
        <time>2011-10-09T07:01:59Z</time>
      </trkpt>
      <trkpt lat="47.30478" lon="-1.59329">
        <ele>36</ele>
        <time>2011-10-09T07:02:02Z</time>
      </trkpt>
      <trkpt lat="47.30478" lon="-1.59341">
        <ele>37</ele>
        <time>2011-10-09T07:02:04Z</time>
      </trkpt>
      <trkpt lat="47.30478" lon="-1.59351">
        <ele>37</ele>
        <time>2011-10-09T07:02:06Z</time>
      </trkpt>
      <trkpt lat="47.30487" lon="-1.59356">
        <ele>37</ele>
        <time>2011-10-09T07:02:09Z</time>
      </trkpt>
      <trkpt lat="47.30499" lon="-1.59355">
        <ele>37</ele>
        <time>2011-10-09T07:02:12Z</time>
      </trkpt>
      <trkpt lat="47.30511" lon="-1.59354">
        <ele>38</ele>
        <time>2011-10-09T07:02:15Z</time>
      </trkpt>
      <trkpt lat="47.30522" lon="-1.59354">
        <ele>38</ele>
        <time>2011-10-09T07:02:18Z</time>
      </trkpt>
      <trkpt lat="47.30533" lon="-1.59354">
        <ele>39</ele>
        <time>2011-10-09T07:02:21Z</time>
      </trkpt>
      <trkpt lat="47.30541" lon="-1.59355">
        <ele>39</ele>
        <time>2011-10-09T07:02:23Z</time>
      </trkpt>
      <trkpt lat="47.30551" lon="-1.59357">
        <ele>39</ele>
        <time>2011-10-09T07:02:26Z</time>
      </trkpt>
      <trkpt lat="47.3056" lon="-1.59359">
        <ele>40</ele>
        <time>2011-10-09T07:02:29Z</time>
      </trkpt>
      <trkpt lat="47.30567" lon="-1.59361">
        <ele>40</ele>
        <time>2011-10-09T07:02:31Z</time>
      </trkpt>
      <trkpt lat="47.30576" lon="-1.59363">
        <ele>40</ele>
        <time>2011-10-09T07:02:34Z</time>
      </trkpt>
      <trkpt lat="47.30582" lon="-1.59365">
        <ele>40</ele>
        <time>2011-10-09T07:02:36Z</time>
      </trkpt>
      <trkpt lat="47.30591" lon="-1.59367">
        <ele>43</ele>
        <time>2011-10-09T07:02:39Z</time>
      </trkpt>
      <trkpt lat="47.30597" lon="-1.59369">
        <ele>43</ele>
        <time>2011-10-09T07:02:41Z</time>
      </trkpt>
      <trkpt lat="47.30604" lon="-1.59371">
        <ele>43</ele>
        <time>2011-10-09T07:02:43Z</time>
      </trkpt>
      <trkpt lat="47.30612" lon="-1.59373">
        <ele>44</ele>
        <time>2011-10-09T07:02:46Z</time>
      </trkpt>
      <trkpt lat="47.30618" lon="-1.59375">
        <ele>44</ele>
        <time>2011-10-09T07:02:48Z</time>
      </trkpt>
      <trkpt lat="47.30627" lon="-1.59378">
        <ele>44</ele>
        <time>2011-10-09T07:02:51Z</time>
      </trkpt>
      <trkpt lat="47.30636" lon="-1.59381">
        <ele>44</ele>
        <time>2011-10-09T07:02:54Z</time>
      </trkpt>
      <trkpt lat="47.30645" lon="-1.59383">
        <ele>45</ele>
        <time>2011-10-09T07:02:57Z</time>
      </trkpt>
      <trkpt lat="47.30651" lon="-1.59385">
        <ele>45</ele>
        <time>2011-10-09T07:02:59Z</time>
      </trkpt>
      <trkpt lat="47.30661" lon="-1.59387">
        <ele>45</ele>
        <time>2011-10-09T07:03:02Z</time>
      </trkpt>
      <trkpt lat="47.30668" lon="-1.59388">
        <ele>47</ele>
        <time>2011-10-09T07:03:04Z</time>
      </trkpt>
      <trkpt lat="47.30679" lon="-1.59389">
        <ele>47</ele>
        <time>2011-10-09T07:03:07Z</time>
      </trkpt>
      <trkpt lat="47.30686" lon="-1.59389">
        <ele>47</ele>
        <time>2011-10-09T07:03:09Z</time>
      </trkpt>
      <trkpt lat="47.30694" lon="-1.59391">
        <ele>47</ele>
        <time>2011-10-09T07:03:11Z</time>
      </trkpt>
      <trkpt lat="47.30706" lon="-1.59392">
        <ele>47</ele>
        <time>2011-10-09T07:03:14Z</time>
      </trkpt>
      <trkpt lat="47.30718" lon="-1.59393">
        <ele>47</ele>
        <time>2011-10-09T07:03:17Z</time>
      </trkpt>
      <trkpt lat="47.30733" lon="-1.59392">
        <ele>47</ele>
        <time>2011-10-09T07:03:20Z</time>
      </trkpt>
      <trkpt lat="47.30744" lon="-1.5939">
        <ele>47</ele>
        <time>2011-10-09T07:03:22Z</time>
      </trkpt>
      <trkpt lat="47.30759" lon="-1.59387">
        <ele>47</ele>
        <time>2011-10-09T07:03:25Z</time>
      </trkpt>
      <trkpt lat="47.30769" lon="-1.59388">
        <ele>47</ele>
        <time>2011-10-09T07:03:27Z</time>
      </trkpt>
      <trkpt lat="47.30779" lon="-1.59387">
        <ele>47</ele>
        <time>2011-10-09T07:03:29Z</time>
      </trkpt>
      <trkpt lat="47.30789" lon="-1.59386">
        <ele>47</ele>
        <time>2011-10-09T07:03:31Z</time>
      </trkpt>
      <trkpt lat="47.30805" lon="-1.59385">
        <ele>47</ele>
        <time>2011-10-09T07:03:34Z</time>
      </trkpt>
      <trkpt lat="47.30823" lon="-1.59387">
        <ele>47</ele>
        <time>2011-10-09T07:03:37Z</time>
      </trkpt>
      <trkpt lat="47.30837" lon="-1.59391">
        <ele>46</ele>
        <time>2011-10-09T07:03:39Z</time>
      </trkpt>
      <trkpt lat="47.30856" lon="-1.59395">
        <ele>46</ele>
        <time>2011-10-09T07:03:42Z</time>
      </trkpt>
      <trkpt lat="47.30867" lon="-1.59398">
        <ele>46</ele>
        <time>2011-10-09T07:03:44Z</time>
      </trkpt>
      <trkpt lat="47.30878" lon="-1.59396">
        <ele>46</ele>
        <time>2011-10-09T07:03:47Z</time>
      </trkpt>
      <trkpt lat="47.30885" lon="-1.59383">
        <ele>46</ele>
        <time>2011-10-09T07:03:50Z</time>
      </trkpt>
      <trkpt lat="47.30888" lon="-1.59364">
        <ele>47</ele>
        <time>2011-10-09T07:03:53Z</time>
      </trkpt>
      <trkpt lat="47.30889" lon="-1.59343">
        <ele>47</ele>
        <time>2011-10-09T07:03:56Z</time>
      </trkpt>
      <trkpt lat="47.3089" lon="-1.59329">
        <ele>47</ele>
        <time>2011-10-09T07:03:58Z</time>
      </trkpt>
      <trkpt lat="47.30893" lon="-1.59308">
        <ele>47</ele>
        <time>2011-10-09T07:04:01Z</time>
      </trkpt>
      <trkpt lat="47.30899" lon="-1.59296">
        <ele>47</ele>
        <time>2011-10-09T07:04:03Z</time>
      </trkpt>
      <trkpt lat="47.30909" lon="-1.59278">
        <ele>46</ele>
        <time>2011-10-09T07:04:06Z</time>
      </trkpt>
      <trkpt lat="47.30918" lon="-1.59263">
        <ele>45</ele>
        <time>2011-10-09T07:04:08Z</time>
      </trkpt>
      <trkpt lat="47.30935" lon="-1.59236">
        <ele>43</ele>
        <time>2011-10-09T07:04:11Z</time>
      </trkpt>
      <trkpt lat="47.30954" lon="-1.59209">
        <ele>41</ele>
        <time>2011-10-09T07:04:14Z</time>
      </trkpt>
      <trkpt lat="47.30972" lon="-1.59189">
        <ele>41</ele>
        <time>2011-10-09T07:04:17Z</time>
      </trkpt>
      <trkpt lat="47.30988" lon="-1.59186">
        <ele>40</ele>
        <time>2011-10-09T07:04:20Z</time>
      </trkpt>
      <trkpt lat="47.30996" lon="-1.59202">
        <ele>40</ele>
        <time>2011-10-09T07:04:23Z</time>
      </trkpt>
      <trkpt lat="47.31002" lon="-1.59223">
        <ele>38</ele>
        <time>2011-10-09T07:04:26Z</time>
      </trkpt>
      <trkpt lat="47.31007" lon="-1.59242">
        <ele>39</ele>
        <time>2011-10-09T07:04:29Z</time>
      </trkpt>
      <trkpt lat="47.3101" lon="-1.59254">
        <ele>40</ele>
        <time>2011-10-09T07:04:31Z</time>
      </trkpt>
      <trkpt lat="47.31016" lon="-1.59272">
        <ele>39</ele>
        <time>2011-10-09T07:04:34Z</time>
      </trkpt>
      <trkpt lat="47.31019" lon="-1.59284">
        <ele>40</ele>
        <time>2011-10-09T07:04:36Z</time>
      </trkpt>
      <trkpt lat="47.3102" lon="-1.59296">
        <ele>40</ele>
        <time>2011-10-09T07:04:38Z</time>
      </trkpt>
      <trkpt lat="47.31023" lon="-1.59314">
        <ele>40</ele>
        <time>2011-10-09T07:04:41Z</time>
      </trkpt>
      <trkpt lat="47.31027" lon="-1.59326">
        <ele>41</ele>
        <time>2011-10-09T07:04:43Z</time>
      </trkpt>
      <trkpt lat="47.31032" lon="-1.59344">
        <ele>41</ele>
        <time>2011-10-09T07:04:46Z</time>
      </trkpt>
      <trkpt lat="47.31033" lon="-1.59358">
        <ele>40</ele>
        <time>2011-10-09T07:04:48Z</time>
      </trkpt>
      <trkpt lat="47.3103" lon="-1.59371">
        <ele>40</ele>
        <time>2011-10-09T07:04:50Z</time>
      </trkpt>
      <trkpt lat="47.31023" lon="-1.5939">
        <ele>40</ele>
        <time>2011-10-09T07:04:53Z</time>
      </trkpt>
      <trkpt lat="47.31019" lon="-1.59398">
        <ele>41</ele>
        <time>2011-10-09T07:04:55Z</time>
      </trkpt>
      <trkpt lat="47.3101" lon="-1.59417">
        <ele>40</ele>
        <time>2011-10-09T07:04:58Z</time>
      </trkpt>
      <trkpt lat="47.31004" lon="-1.59435">
        <ele>39</ele>
        <time>2011-10-09T07:05:00Z</time>
      </trkpt>
      <trkpt lat="47.30997" lon="-1.59474">
        <ele>38</ele>
        <time>2011-10-09T07:05:03Z</time>
      </trkpt>
      <trkpt lat="47.30996" lon="-1.59494">
        <ele>35</ele>
        <time>2011-10-09T07:05:05Z</time>
      </trkpt>
      <trkpt lat="47.31005" lon="-1.59507">
        <ele>33</ele>
        <time>2011-10-09T07:05:07Z</time>
      </trkpt>
      <trkpt lat="47.31017" lon="-1.59514">
        <ele>32</ele>
        <time>2011-10-09T07:05:09Z</time>
      </trkpt>
      <trkpt lat="47.31029" lon="-1.5952">
        <ele>32</ele>
        <time>2011-10-09T07:05:11Z</time>
      </trkpt>
      <trkpt lat="47.31041" lon="-1.59525">
        <ele>31</ele>
        <time>2011-10-09T07:05:13Z</time>
      </trkpt>
      <trkpt lat="47.31052" lon="-1.59531">
        <ele>31</ele>
        <time>2011-10-09T07:05:15Z</time>
      </trkpt>
      <trkpt lat="47.31065" lon="-1.59543">
        <ele>31</ele>
        <time>2011-10-09T07:05:18Z</time>
      </trkpt>
      <trkpt lat="47.31065" lon="-1.59543">
        <ele>31</ele>
        <time>2011-10-09T07:05:20Z</time>
      </trkpt>
      <trkpt lat="47.31095" lon="-1.59547">
        <ele>29</ele>
        <time>2011-10-09T07:05:43Z</time>
      </trkpt>
      <trkpt lat="47.31095" lon="-1.59547">
        <ele>29</ele>
        <time>2011-10-09T07:05:47Z</time>
      </trkpt>
      <trkpt lat="47.31122" lon="-1.59529">
        <ele>29</ele>
        <time>2011-10-09T07:05:54Z</time>
      </trkpt>
      <trkpt lat="47.3115" lon="-1.59515">
        <ele>29</ele>
        <time>2011-10-09T07:05:58Z</time>
      </trkpt>
      <trkpt lat="47.31178" lon="-1.59511">
        <ele>28</ele>
        <time>2011-10-09T07:06:06Z</time>
      </trkpt>
      <trkpt lat="47.31176" lon="-1.59519">
        <ele>28</ele>
        <time>2011-10-09T07:06:09Z</time>
      </trkpt>
      <trkpt lat="47.31176" lon="-1.59526">
        <ele>28</ele>
        <time>2011-10-09T07:06:11Z</time>
      </trkpt>
      <trkpt lat="47.31178" lon="-1.59535">
        <ele>28</ele>
        <time>2011-10-09T07:06:14Z</time>
      </trkpt>
      <trkpt lat="47.31173" lon="-1.59559">
        <ele>28</ele>
        <time>2011-10-09T07:06:19Z</time>
      </trkpt>
      <trkpt lat="47.31171" lon="-1.59567">
        <ele>28</ele>
        <time>2011-10-09T07:06:21Z</time>
      </trkpt>
      <trkpt lat="47.31171" lon="-1.59567">
        <ele>28</ele>
        <time>2011-10-09T07:06:23Z</time>
      </trkpt>
      <trkpt lat="47.31157" lon="-1.59604">
        <ele>29</ele>
        <time>2011-10-09T07:06:30Z</time>
      </trkpt>
      <trkpt lat="47.31157" lon="-1.59604">
        <ele>29</ele>
        <time>2011-10-09T07:06:33Z</time>
      </trkpt>
      <trkpt lat="47.31195" lon="-1.59581">
        <ele>28</ele>
        <time>2011-10-09T07:07:11Z</time>
      </trkpt>
      <trkpt lat="47.31196" lon="-1.59564">
        <ele>28</ele>
        <time>2011-10-09T07:07:13Z</time>
      </trkpt>
      <trkpt lat="47.31196" lon="-1.59545">
        <ele>28</ele>
        <time>2011-10-09T07:07:16Z</time>
      </trkpt>
      <trkpt lat="47.31203" lon="-1.59541">
        <ele>28</ele>
        <time>2011-10-09T07:07:18Z</time>
      </trkpt>
      <trkpt lat="47.31203" lon="-1.59541">
        <ele>28</ele>
        <time>2011-10-09T07:07:19Z</time>
      </trkpt>
      <trkpt lat="47.31244" lon="-1.59557">
        <ele>28</ele>
        <time>2011-10-09T07:07:42Z</time>
      </trkpt>
      <trkpt lat="47.31244" lon="-1.59557">
        <ele>28</ele>
        <time>2011-10-09T07:07:46Z</time>
      </trkpt>
      <trkpt lat="47.31264" lon="-1.59586">
        <ele>26</ele>
        <time>2011-10-09T07:08:00Z</time>
      </trkpt>
      <trkpt lat="47.3127" lon="-1.59607">
        <ele>25</ele>
        <time>2011-10-09T07:08:07Z</time>
      </trkpt>
      <trkpt lat="47.31271" lon="-1.59616">
        <ele>25</ele>
        <time>2011-10-09T07:08:09Z</time>
      </trkpt>
      <trkpt lat="47.31272" lon="-1.59625">
        <ele>25</ele>
        <time>2011-10-09T07:08:11Z</time>
      </trkpt>
      <trkpt lat="47.31275" lon="-1.59639">
        <ele>25</ele>
        <time>2011-10-09T07:08:14Z</time>
      </trkpt>
      <trkpt lat="47.31278" lon="-1.59653">
        <ele>25</ele>
        <time>2011-10-09T07:08:16Z</time>
      </trkpt>
      <trkpt lat="47.31286" lon="-1.59673">
        <ele>27</ele>
        <time>2011-10-09T07:08:19Z</time>
      </trkpt>
      <trkpt lat="47.31293" lon="-1.5969">
        <ele>27</ele>
        <time>2011-10-09T07:08:22Z</time>
      </trkpt>
      <trkpt lat="47.31297" lon="-1.59705">
        <ele>27</ele>
        <time>2011-10-09T07:08:25Z</time>
      </trkpt>
      <trkpt lat="47.31302" lon="-1.59721">
        <ele>27</ele>
        <time>2011-10-09T07:08:28Z</time>
      </trkpt>
      <trkpt lat="47.31305" lon="-1.5973">
        <ele>27</ele>
        <time>2011-10-09T07:08:30Z</time>
      </trkpt>
      <trkpt lat="47.31313" lon="-1.59749">
        <ele>27</ele>
        <time>2011-10-09T07:08:33Z</time>
      </trkpt>
      <trkpt lat="47.31317" lon="-1.59759">
        <ele>29</ele>
        <time>2011-10-09T07:08:35Z</time>
      </trkpt>
      <trkpt lat="47.31321" lon="-1.59771">
        <ele>29</ele>
        <time>2011-10-09T07:08:38Z</time>
      </trkpt>
      <trkpt lat="47.3132" lon="-1.59784">
        <ele>29</ele>
        <time>2011-10-09T07:08:41Z</time>
      </trkpt>
      <trkpt lat="47.3132" lon="-1.59784">
        <ele>29</ele>
        <time>2011-10-09T07:08:43Z</time>
      </trkpt>
      <trkpt lat="47.31326" lon="-1.59826">
        <ele>28</ele>
        <time>2011-10-09T07:08:51Z</time>
      </trkpt>
      <trkpt lat="47.31326" lon="-1.59826">
        <ele>28</ele>
        <time>2011-10-09T07:08:54Z</time>
      </trkpt>
      <trkpt lat="47.31329" lon="-1.59866">
        <ele>29</ele>
        <time>2011-10-09T07:09:04Z</time>
      </trkpt>
      <trkpt lat="47.31329" lon="-1.59866">
        <ele>29</ele>
        <time>2011-10-09T07:09:08Z</time>
      </trkpt>
      <trkpt lat="47.31327" lon="-1.59908">
        <ele>27</ele>
        <time>2011-10-09T07:09:18Z</time>
      </trkpt>
      <trkpt lat="47.31326" lon="-1.59925">
        <ele>26</ele>
        <time>2011-10-09T07:09:21Z</time>
      </trkpt>
      <trkpt lat="47.31324" lon="-1.59951">
        <ele>26</ele>
        <time>2011-10-09T07:09:32Z</time>
      </trkpt>
      <trkpt lat="47.31327" lon="-1.59963">
        <ele>26</ele>
        <time>2011-10-09T07:09:35Z</time>
      </trkpt>
      <trkpt lat="47.31328" lon="-1.59975">
        <ele>25</ele>
        <time>2011-10-09T07:09:38Z</time>
      </trkpt>
      <trkpt lat="47.31327" lon="-1.59983">
        <ele>24</ele>
        <time>2011-10-09T07:09:40Z</time>
      </trkpt>
      <trkpt lat="47.31323" lon="-1.59992">
        <ele>23</ele>
        <time>2011-10-09T07:09:43Z</time>
      </trkpt>
      <trkpt lat="47.31323" lon="-1.59992">
        <ele>23</ele>
        <time>2011-10-09T07:09:44Z</time>
      </trkpt>
      <trkpt lat="47.31285" lon="-1.60021">
        <ele>26</ele>
        <time>2011-10-09T07:10:04Z</time>
      </trkpt>
      <trkpt lat="47.31285" lon="-1.60021">
        <ele>26</ele>
        <time>2011-10-09T07:10:07Z</time>
      </trkpt>
      <trkpt lat="47.31256" lon="-1.60047">
        <ele>27</ele>
        <time>2011-10-09T07:10:13Z</time>
      </trkpt>
      <trkpt lat="47.31247" lon="-1.60054">
        <ele>31</ele>
        <time>2011-10-09T07:10:15Z</time>
      </trkpt>
      <trkpt lat="47.31237" lon="-1.60058">
        <ele>31</ele>
        <time>2011-10-09T07:10:17Z</time>
      </trkpt>
      <trkpt lat="47.31227" lon="-1.60061">
        <ele>31</ele>
        <time>2011-10-09T07:10:19Z</time>
      </trkpt>
      <trkpt lat="47.31212" lon="-1.60066">
        <ele>32</ele>
        <time>2011-10-09T07:10:22Z</time>
      </trkpt>
      <trkpt lat="47.31199" lon="-1.60071">
        <ele>32</ele>
        <time>2011-10-09T07:10:25Z</time>
      </trkpt>
      <trkpt lat="47.3119" lon="-1.60074">
        <ele>32</ele>
        <time>2011-10-09T07:10:27Z</time>
      </trkpt>
      <trkpt lat="47.31178" lon="-1.6008">
        <ele>33</ele>
        <time>2011-10-09T07:10:30Z</time>
      </trkpt>
      <trkpt lat="47.31171" lon="-1.60083">
        <ele>34</ele>
        <time>2011-10-09T07:10:32Z</time>
      </trkpt>
      <trkpt lat="47.3116" lon="-1.60089">
        <ele>35</ele>
        <time>2011-10-09T07:10:35Z</time>
      </trkpt>
      <trkpt lat="47.3115" lon="-1.60096">
        <ele>36</ele>
        <time>2011-10-09T07:10:38Z</time>
      </trkpt>
      <trkpt lat="47.31139" lon="-1.601">
        <ele>37</ele>
        <time>2011-10-09T07:10:41Z</time>
      </trkpt>
      <trkpt lat="47.31132" lon="-1.60103">
        <ele>37</ele>
        <time>2011-10-09T07:10:43Z</time>
      </trkpt>
      <trkpt lat="47.3112" lon="-1.60107">
        <ele>38</ele>
        <time>2011-10-09T07:10:46Z</time>
      </trkpt>
      <trkpt lat="47.31109" lon="-1.6011">
        <ele>38</ele>
        <time>2011-10-09T07:10:49Z</time>
      </trkpt>
      <trkpt lat="47.31102" lon="-1.60111">
        <ele>38</ele>
        <time>2011-10-09T07:10:51Z</time>
      </trkpt>
      <trkpt lat="47.31096" lon="-1.60112">
        <ele>38</ele>
        <time>2011-10-09T07:10:53Z</time>
      </trkpt>
      <trkpt lat="47.31088" lon="-1.60113">
        <ele>39</ele>
        <time>2011-10-09T07:10:56Z</time>
      </trkpt>
      <trkpt lat="47.3108" lon="-1.60115">
        <ele>42</ele>
        <time>2011-10-09T07:10:59Z</time>
      </trkpt>
      <trkpt lat="47.31076" lon="-1.60122">
        <ele>42</ele>
        <time>2011-10-09T07:11:02Z</time>
      </trkpt>
      <trkpt lat="47.31076" lon="-1.60133">
        <ele>42</ele>
        <time>2011-10-09T07:11:05Z</time>
      </trkpt>
      <trkpt lat="47.31078" lon="-1.60143">
        <ele>42</ele>
        <time>2011-10-09T07:11:07Z</time>
      </trkpt>
      <trkpt lat="47.31082" lon="-1.60152">
        <ele>42</ele>
        <time>2011-10-09T07:11:09Z</time>
      </trkpt>
      <trkpt lat="47.31088" lon="-1.60167">
        <ele>41</ele>
        <time>2011-10-09T07:11:12Z</time>
      </trkpt>
      <trkpt lat="47.31095" lon="-1.60182">
        <ele>40</ele>
        <time>2011-10-09T07:11:15Z</time>
      </trkpt>
      <trkpt lat="47.31103" lon="-1.60196">
        <ele>40</ele>
        <time>2011-10-09T07:11:18Z</time>
      </trkpt>
      <trkpt lat="47.31111" lon="-1.6021">
        <ele>40</ele>
        <time>2011-10-09T07:11:21Z</time>
      </trkpt>
      <trkpt lat="47.31117" lon="-1.60218">
        <ele>40</ele>
        <time>2011-10-09T07:11:23Z</time>
      </trkpt>
      <trkpt lat="47.31124" lon="-1.60233">
        <ele>40</ele>
        <time>2011-10-09T07:11:26Z</time>
      </trkpt>
      <trkpt lat="47.3113" lon="-1.60249">
        <ele>39</ele>
        <time>2011-10-09T07:11:29Z</time>
      </trkpt>
      <trkpt lat="47.31136" lon="-1.60266">
        <ele>40</ele>
        <time>2011-10-09T07:11:32Z</time>
      </trkpt>
      <trkpt lat="47.31143" lon="-1.60283">
        <ele>40</ele>
        <time>2011-10-09T07:11:35Z</time>
      </trkpt>
      <trkpt lat="47.31148" lon="-1.60301">
        <ele>40</ele>
        <time>2011-10-09T07:11:38Z</time>
      </trkpt>
      <trkpt lat="47.31157" lon="-1.60325">
        <ele>39</ele>
        <time>2011-10-09T07:11:41Z</time>
      </trkpt>
      <trkpt lat="47.31169" lon="-1.60354">
        <ele>35</ele>
        <time>2011-10-09T07:11:44Z</time>
      </trkpt>
      <trkpt lat="47.31184" lon="-1.60386">
        <ele>35</ele>
        <time>2011-10-09T07:11:47Z</time>
      </trkpt>
      <trkpt lat="47.31194" lon="-1.60407">
        <ele>35</ele>
        <time>2011-10-09T07:11:49Z</time>
      </trkpt>
      <trkpt lat="47.31208" lon="-1.60438">
        <ele>35</ele>
        <time>2011-10-09T07:11:52Z</time>
      </trkpt>
      <trkpt lat="47.31229" lon="-1.60451">
        <ele>35</ele>
        <time>2011-10-09T07:11:55Z</time>
      </trkpt>
      <trkpt lat="47.31246" lon="-1.60455">
        <ele>35</ele>
        <time>2011-10-09T07:11:58Z</time>
      </trkpt>
      <trkpt lat="47.31264" lon="-1.60446">
        <ele>34</ele>
        <time>2011-10-09T07:12:01Z</time>
      </trkpt>
      <trkpt lat="47.31278" lon="-1.6044">
        <ele>33</ele>
        <time>2011-10-09T07:12:03Z</time>
      </trkpt>
      <trkpt lat="47.3129" lon="-1.60434">
        <ele>33</ele>
        <time>2011-10-09T07:12:05Z</time>
      </trkpt>
      <trkpt lat="47.31309" lon="-1.60426">
        <ele>33</ele>
        <time>2011-10-09T07:12:08Z</time>
      </trkpt>
      <trkpt lat="47.31329" lon="-1.60422">
        <ele>32</ele>
        <time>2011-10-09T07:12:11Z</time>
      </trkpt>
      <trkpt lat="47.31344" lon="-1.60421">
        <ele>32</ele>
        <time>2011-10-09T07:12:13Z</time>
      </trkpt>
      <trkpt lat="47.31364" lon="-1.60421">
        <ele>33</ele>
        <time>2011-10-09T07:12:16Z</time>
      </trkpt>
      <trkpt lat="47.31378" lon="-1.60423">
        <ele>32</ele>
        <time>2011-10-09T07:12:18Z</time>
      </trkpt>
      <trkpt lat="47.31391" lon="-1.60425">
        <ele>32</ele>
        <time>2011-10-09T07:12:20Z</time>
      </trkpt>
      <trkpt lat="47.31403" lon="-1.60429">
        <ele>32</ele>
        <time>2011-10-09T07:12:22Z</time>
      </trkpt>
      <trkpt lat="47.31422" lon="-1.60437">
        <ele>28</ele>
        <time>2011-10-09T07:12:25Z</time>
      </trkpt>
      <trkpt lat="47.31434" lon="-1.60444">
        <ele>27</ele>
        <time>2011-10-09T07:12:27Z</time>
      </trkpt>
      <trkpt lat="47.31448" lon="-1.60456">
        <ele>26</ele>
        <time>2011-10-09T07:12:29Z</time>
      </trkpt>
      <trkpt lat="47.31471" lon="-1.60487">
        <ele>25</ele>
        <time>2011-10-09T07:12:32Z</time>
      </trkpt>
      <trkpt lat="47.31494" lon="-1.60521">
        <ele>26</ele>
        <time>2011-10-09T07:12:35Z</time>
      </trkpt>
      <trkpt lat="47.31517" lon="-1.60559">
        <ele>22</ele>
        <time>2011-10-09T07:12:38Z</time>
      </trkpt>
      <trkpt lat="47.31532" lon="-1.60595">
        <ele>23</ele>
        <time>2011-10-09T07:12:41Z</time>
      </trkpt>
      <trkpt lat="47.31543" lon="-1.60628">
        <ele>22</ele>
        <time>2011-10-09T07:12:44Z</time>
      </trkpt>
      <trkpt lat="47.31554" lon="-1.60658">
        <ele>21</ele>
        <time>2011-10-09T07:12:47Z</time>
      </trkpt>
      <trkpt lat="47.31558" lon="-1.60698">
        <ele>22</ele>
        <time>2011-10-09T07:12:50Z</time>
      </trkpt>
      <trkpt lat="47.3156" lon="-1.60735">
        <ele>21</ele>
        <time>2011-10-09T07:12:53Z</time>
      </trkpt>
      <trkpt lat="47.31561" lon="-1.60774">
        <ele>21</ele>
        <time>2011-10-09T07:12:56Z</time>
      </trkpt>
      <trkpt lat="47.31562" lon="-1.60813">
        <ele>21</ele>
        <time>2011-10-09T07:12:59Z</time>
      </trkpt>
      <trkpt lat="47.31564" lon="-1.60838">
        <ele>20</ele>
        <time>2011-10-09T07:13:01Z</time>
      </trkpt>
      <trkpt lat="47.31566" lon="-1.60875">
        <ele>20</ele>
        <time>2011-10-09T07:13:04Z</time>
      </trkpt>
      <trkpt lat="47.31567" lon="-1.60896">
        <ele>20</ele>
        <time>2011-10-09T07:13:06Z</time>
      </trkpt>
      <trkpt lat="47.31569" lon="-1.60913">
        <ele>19</ele>
        <time>2011-10-09T07:13:08Z</time>
      </trkpt>
      <trkpt lat="47.3157" lon="-1.60931">
        <ele>20</ele>
        <time>2011-10-09T07:13:11Z</time>
      </trkpt>
      <trkpt lat="47.3157" lon="-1.60943">
        <ele>21</ele>
        <time>2011-10-09T07:13:13Z</time>
      </trkpt>
      <trkpt lat="47.31575" lon="-1.60962">
        <ele>22</ele>
        <time>2011-10-09T07:13:16Z</time>
      </trkpt>
      <trkpt lat="47.31579" lon="-1.60973">
        <ele>22</ele>
        <time>2011-10-09T07:13:18Z</time>
      </trkpt>
      <trkpt lat="47.31583" lon="-1.60991">
        <ele>23</ele>
        <time>2011-10-09T07:13:21Z</time>
      </trkpt>
      <trkpt lat="47.31586" lon="-1.61002">
        <ele>24</ele>
        <time>2011-10-09T07:13:23Z</time>
      </trkpt>
      <trkpt lat="47.3159" lon="-1.61013">
        <ele>24</ele>
        <time>2011-10-09T07:13:25Z</time>
      </trkpt>
      <trkpt lat="47.31594" lon="-1.6103">
        <ele>25</ele>
        <time>2011-10-09T07:13:28Z</time>
      </trkpt>
      <trkpt lat="47.31598" lon="-1.61046">
        <ele>25</ele>
        <time>2011-10-09T07:13:31Z</time>
      </trkpt>
      <trkpt lat="47.31601" lon="-1.61063">
        <ele>26</ele>
        <time>2011-10-09T07:13:34Z</time>
      </trkpt>
      <trkpt lat="47.31604" lon="-1.61074">
        <ele>26</ele>
        <time>2011-10-09T07:13:36Z</time>
      </trkpt>
      <trkpt lat="47.31609" lon="-1.61091">
        <ele>28</ele>
        <time>2011-10-09T07:13:39Z</time>
      </trkpt>
      <trkpt lat="47.31614" lon="-1.61107">
        <ele>28</ele>
        <time>2011-10-09T07:13:42Z</time>
      </trkpt>
      <trkpt lat="47.31619" lon="-1.61118">
        <ele>28</ele>
        <time>2011-10-09T07:13:44Z</time>
      </trkpt>
      <trkpt lat="47.31626" lon="-1.61131">
        <ele>28</ele>
        <time>2011-10-09T07:13:47Z</time>
      </trkpt>
      <trkpt lat="47.31637" lon="-1.61144">
        <ele>28</ele>
        <time>2011-10-09T07:13:50Z</time>
      </trkpt>
      <trkpt lat="47.31646" lon="-1.61153">
        <ele>27</ele>
        <time>2011-10-09T07:13:52Z</time>
      </trkpt>
      <trkpt lat="47.31666" lon="-1.61167">
        <ele>26</ele>
        <time>2011-10-09T07:13:55Z</time>
      </trkpt>
      <trkpt lat="47.31678" lon="-1.6118">
        <ele>26</ele>
        <time>2011-10-09T07:13:57Z</time>
      </trkpt>
      <trkpt lat="47.31699" lon="-1.61189">
        <ele>26</ele>
        <time>2011-10-09T07:14:00Z</time>
      </trkpt>
      <trkpt lat="47.31722" lon="-1.61194">
        <ele>26</ele>
        <time>2011-10-09T07:14:03Z</time>
      </trkpt>
      <trkpt lat="47.31739" lon="-1.61199">
        <ele>25</ele>
        <time>2011-10-09T07:14:05Z</time>
      </trkpt>
      <trkpt lat="47.31763" lon="-1.61217">
        <ele>23</ele>
        <time>2011-10-09T07:14:08Z</time>
      </trkpt>
      <trkpt lat="47.31784" lon="-1.61243">
        <ele>22</ele>
        <time>2011-10-09T07:14:11Z</time>
      </trkpt>
      <trkpt lat="47.31804" lon="-1.61273">
        <ele>24</ele>
        <time>2011-10-09T07:14:14Z</time>
      </trkpt>
      <trkpt lat="47.31818" lon="-1.61294">
        <ele>24</ele>
        <time>2011-10-09T07:14:16Z</time>
      </trkpt>
      <trkpt lat="47.31837" lon="-1.61326">
        <ele>20</ele>
        <time>2011-10-09T07:14:19Z</time>
      </trkpt>
      <trkpt lat="47.31847" lon="-1.61349">
        <ele>21</ele>
        <time>2011-10-09T07:14:21Z</time>
      </trkpt>
      <trkpt lat="47.3186" lon="-1.61382">
        <ele>22</ele>
        <time>2011-10-09T07:14:24Z</time>
      </trkpt>
      <trkpt lat="47.31868" lon="-1.61404">
        <ele>23</ele>
        <time>2011-10-09T07:14:26Z</time>
      </trkpt>
      <trkpt lat="47.31875" lon="-1.61424">
        <ele>25</ele>
        <time>2011-10-09T07:14:29Z</time>
      </trkpt>
      <trkpt lat="47.31878" lon="-1.61436">
        <ele>25</ele>
        <time>2011-10-09T07:14:31Z</time>
      </trkpt>
      <trkpt lat="47.31882" lon="-1.61448">
        <ele>25</ele>
        <time>2011-10-09T07:14:33Z</time>
      </trkpt>
      <trkpt lat="47.31887" lon="-1.61468">
        <ele>24</ele>
        <time>2011-10-09T07:14:36Z</time>
      </trkpt>
      <trkpt lat="47.3189" lon="-1.61482">
        <ele>24</ele>
        <time>2011-10-09T07:14:38Z</time>
      </trkpt>
      <trkpt lat="47.31896" lon="-1.61503">
        <ele>23</ele>
        <time>2011-10-09T07:14:41Z</time>
      </trkpt>
      <trkpt lat="47.31899" lon="-1.61516">
        <ele>24</ele>
        <time>2011-10-09T07:14:43Z</time>
      </trkpt>
      <trkpt lat="47.31906" lon="-1.61535">
        <ele>24</ele>
        <time>2011-10-09T07:14:46Z</time>
      </trkpt>
      <trkpt lat="47.31908" lon="-1.61557">
        <ele>24</ele>
        <time>2011-10-09T07:14:49Z</time>
      </trkpt>
      <trkpt lat="47.31907" lon="-1.61576">
        <ele>22</ele>
        <time>2011-10-09T07:14:52Z</time>
      </trkpt>
      <trkpt lat="47.31904" lon="-1.61586">
        <ele>23</ele>
        <time>2011-10-09T07:14:54Z</time>
      </trkpt>
      <trkpt lat="47.31901" lon="-1.61603">
        <ele>24</ele>
        <time>2011-10-09T07:14:57Z</time>
      </trkpt>
      <trkpt lat="47.319" lon="-1.61612">
        <ele>24</ele>
        <time>2011-10-09T07:14:59Z</time>
      </trkpt>
      <trkpt lat="47.31901" lon="-1.61625">
        <ele>25</ele>
        <time>2011-10-09T07:15:02Z</time>
      </trkpt>
      <trkpt lat="47.31901" lon="-1.61636">
        <ele>25</ele>
        <time>2011-10-09T07:15:05Z</time>
      </trkpt>
      <trkpt lat="47.31901" lon="-1.61643">
        <ele>24</ele>
        <time>2011-10-09T07:15:07Z</time>
      </trkpt>
      <trkpt lat="47.319" lon="-1.61656">
        <ele>24</ele>
        <time>2011-10-09T07:15:10Z</time>
      </trkpt>
      <trkpt lat="47.31898" lon="-1.61668">
        <ele>24</ele>
        <time>2011-10-09T07:15:12Z</time>
      </trkpt>
      <trkpt lat="47.31894" lon="-1.61682">
        <ele>25</ele>
        <time>2011-10-09T07:15:14Z</time>
      </trkpt>
      <trkpt lat="47.3189" lon="-1.61703">
        <ele>26</ele>
        <time>2011-10-09T07:15:17Z</time>
      </trkpt>
      <trkpt lat="47.31886" lon="-1.61715">
        <ele>27</ele>
        <time>2011-10-09T07:15:19Z</time>
      </trkpt>
      <trkpt lat="47.31881" lon="-1.61732">
        <ele>27</ele>
        <time>2011-10-09T07:15:22Z</time>
      </trkpt>
      <trkpt lat="47.31876" lon="-1.61748">
        <ele>27</ele>
        <time>2011-10-09T07:15:25Z</time>
      </trkpt>
      <trkpt lat="47.3187" lon="-1.61761">
        <ele>28</ele>
        <time>2011-10-09T07:15:28Z</time>
      </trkpt>
      <trkpt lat="47.31866" lon="-1.61771">
        <ele>28</ele>
        <time>2011-10-09T07:15:30Z</time>
      </trkpt>
      <trkpt lat="47.31862" lon="-1.6178">
        <ele>28</ele>
        <time>2011-10-09T07:15:32Z</time>
      </trkpt>
      <trkpt lat="47.31859" lon="-1.61794">
        <ele>29</ele>
        <time>2011-10-09T07:15:35Z</time>
      </trkpt>
      <trkpt lat="47.31854" lon="-1.61805">
        <ele>29</ele>
        <time>2011-10-09T07:15:38Z</time>
      </trkpt>
      <trkpt lat="47.31854" lon="-1.61805">
        <ele>29</ele>
        <time>2011-10-09T07:15:40Z</time>
      </trkpt>
      <trkpt lat="47.3184" lon="-1.61853">
        <ele>30</ele>
        <time>2011-10-09T07:15:53Z</time>
      </trkpt>
      <trkpt lat="47.31832" lon="-1.61864">
        <ele>33</ele>
        <time>2011-10-09T07:15:56Z</time>
      </trkpt>
      <trkpt lat="47.3181" lon="-1.61888">
        <ele>33</ele>
        <time>2011-10-09T07:16:03Z</time>
      </trkpt>
      <trkpt lat="47.31802" lon="-1.61892">
        <ele>33</ele>
        <time>2011-10-09T07:16:05Z</time>
      </trkpt>
      <trkpt lat="47.31795" lon="-1.61898">
        <ele>33</ele>
        <time>2011-10-09T07:16:07Z</time>
      </trkpt>
      <trkpt lat="47.31783" lon="-1.61907">
        <ele>33</ele>
        <time>2011-10-09T07:16:10Z</time>
      </trkpt>
      <trkpt lat="47.31774" lon="-1.61918">
        <ele>31</ele>
        <time>2011-10-09T07:16:13Z</time>
      </trkpt>
      <trkpt lat="47.31769" lon="-1.61925">
        <ele>31</ele>
        <time>2011-10-09T07:16:15Z</time>
      </trkpt>
      <trkpt lat="47.31766" lon="-1.61939">
        <ele>30</ele>
        <time>2011-10-09T07:16:17Z</time>
      </trkpt>
      <trkpt lat="47.31766" lon="-1.61966">
        <ele>30</ele>
        <time>2011-10-09T07:16:20Z</time>
      </trkpt>
      <trkpt lat="47.31772" lon="-1.61993">
        <ele>29</ele>
        <time>2011-10-09T07:16:23Z</time>
      </trkpt>
      <trkpt lat="47.31781" lon="-1.62019">
        <ele>30</ele>
        <time>2011-10-09T07:16:26Z</time>
      </trkpt>
      <trkpt lat="47.31783" lon="-1.62046">
        <ele>30</ele>
        <time>2011-10-09T07:16:29Z</time>
      </trkpt>
      <trkpt lat="47.31784" lon="-1.62067">
        <ele>30</ele>
        <time>2011-10-09T07:16:32Z</time>
      </trkpt>
      <trkpt lat="47.31784" lon="-1.62067">
        <ele>30</ele>
        <time>2011-10-09T07:16:34Z</time>
      </trkpt>
      <trkpt lat="47.31807" lon="-1.62066">
        <ele>32</ele>
        <time>2011-10-09T07:16:44Z</time>
      </trkpt>
      <trkpt lat="47.31816" lon="-1.62066">
        <ele>33</ele>
        <time>2011-10-09T07:16:47Z</time>
      </trkpt>
      <trkpt lat="47.31825" lon="-1.62062">
        <ele>33</ele>
        <time>2011-10-09T07:16:50Z</time>
      </trkpt>
      <trkpt lat="47.31825" lon="-1.62062">
        <ele>33</ele>
        <time>2011-10-09T07:16:51Z</time>
      </trkpt>
      <trkpt lat="47.31849" lon="-1.62075">
        <ele>33</ele>
        <time>2011-10-09T07:16:58Z</time>
      </trkpt>
      <trkpt lat="47.31861" lon="-1.62088">
        <ele>36</ele>
        <time>2011-10-09T07:17:01Z</time>
      </trkpt>
      <trkpt lat="47.3187" lon="-1.62098">
        <ele>36</ele>
        <time>2011-10-09T07:17:03Z</time>
      </trkpt>
      <trkpt lat="47.31875" lon="-1.62108">
        <ele>36</ele>
        <time>2011-10-09T07:17:05Z</time>
      </trkpt>
      <trkpt lat="47.3188" lon="-1.62119">
        <ele>36</ele>
        <time>2011-10-09T07:17:08Z</time>
      </trkpt>
      <trkpt lat="47.3188" lon="-1.62119">
        <ele>36</ele>
        <time>2011-10-09T07:17:10Z</time>
      </trkpt>
      <trkpt lat="47.31874" lon="-1.62167">
        <ele>37</ele>
        <time>2011-10-09T07:17:30Z</time>
      </trkpt>
      <trkpt lat="47.31874" lon="-1.62167">
        <ele>37</ele>
        <time>2011-10-09T07:17:34Z</time>
      </trkpt>
      <trkpt lat="47.31859" lon="-1.62224">
        <ele>39</ele>
        <time>2011-10-09T07:17:47Z</time>
      </trkpt>
      <trkpt lat="47.31857" lon="-1.62268">
        <ele>39</ele>
        <time>2011-10-09T07:17:55Z</time>
      </trkpt>
      <trkpt lat="47.31865" lon="-1.62299">
        <ele>39</ele>
        <time>2011-10-09T07:18:10Z</time>
      </trkpt>
      <trkpt lat="47.31874" lon="-1.62303">
        <ele>39</ele>
        <time>2011-10-09T07:18:13Z</time>
      </trkpt>
      <trkpt lat="47.31882" lon="-1.62305">
        <ele>39</ele>
        <time>2011-10-09T07:18:15Z</time>
      </trkpt>
      <trkpt lat="47.31892" lon="-1.62307">
        <ele>39</ele>
        <time>2011-10-09T07:18:17Z</time>
      </trkpt>
      <trkpt lat="47.31906" lon="-1.62313">
        <ele>39</ele>
        <time>2011-10-09T07:18:20Z</time>
      </trkpt>
      <trkpt lat="47.31912" lon="-1.62309">
        <ele>39</ele>
        <time>2011-10-09T07:18:22Z</time>
      </trkpt>
      <trkpt lat="47.31934" lon="-1.62318">
        <ele>35</ele>
        <time>2011-10-09T07:18:25Z</time>
      </trkpt>
      <trkpt lat="47.31953" lon="-1.62328">
        <ele>32</ele>
        <time>2011-10-09T07:18:28Z</time>
      </trkpt>
      <trkpt lat="47.31981" lon="-1.62345">
        <ele>26</ele>
        <time>2011-10-09T07:18:31Z</time>
      </trkpt>
      <trkpt lat="47.31994" lon="-1.62363">
        <ele>26</ele>
        <time>2011-10-09T07:18:34Z</time>
      </trkpt>
      <trkpt lat="47.32006" lon="-1.6238">
        <ele>22</ele>
        <time>2011-10-09T07:18:37Z</time>
      </trkpt>
      <trkpt lat="47.32022" lon="-1.62386">
        <ele>22</ele>
        <time>2011-10-09T07:18:40Z</time>
      </trkpt>
      <trkpt lat="47.32036" lon="-1.62384">
        <ele>22</ele>
        <time>2011-10-09T07:18:42Z</time>
      </trkpt>
      <trkpt lat="47.32053" lon="-1.62381">
        <ele>22</ele>
        <time>2011-10-09T07:18:45Z</time>
      </trkpt>
      <trkpt lat="47.32068" lon="-1.62376">
        <ele>22</ele>
        <time>2011-10-09T07:18:48Z</time>
      </trkpt>
      <trkpt lat="47.32082" lon="-1.6237">
        <ele>21</ele>
        <time>2011-10-09T07:18:51Z</time>
      </trkpt>
      <trkpt lat="47.32082" lon="-1.6237">
        <ele>21</ele>
        <time>2011-10-09T07:18:52Z</time>
      </trkpt>
      <trkpt lat="47.32111" lon="-1.62388">
        <ele>23</ele>
        <time>2011-10-09T07:19:08Z</time>
      </trkpt>
      <trkpt lat="47.32114" lon="-1.62399">
        <ele>23</ele>
        <time>2011-10-09T07:19:10Z</time>
      </trkpt>
      <trkpt lat="47.32116" lon="-1.62415">
        <ele>23</ele>
        <time>2011-10-09T07:19:13Z</time>
      </trkpt>
      <trkpt lat="47.32115" lon="-1.62437">
        <ele>25</ele>
        <time>2011-10-09T07:19:17Z</time>
      </trkpt>
      <trkpt lat="47.32115" lon="-1.62455">
        <ele>25</ele>
        <time>2011-10-09T07:19:20Z</time>
      </trkpt>
      <trkpt lat="47.32115" lon="-1.62466">
        <ele>25</ele>
        <time>2011-10-09T07:19:22Z</time>
      </trkpt>
      <trkpt lat="47.32115" lon="-1.62483">
        <ele>25</ele>
        <time>2011-10-09T07:19:25Z</time>
      </trkpt>
      <trkpt lat="47.32115" lon="-1.62495">
        <ele>25</ele>
        <time>2011-10-09T07:19:27Z</time>
      </trkpt>
      <trkpt lat="47.32116" lon="-1.62518">
        <ele>26</ele>
        <time>2011-10-09T07:19:30Z</time>
      </trkpt>
      <trkpt lat="47.32117" lon="-1.62535">
        <ele>26</ele>
        <time>2011-10-09T07:19:32Z</time>
      </trkpt>
      <trkpt lat="47.32118" lon="-1.62555">
        <ele>26</ele>
        <time>2011-10-09T07:19:35Z</time>
      </trkpt>
      <trkpt lat="47.32119" lon="-1.62578">
        <ele>26</ele>
        <time>2011-10-09T07:19:38Z</time>
      </trkpt>
      <trkpt lat="47.32118" lon="-1.62601">
        <ele>26</ele>
        <time>2011-10-09T07:19:41Z</time>
      </trkpt>
      <trkpt lat="47.32116" lon="-1.62621">
        <ele>26</ele>
        <time>2011-10-09T07:19:44Z</time>
      </trkpt>
      <trkpt lat="47.32116" lon="-1.62639">
        <ele>26</ele>
        <time>2011-10-09T07:19:47Z</time>
      </trkpt>
      <trkpt lat="47.32118" lon="-1.62656">
        <ele>26</ele>
        <time>2011-10-09T07:19:49Z</time>
      </trkpt>
      <trkpt lat="47.32123" lon="-1.62681">
        <ele>24</ele>
        <time>2011-10-09T07:19:52Z</time>
      </trkpt>
      <trkpt lat="47.32131" lon="-1.62706">
        <ele>24</ele>
        <time>2011-10-09T07:19:55Z</time>
      </trkpt>
      <trkpt lat="47.32141" lon="-1.62728">
        <ele>24</ele>
        <time>2011-10-09T07:19:58Z</time>
      </trkpt>
      <trkpt lat="47.32149" lon="-1.62745">
        <ele>24</ele>
        <time>2011-10-09T07:20:00Z</time>
      </trkpt>
      <trkpt lat="47.32165" lon="-1.62769">
        <ele>22</ele>
        <time>2011-10-09T07:20:03Z</time>
      </trkpt>
      <trkpt lat="47.32177" lon="-1.62785">
        <ele>24</ele>
        <time>2011-10-09T07:20:05Z</time>
      </trkpt>
      <trkpt lat="47.3219" lon="-1.62805">
        <ele>24</ele>
        <time>2011-10-09T07:20:08Z</time>
      </trkpt>
      <trkpt lat="47.32203" lon="-1.62822">
        <ele>24</ele>
        <time>2011-10-09T07:20:11Z</time>
      </trkpt>
      <trkpt lat="47.32217" lon="-1.62836">
        <ele>22</ele>
        <time>2011-10-09T07:20:14Z</time>
      </trkpt>
      <trkpt lat="47.32233" lon="-1.62849">
        <ele>23</ele>
        <time>2011-10-09T07:20:17Z</time>
      </trkpt>
      <trkpt lat="47.32243" lon="-1.62858">
        <ele>23</ele>
        <time>2011-10-09T07:20:19Z</time>
      </trkpt>
      <trkpt lat="47.32257" lon="-1.62872">
        <ele>25</ele>
        <time>2011-10-09T07:20:22Z</time>
      </trkpt>
      <trkpt lat="47.32269" lon="-1.6288">
        <ele>25</ele>
        <time>2011-10-09T07:20:25Z</time>
      </trkpt>
      <trkpt lat="47.32278" lon="-1.62879">
        <ele>25</ele>
        <time>2011-10-09T07:20:27Z</time>
      </trkpt>
      <trkpt lat="47.32285" lon="-1.62875">
        <ele>25</ele>
        <time>2011-10-09T07:20:29Z</time>
      </trkpt>
      <trkpt lat="47.32294" lon="-1.6286">
        <ele>26</ele>
        <time>2011-10-09T07:20:32Z</time>
      </trkpt>
      <trkpt lat="47.32301" lon="-1.62844">
        <ele>27</ele>
        <time>2011-10-09T07:20:35Z</time>
      </trkpt>
      <trkpt lat="47.32306" lon="-1.6283">
        <ele>30</ele>
        <time>2011-10-09T07:20:38Z</time>
      </trkpt>
      <trkpt lat="47.32313" lon="-1.62817">
        <ele>30</ele>
        <time>2011-10-09T07:20:41Z</time>
      </trkpt>
      <trkpt lat="47.32318" lon="-1.62805">
        <ele>30</ele>
        <time>2011-10-09T07:20:44Z</time>
      </trkpt>
      <trkpt lat="47.32323" lon="-1.62794">
        <ele>30</ele>
        <time>2011-10-09T07:20:47Z</time>
      </trkpt>
      <trkpt lat="47.32325" lon="-1.62786">
        <ele>31</ele>
        <time>2011-10-09T07:20:49Z</time>
      </trkpt>
      <trkpt lat="47.32328" lon="-1.62773">
        <ele>31</ele>
        <time>2011-10-09T07:20:52Z</time>
      </trkpt>
      <trkpt lat="47.32332" lon="-1.62763">
        <ele>32</ele>
        <time>2011-10-09T07:20:55Z</time>
      </trkpt>
      <trkpt lat="47.32336" lon="-1.62752">
        <ele>33</ele>
        <time>2011-10-09T07:20:58Z</time>
      </trkpt>
      <trkpt lat="47.32338" lon="-1.62745">
        <ele>34</ele>
        <time>2011-10-09T07:21:00Z</time>
      </trkpt>
      <trkpt lat="47.32341" lon="-1.62734">
        <ele>36</ele>
        <time>2011-10-09T07:21:03Z</time>
      </trkpt>
      <trkpt lat="47.32344" lon="-1.62727">
        <ele>36</ele>
        <time>2011-10-09T07:21:05Z</time>
      </trkpt>
      <trkpt lat="47.32348" lon="-1.62716">
        <ele>37</ele>
        <time>2011-10-09T07:21:08Z</time>
      </trkpt>
      <trkpt lat="47.32352" lon="-1.62706">
        <ele>37</ele>
        <time>2011-10-09T07:21:11Z</time>
      </trkpt>
      <trkpt lat="47.32356" lon="-1.62696">
        <ele>38</ele>
        <time>2011-10-09T07:21:14Z</time>
      </trkpt>
      <trkpt lat="47.3236" lon="-1.62687">
        <ele>38</ele>
        <time>2011-10-09T07:21:17Z</time>
      </trkpt>
      <trkpt lat="47.32362" lon="-1.6268">
        <ele>38</ele>
        <time>2011-10-09T07:21:19Z</time>
      </trkpt>
      <trkpt lat="47.32363" lon="-1.62673">
        <ele>38</ele>
        <time>2011-10-09T07:21:21Z</time>
      </trkpt>
      <trkpt lat="47.32365" lon="-1.62662">
        <ele>40</ele>
        <time>2011-10-09T07:21:24Z</time>
      </trkpt>
      <trkpt lat="47.32364" lon="-1.62652">
        <ele>41</ele>
        <time>2011-10-09T07:21:27Z</time>
      </trkpt>
      <trkpt lat="47.32361" lon="-1.62643">
        <ele>41</ele>
        <time>2011-10-09T07:21:30Z</time>
      </trkpt>
      <trkpt lat="47.32358" lon="-1.62638">
        <ele>41</ele>
        <time>2011-10-09T07:21:32Z</time>
      </trkpt>
      <trkpt lat="47.32355" lon="-1.62632">
        <ele>41</ele>
        <time>2011-10-09T07:21:34Z</time>
      </trkpt>
      <trkpt lat="47.32351" lon="-1.62624">
        <ele>41</ele>
        <time>2011-10-09T07:21:37Z</time>
      </trkpt>
      <trkpt lat="47.32349" lon="-1.62619">
        <ele>41</ele>
        <time>2011-10-09T07:21:39Z</time>
      </trkpt>
      <trkpt lat="47.32346" lon="-1.6261">
        <ele>41</ele>
        <time>2011-10-09T07:21:42Z</time>
      </trkpt>
      <trkpt lat="47.32345" lon="-1.626">
        <ele>41</ele>
        <time>2011-10-09T07:21:45Z</time>
      </trkpt>
      <trkpt lat="47.3235" lon="-1.62592">
        <ele>41</ele>
        <time>2011-10-09T07:21:48Z</time>
      </trkpt>
      <trkpt lat="47.32362" lon="-1.62587">
        <ele>41</ele>
        <time>2011-10-09T07:21:51Z</time>
      </trkpt>
      <trkpt lat="47.32377" lon="-1.62584">
        <ele>42</ele>
        <time>2011-10-09T07:21:54Z</time>
      </trkpt>
      <trkpt lat="47.32386" lon="-1.62581">
        <ele>43</ele>
        <time>2011-10-09T07:21:56Z</time>
      </trkpt>
      <trkpt lat="47.32398" lon="-1.62576">
        <ele>43</ele>
        <time>2011-10-09T07:21:59Z</time>
      </trkpt>
      <trkpt lat="47.32409" lon="-1.6257">
        <ele>44</ele>
        <time>2011-10-09T07:22:02Z</time>
      </trkpt>
      <trkpt lat="47.32416" lon="-1.62566">
        <ele>44</ele>
        <time>2011-10-09T07:22:04Z</time>
      </trkpt>
      <trkpt lat="47.32425" lon="-1.62558">
        <ele>45</ele>
        <time>2011-10-09T07:22:07Z</time>
      </trkpt>
      <trkpt lat="47.32431" lon="-1.62551">
        <ele>45</ele>
        <time>2011-10-09T07:22:09Z</time>
      </trkpt>
      <trkpt lat="47.32437" lon="-1.62544">
        <ele>45</ele>
        <time>2011-10-09T07:22:11Z</time>
      </trkpt>
      <trkpt lat="47.32444" lon="-1.62532">
        <ele>46</ele>
        <time>2011-10-09T07:22:14Z</time>
      </trkpt>
      <trkpt lat="47.3245" lon="-1.6252">
        <ele>46</ele>
        <time>2011-10-09T07:22:17Z</time>
      </trkpt>
      <trkpt lat="47.32454" lon="-1.62511">
        <ele>46</ele>
        <time>2011-10-09T07:22:19Z</time>
      </trkpt>
      <trkpt lat="47.32461" lon="-1.62499">
        <ele>47</ele>
        <time>2011-10-09T07:22:22Z</time>
      </trkpt>
      <trkpt lat="47.32467" lon="-1.62487">
        <ele>47</ele>
        <time>2011-10-09T07:22:25Z</time>
      </trkpt>
      <trkpt lat="47.32472" lon="-1.62479">
        <ele>47</ele>
        <time>2011-10-09T07:22:27Z</time>
      </trkpt>
      <trkpt lat="47.32478" lon="-1.62466">
        <ele>48</ele>
        <time>2011-10-09T07:22:30Z</time>
      </trkpt>
      <trkpt lat="47.32483" lon="-1.62458">
        <ele>48</ele>
        <time>2011-10-09T07:22:32Z</time>
      </trkpt>
      <trkpt lat="47.32492" lon="-1.62443">
        <ele>49</ele>
        <time>2011-10-09T07:22:35Z</time>
      </trkpt>
      <trkpt lat="47.32502" lon="-1.6243">
        <ele>50</ele>
        <time>2011-10-09T07:22:38Z</time>
      </trkpt>
      <trkpt lat="47.32512" lon="-1.62418">
        <ele>50</ele>
        <time>2011-10-09T07:22:41Z</time>
      </trkpt>
      <trkpt lat="47.32518" lon="-1.62411">
        <ele>50</ele>
        <time>2011-10-09T07:22:43Z</time>
      </trkpt>
      <trkpt lat="47.32524" lon="-1.62405">
        <ele>50</ele>
        <time>2011-10-09T07:22:46Z</time>
      </trkpt>
      <trkpt lat="47.32536" lon="-1.62402">
        <ele>50</ele>
        <time>2011-10-09T07:22:49Z</time>
      </trkpt>
      <trkpt lat="47.32549" lon="-1.62401">
        <ele>50</ele>
        <time>2011-10-09T07:22:52Z</time>
      </trkpt>
      <trkpt lat="47.3256" lon="-1.62401">
        <ele>50</ele>
        <time>2011-10-09T07:22:54Z</time>
      </trkpt>
      <trkpt lat="47.3257" lon="-1.62403">
        <ele>50</ele>
        <time>2011-10-09T07:22:56Z</time>
      </trkpt>
      <trkpt lat="47.32587" lon="-1.62406">
        <ele>49</ele>
        <time>2011-10-09T07:22:59Z</time>
      </trkpt>
      <trkpt lat="47.32604" lon="-1.62409">
        <ele>49</ele>
        <time>2011-10-09T07:23:02Z</time>
      </trkpt>
      <trkpt lat="47.32621" lon="-1.62411">
        <ele>49</ele>
        <time>2011-10-09T07:23:05Z</time>
      </trkpt>
      <trkpt lat="47.32639" lon="-1.62412">
        <ele>49</ele>
        <time>2011-10-09T07:23:08Z</time>
      </trkpt>
      <trkpt lat="47.32651" lon="-1.62413">
        <ele>49</ele>
        <time>2011-10-09T07:23:10Z</time>
      </trkpt>
      <trkpt lat="47.32667" lon="-1.62415">
        <ele>49</ele>
        <time>2011-10-09T07:23:13Z</time>
      </trkpt>
      <trkpt lat="47.32683" lon="-1.62418">
        <ele>49</ele>
        <time>2011-10-09T07:23:16Z</time>
      </trkpt>
      <trkpt lat="47.32699" lon="-1.62419">
        <ele>49</ele>
        <time>2011-10-09T07:23:19Z</time>
      </trkpt>
      <trkpt lat="47.32709" lon="-1.62421">
        <ele>49</ele>
        <time>2011-10-09T07:23:21Z</time>
      </trkpt>
      <trkpt lat="47.32718" lon="-1.62436">
        <ele>49</ele>
        <time>2011-10-09T07:23:24Z</time>
      </trkpt>
      <trkpt lat="47.32717" lon="-1.62452">
        <ele>49</ele>
        <time>2011-10-09T07:23:26Z</time>
      </trkpt>
      <trkpt lat="47.32711" lon="-1.62475">
        <ele>48</ele>
        <time>2011-10-09T07:23:29Z</time>
      </trkpt>
      <trkpt lat="47.32698" lon="-1.62498">
        <ele>48</ele>
        <time>2011-10-09T07:23:32Z</time>
      </trkpt>
      <trkpt lat="47.32685" lon="-1.62519">
        <ele>45</ele>
        <time>2011-10-09T07:23:35Z</time>
      </trkpt>
      <trkpt lat="47.32678" lon="-1.62541">
        <ele>44</ele>
        <time>2011-10-09T07:23:38Z</time>
      </trkpt>
      <trkpt lat="47.32674" lon="-1.62566">
        <ele>43</ele>
        <time>2011-10-09T07:23:41Z</time>
      </trkpt>
      <trkpt lat="47.32677" lon="-1.62586">
        <ele>41</ele>
        <time>2011-10-09T07:23:43Z</time>
      </trkpt>
      <trkpt lat="47.32682" lon="-1.62621">
        <ele>41</ele>
        <time>2011-10-09T07:23:46Z</time>
      </trkpt>
      <trkpt lat="47.32687" lon="-1.62657">
        <ele>40</ele>
        <time>2011-10-09T07:23:49Z</time>
      </trkpt>
      <trkpt lat="47.32691" lon="-1.62692">
        <ele>37</ele>
        <time>2011-10-09T07:23:52Z</time>
      </trkpt>
      <trkpt lat="47.32705" lon="-1.62711">
        <ele>37</ele>
        <time>2011-10-09T07:23:55Z</time>
      </trkpt>
      <trkpt lat="47.32722" lon="-1.6272">
        <ele>37</ele>
        <time>2011-10-09T07:23:58Z</time>
      </trkpt>
      <trkpt lat="47.32736" lon="-1.62728">
        <ele>36</ele>
        <time>2011-10-09T07:24:01Z</time>
      </trkpt>
      <trkpt lat="47.32745" lon="-1.62734">
        <ele>36</ele>
        <time>2011-10-09T07:24:03Z</time>
      </trkpt>
      <trkpt lat="47.32763" lon="-1.62738">
        <ele>37</ele>
        <time>2011-10-09T07:24:06Z</time>
      </trkpt>
      <trkpt lat="47.32777" lon="-1.62739">
        <ele>38</ele>
        <time>2011-10-09T07:24:08Z</time>
      </trkpt>
      <trkpt lat="47.32799" lon="-1.62739">
        <ele>38</ele>
        <time>2011-10-09T07:24:11Z</time>
      </trkpt>
      <trkpt lat="47.3282" lon="-1.62736">
        <ele>39</ele>
        <time>2011-10-09T07:24:14Z</time>
      </trkpt>
      <trkpt lat="47.3284" lon="-1.62738">
        <ele>40</ele>
        <time>2011-10-09T07:24:17Z</time>
      </trkpt>
      <trkpt lat="47.32859" lon="-1.62742">
        <ele>41</ele>
        <time>2011-10-09T07:24:20Z</time>
      </trkpt>
      <trkpt lat="47.32877" lon="-1.62747">
        <ele>42</ele>
        <time>2011-10-09T07:24:23Z</time>
      </trkpt>
      <trkpt lat="47.32888" lon="-1.62751">
        <ele>41</ele>
        <time>2011-10-09T07:24:25Z</time>
      </trkpt>
      <trkpt lat="47.32903" lon="-1.62762">
        <ele>41</ele>
        <time>2011-10-09T07:24:28Z</time>
      </trkpt>
      <trkpt lat="47.32917" lon="-1.62776">
        <ele>44</ele>
        <time>2011-10-09T07:24:31Z</time>
      </trkpt>
      <trkpt lat="47.32924" lon="-1.62788">
        <ele>44</ele>
        <time>2011-10-09T07:24:33Z</time>
      </trkpt>
      <trkpt lat="47.3293" lon="-1.62801">
        <ele>44</ele>
        <time>2011-10-09T07:24:35Z</time>
      </trkpt>
      <trkpt lat="47.32937" lon="-1.62825">
        <ele>44</ele>
        <time>2011-10-09T07:24:38Z</time>
      </trkpt>
      <trkpt lat="47.32943" lon="-1.62849">
        <ele>42</ele>
        <time>2011-10-09T07:24:41Z</time>
      </trkpt>
      <trkpt lat="47.3295" lon="-1.62876">
        <ele>41</ele>
        <time>2011-10-09T07:24:44Z</time>
      </trkpt>
      <trkpt lat="47.32956" lon="-1.62894">
        <ele>41</ele>
        <time>2011-10-09T07:24:46Z</time>
      </trkpt>
      <trkpt lat="47.32967" lon="-1.62918">
        <ele>39</ele>
        <time>2011-10-09T07:24:49Z</time>
      </trkpt>
      <trkpt lat="47.32979" lon="-1.6294">
        <ele>39</ele>
        <time>2011-10-09T07:24:52Z</time>
      </trkpt>
      <trkpt lat="47.32988" lon="-1.62953">
        <ele>39</ele>
        <time>2011-10-09T07:24:54Z</time>
      </trkpt>
      <trkpt lat="47.33006" lon="-1.62962">
        <ele>42</ele>
        <time>2011-10-09T07:24:57Z</time>
      </trkpt>
      <trkpt lat="47.33021" lon="-1.62978">
        <ele>42</ele>
        <time>2011-10-09T07:25:00Z</time>
      </trkpt>
      <trkpt lat="47.33018" lon="-1.62999">
        <ele>41</ele>
        <time>2011-10-09T07:25:02Z</time>
      </trkpt>
      <trkpt lat="47.33004" lon="-1.63026">
        <ele>40</ele>
        <time>2011-10-09T07:25:05Z</time>
      </trkpt>
      <trkpt lat="47.32989" lon="-1.6305">
        <ele>38</ele>
        <time>2011-10-09T07:25:08Z</time>
      </trkpt>
      <trkpt lat="47.32971" lon="-1.63074">
        <ele>38</ele>
        <time>2011-10-09T07:25:11Z</time>
      </trkpt>
      <trkpt lat="47.32949" lon="-1.63096">
        <ele>38</ele>
        <time>2011-10-09T07:25:14Z</time>
      </trkpt>
      <trkpt lat="47.32931" lon="-1.63117">
        <ele>38</ele>
        <time>2011-10-09T07:25:17Z</time>
      </trkpt>
      <trkpt lat="47.32919" lon="-1.63142">
        <ele>39</ele>
        <time>2011-10-09T07:25:20Z</time>
      </trkpt>
      <trkpt lat="47.32909" lon="-1.63169">
        <ele>39</ele>
        <time>2011-10-09T07:25:23Z</time>
      </trkpt>
      <trkpt lat="47.32897" lon="-1.63192">
        <ele>39</ele>
        <time>2011-10-09T07:25:26Z</time>
      </trkpt>
      <trkpt lat="47.32885" lon="-1.63211">
        <ele>40</ele>
        <time>2011-10-09T07:25:29Z</time>
      </trkpt>
      <trkpt lat="47.32868" lon="-1.63225">
        <ele>40</ele>
        <time>2011-10-09T07:25:32Z</time>
      </trkpt>
      <trkpt lat="47.32849" lon="-1.63232">
        <ele>41</ele>
        <time>2011-10-09T07:25:35Z</time>
      </trkpt>
      <trkpt lat="47.32831" lon="-1.63237">
        <ele>41</ele>
        <time>2011-10-09T07:25:38Z</time>
      </trkpt>
      <trkpt lat="47.3282" lon="-1.6324">
        <ele>41</ele>
        <time>2011-10-09T07:25:40Z</time>
      </trkpt>
      <trkpt lat="47.32803" lon="-1.63244">
        <ele>41</ele>
        <time>2011-10-09T07:25:43Z</time>
      </trkpt>
      <trkpt lat="47.32789" lon="-1.63251">
        <ele>43</ele>
        <time>2011-10-09T07:25:46Z</time>
      </trkpt>
      <trkpt lat="47.32776" lon="-1.6326">
        <ele>42</ele>
        <time>2011-10-09T07:25:49Z</time>
      </trkpt>
      <trkpt lat="47.32769" lon="-1.63266">
        <ele>42</ele>
        <time>2011-10-09T07:25:51Z</time>
      </trkpt>
      <trkpt lat="47.32759" lon="-1.63277">
        <ele>43</ele>
        <time>2011-10-09T07:25:54Z</time>
      </trkpt>
      <trkpt lat="47.32753" lon="-1.63283">
        <ele>43</ele>
        <time>2011-10-09T07:25:56Z</time>
      </trkpt>
      <trkpt lat="47.32746" lon="-1.6329">
        <ele>44</ele>
        <time>2011-10-09T07:25:58Z</time>
      </trkpt>
      <trkpt lat="47.32736" lon="-1.633">
        <ele>44</ele>
        <time>2011-10-09T07:26:01Z</time>
      </trkpt>
      <trkpt lat="47.32725" lon="-1.63309">
        <ele>45</ele>
        <time>2011-10-09T07:26:04Z</time>
      </trkpt>
      <trkpt lat="47.32715" lon="-1.63317">
        <ele>45</ele>
        <time>2011-10-09T07:26:07Z</time>
      </trkpt>
      <trkpt lat="47.32708" lon="-1.63323">
        <ele>45</ele>
        <time>2011-10-09T07:26:09Z</time>
      </trkpt>
      <trkpt lat="47.32701" lon="-1.63329">
        <ele>45</ele>
        <time>2011-10-09T07:26:11Z</time>
      </trkpt>
      <trkpt lat="47.3269" lon="-1.63338">
        <ele>48</ele>
        <time>2011-10-09T07:26:14Z</time>
      </trkpt>
      <trkpt lat="47.3268" lon="-1.63349">
        <ele>48</ele>
        <time>2011-10-09T07:26:17Z</time>
      </trkpt>
      <trkpt lat="47.3267" lon="-1.63359">
        <ele>48</ele>
        <time>2011-10-09T07:26:20Z</time>
      </trkpt>
      <trkpt lat="47.3266" lon="-1.63368">
        <ele>48</ele>
        <time>2011-10-09T07:26:23Z</time>
      </trkpt>
      <trkpt lat="47.32653" lon="-1.63374">
        <ele>48</ele>
        <time>2011-10-09T07:26:25Z</time>
      </trkpt>
      <trkpt lat="47.32643" lon="-1.63383">
        <ele>48</ele>
        <time>2011-10-09T07:26:28Z</time>
      </trkpt>
      <trkpt lat="47.32637" lon="-1.6339">
        <ele>48</ele>
        <time>2011-10-09T07:26:30Z</time>
      </trkpt>
      <trkpt lat="47.32631" lon="-1.63398">
        <ele>48</ele>
        <time>2011-10-09T07:26:32Z</time>
      </trkpt>
      <trkpt lat="47.32626" lon="-1.63414">
        <ele>48</ele>
        <time>2011-10-09T07:26:35Z</time>
      </trkpt>
      <trkpt lat="47.32627" lon="-1.6343">
        <ele>50</ele>
        <time>2011-10-09T07:26:38Z</time>
      </trkpt>
      <trkpt lat="47.32632" lon="-1.63445">
        <ele>50</ele>
        <time>2011-10-09T07:26:41Z</time>
      </trkpt>
      <trkpt lat="47.32635" lon="-1.63455">
        <ele>51</ele>
        <time>2011-10-09T07:26:43Z</time>
      </trkpt>
      <trkpt lat="47.3264" lon="-1.63471">
        <ele>51</ele>
        <time>2011-10-09T07:26:46Z</time>
      </trkpt>
      <trkpt lat="47.32645" lon="-1.63486">
        <ele>52</ele>
        <time>2011-10-09T07:26:49Z</time>
      </trkpt>
      <trkpt lat="47.32649" lon="-1.63502">
        <ele>53</ele>
        <time>2011-10-09T07:26:52Z</time>
      </trkpt>
      <trkpt lat="47.32653" lon="-1.63518">
        <ele>53</ele>
        <time>2011-10-09T07:26:55Z</time>
      </trkpt>
      <trkpt lat="47.32656" lon="-1.63529">
        <ele>52</ele>
        <time>2011-10-09T07:26:57Z</time>
      </trkpt>
      <trkpt lat="47.3266" lon="-1.63549">
        <ele>52</ele>
        <time>2011-10-09T07:27:00Z</time>
      </trkpt>
      <trkpt lat="47.32664" lon="-1.63565">
        <ele>53</ele>
        <time>2011-10-09T07:27:02Z</time>
      </trkpt>
      <trkpt lat="47.32666" lon="-1.63578">
        <ele>54</ele>
        <time>2011-10-09T07:27:04Z</time>
      </trkpt>
      <trkpt lat="47.32669" lon="-1.63598">
        <ele>54</ele>
        <time>2011-10-09T07:27:07Z</time>
      </trkpt>
      <trkpt lat="47.32672" lon="-1.63617">
        <ele>54</ele>
        <time>2011-10-09T07:27:10Z</time>
      </trkpt>
      <trkpt lat="47.32674" lon="-1.6363">
        <ele>53</ele>
        <time>2011-10-09T07:27:12Z</time>
      </trkpt>
      <trkpt lat="47.32675" lon="-1.63651">
        <ele>53</ele>
        <time>2011-10-09T07:27:15Z</time>
      </trkpt>
      <trkpt lat="47.32676" lon="-1.63664">
        <ele>53</ele>
        <time>2011-10-09T07:27:17Z</time>
      </trkpt>
      <trkpt lat="47.32675" lon="-1.63688">
        <ele>52</ele>
        <time>2011-10-09T07:27:20Z</time>
      </trkpt>
      <trkpt lat="47.32674" lon="-1.63708">
        <ele>51</ele>
        <time>2011-10-09T07:27:22Z</time>
      </trkpt>
      <trkpt lat="47.32671" lon="-1.63744">
        <ele>48</ele>
        <time>2011-10-09T07:27:25Z</time>
      </trkpt>
      <trkpt lat="47.32664" lon="-1.63783">
        <ele>44</ele>
        <time>2011-10-09T07:27:28Z</time>
      </trkpt>
      <trkpt lat="47.32647" lon="-1.6382">
        <ele>43</ele>
        <time>2011-10-09T07:27:31Z</time>
      </trkpt>
      <trkpt lat="47.32625" lon="-1.6385">
        <ele>40</ele>
        <time>2011-10-09T07:27:34Z</time>
      </trkpt>
      <trkpt lat="47.32614" lon="-1.63872">
        <ele>40</ele>
        <time>2011-10-09T07:27:36Z</time>
      </trkpt>
      <trkpt lat="47.32602" lon="-1.63911">
        <ele>39</ele>
        <time>2011-10-09T07:27:39Z</time>
      </trkpt>
      <trkpt lat="47.32598" lon="-1.63939">
        <ele>37</ele>
        <time>2011-10-09T07:27:41Z</time>
      </trkpt>
      <trkpt lat="47.32594" lon="-1.6398">
        <ele>36</ele>
        <time>2011-10-09T07:27:44Z</time>
      </trkpt>
      <trkpt lat="47.32589" lon="-1.6402">
        <ele>34</ele>
        <time>2011-10-09T07:27:47Z</time>
      </trkpt>
      <trkpt lat="47.32583" lon="-1.6406">
        <ele>31</ele>
        <time>2011-10-09T07:27:50Z</time>
      </trkpt>
      <trkpt lat="47.32579" lon="-1.64088">
        <ele>30</ele>
        <time>2011-10-09T07:27:52Z</time>
      </trkpt>
      <trkpt lat="47.32579" lon="-1.6413">
        <ele>28</ele>
        <time>2011-10-09T07:27:55Z</time>
      </trkpt>
      <trkpt lat="47.32579" lon="-1.64172">
        <ele>28</ele>
        <time>2011-10-09T07:27:58Z</time>
      </trkpt>
      <trkpt lat="47.32578" lon="-1.64215">
        <ele>27</ele>
        <time>2011-10-09T07:28:01Z</time>
      </trkpt>
      <trkpt lat="47.32583" lon="-1.64258">
        <ele>27</ele>
        <time>2011-10-09T07:28:04Z</time>
      </trkpt>
      <trkpt lat="47.32595" lon="-1.64292">
        <ele>29</ele>
        <time>2011-10-09T07:28:07Z</time>
      </trkpt>
      <trkpt lat="47.32605" lon="-1.6431">
        <ele>29</ele>
        <time>2011-10-09T07:28:09Z</time>
      </trkpt>
      <trkpt lat="47.32616" lon="-1.64323">
        <ele>29</ele>
        <time>2011-10-09T07:28:11Z</time>
      </trkpt>
      <trkpt lat="47.32633" lon="-1.64339">
        <ele>30</ele>
        <time>2011-10-09T07:28:14Z</time>
      </trkpt>
      <trkpt lat="47.32641" lon="-1.6435">
        <ele>30</ele>
        <time>2011-10-09T07:28:16Z</time>
      </trkpt>
      <trkpt lat="47.32656" lon="-1.64362">
        <ele>31</ele>
        <time>2011-10-09T07:28:19Z</time>
      </trkpt>
      <trkpt lat="47.3267" lon="-1.64367">
        <ele>33</ele>
        <time>2011-10-09T07:28:22Z</time>
      </trkpt>
      <trkpt lat="47.32682" lon="-1.64364">
        <ele>33</ele>
        <time>2011-10-09T07:28:25Z</time>
      </trkpt>
      <trkpt lat="47.32701" lon="-1.64355">
        <ele>33</ele>
        <time>2011-10-09T07:28:33Z</time>
      </trkpt>
      <trkpt lat="47.32709" lon="-1.64352">
        <ele>34</ele>
        <time>2011-10-09T07:28:35Z</time>
      </trkpt>
      <trkpt lat="47.32722" lon="-1.64347">
        <ele>34</ele>
        <time>2011-10-09T07:28:38Z</time>
      </trkpt>
      <trkpt lat="47.32732" lon="-1.64343">
        <ele>34</ele>
        <time>2011-10-09T07:28:40Z</time>
      </trkpt>
      <trkpt lat="47.32745" lon="-1.64337">
        <ele>35</ele>
        <time>2011-10-09T07:28:43Z</time>
      </trkpt>
      <trkpt lat="47.32753" lon="-1.64334">
        <ele>35</ele>
        <time>2011-10-09T07:28:45Z</time>
      </trkpt>
      <trkpt lat="47.32761" lon="-1.64333">
        <ele>36</ele>
        <time>2011-10-09T07:28:47Z</time>
      </trkpt>
      <trkpt lat="47.3277" lon="-1.64332">
        <ele>36</ele>
        <time>2011-10-09T07:28:50Z</time>
      </trkpt>
      <trkpt lat="47.3278" lon="-1.6433">
        <ele>37</ele>
        <time>2011-10-09T07:28:53Z</time>
      </trkpt>
      <trkpt lat="47.32787" lon="-1.6433">
        <ele>37</ele>
        <time>2011-10-09T07:28:55Z</time>
      </trkpt>
      <trkpt lat="47.32797" lon="-1.64328">
        <ele>38</ele>
        <time>2011-10-09T07:28:58Z</time>
      </trkpt>
      <trkpt lat="47.32804" lon="-1.64328">
        <ele>38</ele>
        <time>2011-10-09T07:29:00Z</time>
      </trkpt>
      <trkpt lat="47.32812" lon="-1.64326">
        <ele>38</ele>
        <time>2011-10-09T07:29:02Z</time>
      </trkpt>
      <trkpt lat="47.32824" lon="-1.64323">
        <ele>39</ele>
        <time>2011-10-09T07:29:05Z</time>
      </trkpt>
      <trkpt lat="47.32833" lon="-1.6432">
        <ele>39</ele>
        <time>2011-10-09T07:29:07Z</time>
      </trkpt>
      <trkpt lat="47.32845" lon="-1.64318">
        <ele>41</ele>
        <time>2011-10-09T07:29:10Z</time>
      </trkpt>
      <trkpt lat="47.32857" lon="-1.64315">
        <ele>41</ele>
        <time>2011-10-09T07:29:13Z</time>
      </trkpt>
      <trkpt lat="47.32868" lon="-1.64314">
        <ele>41</ele>
        <time>2011-10-09T07:29:16Z</time>
      </trkpt>
      <trkpt lat="47.32876" lon="-1.64313">
        <ele>42</ele>
        <time>2011-10-09T07:29:18Z</time>
      </trkpt>
      <trkpt lat="47.32883" lon="-1.64311">
        <ele>42</ele>
        <time>2011-10-09T07:29:20Z</time>
      </trkpt>
      <trkpt lat="47.32895" lon="-1.6431">
        <ele>42</ele>
        <time>2011-10-09T07:29:23Z</time>
      </trkpt>
      <trkpt lat="47.32903" lon="-1.64309">
        <ele>42</ele>
        <time>2011-10-09T07:29:25Z</time>
      </trkpt>
      <trkpt lat="47.32915" lon="-1.64307">
        <ele>43</ele>
        <time>2011-10-09T07:29:28Z</time>
      </trkpt>
      <trkpt lat="47.32922" lon="-1.64306">
        <ele>44</ele>
        <time>2011-10-09T07:29:30Z</time>
      </trkpt>
      <trkpt lat="47.3293" lon="-1.64305">
        <ele>44</ele>
        <time>2011-10-09T07:29:32Z</time>
      </trkpt>
      <trkpt lat="47.32941" lon="-1.64306">
        <ele>44</ele>
        <time>2011-10-09T07:29:35Z</time>
      </trkpt>
      <trkpt lat="47.32952" lon="-1.64305">
        <ele>45</ele>
        <time>2011-10-09T07:29:38Z</time>
      </trkpt>
      <trkpt lat="47.32959" lon="-1.64305">
        <ele>45</ele>
        <time>2011-10-09T07:29:40Z</time>
      </trkpt>
      <trkpt lat="47.3297" lon="-1.64307">
        <ele>45</ele>
        <time>2011-10-09T07:29:43Z</time>
      </trkpt>
      <trkpt lat="47.32978" lon="-1.64308">
        <ele>45</ele>
        <time>2011-10-09T07:29:45Z</time>
      </trkpt>
      <trkpt lat="47.32985" lon="-1.64309">
        <ele>45</ele>
        <time>2011-10-09T07:29:48Z</time>
      </trkpt>
      <trkpt lat="47.33014" lon="-1.64319">
        <ele>49</ele>
        <time>2011-10-09T07:29:58Z</time>
      </trkpt>
      <trkpt lat="47.33014" lon="-1.64319">
        <ele>49</ele>
        <time>2011-10-09T07:30:01Z</time>
      </trkpt>
      <trkpt lat="47.33036" lon="-1.64326">
        <ele>50</ele>
        <time>2011-10-09T07:30:06Z</time>
      </trkpt>
      <trkpt lat="47.33041" lon="-1.64328">
        <ele>50</ele>
        <time>2011-10-09T07:30:08Z</time>
      </trkpt>
      <trkpt lat="47.33049" lon="-1.64331">
        <ele>51</ele>
        <time>2011-10-09T07:30:11Z</time>
      </trkpt>
      <trkpt lat="47.33058" lon="-1.64335">
        <ele>54</ele>
        <time>2011-10-09T07:30:14Z</time>
      </trkpt>
      <trkpt lat="47.33068" lon="-1.64338">
        <ele>54</ele>
        <time>2011-10-09T07:30:17Z</time>
      </trkpt>
      <trkpt lat="47.33074" lon="-1.6434">
        <ele>54</ele>
        <time>2011-10-09T07:30:19Z</time>
      </trkpt>
      <trkpt lat="47.33084" lon="-1.64343">
        <ele>56</ele>
        <time>2011-10-09T07:30:22Z</time>
      </trkpt>
      <trkpt lat="47.33093" lon="-1.64348">
        <ele>56</ele>
        <time>2011-10-09T07:30:25Z</time>
      </trkpt>
      <trkpt lat="47.33101" lon="-1.64358">
        <ele>57</ele>
        <time>2011-10-09T07:30:28Z</time>
      </trkpt>
      <trkpt lat="47.33105" lon="-1.6437">
        <ele>57</ele>
        <time>2011-10-09T07:30:31Z</time>
      </trkpt>
      <trkpt lat="47.33105" lon="-1.64383">
        <ele>57</ele>
        <time>2011-10-09T07:30:34Z</time>
      </trkpt>
      <trkpt lat="47.33104" lon="-1.64397">
        <ele>58</ele>
        <time>2011-10-09T07:30:37Z</time>
      </trkpt>
      <trkpt lat="47.33103" lon="-1.64407">
        <ele>58</ele>
        <time>2011-10-09T07:30:39Z</time>
      </trkpt>
      <trkpt lat="47.331" lon="-1.64422">
        <ele>58</ele>
        <time>2011-10-09T07:30:42Z</time>
      </trkpt>
      <trkpt lat="47.33098" lon="-1.64433">
        <ele>58</ele>
        <time>2011-10-09T07:30:44Z</time>
      </trkpt>
      <trkpt lat="47.33094" lon="-1.6445">
        <ele>58</ele>
        <time>2011-10-09T07:30:47Z</time>
      </trkpt>
      <trkpt lat="47.3309" lon="-1.6447">
        <ele>58</ele>
        <time>2011-10-09T07:30:50Z</time>
      </trkpt>
      <trkpt lat="47.33085" lon="-1.64491">
        <ele>58</ele>
        <time>2011-10-09T07:30:53Z</time>
      </trkpt>
      <trkpt lat="47.33082" lon="-1.64506">
        <ele>58</ele>
        <time>2011-10-09T07:30:55Z</time>
      </trkpt>
      <trkpt lat="47.33077" lon="-1.64526">
        <ele>57</ele>
        <time>2011-10-09T07:30:58Z</time>
      </trkpt>
      <trkpt lat="47.33072" lon="-1.64548">
        <ele>57</ele>
        <time>2011-10-09T07:31:01Z</time>
      </trkpt>
      <trkpt lat="47.33065" lon="-1.64573">
        <ele>57</ele>
        <time>2011-10-09T07:31:04Z</time>
      </trkpt>
      <trkpt lat="47.33063" lon="-1.64591">
        <ele>58</ele>
        <time>2011-10-09T07:31:06Z</time>
      </trkpt>
      <trkpt lat="47.33057" lon="-1.64608">
        <ele>58</ele>
        <time>2011-10-09T07:31:08Z</time>
      </trkpt>
      <trkpt lat="47.3305" lon="-1.64632">
        <ele>58</ele>
        <time>2011-10-09T07:31:11Z</time>
      </trkpt>
      <trkpt lat="47.33051" lon="-1.64661">
        <ele>58</ele>
        <time>2011-10-09T07:31:14Z</time>
      </trkpt>
      <trkpt lat="47.33052" lon="-1.64691">
        <ele>58</ele>
        <time>2011-10-09T07:31:17Z</time>
      </trkpt>
      <trkpt lat="47.33051" lon="-1.64711">
        <ele>58</ele>
        <time>2011-10-09T07:31:19Z</time>
      </trkpt>
      <trkpt lat="47.33051" lon="-1.64742">
        <ele>57</ele>
        <time>2011-10-09T07:31:22Z</time>
      </trkpt>
      <trkpt lat="47.3305" lon="-1.64778">
        <ele>53</ele>
        <time>2011-10-09T07:31:25Z</time>
      </trkpt>
      <trkpt lat="47.33049" lon="-1.64805">
        <ele>52</ele>
        <time>2011-10-09T07:31:27Z</time>
      </trkpt>
      <trkpt lat="47.33049" lon="-1.64845">
        <ele>48</ele>
        <time>2011-10-09T07:31:30Z</time>
      </trkpt>
      <trkpt lat="47.33048" lon="-1.64872">
        <ele>48</ele>
        <time>2011-10-09T07:31:32Z</time>
      </trkpt>
      <trkpt lat="47.33046" lon="-1.6491">
        <ele>47</ele>
        <time>2011-10-09T07:31:35Z</time>
      </trkpt>
      <trkpt lat="47.33043" lon="-1.64934">
        <ele>45</ele>
        <time>2011-10-09T07:31:37Z</time>
      </trkpt>
      <trkpt lat="47.33039" lon="-1.64969">
        <ele>45</ele>
        <time>2011-10-09T07:31:40Z</time>
      </trkpt>
      <trkpt lat="47.33031" lon="-1.65001">
        <ele>43</ele>
        <time>2011-10-09T07:31:43Z</time>
      </trkpt>
      <trkpt lat="47.33026" lon="-1.65022">
        <ele>42</ele>
        <time>2011-10-09T07:31:45Z</time>
      </trkpt>
      <trkpt lat="47.33017" lon="-1.65054">
        <ele>42</ele>
        <time>2011-10-09T07:31:48Z</time>
      </trkpt>
      <trkpt lat="47.33009" lon="-1.65084">
        <ele>41</ele>
        <time>2011-10-09T07:31:51Z</time>
      </trkpt>
      <trkpt lat="47.33004" lon="-1.65104">
        <ele>41</ele>
        <time>2011-10-09T07:31:53Z</time>
      </trkpt>
      <trkpt lat="47.32996" lon="-1.65133">
        <ele>40</ele>
        <time>2011-10-09T07:31:56Z</time>
      </trkpt>
      <trkpt lat="47.32991" lon="-1.65152">
        <ele>40</ele>
        <time>2011-10-09T07:31:58Z</time>
      </trkpt>
      <trkpt lat="47.32984" lon="-1.6518">
        <ele>40</ele>
        <time>2011-10-09T07:32:01Z</time>
      </trkpt>
      <trkpt lat="47.32978" lon="-1.65208">
        <ele>40</ele>
        <time>2011-10-09T07:32:04Z</time>
      </trkpt>
      <trkpt lat="47.32974" lon="-1.65227">
        <ele>40</ele>
        <time>2011-10-09T07:32:06Z</time>
      </trkpt>
      <trkpt lat="47.32971" lon="-1.65254">
        <ele>41</ele>
        <time>2011-10-09T07:32:09Z</time>
      </trkpt>
      <trkpt lat="47.32968" lon="-1.65272">
        <ele>41</ele>
        <time>2011-10-09T07:32:11Z</time>
      </trkpt>
      <trkpt lat="47.32967" lon="-1.65297">
        <ele>42</ele>
        <time>2011-10-09T07:32:14Z</time>
      </trkpt>
      <trkpt lat="47.32966" lon="-1.65321">
        <ele>42</ele>
        <time>2011-10-09T07:32:17Z</time>
      </trkpt>
      <trkpt lat="47.32967" lon="-1.65344">
        <ele>45</ele>
        <time>2011-10-09T07:32:20Z</time>
      </trkpt>
      <trkpt lat="47.32967" lon="-1.6536">
        <ele>45</ele>
        <time>2011-10-09T07:32:22Z</time>
      </trkpt>
      <trkpt lat="47.32969" lon="-1.65383">
        <ele>46</ele>
        <time>2011-10-09T07:32:25Z</time>
      </trkpt>
      <trkpt lat="47.3297" lon="-1.65405">
        <ele>47</ele>
        <time>2011-10-09T07:32:28Z</time>
      </trkpt>
      <trkpt lat="47.32971" lon="-1.6542">
        <ele>49</ele>
        <time>2011-10-09T07:32:30Z</time>
      </trkpt>
      <trkpt lat="47.32972" lon="-1.65442">
        <ele>50</ele>
        <time>2011-10-09T07:32:33Z</time>
      </trkpt>
      <trkpt lat="47.32973" lon="-1.65456">
        <ele>50</ele>
        <time>2011-10-09T07:32:35Z</time>
      </trkpt>
      <trkpt lat="47.32973" lon="-1.65476">
        <ele>50</ele>
        <time>2011-10-09T07:32:38Z</time>
      </trkpt>
      <trkpt lat="47.32974" lon="-1.65496">
        <ele>51</ele>
        <time>2011-10-09T07:32:41Z</time>
      </trkpt>
      <trkpt lat="47.32974" lon="-1.65515">
        <ele>52</ele>
        <time>2011-10-09T07:32:44Z</time>
      </trkpt>
      <trkpt lat="47.32974" lon="-1.65526">
        <ele>53</ele>
        <time>2011-10-09T07:32:46Z</time>
      </trkpt>
      <trkpt lat="47.32976" lon="-1.65544">
        <ele>53</ele>
        <time>2011-10-09T07:32:49Z</time>
      </trkpt>
      <trkpt lat="47.32978" lon="-1.65562">
        <ele>53</ele>
        <time>2011-10-09T07:32:52Z</time>
      </trkpt>
      <trkpt lat="47.32978" lon="-1.65573">
        <ele>53</ele>
        <time>2011-10-09T07:32:54Z</time>
      </trkpt>
      <trkpt lat="47.32979" lon="-1.65584">
        <ele>53</ele>
        <time>2011-10-09T07:32:56Z</time>
      </trkpt>
      <trkpt lat="47.32979" lon="-1.65595">
        <ele>53</ele>
        <time>2011-10-09T07:32:58Z</time>
      </trkpt>
      <trkpt lat="47.32978" lon="-1.65612">
        <ele>53</ele>
        <time>2011-10-09T07:33:01Z</time>
      </trkpt>
      <trkpt lat="47.32977" lon="-1.65627">
        <ele>53</ele>
        <time>2011-10-09T07:33:03Z</time>
      </trkpt>
      <trkpt lat="47.32977" lon="-1.65656">
        <ele>53</ele>
        <time>2011-10-09T07:33:06Z</time>
      </trkpt>
      <trkpt lat="47.32978" lon="-1.65678">
        <ele>51</ele>
        <time>2011-10-09T07:33:08Z</time>
      </trkpt>
      <trkpt lat="47.32979" lon="-1.65707">
        <ele>51</ele>
        <time>2011-10-09T07:33:11Z</time>
      </trkpt>
      <trkpt lat="47.3297" lon="-1.65732">
        <ele>50</ele>
        <time>2011-10-09T07:33:14Z</time>
      </trkpt>
      <trkpt lat="47.32953" lon="-1.65745">
        <ele>50</ele>
        <time>2011-10-09T07:33:17Z</time>
      </trkpt>
      <trkpt lat="47.32953" lon="-1.65745">
        <ele>50</ele>
        <time>2011-10-09T07:33:18Z</time>
      </trkpt>
      <trkpt lat="47.32934" lon="-1.6574">
        <ele>50</ele>
        <time>2011-10-09T07:33:22Z</time>
      </trkpt>
      <trkpt lat="47.32924" lon="-1.65738">
        <ele>49</ele>
        <time>2011-10-09T07:33:24Z</time>
      </trkpt>
      <trkpt lat="47.32912" lon="-1.65736">
        <ele>49</ele>
        <time>2011-10-09T07:33:26Z</time>
      </trkpt>
      <trkpt lat="47.32893" lon="-1.65735">
        <ele>49</ele>
        <time>2011-10-09T07:33:29Z</time>
      </trkpt>
      <trkpt lat="47.32872" lon="-1.65733">
        <ele>48</ele>
        <time>2011-10-09T07:33:32Z</time>
      </trkpt>
      <trkpt lat="47.3285" lon="-1.65732">
        <ele>47</ele>
        <time>2011-10-09T07:33:35Z</time>
      </trkpt>
      <trkpt lat="47.32835" lon="-1.65731">
        <ele>47</ele>
        <time>2011-10-09T07:33:37Z</time>
      </trkpt>
      <trkpt lat="47.32811" lon="-1.6573">
        <ele>46</ele>
        <time>2011-10-09T07:33:40Z</time>
      </trkpt>
      <trkpt lat="47.32786" lon="-1.65736">
        <ele>46</ele>
        <time>2011-10-09T07:33:43Z</time>
      </trkpt>
      <trkpt lat="47.32773" lon="-1.65748">
        <ele>45</ele>
        <time>2011-10-09T07:33:45Z</time>
      </trkpt>
      <trkpt lat="47.32763" lon="-1.65769">
        <ele>43</ele>
        <time>2011-10-09T07:33:47Z</time>
      </trkpt>
      <trkpt lat="47.32754" lon="-1.65791">
        <ele>43</ele>
        <time>2011-10-09T07:33:49Z</time>
      </trkpt>
      <trkpt lat="47.32746" lon="-1.65812">
        <ele>40</ele>
        <time>2011-10-09T07:33:51Z</time>
      </trkpt>
      <trkpt lat="47.32737" lon="-1.65844">
        <ele>38</ele>
        <time>2011-10-09T07:33:54Z</time>
      </trkpt>
      <trkpt lat="47.32731" lon="-1.65867">
        <ele>37</ele>
        <time>2011-10-09T07:33:56Z</time>
      </trkpt>
      <trkpt lat="47.32724" lon="-1.65888">
        <ele>36</ele>
        <time>2011-10-09T07:33:58Z</time>
      </trkpt>
      <trkpt lat="47.32708" lon="-1.65911">
        <ele>35</ele>
        <time>2011-10-09T07:34:01Z</time>
      </trkpt>
      <trkpt lat="47.32684" lon="-1.65915">
        <ele>34</ele>
        <time>2011-10-09T07:34:04Z</time>
      </trkpt>
      <trkpt lat="47.3266" lon="-1.65903">
        <ele>32</ele>
        <time>2011-10-09T07:34:07Z</time>
      </trkpt>
      <trkpt lat="47.32643" lon="-1.65889">
        <ele>31</ele>
        <time>2011-10-09T07:34:09Z</time>
      </trkpt>
      <trkpt lat="47.32616" lon="-1.65853">
        <ele>31</ele>
        <time>2011-10-09T07:34:12Z</time>
      </trkpt>
      <trkpt lat="47.326" lon="-1.6583">
        <ele>31</ele>
        <time>2011-10-09T07:34:14Z</time>
      </trkpt>
      <trkpt lat="47.32576" lon="-1.65804">
        <ele>29</ele>
        <time>2011-10-09T07:34:17Z</time>
      </trkpt>
      <trkpt lat="47.32562" lon="-1.65793">
        <ele>29</ele>
        <time>2011-10-09T07:34:19Z</time>
      </trkpt>
      <trkpt lat="47.32538" lon="-1.65786">
        <ele>29</ele>
        <time>2011-10-09T07:34:22Z</time>
      </trkpt>
      <trkpt lat="47.32517" lon="-1.6577">
        <ele>28</ele>
        <time>2011-10-09T07:34:25Z</time>
      </trkpt>
      <trkpt lat="47.32499" lon="-1.65745">
        <ele>27</ele>
        <time>2011-10-09T07:34:28Z</time>
      </trkpt>
      <trkpt lat="47.32486" lon="-1.6572">
        <ele>28</ele>
        <time>2011-10-09T07:34:31Z</time>
      </trkpt>
      <trkpt lat="47.32472" lon="-1.65698">
        <ele>28</ele>
        <time>2011-10-09T07:34:34Z</time>
      </trkpt>
      <trkpt lat="47.32458" lon="-1.65674">
        <ele>28</ele>
        <time>2011-10-09T07:34:37Z</time>
      </trkpt>
      <trkpt lat="47.32451" lon="-1.65645">
        <ele>30</ele>
        <time>2011-10-09T07:34:40Z</time>
      </trkpt>
      <trkpt lat="47.3245" lon="-1.65625">
        <ele>30</ele>
        <time>2011-10-09T07:34:42Z</time>
      </trkpt>
      <trkpt lat="47.32454" lon="-1.65605">
        <ele>30</ele>
        <time>2011-10-09T07:34:44Z</time>
      </trkpt>
      <trkpt lat="47.32457" lon="-1.65586">
        <ele>30</ele>
        <time>2011-10-09T07:34:46Z</time>
      </trkpt>
      <trkpt lat="47.32463" lon="-1.65559">
        <ele>31</ele>
        <time>2011-10-09T07:34:49Z</time>
      </trkpt>
      <trkpt lat="47.32465" lon="-1.6554">
        <ele>31</ele>
        <time>2011-10-09T07:34:51Z</time>
      </trkpt>
      <trkpt lat="47.32461" lon="-1.65523">
        <ele>31</ele>
        <time>2011-10-09T07:34:53Z</time>
      </trkpt>
      <trkpt lat="47.32454" lon="-1.65509">
        <ele>31</ele>
        <time>2011-10-09T07:34:55Z</time>
      </trkpt>
      <trkpt lat="47.32445" lon="-1.65488">
        <ele>30</ele>
        <time>2011-10-09T07:34:58Z</time>
      </trkpt>
      <trkpt lat="47.3244" lon="-1.65485">
        <ele>30</ele>
        <time>2011-10-09T07:35:00Z</time>
      </trkpt>
      <trkpt lat="47.3243" lon="-1.65481">
        <ele>30</ele>
        <time>2011-10-09T07:35:02Z</time>
      </trkpt>
      <trkpt lat="47.32416" lon="-1.65477">
        <ele>30</ele>
        <time>2011-10-09T07:35:05Z</time>
      </trkpt>
      <trkpt lat="47.32396" lon="-1.65473">
        <ele>32</ele>
        <time>2011-10-09T07:35:08Z</time>
      </trkpt>
      <trkpt lat="47.32378" lon="-1.65473">
        <ele>33</ele>
        <time>2011-10-09T07:35:11Z</time>
      </trkpt>
      <trkpt lat="47.32368" lon="-1.65466">
        <ele>33</ele>
        <time>2011-10-09T07:35:13Z</time>
      </trkpt>
      <trkpt lat="47.32361" lon="-1.6545">
        <ele>33</ele>
        <time>2011-10-09T07:35:16Z</time>
      </trkpt>
      <trkpt lat="47.3236" lon="-1.65435">
        <ele>33</ele>
        <time>2011-10-09T07:35:19Z</time>
      </trkpt>
      <trkpt lat="47.32359" lon="-1.65421">
        <ele>34</ele>
        <time>2011-10-09T07:35:22Z</time>
      </trkpt>
      <trkpt lat="47.32355" lon="-1.65411">
        <ele>33</ele>
        <time>2011-10-09T07:35:25Z</time>
      </trkpt>
      <trkpt lat="47.32349" lon="-1.65402">
        <ele>33</ele>
        <time>2011-10-09T07:35:28Z</time>
      </trkpt>
      <trkpt lat="47.32344" lon="-1.65394">
        <ele>33</ele>
        <time>2011-10-09T07:35:31Z</time>
      </trkpt>
      <trkpt lat="47.32342" lon="-1.65385">
        <ele>33</ele>
        <time>2011-10-09T07:35:34Z</time>
      </trkpt>
      <trkpt lat="47.3234" lon="-1.65377">
        <ele>33</ele>
        <time>2011-10-09T07:35:37Z</time>
      </trkpt>
      <trkpt lat="47.323" lon="-1.65343">
        <ele>38</ele>
        <time>2011-10-09T07:36:06Z</time>
      </trkpt>
      <trkpt lat="47.3227" lon="-1.65342">
        <ele>41</ele>
        <time>2011-10-09T07:36:21Z</time>
      </trkpt>
      <trkpt lat="47.32247" lon="-1.65346">
        <ele>45</ele>
        <time>2011-10-09T07:36:30Z</time>
      </trkpt>
      <trkpt lat="47.32237" lon="-1.65348">
        <ele>45</ele>
        <time>2011-10-09T07:36:35Z</time>
      </trkpt>
      <trkpt lat="47.32227" lon="-1.65349">
        <ele>46</ele>
        <time>2011-10-09T07:36:40Z</time>
      </trkpt>
      <trkpt lat="47.32227" lon="-1.65349">
        <ele>46</ele>
        <time>2011-10-09T07:36:53Z</time>
      </trkpt>
      <trkpt lat="47.32201" lon="-1.65366">
        <ele>47</ele>
        <time>2011-10-09T07:37:01Z</time>
      </trkpt>
      <trkpt lat="47.32176" lon="-1.65382">
        <ele>48</ele>
        <time>2011-10-09T07:37:12Z</time>
      </trkpt>
      <trkpt lat="47.32154" lon="-1.65414">
        <ele>50</ele>
        <time>2011-10-09T07:37:20Z</time>
      </trkpt>
      <trkpt lat="47.32142" lon="-1.65426">
        <ele>52</ele>
        <time>2011-10-09T07:37:22Z</time>
      </trkpt>
      <trkpt lat="47.32142" lon="-1.65426">
        <ele>52</ele>
        <time>2011-10-09T07:37:23Z</time>
      </trkpt>
      <trkpt lat="47.3212" lon="-1.65449">
        <ele>53</ele>
        <time>2011-10-09T07:37:27Z</time>
      </trkpt>
      <trkpt lat="47.32113" lon="-1.65458">
        <ele>53</ele>
        <time>2011-10-09T07:37:29Z</time>
      </trkpt>
      <trkpt lat="47.32113" lon="-1.65458">
        <ele>53</ele>
        <time>2011-10-09T07:37:31Z</time>
      </trkpt>
      <trkpt lat="47.3209" lon="-1.6549">
        <ele>55</ele>
        <time>2011-10-09T07:37:39Z</time>
      </trkpt>
      <trkpt lat="47.32086" lon="-1.65497">
        <ele>56</ele>
        <time>2011-10-09T07:37:41Z</time>
      </trkpt>
      <trkpt lat="47.32083" lon="-1.65505">
        <ele>56</ele>
        <time>2011-10-09T07:37:43Z</time>
      </trkpt>
      <trkpt lat="47.3208" lon="-1.65513">
        <ele>57</ele>
        <time>2011-10-09T07:37:45Z</time>
      </trkpt>
      <trkpt lat="47.32078" lon="-1.65521">
        <ele>57</ele>
        <time>2011-10-09T07:37:47Z</time>
      </trkpt>
      <trkpt lat="47.32075" lon="-1.65529">
        <ele>57</ele>
        <time>2011-10-09T07:37:49Z</time>
      </trkpt>
      <trkpt lat="47.3207" lon="-1.65538">
        <ele>57</ele>
        <time>2011-10-09T07:37:52Z</time>
      </trkpt>
      <trkpt lat="47.32066" lon="-1.6555">
        <ele>57</ele>
        <time>2011-10-09T07:37:55Z</time>
      </trkpt>
      <trkpt lat="47.3206" lon="-1.65562">
        <ele>57</ele>
        <time>2011-10-09T07:37:58Z</time>
      </trkpt>
      <trkpt lat="47.32056" lon="-1.6557">
        <ele>57</ele>
        <time>2011-10-09T07:38:00Z</time>
      </trkpt>
      <trkpt lat="47.32048" lon="-1.65582">
        <ele>57</ele>
        <time>2011-10-09T07:38:03Z</time>
      </trkpt>
      <trkpt lat="47.32043" lon="-1.65588">
        <ele>59</ele>
        <time>2011-10-09T07:38:05Z</time>
      </trkpt>
      <trkpt lat="47.32039" lon="-1.65596">
        <ele>59</ele>
        <time>2011-10-09T07:38:08Z</time>
      </trkpt>
      <trkpt lat="47.32032" lon="-1.65605">
        <ele>59</ele>
        <time>2011-10-09T07:38:11Z</time>
      </trkpt>
      <trkpt lat="47.32023" lon="-1.65614">
        <ele>59</ele>
        <time>2011-10-09T07:38:14Z</time>
      </trkpt>
      <trkpt lat="47.32012" lon="-1.65621">
        <ele>59</ele>
        <time>2011-10-09T07:38:17Z</time>
      </trkpt>
      <trkpt lat="47.31999" lon="-1.65625">
        <ele>60</ele>
        <time>2011-10-09T07:38:20Z</time>
      </trkpt>
      <trkpt lat="47.31984" lon="-1.65632">
        <ele>60</ele>
        <time>2011-10-09T07:38:23Z</time>
      </trkpt>
      <trkpt lat="47.31974" lon="-1.65636">
        <ele>60</ele>
        <time>2011-10-09T07:38:25Z</time>
      </trkpt>
      <trkpt lat="47.31961" lon="-1.65643">
        <ele>60</ele>
        <time>2011-10-09T07:38:28Z</time>
      </trkpt>
      <trkpt lat="47.31947" lon="-1.6565">
        <ele>60</ele>
        <time>2011-10-09T07:38:31Z</time>
      </trkpt>
      <trkpt lat="47.31938" lon="-1.65654">
        <ele>59</ele>
        <time>2011-10-09T07:38:33Z</time>
      </trkpt>
      <trkpt lat="47.3193" lon="-1.65661">
        <ele>59</ele>
        <time>2011-10-09T07:38:35Z</time>
      </trkpt>
      <trkpt lat="47.31923" lon="-1.6567">
        <ele>59</ele>
        <time>2011-10-09T07:38:37Z</time>
      </trkpt>
      <trkpt lat="47.31918" lon="-1.6569">
        <ele>59</ele>
        <time>2011-10-09T07:38:40Z</time>
      </trkpt>
      <trkpt lat="47.31921" lon="-1.65711">
        <ele>59</ele>
        <time>2011-10-09T07:38:43Z</time>
      </trkpt>
      <trkpt lat="47.31922" lon="-1.65723">
        <ele>59</ele>
        <time>2011-10-09T07:38:45Z</time>
      </trkpt>
      <trkpt lat="47.31927" lon="-1.65732">
        <ele>59</ele>
        <time>2011-10-09T07:38:47Z</time>
      </trkpt>
      <trkpt lat="47.31927" lon="-1.65732">
        <ele>59</ele>
        <time>2011-10-09T07:38:48Z</time>
      </trkpt>
      <trkpt lat="47.31949" lon="-1.65767">
        <ele>58</ele>
        <time>2011-10-09T07:38:52Z</time>
      </trkpt>
      <trkpt lat="47.31962" lon="-1.65791">
        <ele>57</ele>
        <time>2011-10-09T07:38:55Z</time>
      </trkpt>
      <trkpt lat="47.31977" lon="-1.6581">
        <ele>57</ele>
        <time>2011-10-09T07:38:58Z</time>
      </trkpt>
      <trkpt lat="47.31982" lon="-1.65824">
        <ele>56</ele>
        <time>2011-10-09T07:39:00Z</time>
      </trkpt>
      <trkpt lat="47.31985" lon="-1.65832">
        <ele>56</ele>
        <time>2011-10-09T07:39:02Z</time>
      </trkpt>
      <trkpt lat="47.31993" lon="-1.65844">
        <ele>54</ele>
        <time>2011-10-09T07:39:05Z</time>
      </trkpt>
      <trkpt lat="47.32002" lon="-1.65858">
        <ele>53</ele>
        <time>2011-10-09T07:39:08Z</time>
      </trkpt>
      <trkpt lat="47.3201" lon="-1.65871">
        <ele>52</ele>
        <time>2011-10-09T07:39:11Z</time>
      </trkpt>
      <trkpt lat="47.32018" lon="-1.65879">
        <ele>52</ele>
        <time>2011-10-09T07:39:13Z</time>
      </trkpt>
      <trkpt lat="47.32029" lon="-1.65892">
        <ele>51</ele>
        <time>2011-10-09T07:39:16Z</time>
      </trkpt>
      <trkpt lat="47.32037" lon="-1.65902">
        <ele>51</ele>
        <time>2011-10-09T07:39:18Z</time>
      </trkpt>
      <trkpt lat="47.32047" lon="-1.65913">
        <ele>51</ele>
        <time>2011-10-09T07:39:20Z</time>
      </trkpt>
      <trkpt lat="47.32061" lon="-1.65935">
        <ele>48</ele>
        <time>2011-10-09T07:39:23Z</time>
      </trkpt>
      <trkpt lat="47.32079" lon="-1.65964">
        <ele>47</ele>
        <time>2011-10-09T07:39:26Z</time>
      </trkpt>
      <trkpt lat="47.32095" lon="-1.65988">
        <ele>43</ele>
        <time>2011-10-09T07:39:29Z</time>
      </trkpt>
      <trkpt lat="47.32104" lon="-1.66002">
        <ele>39</ele>
        <time>2011-10-09T07:39:31Z</time>
      </trkpt>
      <trkpt lat="47.32112" lon="-1.66029">
        <ele>37</ele>
        <time>2011-10-09T07:39:34Z</time>
      </trkpt>
      <trkpt lat="47.32117" lon="-1.66053">
        <ele>36</ele>
        <time>2011-10-09T07:39:36Z</time>
      </trkpt>
      <trkpt lat="47.32124" lon="-1.66083">
        <ele>34</ele>
        <time>2011-10-09T07:39:38Z</time>
      </trkpt>
      <trkpt lat="47.32133" lon="-1.66125">
        <ele>30</ele>
        <time>2011-10-09T07:39:41Z</time>
      </trkpt>
      <trkpt lat="47.32134" lon="-1.66157">
        <ele>29</ele>
        <time>2011-10-09T07:39:44Z</time>
      </trkpt>
      <trkpt lat="47.32133" lon="-1.66186">
        <ele>28</ele>
        <time>2011-10-09T07:39:47Z</time>
      </trkpt>
      <trkpt lat="47.32123" lon="-1.66201">
        <ele>29</ele>
        <time>2011-10-09T07:39:49Z</time>
      </trkpt>
      <trkpt lat="47.3211" lon="-1.66224">
        <ele>29</ele>
        <time>2011-10-09T07:39:52Z</time>
      </trkpt>
      <trkpt lat="47.32101" lon="-1.66247">
        <ele>30</ele>
        <time>2011-10-09T07:39:55Z</time>
      </trkpt>
      <trkpt lat="47.32096" lon="-1.66263">
        <ele>30</ele>
        <time>2011-10-09T07:39:57Z</time>
      </trkpt>
      <trkpt lat="47.32091" lon="-1.66287">
        <ele>29</ele>
        <time>2011-10-09T07:40:00Z</time>
      </trkpt>
      <trkpt lat="47.32086" lon="-1.66306">
        <ele>29</ele>
        <time>2011-10-09T07:40:03Z</time>
      </trkpt>
      <trkpt lat="47.3208" lon="-1.66322">
        <ele>30</ele>
        <time>2011-10-09T07:40:06Z</time>
      </trkpt>
      <trkpt lat="47.32078" lon="-1.66333">
        <ele>29</ele>
        <time>2011-10-09T07:40:08Z</time>
      </trkpt>
      <trkpt lat="47.32073" lon="-1.66349">
        <ele>30</ele>
        <time>2011-10-09T07:40:11Z</time>
      </trkpt>
      <trkpt lat="47.32067" lon="-1.66366">
        <ele>31</ele>
        <time>2011-10-09T07:40:14Z</time>
      </trkpt>
      <trkpt lat="47.32064" lon="-1.66378">
        <ele>31</ele>
        <time>2011-10-09T07:40:16Z</time>
      </trkpt>
      <trkpt lat="47.3206" lon="-1.66389">
        <ele>31</ele>
        <time>2011-10-09T07:40:18Z</time>
      </trkpt>
      <trkpt lat="47.32054" lon="-1.66407">
        <ele>31</ele>
        <time>2011-10-09T07:40:21Z</time>
      </trkpt>
      <trkpt lat="47.3205" lon="-1.66418">
        <ele>33</ele>
        <time>2011-10-09T07:40:23Z</time>
      </trkpt>
      <trkpt lat="47.32047" lon="-1.6643">
        <ele>33</ele>
        <time>2011-10-09T07:40:25Z</time>
      </trkpt>
      <trkpt lat="47.32042" lon="-1.66446">
        <ele>33</ele>
        <time>2011-10-09T07:40:28Z</time>
      </trkpt>
      <trkpt lat="47.32037" lon="-1.6646">
        <ele>34</ele>
        <time>2011-10-09T07:40:31Z</time>
      </trkpt>
      <trkpt lat="47.32034" lon="-1.66469">
        <ele>34</ele>
        <time>2011-10-09T07:40:33Z</time>
      </trkpt>
      <trkpt lat="47.32029" lon="-1.66482">
        <ele>34</ele>
        <time>2011-10-09T07:40:36Z</time>
      </trkpt>
      <trkpt lat="47.32026" lon="-1.6649">
        <ele>35</ele>
        <time>2011-10-09T07:40:38Z</time>
      </trkpt>
      <trkpt lat="47.32023" lon="-1.66497">
        <ele>35</ele>
        <time>2011-10-09T07:40:40Z</time>
      </trkpt>
      <trkpt lat="47.3202" lon="-1.66509">
        <ele>36</ele>
        <time>2011-10-09T07:40:43Z</time>
      </trkpt>
      <trkpt lat="47.32018" lon="-1.66518">
        <ele>36</ele>
        <time>2011-10-09T07:40:45Z</time>
      </trkpt>
      <trkpt lat="47.32017" lon="-1.66531">
        <ele>36</ele>
        <time>2011-10-09T07:40:48Z</time>
      </trkpt>
      <trkpt lat="47.32017" lon="-1.66539">
        <ele>36</ele>
        <time>2011-10-09T07:40:50Z</time>
      </trkpt>
      <trkpt lat="47.32013" lon="-1.66549">
        <ele>36</ele>
        <time>2011-10-09T07:40:53Z</time>
      </trkpt>
      <trkpt lat="47.32006" lon="-1.66555">
        <ele>37</ele>
        <time>2011-10-09T07:40:56Z</time>
      </trkpt>
      <trkpt lat="47.32001" lon="-1.66559">
        <ele>37</ele>
        <time>2011-10-09T07:40:58Z</time>
      </trkpt>
      <trkpt lat="47.31994" lon="-1.66565">
        <ele>39</ele>
        <time>2011-10-09T07:41:01Z</time>
      </trkpt>
      <trkpt lat="47.31989" lon="-1.66569">
        <ele>39</ele>
        <time>2011-10-09T07:41:03Z</time>
      </trkpt>
      <trkpt lat="47.31983" lon="-1.66577">
        <ele>39</ele>
        <time>2011-10-09T07:41:06Z</time>
      </trkpt>
      <trkpt lat="47.31979" lon="-1.66582">
        <ele>39</ele>
        <time>2011-10-09T07:41:08Z</time>
      </trkpt>
      <trkpt lat="47.31972" lon="-1.66591">
        <ele>40</ele>
        <time>2011-10-09T07:41:11Z</time>
      </trkpt>
      <trkpt lat="47.31968" lon="-1.66601">
        <ele>40</ele>
        <time>2011-10-09T07:41:14Z</time>
      </trkpt>
      <trkpt lat="47.31964" lon="-1.66607">
        <ele>40</ele>
        <time>2011-10-09T07:41:16Z</time>
      </trkpt>
      <trkpt lat="47.31958" lon="-1.66616">
        <ele>41</ele>
        <time>2011-10-09T07:41:19Z</time>
      </trkpt>
      <trkpt lat="47.31954" lon="-1.66621">
        <ele>41</ele>
        <time>2011-10-09T07:41:21Z</time>
      </trkpt>
      <trkpt lat="47.31951" lon="-1.66627">
        <ele>41</ele>
        <time>2011-10-09T07:41:23Z</time>
      </trkpt>
      <trkpt lat="47.31945" lon="-1.66636">
        <ele>41</ele>
        <time>2011-10-09T07:41:26Z</time>
      </trkpt>
      <trkpt lat="47.31941" lon="-1.66645">
        <ele>42</ele>
        <time>2011-10-09T07:41:29Z</time>
      </trkpt>
      <trkpt lat="47.31937" lon="-1.66654">
        <ele>42</ele>
        <time>2011-10-09T07:41:32Z</time>
      </trkpt>
      <trkpt lat="47.31933" lon="-1.66664">
        <ele>42</ele>
        <time>2011-10-09T07:41:35Z</time>
      </trkpt>
      <trkpt lat="47.3193" lon="-1.6667">
        <ele>43</ele>
        <time>2011-10-09T07:41:37Z</time>
      </trkpt>
      <trkpt lat="47.31925" lon="-1.6668">
        <ele>43</ele>
        <time>2011-10-09T07:41:40Z</time>
      </trkpt>
      <trkpt lat="47.31921" lon="-1.6669">
        <ele>43</ele>
        <time>2011-10-09T07:41:43Z</time>
      </trkpt>
      <trkpt lat="47.31917" lon="-1.66701">
        <ele>44</ele>
        <time>2011-10-09T07:41:46Z</time>
      </trkpt>
      <trkpt lat="47.31917" lon="-1.66712">
        <ele>44</ele>
        <time>2011-10-09T07:41:49Z</time>
      </trkpt>
      <trkpt lat="47.31913" lon="-1.6672">
        <ele>46</ele>
        <time>2011-10-09T07:41:52Z</time>
      </trkpt>
      <trkpt lat="47.31909" lon="-1.66726">
        <ele>46</ele>
        <time>2011-10-09T07:41:54Z</time>
      </trkpt>
      <trkpt lat="47.31904" lon="-1.66733">
        <ele>46</ele>
        <time>2011-10-09T07:41:57Z</time>
      </trkpt>
      <trkpt lat="47.31901" lon="-1.66738">
        <ele>46</ele>
        <time>2011-10-09T07:41:59Z</time>
      </trkpt>
      <trkpt lat="47.31897" lon="-1.66743">
        <ele>46</ele>
        <time>2011-10-09T07:42:01Z</time>
      </trkpt>
      <trkpt lat="47.31892" lon="-1.6675">
        <ele>46</ele>
        <time>2011-10-09T07:42:04Z</time>
      </trkpt>
      <trkpt lat="47.31886" lon="-1.66756">
        <ele>48</ele>
        <time>2011-10-09T07:42:07Z</time>
      </trkpt>
      <trkpt lat="47.3188" lon="-1.66763">
        <ele>48</ele>
        <time>2011-10-09T07:42:10Z</time>
      </trkpt>
      <trkpt lat="47.31876" lon="-1.66768">
        <ele>49</ele>
        <time>2011-10-09T07:42:12Z</time>
      </trkpt>
      <trkpt lat="47.31872" lon="-1.66773">
        <ele>49</ele>
        <time>2011-10-09T07:42:14Z</time>
      </trkpt>
      <trkpt lat="47.31864" lon="-1.6678">
        <ele>49</ele>
        <time>2011-10-09T07:42:17Z</time>
      </trkpt>
      <trkpt lat="47.31858" lon="-1.66788">
        <ele>49</ele>
        <time>2011-10-09T07:42:20Z</time>
      </trkpt>
      <trkpt lat="47.31851" lon="-1.66797">
        <ele>50</ele>
        <time>2011-10-09T07:42:23Z</time>
      </trkpt>
      <trkpt lat="47.31847" lon="-1.66803">
        <ele>50</ele>
        <time>2011-10-09T07:42:25Z</time>
      </trkpt>
      <trkpt lat="47.3184" lon="-1.66813">
        <ele>50</ele>
        <time>2011-10-09T07:42:28Z</time>
      </trkpt>
      <trkpt lat="47.31834" lon="-1.66822">
        <ele>51</ele>
        <time>2011-10-09T07:42:31Z</time>
      </trkpt>
      <trkpt lat="47.31827" lon="-1.6683">
        <ele>52</ele>
        <time>2011-10-09T07:42:34Z</time>
      </trkpt>
      <trkpt lat="47.3182" lon="-1.66838">
        <ele>52</ele>
        <time>2011-10-09T07:42:37Z</time>
      </trkpt>
      <trkpt lat="47.31816" lon="-1.66845">
        <ele>52</ele>
        <time>2011-10-09T07:42:39Z</time>
      </trkpt>
      <trkpt lat="47.3181" lon="-1.66856">
        <ele>52</ele>
        <time>2011-10-09T07:42:42Z</time>
      </trkpt>
      <trkpt lat="47.31804" lon="-1.66867">
        <ele>52</ele>
        <time>2011-10-09T07:42:45Z</time>
      </trkpt>
      <trkpt lat="47.318" lon="-1.66875">
        <ele>52</ele>
        <time>2011-10-09T07:42:47Z</time>
      </trkpt>
      <trkpt lat="47.31796" lon="-1.66881">
        <ele>52</ele>
        <time>2011-10-09T07:42:49Z</time>
      </trkpt>
      <trkpt lat="47.3179" lon="-1.6689">
        <ele>52</ele>
        <time>2011-10-09T07:42:52Z</time>
      </trkpt>
      <trkpt lat="47.31784" lon="-1.669">
        <ele>52</ele>
        <time>2011-10-09T07:42:55Z</time>
      </trkpt>
      <trkpt lat="47.31777" lon="-1.66909">
        <ele>53</ele>
        <time>2011-10-09T07:42:58Z</time>
      </trkpt>
      <trkpt lat="47.31772" lon="-1.66915">
        <ele>53</ele>
        <time>2011-10-09T07:43:00Z</time>
      </trkpt>
      <trkpt lat="47.31765" lon="-1.66924">
        <ele>53</ele>
        <time>2011-10-09T07:43:03Z</time>
      </trkpt>
      <trkpt lat="47.3176" lon="-1.66931">
        <ele>53</ele>
        <time>2011-10-09T07:43:05Z</time>
      </trkpt>
      <trkpt lat="47.31752" lon="-1.6694">
        <ele>53</ele>
        <time>2011-10-09T07:43:08Z</time>
      </trkpt>
      <trkpt lat="47.31744" lon="-1.66948">
        <ele>56</ele>
        <time>2011-10-09T07:43:11Z</time>
      </trkpt>
      <trkpt lat="47.31736" lon="-1.66954">
        <ele>57</ele>
        <time>2011-10-09T07:43:14Z</time>
      </trkpt>
      <trkpt lat="47.31728" lon="-1.66958">
        <ele>57</ele>
        <time>2011-10-09T07:43:17Z</time>
      </trkpt>
      <trkpt lat="47.31724" lon="-1.66962">
        <ele>58</ele>
        <time>2011-10-09T07:43:19Z</time>
      </trkpt>
      <trkpt lat="47.31724" lon="-1.66962">
        <ele>58</ele>
        <time>2011-10-09T07:43:20Z</time>
      </trkpt>
      <trkpt lat="47.31684" lon="-1.67014">
        <ele>62</ele>
        <time>2011-10-09T07:43:43Z</time>
      </trkpt>
      <trkpt lat="47.31684" lon="-1.67014">
        <ele>62</ele>
        <time>2011-10-09T07:43:46Z</time>
      </trkpt>
      <trkpt lat="47.31671" lon="-1.67059">
        <ele>63</ele>
        <time>2011-10-09T07:43:50Z</time>
      </trkpt>
      <trkpt lat="47.31666" lon="-1.67079">
        <ele>68</ele>
        <time>2011-10-09T07:43:53Z</time>
      </trkpt>
      <trkpt lat="47.31662" lon="-1.67097">
        <ele>68</ele>
        <time>2011-10-09T07:43:56Z</time>
      </trkpt>
      <trkpt lat="47.31659" lon="-1.67108">
        <ele>69</ele>
        <time>2011-10-09T07:43:58Z</time>
      </trkpt>
      <trkpt lat="47.31655" lon="-1.6712">
        <ele>69</ele>
        <time>2011-10-09T07:44:01Z</time>
      </trkpt>
      <trkpt lat="47.31655" lon="-1.6712">
        <ele>69</ele>
        <time>2011-10-09T07:44:17Z</time>
      </trkpt>
      <trkpt lat="47.3165" lon="-1.6716">
        <ele>69</ele>
        <time>2011-10-09T07:44:20Z</time>
      </trkpt>
      <trkpt lat="47.31642" lon="-1.67186">
        <ele>68</ele>
        <time>2011-10-09T07:44:31Z</time>
      </trkpt>
      <trkpt lat="47.31637" lon="-1.67194">
        <ele>68</ele>
        <time>2011-10-09T07:44:34Z</time>
      </trkpt>
      <trkpt lat="47.31632" lon="-1.672">
        <ele>68</ele>
        <time>2011-10-09T07:44:37Z</time>
      </trkpt>
      <trkpt lat="47.31627" lon="-1.67206">
        <ele>68</ele>
        <time>2011-10-09T07:44:40Z</time>
      </trkpt>
      <trkpt lat="47.31623" lon="-1.67209">
        <ele>68</ele>
        <time>2011-10-09T07:44:42Z</time>
      </trkpt>
      <trkpt lat="47.31619" lon="-1.67213">
        <ele>68</ele>
        <time>2011-10-09T07:44:44Z</time>
      </trkpt>
      <trkpt lat="47.31613" lon="-1.67218">
        <ele>68</ele>
        <time>2011-10-09T07:44:47Z</time>
      </trkpt>
      <trkpt lat="47.31607" lon="-1.67224">
        <ele>68</ele>
        <time>2011-10-09T07:44:50Z</time>
      </trkpt>
      <trkpt lat="47.31603" lon="-1.67228">
        <ele>68</ele>
        <time>2011-10-09T07:44:52Z</time>
      </trkpt>
      <trkpt lat="47.31594" lon="-1.67234">
        <ele>68</ele>
        <time>2011-10-09T07:44:55Z</time>
      </trkpt>
      <trkpt lat="47.31584" lon="-1.67243">
        <ele>69</ele>
        <time>2011-10-09T07:44:59Z</time>
      </trkpt>
      <trkpt lat="47.31576" lon="-1.6725">
        <ele>69</ele>
        <time>2011-10-09T07:45:01Z</time>
      </trkpt>
      <trkpt lat="47.31561" lon="-1.67264">
        <ele>69</ele>
        <time>2011-10-09T07:45:04Z</time>
      </trkpt>
      <trkpt lat="47.31544" lon="-1.67278">
        <ele>70</ele>
        <time>2011-10-09T07:45:07Z</time>
      </trkpt>
      <trkpt lat="47.31533" lon="-1.67287">
        <ele>70</ele>
        <time>2011-10-09T07:45:09Z</time>
      </trkpt>
      <trkpt lat="47.31517" lon="-1.67301">
        <ele>70</ele>
        <time>2011-10-09T07:45:12Z</time>
      </trkpt>
      <trkpt lat="47.31509" lon="-1.67309">
        <ele>69</ele>
        <time>2011-10-09T07:45:14Z</time>
      </trkpt>
      <trkpt lat="47.31503" lon="-1.67317">
        <ele>69</ele>
        <time>2011-10-09T07:45:16Z</time>
      </trkpt>
      <trkpt lat="47.31499" lon="-1.67327">
        <ele>69</ele>
        <time>2011-10-09T07:45:19Z</time>
      </trkpt>
      <trkpt lat="47.31503" lon="-1.67335">
        <ele>69</ele>
        <time>2011-10-09T07:45:21Z</time>
      </trkpt>
      <trkpt lat="47.31512" lon="-1.67348">
        <ele>68</ele>
        <time>2011-10-09T07:45:24Z</time>
      </trkpt>
      <trkpt lat="47.31522" lon="-1.67364">
        <ele>68</ele>
        <time>2011-10-09T07:45:27Z</time>
      </trkpt>
      <trkpt lat="47.31534" lon="-1.67389">
        <ele>67</ele>
        <time>2011-10-09T07:45:30Z</time>
      </trkpt>
      <trkpt lat="47.31541" lon="-1.67407">
        <ele>67</ele>
        <time>2011-10-09T07:45:32Z</time>
      </trkpt>
      <trkpt lat="47.31552" lon="-1.67434">
        <ele>65</ele>
        <time>2011-10-09T07:45:35Z</time>
      </trkpt>
      <trkpt lat="47.31562" lon="-1.67461">
        <ele>65</ele>
        <time>2011-10-09T07:45:38Z</time>
      </trkpt>
      <trkpt lat="47.31572" lon="-1.67487">
        <ele>64</ele>
        <time>2011-10-09T07:45:41Z</time>
      </trkpt>
      <trkpt lat="47.31583" lon="-1.67513">
        <ele>63</ele>
        <time>2011-10-09T07:45:44Z</time>
      </trkpt>
      <trkpt lat="47.31592" lon="-1.67531">
        <ele>62</ele>
        <time>2011-10-09T07:45:46Z</time>
      </trkpt>
      <trkpt lat="47.31605" lon="-1.67559">
        <ele>62</ele>
        <time>2011-10-09T07:45:49Z</time>
      </trkpt>
      <trkpt lat="47.31617" lon="-1.67591">
        <ele>62</ele>
        <time>2011-10-09T07:45:52Z</time>
      </trkpt>
      <trkpt lat="47.31625" lon="-1.67625">
        <ele>61</ele>
        <time>2011-10-09T07:45:55Z</time>
      </trkpt>
      <trkpt lat="47.31624" lon="-1.67656">
        <ele>62</ele>
        <time>2011-10-09T07:45:58Z</time>
      </trkpt>
      <trkpt lat="47.3162" lon="-1.67683">
        <ele>63</ele>
        <time>2011-10-09T07:46:01Z</time>
      </trkpt>
      <trkpt lat="47.31616" lon="-1.67707">
        <ele>63</ele>
        <time>2011-10-09T07:46:04Z</time>
      </trkpt>
      <trkpt lat="47.31612" lon="-1.67728">
        <ele>63</ele>
        <time>2011-10-09T07:46:07Z</time>
      </trkpt>
      <trkpt lat="47.3161" lon="-1.67742">
        <ele>63</ele>
        <time>2011-10-09T07:46:09Z</time>
      </trkpt>
      <trkpt lat="47.31608" lon="-1.67756">
        <ele>64</ele>
        <time>2011-10-09T07:46:11Z</time>
      </trkpt>
      <trkpt lat="47.31605" lon="-1.67776">
        <ele>64</ele>
        <time>2011-10-09T07:46:14Z</time>
      </trkpt>
      <trkpt lat="47.316" lon="-1.67795">
        <ele>64</ele>
        <time>2011-10-09T07:46:17Z</time>
      </trkpt>
      <trkpt lat="47.31596" lon="-1.67808">
        <ele>64</ele>
        <time>2011-10-09T07:46:19Z</time>
      </trkpt>
      <trkpt lat="47.31591" lon="-1.67826">
        <ele>64</ele>
        <time>2011-10-09T07:46:22Z</time>
      </trkpt>
      <trkpt lat="47.31587" lon="-1.67843">
        <ele>64</ele>
        <time>2011-10-09T07:46:25Z</time>
      </trkpt>
      <trkpt lat="47.31585" lon="-1.67855">
        <ele>65</ele>
        <time>2011-10-09T07:46:27Z</time>
      </trkpt>
      <trkpt lat="47.31582" lon="-1.67873">
        <ele>66</ele>
        <time>2011-10-09T07:46:30Z</time>
      </trkpt>
      <trkpt lat="47.31581" lon="-1.67886">
        <ele>66</ele>
        <time>2011-10-09T07:46:32Z</time>
      </trkpt>
      <trkpt lat="47.31579" lon="-1.67905">
        <ele>67</ele>
        <time>2011-10-09T07:46:35Z</time>
      </trkpt>
      <trkpt lat="47.31576" lon="-1.67923">
        <ele>68</ele>
        <time>2011-10-09T07:46:38Z</time>
      </trkpt>
      <trkpt lat="47.31574" lon="-1.67936">
        <ele>68</ele>
        <time>2011-10-09T07:46:40Z</time>
      </trkpt>
      <trkpt lat="47.31569" lon="-1.67955">
        <ele>69</ele>
        <time>2011-10-09T07:46:43Z</time>
      </trkpt>
      <trkpt lat="47.31563" lon="-1.67971">
        <ele>70</ele>
        <time>2011-10-09T07:46:46Z</time>
      </trkpt>
      <trkpt lat="47.31558" lon="-1.67981">
        <ele>70</ele>
        <time>2011-10-09T07:46:48Z</time>
      </trkpt>
      <trkpt lat="47.31554" lon="-1.67992">
        <ele>70</ele>
        <time>2011-10-09T07:46:50Z</time>
      </trkpt>
      <trkpt lat="47.31549" lon="-1.68007">
        <ele>71</ele>
        <time>2011-10-09T07:46:53Z</time>
      </trkpt>
      <trkpt lat="47.31545" lon="-1.68018">
        <ele>71</ele>
        <time>2011-10-09T07:46:55Z</time>
      </trkpt>
      <trkpt lat="47.31539" lon="-1.68033">
        <ele>71</ele>
        <time>2011-10-09T07:46:58Z</time>
      </trkpt>
      <trkpt lat="47.31538" lon="-1.6805">
        <ele>71</ele>
        <time>2011-10-09T07:47:01Z</time>
      </trkpt>
      <trkpt lat="47.31554" lon="-1.68054">
        <ele>71</ele>
        <time>2011-10-09T07:47:04Z</time>
      </trkpt>
      <trkpt lat="47.31571" lon="-1.68058">
        <ele>71</ele>
        <time>2011-10-09T07:47:07Z</time>
      </trkpt>
      <trkpt lat="47.31587" lon="-1.6806">
        <ele>72</ele>
        <time>2011-10-09T07:47:10Z</time>
      </trkpt>
      <trkpt lat="47.316" lon="-1.68061">
        <ele>72</ele>
        <time>2011-10-09T07:47:13Z</time>
      </trkpt>
      <trkpt lat="47.31609" lon="-1.68061">
        <ele>72</ele>
        <time>2011-10-09T07:47:15Z</time>
      </trkpt>
      <trkpt lat="47.31622" lon="-1.68062">
        <ele>72</ele>
        <time>2011-10-09T07:47:18Z</time>
      </trkpt>
      <trkpt lat="47.3163" lon="-1.68062">
        <ele>72</ele>
        <time>2011-10-09T07:47:20Z</time>
      </trkpt>
      <trkpt lat="47.31637" lon="-1.68062">
        <ele>72</ele>
        <time>2011-10-09T07:47:22Z</time>
      </trkpt>
      <trkpt lat="47.31648" lon="-1.68062">
        <ele>73</ele>
        <time>2011-10-09T07:47:25Z</time>
      </trkpt>
      <trkpt lat="47.3166" lon="-1.68062">
        <ele>73</ele>
        <time>2011-10-09T07:47:28Z</time>
      </trkpt>
      <trkpt lat="47.31672" lon="-1.68061">
        <ele>72</ele>
        <time>2011-10-09T07:47:31Z</time>
      </trkpt>
      <trkpt lat="47.31679" lon="-1.68062">
        <ele>72</ele>
        <time>2011-10-09T07:47:33Z</time>
      </trkpt>
      <trkpt lat="47.31689" lon="-1.6807">
        <ele>72</ele>
        <time>2011-10-09T07:47:36Z</time>
      </trkpt>
      <trkpt lat="47.317" lon="-1.68079">
        <ele>72</ele>
        <time>2011-10-09T07:47:39Z</time>
      </trkpt>
      <trkpt lat="47.3171" lon="-1.68094">
        <ele>72</ele>
        <time>2011-10-09T07:47:42Z</time>
      </trkpt>
      <trkpt lat="47.31717" lon="-1.6811">
        <ele>71</ele>
        <time>2011-10-09T07:47:45Z</time>
      </trkpt>
      <trkpt lat="47.31725" lon="-1.68125">
        <ele>71</ele>
        <time>2011-10-09T07:47:48Z</time>
      </trkpt>
      <trkpt lat="47.31733" lon="-1.68141">
        <ele>71</ele>
        <time>2011-10-09T07:47:51Z</time>
      </trkpt>
      <trkpt lat="47.31739" lon="-1.68153">
        <ele>70</ele>
        <time>2011-10-09T07:47:53Z</time>
      </trkpt>
      <trkpt lat="47.31747" lon="-1.68175">
        <ele>70</ele>
        <time>2011-10-09T07:47:56Z</time>
      </trkpt>
      <trkpt lat="47.31758" lon="-1.68199">
        <ele>68</ele>
        <time>2011-10-09T07:47:59Z</time>
      </trkpt>
      <trkpt lat="47.31763" lon="-1.68216">
        <ele>68</ele>
        <time>2011-10-09T07:48:01Z</time>
      </trkpt>
      <trkpt lat="47.31771" lon="-1.68241">
        <ele>69</ele>
        <time>2011-10-09T07:48:04Z</time>
      </trkpt>
      <trkpt lat="47.31782" lon="-1.68265">
        <ele>69</ele>
        <time>2011-10-09T07:48:07Z</time>
      </trkpt>
      <trkpt lat="47.3179" lon="-1.6828">
        <ele>69</ele>
        <time>2011-10-09T07:48:09Z</time>
      </trkpt>
      <trkpt lat="47.31801" lon="-1.683">
        <ele>69</ele>
        <time>2011-10-09T07:48:12Z</time>
      </trkpt>
      <trkpt lat="47.31809" lon="-1.68311">
        <ele>69</ele>
        <time>2011-10-09T07:48:14Z</time>
      </trkpt>
      <trkpt lat="47.31824" lon="-1.68324">
        <ele>69</ele>
        <time>2011-10-09T07:48:17Z</time>
      </trkpt>
      <trkpt lat="47.31837" lon="-1.68339">
        <ele>69</ele>
        <time>2011-10-09T07:48:20Z</time>
      </trkpt>
      <trkpt lat="47.31844" lon="-1.68351">
        <ele>69</ele>
        <time>2011-10-09T07:48:22Z</time>
      </trkpt>
      <trkpt lat="47.31853" lon="-1.68367">
        <ele>70</ele>
        <time>2011-10-09T07:48:25Z</time>
      </trkpt>
      <trkpt lat="47.31863" lon="-1.68385">
        <ele>70</ele>
        <time>2011-10-09T07:48:28Z</time>
      </trkpt>
      <trkpt lat="47.31873" lon="-1.68401">
        <ele>70</ele>
        <time>2011-10-09T07:48:31Z</time>
      </trkpt>
      <trkpt lat="47.31879" lon="-1.68411">
        <ele>70</ele>
        <time>2011-10-09T07:48:33Z</time>
      </trkpt>
      <trkpt lat="47.31887" lon="-1.68426">
        <ele>71</ele>
        <time>2011-10-09T07:48:36Z</time>
      </trkpt>
      <trkpt lat="47.31893" lon="-1.68434">
        <ele>71</ele>
        <time>2011-10-09T07:48:38Z</time>
      </trkpt>
      <trkpt lat="47.31901" lon="-1.68444">
        <ele>71</ele>
        <time>2011-10-09T07:48:41Z</time>
      </trkpt>
      <trkpt lat="47.31906" lon="-1.68446">
        <ele>71</ele>
        <time>2011-10-09T07:48:43Z</time>
      </trkpt>
      <trkpt lat="47.31906" lon="-1.68446">
        <ele>71</ele>
        <time>2011-10-09T07:48:45Z</time>
      </trkpt>
      <trkpt lat="47.31906" lon="-1.68446">
        <ele>71</ele>
        <time>2011-10-09T07:49:15Z</time>
      </trkpt>
      <trkpt lat="47.31935" lon="-1.68459">
        <ele>68</ele>
        <time>2011-10-09T07:55:53Z</time>
      </trkpt>
      <trkpt lat="47.31943" lon="-1.68458">
        <ele>68</ele>
        <time>2011-10-09T07:55:55Z</time>
      </trkpt>
      <trkpt lat="47.31951" lon="-1.68454">
        <ele>68</ele>
        <time>2011-10-09T07:55:57Z</time>
      </trkpt>
      <trkpt lat="47.31961" lon="-1.6845">
        <ele>67</ele>
        <time>2011-10-09T07:56:00Z</time>
      </trkpt>
      <trkpt lat="47.31968" lon="-1.68437">
        <ele>67</ele>
        <time>2011-10-09T07:56:02Z</time>
      </trkpt>
      <trkpt lat="47.31974" lon="-1.6842">
        <ele>67</ele>
        <time>2011-10-09T07:56:04Z</time>
      </trkpt>
      <trkpt lat="47.31981" lon="-1.68406">
        <ele>67</ele>
        <time>2011-10-09T07:56:07Z</time>
      </trkpt>
      <trkpt lat="47.31984" lon="-1.68392">
        <ele>67</ele>
        <time>2011-10-09T07:56:10Z</time>
      </trkpt>
      <trkpt lat="47.31986" lon="-1.68386">
        <ele>67</ele>
        <time>2011-10-09T07:56:13Z</time>
      </trkpt>
      <trkpt lat="47.31992" lon="-1.68426">
        <ele>66</ele>
        <time>2011-10-09T07:56:29Z</time>
      </trkpt>
      <trkpt lat="47.31992" lon="-1.68426">
        <ele>66</ele>
        <time>2011-10-09T07:56:32Z</time>
      </trkpt>
      <trkpt lat="47.31998" lon="-1.68467">
        <ele>66</ele>
        <time>2011-10-09T07:56:37Z</time>
      </trkpt>
      <trkpt lat="47.31998" lon="-1.68467">
        <ele>66</ele>
        <time>2011-10-09T07:56:40Z</time>
      </trkpt>
      <trkpt lat="47.32026" lon="-1.68476">
        <ele>60</ele>
        <time>2011-10-09T07:56:51Z</time>
      </trkpt>
      <trkpt lat="47.32048" lon="-1.68471">
        <ele>58</ele>
        <time>2011-10-09T07:57:00Z</time>
      </trkpt>
      <trkpt lat="47.32054" lon="-1.68468">
        <ele>58</ele>
        <time>2011-10-09T07:57:02Z</time>
      </trkpt>
      <trkpt lat="47.32067" lon="-1.68465">
        <ele>57</ele>
        <time>2011-10-09T07:57:05Z</time>
      </trkpt>
      <trkpt lat="47.32082" lon="-1.68464">
        <ele>56</ele>
        <time>2011-10-09T07:57:10Z</time>
      </trkpt>
      <trkpt lat="47.32086" lon="-1.68465">
        <ele>53</ele>
        <time>2011-10-09T07:57:12Z</time>
      </trkpt>
      <trkpt lat="47.32094" lon="-1.68466">
        <ele>53</ele>
        <time>2011-10-09T07:57:15Z</time>
      </trkpt>
      <trkpt lat="47.32099" lon="-1.68466">
        <ele>53</ele>
        <time>2011-10-09T07:57:17Z</time>
      </trkpt>
      <trkpt lat="47.32111" lon="-1.68465">
        <ele>53</ele>
        <time>2011-10-09T07:57:24Z</time>
      </trkpt>
      <trkpt lat="47.3212" lon="-1.68462">
        <ele>53</ele>
        <time>2011-10-09T07:57:30Z</time>
      </trkpt>
      <trkpt lat="47.32125" lon="-1.6846">
        <ele>53</ele>
        <time>2011-10-09T07:57:34Z</time>
      </trkpt>
      <trkpt lat="47.32132" lon="-1.68457">
        <ele>53</ele>
        <time>2011-10-09T07:57:39Z</time>
      </trkpt>
      <trkpt lat="47.32137" lon="-1.68454">
        <ele>53</ele>
        <time>2011-10-09T07:57:41Z</time>
      </trkpt>
      <trkpt lat="47.32148" lon="-1.68444">
        <ele>52</ele>
        <time>2011-10-09T07:57:44Z</time>
      </trkpt>
      <trkpt lat="47.32163" lon="-1.68431">
        <ele>51</ele>
        <time>2011-10-09T07:57:47Z</time>
      </trkpt>
      <trkpt lat="47.32177" lon="-1.6843">
        <ele>48</ele>
        <time>2011-10-09T07:57:50Z</time>
      </trkpt>
      <trkpt lat="47.32189" lon="-1.68425">
        <ele>48</ele>
        <time>2011-10-09T07:57:53Z</time>
      </trkpt>
      <trkpt lat="47.32189" lon="-1.68425">
        <ele>48</ele>
        <time>2011-10-09T07:57:54Z</time>
      </trkpt>
      <trkpt lat="47.32207" lon="-1.68416">
        <ele>42</ele>
        <time>2011-10-09T07:57:59Z</time>
      </trkpt>
      <trkpt lat="47.32214" lon="-1.68419">
        <ele>46</ele>
        <time>2011-10-09T07:58:01Z</time>
      </trkpt>
      <trkpt lat="47.32222" lon="-1.68434">
        <ele>45</ele>
        <time>2011-10-09T07:58:04Z</time>
      </trkpt>
      <trkpt lat="47.32229" lon="-1.68453">
        <ele>46</ele>
        <time>2011-10-09T07:58:07Z</time>
      </trkpt>
      <trkpt lat="47.32237" lon="-1.68472">
        <ele>46</ele>
        <time>2011-10-09T07:58:10Z</time>
      </trkpt>
      <trkpt lat="47.32245" lon="-1.68488">
        <ele>46</ele>
        <time>2011-10-09T07:58:13Z</time>
      </trkpt>
      <trkpt lat="47.32253" lon="-1.68507">
        <ele>44</ele>
        <time>2011-10-09T07:58:16Z</time>
      </trkpt>
      <trkpt lat="47.32259" lon="-1.68522">
        <ele>42</ele>
        <time>2011-10-09T07:58:18Z</time>
      </trkpt>
      <trkpt lat="47.32265" lon="-1.68543">
        <ele>42</ele>
        <time>2011-10-09T07:58:20Z</time>
      </trkpt>
      <trkpt lat="47.32272" lon="-1.68566">
        <ele>42</ele>
        <time>2011-10-09T07:58:23Z</time>
      </trkpt>
      <trkpt lat="47.32279" lon="-1.68592">
        <ele>43</ele>
        <time>2011-10-09T07:58:26Z</time>
      </trkpt>
      <trkpt lat="47.32284" lon="-1.68607">
        <ele>43</ele>
        <time>2011-10-09T07:58:28Z</time>
      </trkpt>
      <trkpt lat="47.32295" lon="-1.68627">
        <ele>42</ele>
        <time>2011-10-09T07:58:31Z</time>
      </trkpt>
      <trkpt lat="47.32307" lon="-1.68645">
        <ele>41</ele>
        <time>2011-10-09T07:58:34Z</time>
      </trkpt>
      <trkpt lat="47.32312" lon="-1.68654">
        <ele>40</ele>
        <time>2011-10-09T07:58:36Z</time>
      </trkpt>
      <trkpt lat="47.32321" lon="-1.68673">
        <ele>41</ele>
        <time>2011-10-09T07:58:39Z</time>
      </trkpt>
      <trkpt lat="47.32327" lon="-1.68686">
        <ele>42</ele>
        <time>2011-10-09T07:58:41Z</time>
      </trkpt>
      <trkpt lat="47.32332" lon="-1.68697">
        <ele>43</ele>
        <time>2011-10-09T07:58:43Z</time>
      </trkpt>
      <trkpt lat="47.3234" lon="-1.68711">
        <ele>39</ele>
        <time>2011-10-09T07:58:46Z</time>
      </trkpt>
      <trkpt lat="47.32349" lon="-1.68717">
        <ele>39</ele>
        <time>2011-10-09T07:58:48Z</time>
      </trkpt>
      <trkpt lat="47.32364" lon="-1.68729">
        <ele>39</ele>
        <time>2011-10-09T07:58:51Z</time>
      </trkpt>
      <trkpt lat="47.32371" lon="-1.68737">
        <ele>39</ele>
        <time>2011-10-09T07:58:53Z</time>
      </trkpt>
      <trkpt lat="47.3238" lon="-1.68743">
        <ele>38</ele>
        <time>2011-10-09T07:58:56Z</time>
      </trkpt>
      <trkpt lat="47.32392" lon="-1.68746">
        <ele>37</ele>
        <time>2011-10-09T07:58:59Z</time>
      </trkpt>
      <trkpt lat="47.32404" lon="-1.68749">
        <ele>37</ele>
        <time>2011-10-09T07:59:01Z</time>
      </trkpt>
      <trkpt lat="47.32422" lon="-1.68752">
        <ele>37</ele>
        <time>2011-10-09T07:59:04Z</time>
      </trkpt>
      <trkpt lat="47.32439" lon="-1.68759">
        <ele>38</ele>
        <time>2011-10-09T07:59:07Z</time>
      </trkpt>
      <trkpt lat="47.32462" lon="-1.68766">
        <ele>38</ele>
        <time>2011-10-09T07:59:10Z</time>
      </trkpt>
      <trkpt lat="47.32485" lon="-1.68772">
        <ele>38</ele>
        <time>2011-10-09T07:59:13Z</time>
      </trkpt>
      <trkpt lat="47.32505" lon="-1.68779">
        <ele>38</ele>
        <time>2011-10-09T07:59:16Z</time>
      </trkpt>
      <trkpt lat="47.32521" lon="-1.68788">
        <ele>39</ele>
        <time>2011-10-09T07:59:19Z</time>
      </trkpt>
      <trkpt lat="47.32539" lon="-1.68796">
        <ele>39</ele>
        <time>2011-10-09T07:59:22Z</time>
      </trkpt>
      <trkpt lat="47.32556" lon="-1.68804">
        <ele>39</ele>
        <time>2011-10-09T07:59:25Z</time>
      </trkpt>
      <trkpt lat="47.32571" lon="-1.68816">
        <ele>38</ele>
        <time>2011-10-09T07:59:28Z</time>
      </trkpt>
      <trkpt lat="47.32581" lon="-1.68831">
        <ele>37</ele>
        <time>2011-10-09T07:59:31Z</time>
      </trkpt>
      <trkpt lat="47.32587" lon="-1.68853">
        <ele>38</ele>
        <time>2011-10-09T07:59:34Z</time>
      </trkpt>
      <trkpt lat="47.3259" lon="-1.68867">
        <ele>38</ele>
        <time>2011-10-09T07:59:36Z</time>
      </trkpt>
      <trkpt lat="47.32592" lon="-1.6888">
        <ele>38</ele>
        <time>2011-10-09T07:59:38Z</time>
      </trkpt>
      <trkpt lat="47.32599" lon="-1.68891">
        <ele>38</ele>
        <time>2011-10-09T07:59:41Z</time>
      </trkpt>
      <trkpt lat="47.32614" lon="-1.68887">
        <ele>38</ele>
        <time>2011-10-09T07:59:44Z</time>
      </trkpt>
      <trkpt lat="47.32627" lon="-1.68883">
        <ele>39</ele>
        <time>2011-10-09T07:59:47Z</time>
      </trkpt>
      <trkpt lat="47.32636" lon="-1.68881">
        <ele>39</ele>
        <time>2011-10-09T07:59:49Z</time>
      </trkpt>
      <trkpt lat="47.32647" lon="-1.68888">
        <ele>39</ele>
        <time>2011-10-09T07:59:52Z</time>
      </trkpt>
      <trkpt lat="47.32644" lon="-1.68903">
        <ele>38</ele>
        <time>2011-10-09T07:59:55Z</time>
      </trkpt>
      <trkpt lat="47.32643" lon="-1.68913">
        <ele>38</ele>
        <time>2011-10-09T07:59:57Z</time>
      </trkpt>
      <trkpt lat="47.32644" lon="-1.68927">
        <ele>38</ele>
        <time>2011-10-09T08:00:00Z</time>
      </trkpt>
      <trkpt lat="47.32644" lon="-1.68927">
        <ele>38</ele>
        <time>2011-10-09T08:00:01Z</time>
      </trkpt>
      <trkpt lat="47.32643" lon="-1.68974">
        <ele>39</ele>
        <time>2011-10-09T08:00:16Z</time>
      </trkpt>
      <trkpt lat="47.32642" lon="-1.68983">
        <ele>39</ele>
        <time>2011-10-09T08:00:18Z</time>
      </trkpt>
      <trkpt lat="47.32641" lon="-1.68993">
        <ele>39</ele>
        <time>2011-10-09T08:00:20Z</time>
      </trkpt>
      <trkpt lat="47.32638" lon="-1.69014">
        <ele>40</ele>
        <time>2011-10-09T08:00:24Z</time>
      </trkpt>
      <trkpt lat="47.32636" lon="-1.69025">
        <ele>40</ele>
        <time>2011-10-09T08:00:26Z</time>
      </trkpt>
      <trkpt lat="47.32637" lon="-1.6904">
        <ele>40</ele>
        <time>2011-10-09T08:00:29Z</time>
      </trkpt>
      <trkpt lat="47.32641" lon="-1.69055">
        <ele>40</ele>
        <time>2011-10-09T08:00:32Z</time>
      </trkpt>
      <trkpt lat="47.32643" lon="-1.69063">
        <ele>40</ele>
        <time>2011-10-09T08:00:34Z</time>
      </trkpt>
      <trkpt lat="47.32646" lon="-1.69076">
        <ele>40</ele>
        <time>2011-10-09T08:00:37Z</time>
      </trkpt>
      <trkpt lat="47.32647" lon="-1.69083">
        <ele>41</ele>
        <time>2011-10-09T08:00:39Z</time>
      </trkpt>
      <trkpt lat="47.32648" lon="-1.6909">
        <ele>41</ele>
        <time>2011-10-09T08:00:41Z</time>
      </trkpt>
      <trkpt lat="47.32647" lon="-1.69099">
        <ele>41</ele>
        <time>2011-10-09T08:00:44Z</time>
      </trkpt>
      <trkpt lat="47.32647" lon="-1.69099">
        <ele>41</ele>
        <time>2011-10-09T08:00:47Z</time>
      </trkpt>
      <trkpt lat="47.32659" lon="-1.69143">
        <ele>41</ele>
        <time>2011-10-09T08:00:59Z</time>
      </trkpt>
      <trkpt lat="47.32659" lon="-1.69143">
        <ele>41</ele>
        <time>2011-10-09T08:01:02Z</time>
      </trkpt>
      <trkpt lat="47.32662" lon="-1.69185">
        <ele>41</ele>
        <time>2011-10-09T08:01:12Z</time>
      </trkpt>
      <trkpt lat="47.32662" lon="-1.69185">
        <ele>41</ele>
        <time>2011-10-09T08:01:16Z</time>
      </trkpt>
      <trkpt lat="47.32668" lon="-1.69231">
        <ele>44</ele>
        <time>2011-10-09T08:01:19Z</time>
      </trkpt>
      <trkpt lat="47.32676" lon="-1.69274">
        <ele>45</ele>
        <time>2011-10-09T08:01:23Z</time>
      </trkpt>
      <trkpt lat="47.32679" lon="-1.69293">
        <ele>45</ele>
        <time>2011-10-09T08:01:26Z</time>
      </trkpt>
      <trkpt lat="47.32681" lon="-1.69315">
        <ele>45</ele>
        <time>2011-10-09T08:01:29Z</time>
      </trkpt>
      <trkpt lat="47.32681" lon="-1.69334">
        <ele>44</ele>
        <time>2011-10-09T08:01:31Z</time>
      </trkpt>
      <trkpt lat="47.32679" lon="-1.69364">
        <ele>44</ele>
        <time>2011-10-09T08:01:34Z</time>
      </trkpt>
      <trkpt lat="47.32677" lon="-1.69383">
        <ele>44</ele>
        <time>2011-10-09T08:01:36Z</time>
      </trkpt>
      <trkpt lat="47.32676" lon="-1.69413">
        <ele>43</ele>
        <time>2011-10-09T08:01:39Z</time>
      </trkpt>
      <trkpt lat="47.32676" lon="-1.69443">
        <ele>43</ele>
        <time>2011-10-09T08:01:42Z</time>
      </trkpt>
      <trkpt lat="47.32676" lon="-1.69461">
        <ele>44</ele>
        <time>2011-10-09T08:01:44Z</time>
      </trkpt>
      <trkpt lat="47.32678" lon="-1.69479">
        <ele>43</ele>
        <time>2011-10-09T08:01:46Z</time>
      </trkpt>
      <trkpt lat="47.32679" lon="-1.69497">
        <ele>43</ele>
        <time>2011-10-09T08:01:48Z</time>
      </trkpt>
      <trkpt lat="47.32682" lon="-1.69522">
        <ele>43</ele>
        <time>2011-10-09T08:01:51Z</time>
      </trkpt>
      <trkpt lat="47.32684" lon="-1.69539">
        <ele>43</ele>
        <time>2011-10-09T08:01:53Z</time>
      </trkpt>
      <trkpt lat="47.32688" lon="-1.69566">
        <ele>42</ele>
        <time>2011-10-09T08:01:56Z</time>
      </trkpt>
      <trkpt lat="47.32692" lon="-1.69587">
        <ele>42</ele>
        <time>2011-10-09T08:01:58Z</time>
      </trkpt>
      <trkpt lat="47.32699" lon="-1.69616">
        <ele>43</ele>
        <time>2011-10-09T08:02:01Z</time>
      </trkpt>
      <trkpt lat="47.32703" lon="-1.69644">
        <ele>43</ele>
        <time>2011-10-09T08:02:04Z</time>
      </trkpt>
      <trkpt lat="47.32708" lon="-1.69676">
        <ele>43</ele>
        <time>2011-10-09T08:02:07Z</time>
      </trkpt>
      <trkpt lat="47.3271" lon="-1.69701">
        <ele>43</ele>
        <time>2011-10-09T08:02:09Z</time>
      </trkpt>
      <trkpt lat="47.32713" lon="-1.69725">
        <ele>43</ele>
        <time>2011-10-09T08:02:11Z</time>
      </trkpt>
      <trkpt lat="47.32718" lon="-1.6976">
        <ele>43</ele>
        <time>2011-10-09T08:02:14Z</time>
      </trkpt>
      <trkpt lat="47.32718" lon="-1.69792">
        <ele>43</ele>
        <time>2011-10-09T08:02:17Z</time>
      </trkpt>
      <trkpt lat="47.32716" lon="-1.69819">
        <ele>42</ele>
        <time>2011-10-09T08:02:20Z</time>
      </trkpt>
      <trkpt lat="47.32715" lon="-1.69827">
        <ele>42</ele>
        <time>2011-10-09T08:02:22Z</time>
      </trkpt>
      <trkpt lat="47.32715" lon="-1.69827">
        <ele>42</ele>
        <time>2011-10-09T08:02:23Z</time>
      </trkpt>
      <trkpt lat="47.3268" lon="-1.69835">
        <ele>40</ele>
        <time>2011-10-09T08:02:29Z</time>
      </trkpt>
      <trkpt lat="47.32651" lon="-1.6983">
        <ele>40</ele>
        <time>2011-10-09T08:02:32Z</time>
      </trkpt>
      <trkpt lat="47.32629" lon="-1.69821">
        <ele>39</ele>
        <time>2011-10-09T08:02:35Z</time>
      </trkpt>
      <trkpt lat="47.32612" lon="-1.69812">
        <ele>39</ele>
        <time>2011-10-09T08:02:38Z</time>
      </trkpt>
      <trkpt lat="47.32603" lon="-1.69809">
        <ele>39</ele>
        <time>2011-10-09T08:02:40Z</time>
      </trkpt>
      <trkpt lat="47.32588" lon="-1.69804">
        <ele>39</ele>
        <time>2011-10-09T08:02:43Z</time>
      </trkpt>
      <trkpt lat="47.32573" lon="-1.69799">
        <ele>42</ele>
        <time>2011-10-09T08:02:46Z</time>
      </trkpt>
      <trkpt lat="47.32562" lon="-1.69797">
        <ele>42</ele>
        <time>2011-10-09T08:02:49Z</time>
      </trkpt>
      <trkpt lat="47.32547" lon="-1.69799">
        <ele>43</ele>
        <time>2011-10-09T08:02:52Z</time>
      </trkpt>
      <trkpt lat="47.32531" lon="-1.69813">
        <ele>44</ele>
        <time>2011-10-09T08:02:55Z</time>
      </trkpt>
      <trkpt lat="47.32518" lon="-1.69831">
        <ele>45</ele>
        <time>2011-10-09T08:02:58Z</time>
      </trkpt>
      <trkpt lat="47.32512" lon="-1.69843">
        <ele>45</ele>
        <time>2011-10-09T08:03:01Z</time>
      </trkpt>
      <trkpt lat="47.32503" lon="-1.69855">
        <ele>45</ele>
        <time>2011-10-09T08:03:04Z</time>
      </trkpt>
      <trkpt lat="47.32497" lon="-1.69863">
        <ele>48</ele>
        <time>2011-10-09T08:03:06Z</time>
      </trkpt>
      <trkpt lat="47.32487" lon="-1.69876">
        <ele>48</ele>
        <time>2011-10-09T08:03:09Z</time>
      </trkpt>
      <trkpt lat="47.32485" lon="-1.69888">
        <ele>48</ele>
        <time>2011-10-09T08:03:11Z</time>
      </trkpt>
      <trkpt lat="47.32487" lon="-1.69913">
        <ele>47</ele>
        <time>2011-10-09T08:03:14Z</time>
      </trkpt>
      <trkpt lat="47.32491" lon="-1.69928">
        <ele>46</ele>
        <time>2011-10-09T08:03:16Z</time>
      </trkpt>
      <trkpt lat="47.32493" lon="-1.69948">
        <ele>47</ele>
        <time>2011-10-09T08:03:19Z</time>
      </trkpt>
      <trkpt lat="47.32494" lon="-1.69962">
        <ele>47</ele>
        <time>2011-10-09T08:03:21Z</time>
      </trkpt>
      <trkpt lat="47.32494" lon="-1.69974">
        <ele>47</ele>
        <time>2011-10-09T08:03:23Z</time>
      </trkpt>
      <trkpt lat="47.32493" lon="-1.69992">
        <ele>46</ele>
        <time>2011-10-09T08:03:26Z</time>
      </trkpt>
      <trkpt lat="47.32499" lon="-1.70007">
        <ele>45</ele>
        <time>2011-10-09T08:03:29Z</time>
      </trkpt>
      <trkpt lat="47.32517" lon="-1.70013">
        <ele>43</ele>
        <time>2011-10-09T08:03:32Z</time>
      </trkpt>
      <trkpt lat="47.32535" lon="-1.70018">
        <ele>42</ele>
        <time>2011-10-09T08:03:34Z</time>
      </trkpt>
      <trkpt lat="47.32567" lon="-1.70022">
        <ele>41</ele>
        <time>2011-10-09T08:03:37Z</time>
      </trkpt>
      <trkpt lat="47.3259" lon="-1.70023">
        <ele>39</ele>
        <time>2011-10-09T08:03:39Z</time>
      </trkpt>
      <trkpt lat="47.32622" lon="-1.70022">
        <ele>38</ele>
        <time>2011-10-09T08:03:42Z</time>
      </trkpt>
      <trkpt lat="47.3264" lon="-1.70021">
        <ele>38</ele>
        <time>2011-10-09T08:03:44Z</time>
      </trkpt>
      <trkpt lat="47.32656" lon="-1.7002">
        <ele>37</ele>
        <time>2011-10-09T08:03:46Z</time>
      </trkpt>
      <trkpt lat="47.3267" lon="-1.70019">
        <ele>38</ele>
        <time>2011-10-09T08:03:48Z</time>
      </trkpt>
      <trkpt lat="47.3269" lon="-1.70017">
        <ele>38</ele>
        <time>2011-10-09T08:03:51Z</time>
      </trkpt>
      <trkpt lat="47.32702" lon="-1.70014">
        <ele>39</ele>
        <time>2011-10-09T08:03:53Z</time>
      </trkpt>
      <trkpt lat="47.3272" lon="-1.70009">
        <ele>39</ele>
        <time>2011-10-09T08:03:56Z</time>
      </trkpt>
      <trkpt lat="47.32731" lon="-1.70005">
        <ele>40</ele>
        <time>2011-10-09T08:03:58Z</time>
      </trkpt>
      <trkpt lat="47.32745" lon="-1.70001">
        <ele>41</ele>
        <time>2011-10-09T08:04:01Z</time>
      </trkpt>
      <trkpt lat="47.32757" lon="-1.70011">
        <ele>42</ele>
        <time>2011-10-09T08:04:04Z</time>
      </trkpt>
      <trkpt lat="47.32763" lon="-1.70027">
        <ele>43</ele>
        <time>2011-10-09T08:04:06Z</time>
      </trkpt>
      <trkpt lat="47.32768" lon="-1.70049">
        <ele>43</ele>
        <time>2011-10-09T08:04:09Z</time>
      </trkpt>
      <trkpt lat="47.32772" lon="-1.7007">
        <ele>43</ele>
        <time>2011-10-09T08:04:12Z</time>
      </trkpt>
      <trkpt lat="47.32774" lon="-1.70093">
        <ele>43</ele>
        <time>2011-10-09T08:04:15Z</time>
      </trkpt>
      <trkpt lat="47.3277" lon="-1.70116">
        <ele>43</ele>
        <time>2011-10-09T08:04:18Z</time>
      </trkpt>
      <trkpt lat="47.32769" lon="-1.70128">
        <ele>43</ele>
        <time>2011-10-09T08:04:20Z</time>
      </trkpt>
      <trkpt lat="47.3277" lon="-1.70137">
        <ele>43</ele>
        <time>2011-10-09T08:04:22Z</time>
      </trkpt>
      <trkpt lat="47.32772" lon="-1.70148">
        <ele>43</ele>
        <time>2011-10-09T08:04:24Z</time>
      </trkpt>
      <trkpt lat="47.32797" lon="-1.70166">
        <ele>44</ele>
        <time>2011-10-09T08:04:37Z</time>
      </trkpt>
      <trkpt lat="47.32797" lon="-1.70166">
        <ele>44</ele>
        <time>2011-10-09T08:04:41Z</time>
      </trkpt>
      <trkpt lat="47.32809" lon="-1.70218">
        <ele>46</ele>
        <time>2011-10-09T08:05:14Z</time>
      </trkpt>
      <trkpt lat="47.32813" lon="-1.70258">
        <ele>48</ele>
        <time>2011-10-09T08:05:23Z</time>
      </trkpt>
      <trkpt lat="47.32818" lon="-1.70298">
        <ele>47</ele>
        <time>2011-10-09T08:05:31Z</time>
      </trkpt>
      <trkpt lat="47.32825" lon="-1.7034">
        <ele>49</ele>
        <time>2011-10-09T08:05:38Z</time>
      </trkpt>
      <trkpt lat="47.32836" lon="-1.70373">
        <ele>52</ele>
        <time>2011-10-09T08:05:43Z</time>
      </trkpt>
      <trkpt lat="47.32841" lon="-1.70394">
        <ele>52</ele>
        <time>2011-10-09T08:05:45Z</time>
      </trkpt>
      <trkpt lat="47.32848" lon="-1.70422">
        <ele>53</ele>
        <time>2011-10-09T08:05:48Z</time>
      </trkpt>
      <trkpt lat="47.32851" lon="-1.7043">
        <ele>53</ele>
        <time>2011-10-09T08:05:51Z</time>
      </trkpt>
      <trkpt lat="47.32864" lon="-1.70466">
        <ele>54</ele>
        <time>2011-10-09T08:05:58Z</time>
      </trkpt>
      <trkpt lat="47.32847" lon="-1.70508">
        <ele>53</ele>
        <time>2011-10-09T08:06:10Z</time>
      </trkpt>
      <trkpt lat="47.32836" lon="-1.7052">
        <ele>53</ele>
        <time>2011-10-09T08:06:12Z</time>
      </trkpt>
      <trkpt lat="47.32824" lon="-1.70539">
        <ele>47</ele>
        <time>2011-10-09T08:06:15Z</time>
      </trkpt>
      <trkpt lat="47.32811" lon="-1.70561">
        <ele>47</ele>
        <time>2011-10-09T08:06:18Z</time>
      </trkpt>
      <trkpt lat="47.328" lon="-1.7059">
        <ele>45</ele>
        <time>2011-10-09T08:06:21Z</time>
      </trkpt>
      <trkpt lat="47.32789" lon="-1.70618">
        <ele>44</ele>
        <time>2011-10-09T08:06:24Z</time>
      </trkpt>
      <trkpt lat="47.32777" lon="-1.70644">
        <ele>43</ele>
        <time>2011-10-09T08:06:27Z</time>
      </trkpt>
      <trkpt lat="47.32771" lon="-1.70661">
        <ele>42</ele>
        <time>2011-10-09T08:06:29Z</time>
      </trkpt>
      <trkpt lat="47.32769" lon="-1.70678">
        <ele>42</ele>
        <time>2011-10-09T08:06:31Z</time>
      </trkpt>
      <trkpt lat="47.32767" lon="-1.70701">
        <ele>43</ele>
        <time>2011-10-09T08:06:34Z</time>
      </trkpt>
      <trkpt lat="47.32766" lon="-1.70724">
        <ele>42</ele>
        <time>2011-10-09T08:06:37Z</time>
      </trkpt>
      <trkpt lat="47.32767" lon="-1.70738">
        <ele>42</ele>
        <time>2011-10-09T08:06:39Z</time>
      </trkpt>
      <trkpt lat="47.32769" lon="-1.70748">
        <ele>42</ele>
        <time>2011-10-09T08:06:42Z</time>
      </trkpt>
      <trkpt lat="47.32751" lon="-1.70769">
        <ele>42</ele>
        <time>2011-10-09T08:07:00Z</time>
      </trkpt>
      <trkpt lat="47.32742" lon="-1.70776">
        <ele>42</ele>
        <time>2011-10-09T08:07:03Z</time>
      </trkpt>
      <trkpt lat="47.32733" lon="-1.70786">
        <ele>42</ele>
        <time>2011-10-09T08:07:06Z</time>
      </trkpt>
      <trkpt lat="47.32724" lon="-1.708">
        <ele>43</ele>
        <time>2011-10-09T08:07:09Z</time>
      </trkpt>
      <trkpt lat="47.32724" lon="-1.708">
        <ele>43</ele>
        <time>2011-10-09T08:07:10Z</time>
      </trkpt>
      <trkpt lat="47.32707" lon="-1.70839">
        <ele>44</ele>
        <time>2011-10-09T08:07:18Z</time>
      </trkpt>
      <trkpt lat="47.32701" lon="-1.70851">
        <ele>44</ele>
        <time>2011-10-09T08:07:21Z</time>
      </trkpt>
      <trkpt lat="47.32701" lon="-1.70851">
        <ele>44</ele>
        <time>2011-10-09T08:07:22Z</time>
      </trkpt>
      <trkpt lat="47.32681" lon="-1.70883">
        <ele>45</ele>
        <time>2011-10-09T08:07:31Z</time>
      </trkpt>
      <trkpt lat="47.32674" lon="-1.7089">
        <ele>45</ele>
        <time>2011-10-09T08:07:34Z</time>
      </trkpt>
      <trkpt lat="47.3267" lon="-1.70893">
        <ele>45</ele>
        <time>2011-10-09T08:07:37Z</time>
      </trkpt>
      <trkpt lat="47.32642" lon="-1.709">
        <ele>52</ele>
        <time>2011-10-09T08:07:50Z</time>
      </trkpt>
      <trkpt lat="47.32636" lon="-1.70899">
        <ele>52</ele>
        <time>2011-10-09T08:07:53Z</time>
      </trkpt>
      <trkpt lat="47.32636" lon="-1.70899">
        <ele>52</ele>
        <time>2011-10-09T08:08:07Z</time>
      </trkpt>
      <trkpt lat="47.32606" lon="-1.70893">
        <ele>55</ele>
        <time>2011-10-09T08:08:23Z</time>
      </trkpt>
      <trkpt lat="47.32596" lon="-1.7089">
        <ele>55</ele>
        <time>2011-10-09T08:08:29Z</time>
      </trkpt>
      <trkpt lat="47.32587" lon="-1.70888">
        <ele>56</ele>
        <time>2011-10-09T08:08:34Z</time>
      </trkpt>
      <trkpt lat="47.32578" lon="-1.70885">
        <ele>61</ele>
        <time>2011-10-09T08:08:42Z</time>
      </trkpt>
      <trkpt lat="47.32568" lon="-1.70881">
        <ele>61</ele>
        <time>2011-10-09T08:08:53Z</time>
      </trkpt>
      <trkpt lat="47.32551" lon="-1.70883">
        <ele>61</ele>
        <time>2011-10-09T08:09:05Z</time>
      </trkpt>
      <trkpt lat="47.32548" lon="-1.70887">
        <ele>61</ele>
        <time>2011-10-09T08:09:07Z</time>
      </trkpt>
      <trkpt lat="47.32541" lon="-1.70898">
        <ele>62</ele>
        <time>2011-10-09T08:09:10Z</time>
      </trkpt>
      <trkpt lat="47.32533" lon="-1.70913">
        <ele>62</ele>
        <time>2011-10-09T08:09:13Z</time>
      </trkpt>
      <trkpt lat="47.32523" lon="-1.7093">
        <ele>63</ele>
        <time>2011-10-09T08:09:16Z</time>
      </trkpt>
      <trkpt lat="47.32512" lon="-1.70946">
        <ele>63</ele>
        <time>2011-10-09T08:09:19Z</time>
      </trkpt>
      <trkpt lat="47.32505" lon="-1.70955">
        <ele>63</ele>
        <time>2011-10-09T08:09:21Z</time>
      </trkpt>
      <trkpt lat="47.32495" lon="-1.70969">
        <ele>65</ele>
        <time>2011-10-09T08:09:24Z</time>
      </trkpt>
      <trkpt lat="47.32488" lon="-1.70978">
        <ele>65</ele>
        <time>2011-10-09T08:09:26Z</time>
      </trkpt>
      <trkpt lat="47.32481" lon="-1.70987">
        <ele>65</ele>
        <time>2011-10-09T08:09:28Z</time>
      </trkpt>
      <trkpt lat="47.32473" lon="-1.70995">
        <ele>65</ele>
        <time>2011-10-09T08:09:30Z</time>
      </trkpt>
      <trkpt lat="47.3246" lon="-1.71002">
        <ele>65</ele>
        <time>2011-10-09T08:09:33Z</time>
      </trkpt>
      <trkpt lat="47.32447" lon="-1.71005">
        <ele>65</ele>
        <time>2011-10-09T08:09:36Z</time>
      </trkpt>
      <trkpt lat="47.32434" lon="-1.71005">
        <ele>66</ele>
        <time>2011-10-09T08:09:39Z</time>
      </trkpt>
      <trkpt lat="47.3242" lon="-1.71005">
        <ele>66</ele>
        <time>2011-10-09T08:09:42Z</time>
      </trkpt>
      <trkpt lat="47.32407" lon="-1.71007">
        <ele>67</ele>
        <time>2011-10-09T08:09:45Z</time>
      </trkpt>
      <trkpt lat="47.32394" lon="-1.71011">
        <ele>67</ele>
        <time>2011-10-09T08:09:48Z</time>
      </trkpt>
      <trkpt lat="47.32382" lon="-1.71016">
        <ele>68</ele>
        <time>2011-10-09T08:09:51Z</time>
      </trkpt>
      <trkpt lat="47.32369" lon="-1.71019">
        <ele>68</ele>
        <time>2011-10-09T08:09:54Z</time>
      </trkpt>
      <trkpt lat="47.32356" lon="-1.71023">
        <ele>68</ele>
        <time>2011-10-09T08:09:57Z</time>
      </trkpt>
      <trkpt lat="47.32348" lon="-1.71027">
        <ele>68</ele>
        <time>2011-10-09T08:09:59Z</time>
      </trkpt>
      <trkpt lat="47.3234" lon="-1.71032">
        <ele>68</ele>
        <time>2011-10-09T08:10:01Z</time>
      </trkpt>
      <trkpt lat="47.32329" lon="-1.71038">
        <ele>69</ele>
        <time>2011-10-09T08:10:04Z</time>
      </trkpt>
      <trkpt lat="47.32319" lon="-1.71039">
        <ele>69</ele>
        <time>2011-10-09T08:10:07Z</time>
      </trkpt>
      <trkpt lat="47.32313" lon="-1.71029">
        <ele>69</ele>
        <time>2011-10-09T08:10:10Z</time>
      </trkpt>
      <trkpt lat="47.32309" lon="-1.71017">
        <ele>69</ele>
        <time>2011-10-09T08:10:13Z</time>
      </trkpt>
      <trkpt lat="47.32306" lon="-1.71001">
        <ele>69</ele>
        <time>2011-10-09T08:10:16Z</time>
      </trkpt>
      <trkpt lat="47.32305" lon="-1.70991">
        <ele>68</ele>
        <time>2011-10-09T08:10:18Z</time>
      </trkpt>
      <trkpt lat="47.32304" lon="-1.70977">
        <ele>68</ele>
        <time>2011-10-09T08:10:21Z</time>
      </trkpt>
      <trkpt lat="47.32301" lon="-1.70962">
        <ele>68</ele>
        <time>2011-10-09T08:10:24Z</time>
      </trkpt>
      <trkpt lat="47.32305" lon="-1.70943">
        <ele>67</ele>
        <time>2011-10-09T08:10:27Z</time>
      </trkpt>
      <trkpt lat="47.32304" lon="-1.70924">
        <ele>67</ele>
        <time>2011-10-09T08:10:30Z</time>
      </trkpt>
      <trkpt lat="47.32303" lon="-1.7091">
        <ele>66</ele>
        <time>2011-10-09T08:10:32Z</time>
      </trkpt>
      <trkpt lat="47.32302" lon="-1.70896">
        <ele>66</ele>
        <time>2011-10-09T08:10:34Z</time>
      </trkpt>
      <trkpt lat="47.323" lon="-1.70877">
        <ele>66</ele>
        <time>2011-10-09T08:10:37Z</time>
      </trkpt>
      <trkpt lat="47.32295" lon="-1.70854">
        <ele>66</ele>
        <time>2011-10-09T08:10:40Z</time>
      </trkpt>
      <trkpt lat="47.32291" lon="-1.7083">
        <ele>65</ele>
        <time>2011-10-09T08:10:43Z</time>
      </trkpt>
      <trkpt lat="47.32281" lon="-1.7081">
        <ele>65</ele>
        <time>2011-10-09T08:10:46Z</time>
      </trkpt>
      <trkpt lat="47.32276" lon="-1.70794">
        <ele>65</ele>
        <time>2011-10-09T08:10:48Z</time>
      </trkpt>
      <trkpt lat="47.32275" lon="-1.70771">
        <ele>66</ele>
        <time>2011-10-09T08:10:51Z</time>
      </trkpt>
      <trkpt lat="47.32274" lon="-1.7076">
        <ele>66</ele>
        <time>2011-10-09T08:10:53Z</time>
      </trkpt>
      <trkpt lat="47.32273" lon="-1.7072">
        <ele>65</ele>
        <time>2011-10-09T08:11:01Z</time>
      </trkpt>
      <trkpt lat="47.32273" lon="-1.7072">
        <ele>65</ele>
        <time>2011-10-09T08:11:05Z</time>
      </trkpt>
      <trkpt lat="47.32267" lon="-1.70681">
        <ele>65</ele>
        <time>2011-10-09T08:11:20Z</time>
      </trkpt>
      <trkpt lat="47.32267" lon="-1.70681">
        <ele>65</ele>
        <time>2011-10-09T08:11:24Z</time>
      </trkpt>
      <trkpt lat="47.32259" lon="-1.70642">
        <ele>66</ele>
        <time>2011-10-09T08:11:40Z</time>
      </trkpt>
      <trkpt lat="47.32265" lon="-1.70601">
        <ele>67</ele>
        <time>2011-10-09T08:11:52Z</time>
      </trkpt>
      <trkpt lat="47.32263" lon="-1.70559">
        <ele>69</ele>
        <time>2011-10-09T08:12:05Z</time>
      </trkpt>
      <trkpt lat="47.32263" lon="-1.70559">
        <ele>69</ele>
        <time>2011-10-09T08:12:22Z</time>
      </trkpt>
      <trkpt lat="47.32255" lon="-1.7052">
        <ele>70</ele>
        <time>2011-10-09T08:12:26Z</time>
      </trkpt>
      <trkpt lat="47.32246" lon="-1.70483">
        <ele>70</ele>
        <time>2011-10-09T08:12:29Z</time>
      </trkpt>
      <trkpt lat="47.32238" lon="-1.7044">
        <ele>71</ele>
        <time>2011-10-09T08:12:33Z</time>
      </trkpt>
      <trkpt lat="47.32232" lon="-1.70408">
        <ele>72</ele>
        <time>2011-10-09T08:12:36Z</time>
      </trkpt>
      <trkpt lat="47.3223" lon="-1.70398">
        <ele>71</ele>
        <time>2011-10-09T08:12:38Z</time>
      </trkpt>
      <trkpt lat="47.32222" lon="-1.70363">
        <ele>71</ele>
        <time>2011-10-09T08:12:42Z</time>
      </trkpt>
      <trkpt lat="47.3222" lon="-1.70343">
        <ele>71</ele>
        <time>2011-10-09T08:12:45Z</time>
      </trkpt>
      <trkpt lat="47.32222" lon="-1.7031">
        <ele>71</ele>
        <time>2011-10-09T08:12:48Z</time>
      </trkpt>
      <trkpt lat="47.3222" lon="-1.70298">
        <ele>70</ele>
        <time>2011-10-09T08:12:50Z</time>
      </trkpt>
      <trkpt lat="47.32219" lon="-1.70286">
        <ele>70</ele>
        <time>2011-10-09T08:12:52Z</time>
      </trkpt>
      <trkpt lat="47.3222" lon="-1.70267">
        <ele>70</ele>
        <time>2011-10-09T08:12:55Z</time>
      </trkpt>
      <trkpt lat="47.32225" lon="-1.70234">
        <ele>70</ele>
        <time>2011-10-09T08:12:58Z</time>
      </trkpt>
      <trkpt lat="47.32228" lon="-1.70211">
        <ele>69</ele>
        <time>2011-10-09T08:13:00Z</time>
      </trkpt>
      <trkpt lat="47.32223" lon="-1.70192">
        <ele>69</ele>
        <time>2011-10-09T08:13:03Z</time>
      </trkpt>
      <trkpt lat="47.32212" lon="-1.7019">
        <ele>69</ele>
        <time>2011-10-09T08:13:06Z</time>
      </trkpt>
      <trkpt lat="47.32199" lon="-1.702">
        <ele>69</ele>
        <time>2011-10-09T08:13:09Z</time>
      </trkpt>
      <trkpt lat="47.32186" lon="-1.70211">
        <ele>68</ele>
        <time>2011-10-09T08:13:12Z</time>
      </trkpt>
      <trkpt lat="47.32176" lon="-1.70218">
        <ele>68</ele>
        <time>2011-10-09T08:13:14Z</time>
      </trkpt>
      <trkpt lat="47.32165" lon="-1.70225">
        <ele>67</ele>
        <time>2011-10-09T08:13:16Z</time>
      </trkpt>
      <trkpt lat="47.32154" lon="-1.70232">
        <ele>67</ele>
        <time>2011-10-09T08:13:18Z</time>
      </trkpt>
      <trkpt lat="47.32138" lon="-1.70242">
        <ele>67</ele>
        <time>2011-10-09T08:13:21Z</time>
      </trkpt>
      <trkpt lat="47.32127" lon="-1.7025">
        <ele>67</ele>
        <time>2011-10-09T08:13:23Z</time>
      </trkpt>
      <trkpt lat="47.3211" lon="-1.70266">
        <ele>66</ele>
        <time>2011-10-09T08:13:26Z</time>
      </trkpt>
      <trkpt lat="47.321" lon="-1.70277">
        <ele>66</ele>
        <time>2011-10-09T08:13:28Z</time>
      </trkpt>
      <trkpt lat="47.32086" lon="-1.70292">
        <ele>66</ele>
        <time>2011-10-09T08:13:31Z</time>
      </trkpt>
      <trkpt lat="47.32072" lon="-1.70307">
        <ele>66</ele>
        <time>2011-10-09T08:13:34Z</time>
      </trkpt>
      <trkpt lat="47.32057" lon="-1.70321">
        <ele>66</ele>
        <time>2011-10-09T08:13:37Z</time>
      </trkpt>
      <trkpt lat="47.32048" lon="-1.70331">
        <ele>67</ele>
        <time>2011-10-09T08:13:39Z</time>
      </trkpt>
      <trkpt lat="47.32036" lon="-1.70346">
        <ele>67</ele>
        <time>2011-10-09T08:13:42Z</time>
      </trkpt>
      <trkpt lat="47.32028" lon="-1.70356">
        <ele>68</ele>
        <time>2011-10-09T08:13:44Z</time>
      </trkpt>
      <trkpt lat="47.32015" lon="-1.7037">
        <ele>68</ele>
        <time>2011-10-09T08:13:47Z</time>
      </trkpt>
      <trkpt lat="47.32007" lon="-1.70378">
        <ele>68</ele>
        <time>2011-10-09T08:13:49Z</time>
      </trkpt>
      <trkpt lat="47.31996" lon="-1.70389">
        <ele>70</ele>
        <time>2011-10-09T08:13:52Z</time>
      </trkpt>
      <trkpt lat="47.31983" lon="-1.70401">
        <ele>70</ele>
        <time>2011-10-09T08:13:55Z</time>
      </trkpt>
      <trkpt lat="47.31971" lon="-1.70412">
        <ele>70</ele>
        <time>2011-10-09T08:13:58Z</time>
      </trkpt>
      <trkpt lat="47.3196" lon="-1.70424">
        <ele>70</ele>
        <time>2011-10-09T08:14:01Z</time>
      </trkpt>
      <trkpt lat="47.31953" lon="-1.70431">
        <ele>70</ele>
        <time>2011-10-09T08:14:03Z</time>
      </trkpt>
      <trkpt lat="47.31945" lon="-1.70438">
        <ele>71</ele>
        <time>2011-10-09T08:14:05Z</time>
      </trkpt>
      <trkpt lat="47.31935" lon="-1.70448">
        <ele>71</ele>
        <time>2011-10-09T08:14:08Z</time>
      </trkpt>
      <trkpt lat="47.31928" lon="-1.70454">
        <ele>71</ele>
        <time>2011-10-09T08:14:10Z</time>
      </trkpt>
      <trkpt lat="47.31923" lon="-1.70461">
        <ele>71</ele>
        <time>2011-10-09T08:14:12Z</time>
      </trkpt>
      <trkpt lat="47.31917" lon="-1.70468">
        <ele>71</ele>
        <time>2011-10-09T08:14:14Z</time>
      </trkpt>
      <trkpt lat="47.31912" lon="-1.70475">
        <ele>72</ele>
        <time>2011-10-09T08:14:16Z</time>
      </trkpt>
      <trkpt lat="47.31905" lon="-1.70484">
        <ele>72</ele>
        <time>2011-10-09T08:14:19Z</time>
      </trkpt>
      <trkpt lat="47.31898" lon="-1.70495">
        <ele>71</ele>
        <time>2011-10-09T08:14:22Z</time>
      </trkpt>
      <trkpt lat="47.31891" lon="-1.70505">
        <ele>71</ele>
        <time>2011-10-09T08:14:25Z</time>
      </trkpt>
      <trkpt lat="47.31886" lon="-1.70511">
        <ele>71</ele>
        <time>2011-10-09T08:14:27Z</time>
      </trkpt>
      <trkpt lat="47.31881" lon="-1.70518">
        <ele>71</ele>
        <time>2011-10-09T08:14:29Z</time>
      </trkpt>
      <trkpt lat="47.31875" lon="-1.70525">
        <ele>71</ele>
        <time>2011-10-09T08:14:31Z</time>
      </trkpt>
      <trkpt lat="47.31869" lon="-1.70533">
        <ele>71</ele>
        <time>2011-10-09T08:14:33Z</time>
      </trkpt>
      <trkpt lat="47.3186" lon="-1.70543">
        <ele>71</ele>
        <time>2011-10-09T08:14:36Z</time>
      </trkpt>
      <trkpt lat="47.31854" lon="-1.7055">
        <ele>71</ele>
        <time>2011-10-09T08:14:38Z</time>
      </trkpt>
      <trkpt lat="47.31844" lon="-1.7056">
        <ele>71</ele>
        <time>2011-10-09T08:14:41Z</time>
      </trkpt>
      <trkpt lat="47.31837" lon="-1.70567">
        <ele>71</ele>
        <time>2011-10-09T08:14:43Z</time>
      </trkpt>
      <trkpt lat="47.31825" lon="-1.7058">
        <ele>72</ele>
        <time>2011-10-09T08:14:46Z</time>
      </trkpt>
      <trkpt lat="47.31818" lon="-1.70588">
        <ele>72</ele>
        <time>2011-10-09T08:14:48Z</time>
      </trkpt>
      <trkpt lat="47.31807" lon="-1.706">
        <ele>72</ele>
        <time>2011-10-09T08:14:51Z</time>
      </trkpt>
      <trkpt lat="47.31797" lon="-1.7061">
        <ele>72</ele>
        <time>2011-10-09T08:14:54Z</time>
      </trkpt>
      <trkpt lat="47.31785" lon="-1.70611">
        <ele>73</ele>
        <time>2011-10-09T08:14:57Z</time>
      </trkpt>
      <trkpt lat="47.31777" lon="-1.706">
        <ele>73</ele>
        <time>2011-10-09T08:15:00Z</time>
      </trkpt>
      <trkpt lat="47.31773" lon="-1.7059">
        <ele>73</ele>
        <time>2011-10-09T08:15:02Z</time>
      </trkpt>
      <trkpt lat="47.31768" lon="-1.70581">
        <ele>74</ele>
        <time>2011-10-09T08:15:04Z</time>
      </trkpt>
      <trkpt lat="47.31762" lon="-1.70567">
        <ele>74</ele>
        <time>2011-10-09T08:15:07Z</time>
      </trkpt>
      <trkpt lat="47.31755" lon="-1.70553">
        <ele>74</ele>
        <time>2011-10-09T08:15:10Z</time>
      </trkpt>
      <trkpt lat="47.31747" lon="-1.70538">
        <ele>75</ele>
        <time>2011-10-09T08:15:13Z</time>
      </trkpt>
      <trkpt lat="47.31742" lon="-1.7052">
        <ele>75</ele>
        <time>2011-10-09T08:15:16Z</time>
      </trkpt>
      <trkpt lat="47.31737" lon="-1.70502">
        <ele>75</ele>
        <time>2011-10-09T08:15:19Z</time>
      </trkpt>
      <trkpt lat="47.31733" lon="-1.7049">
        <ele>75</ele>
        <time>2011-10-09T08:15:21Z</time>
      </trkpt>
      <trkpt lat="47.3173" lon="-1.70469">
        <ele>75</ele>
        <time>2011-10-09T08:15:24Z</time>
      </trkpt>
      <trkpt lat="47.31728" lon="-1.70456">
        <ele>75</ele>
        <time>2011-10-09T08:15:26Z</time>
      </trkpt>
      <trkpt lat="47.31725" lon="-1.70437">
        <ele>75</ele>
        <time>2011-10-09T08:15:29Z</time>
      </trkpt>
      <trkpt lat="47.31722" lon="-1.70426">
        <ele>75</ele>
        <time>2011-10-09T08:15:31Z</time>
      </trkpt>
      <trkpt lat="47.3172" lon="-1.70414">
        <ele>76</ele>
        <time>2011-10-09T08:15:33Z</time>
      </trkpt>
      <trkpt lat="47.31716" lon="-1.70397">
        <ele>76</ele>
        <time>2011-10-09T08:15:36Z</time>
      </trkpt>
      <trkpt lat="47.31712" lon="-1.7038">
        <ele>76</ele>
        <time>2011-10-09T08:15:39Z</time>
      </trkpt>
      <trkpt lat="47.31709" lon="-1.70362">
        <ele>76</ele>
        <time>2011-10-09T08:15:42Z</time>
      </trkpt>
      <trkpt lat="47.31706" lon="-1.7035">
        <ele>76</ele>
        <time>2011-10-09T08:15:44Z</time>
      </trkpt>
      <trkpt lat="47.31704" lon="-1.70339">
        <ele>76</ele>
        <time>2011-10-09T08:15:46Z</time>
      </trkpt>
      <trkpt lat="47.31702" lon="-1.70327">
        <ele>77</ele>
        <time>2011-10-09T08:15:48Z</time>
      </trkpt>
      <trkpt lat="47.31698" lon="-1.7031">
        <ele>77</ele>
        <time>2011-10-09T08:15:51Z</time>
      </trkpt>
      <trkpt lat="47.31695" lon="-1.703">
        <ele>77</ele>
        <time>2011-10-09T08:15:53Z</time>
      </trkpt>
      <trkpt lat="47.31683" lon="-1.70294">
        <ele>77</ele>
        <time>2011-10-09T08:15:56Z</time>
      </trkpt>
      <trkpt lat="47.31676" lon="-1.70297">
        <ele>77</ele>
        <time>2011-10-09T08:15:59Z</time>
      </trkpt>
      <trkpt lat="47.31671" lon="-1.70308">
        <ele>77</ele>
        <time>2011-10-09T08:16:01Z</time>
      </trkpt>
      <trkpt lat="47.31663" lon="-1.70325">
        <ele>77</ele>
        <time>2011-10-09T08:16:04Z</time>
      </trkpt>
      <trkpt lat="47.31658" lon="-1.70346">
        <ele>77</ele>
        <time>2011-10-09T08:16:07Z</time>
      </trkpt>
      <trkpt lat="47.31656" lon="-1.7036">
        <ele>76</ele>
        <time>2011-10-09T08:16:09Z</time>
      </trkpt>
      <trkpt lat="47.31654" lon="-1.70385">
        <ele>76</ele>
        <time>2011-10-09T08:16:12Z</time>
      </trkpt>
      <trkpt lat="47.31654" lon="-1.70401">
        <ele>76</ele>
        <time>2011-10-09T08:16:14Z</time>
      </trkpt>
      <trkpt lat="47.31653" lon="-1.70416">
        <ele>76</ele>
        <time>2011-10-09T08:16:16Z</time>
      </trkpt>
      <trkpt lat="47.31651" lon="-1.70441">
        <ele>75</ele>
        <time>2011-10-09T08:16:19Z</time>
      </trkpt>
      <trkpt lat="47.31648" lon="-1.70467">
        <ele>75</ele>
        <time>2011-10-09T08:16:22Z</time>
      </trkpt>
      <trkpt lat="47.31644" lon="-1.70496">
        <ele>75</ele>
        <time>2011-10-09T08:16:25Z</time>
      </trkpt>
      <trkpt lat="47.31641" lon="-1.70517">
        <ele>75</ele>
        <time>2011-10-09T08:16:27Z</time>
      </trkpt>
      <trkpt lat="47.31638" lon="-1.7055">
        <ele>74</ele>
        <time>2011-10-09T08:16:30Z</time>
      </trkpt>
      <trkpt lat="47.31634" lon="-1.70581">
        <ele>74</ele>
        <time>2011-10-09T08:16:33Z</time>
      </trkpt>
      <trkpt lat="47.31629" lon="-1.70611">
        <ele>74</ele>
        <time>2011-10-09T08:16:36Z</time>
      </trkpt>
      <trkpt lat="47.31625" lon="-1.70642">
        <ele>73</ele>
        <time>2011-10-09T08:16:39Z</time>
      </trkpt>
      <trkpt lat="47.31621" lon="-1.70673">
        <ele>73</ele>
        <time>2011-10-09T08:16:42Z</time>
      </trkpt>
      <trkpt lat="47.31617" lon="-1.70693">
        <ele>73</ele>
        <time>2011-10-09T08:16:44Z</time>
      </trkpt>
      <trkpt lat="47.31611" lon="-1.70724">
        <ele>73</ele>
        <time>2011-10-09T08:16:47Z</time>
      </trkpt>
      <trkpt lat="47.31608" lon="-1.70744">
        <ele>73</ele>
        <time>2011-10-09T08:16:49Z</time>
      </trkpt>
      <trkpt lat="47.31604" lon="-1.70775">
        <ele>73</ele>
        <time>2011-10-09T08:16:52Z</time>
      </trkpt>
      <trkpt lat="47.31602" lon="-1.70796">
        <ele>73</ele>
        <time>2011-10-09T08:16:54Z</time>
      </trkpt>
      <trkpt lat="47.31597" lon="-1.70826">
        <ele>73</ele>
        <time>2011-10-09T08:16:57Z</time>
      </trkpt>
      <trkpt lat="47.31594" lon="-1.70846">
        <ele>74</ele>
        <time>2011-10-09T08:16:59Z</time>
      </trkpt>
      <trkpt lat="47.3159" lon="-1.70875">
        <ele>74</ele>
        <time>2011-10-09T08:17:02Z</time>
      </trkpt>
      <trkpt lat="47.31587" lon="-1.70893">
        <ele>74</ele>
        <time>2011-10-09T08:17:04Z</time>
      </trkpt>
      <trkpt lat="47.31584" lon="-1.70911">
        <ele>75</ele>
        <time>2011-10-09T08:17:06Z</time>
      </trkpt>
      <trkpt lat="47.31583" lon="-1.70929">
        <ele>75</ele>
        <time>2011-10-09T08:17:08Z</time>
      </trkpt>
      <trkpt lat="47.3158" lon="-1.70956">
        <ele>75</ele>
        <time>2011-10-09T08:17:11Z</time>
      </trkpt>
      <trkpt lat="47.31577" lon="-1.70984">
        <ele>75</ele>
        <time>2011-10-09T08:17:14Z</time>
      </trkpt>
      <trkpt lat="47.31574" lon="-1.71003">
        <ele>76</ele>
        <time>2011-10-09T08:17:16Z</time>
      </trkpt>
      <trkpt lat="47.31571" lon="-1.71021">
        <ele>75</ele>
        <time>2011-10-09T08:17:18Z</time>
      </trkpt>
      <trkpt lat="47.31567" lon="-1.7105">
        <ele>75</ele>
        <time>2011-10-09T08:17:21Z</time>
      </trkpt>
      <trkpt lat="47.31564" lon="-1.7108">
        <ele>75</ele>
        <time>2011-10-09T08:17:24Z</time>
      </trkpt>
      <trkpt lat="47.31561" lon="-1.711">
        <ele>74</ele>
        <time>2011-10-09T08:17:26Z</time>
      </trkpt>
      <trkpt lat="47.31555" lon="-1.71125">
        <ele>74</ele>
        <time>2011-10-09T08:17:29Z</time>
      </trkpt>
      <trkpt lat="47.31548" lon="-1.71141">
        <ele>74</ele>
        <time>2011-10-09T08:17:31Z</time>
      </trkpt>
      <trkpt lat="47.31538" lon="-1.71151">
        <ele>74</ele>
        <time>2011-10-09T08:17:33Z</time>
      </trkpt>
      <trkpt lat="47.3152" lon="-1.7116">
        <ele>74</ele>
        <time>2011-10-09T08:17:36Z</time>
      </trkpt>
      <trkpt lat="47.31507" lon="-1.71167">
        <ele>74</ele>
        <time>2011-10-09T08:17:38Z</time>
      </trkpt>
      <trkpt lat="47.31488" lon="-1.71176">
        <ele>73</ele>
        <time>2011-10-09T08:17:41Z</time>
      </trkpt>
      <trkpt lat="47.31475" lon="-1.71182">
        <ele>73</ele>
        <time>2011-10-09T08:17:43Z</time>
      </trkpt>
      <trkpt lat="47.31462" lon="-1.71189">
        <ele>72</ele>
        <time>2011-10-09T08:17:45Z</time>
      </trkpt>
      <trkpt lat="47.3144" lon="-1.71201">
        <ele>72</ele>
        <time>2011-10-09T08:17:48Z</time>
      </trkpt>
      <trkpt lat="47.31419" lon="-1.71212">
        <ele>72</ele>
        <time>2011-10-09T08:17:51Z</time>
      </trkpt>
      <trkpt lat="47.31398" lon="-1.71224">
        <ele>71</ele>
        <time>2011-10-09T08:17:54Z</time>
      </trkpt>
      <trkpt lat="47.31376" lon="-1.71236">
        <ele>71</ele>
        <time>2011-10-09T08:17:57Z</time>
      </trkpt>
      <trkpt lat="47.31352" lon="-1.71248">
        <ele>71</ele>
        <time>2011-10-09T08:18:00Z</time>
      </trkpt>
      <trkpt lat="47.31329" lon="-1.71261">
        <ele>70</ele>
        <time>2011-10-09T08:18:03Z</time>
      </trkpt>
      <trkpt lat="47.31314" lon="-1.71268">
        <ele>69</ele>
        <time>2011-10-09T08:18:05Z</time>
      </trkpt>
      <trkpt lat="47.31291" lon="-1.71279">
        <ele>69</ele>
        <time>2011-10-09T08:18:08Z</time>
      </trkpt>
      <trkpt lat="47.31269" lon="-1.7129">
        <ele>68</ele>
        <time>2011-10-09T08:18:11Z</time>
      </trkpt>
      <trkpt lat="47.31253" lon="-1.71295">
        <ele>68</ele>
        <time>2011-10-09T08:18:13Z</time>
      </trkpt>
      <trkpt lat="47.31229" lon="-1.71301">
        <ele>67</ele>
        <time>2011-10-09T08:18:16Z</time>
      </trkpt>
      <trkpt lat="47.31205" lon="-1.71303">
        <ele>67</ele>
        <time>2011-10-09T08:18:19Z</time>
      </trkpt>
      <trkpt lat="47.3119" lon="-1.713">
        <ele>67</ele>
        <time>2011-10-09T08:18:21Z</time>
      </trkpt>
      <trkpt lat="47.31169" lon="-1.71277">
        <ele>66</ele>
        <time>2011-10-09T08:18:24Z</time>
      </trkpt>
      <trkpt lat="47.31154" lon="-1.71268">
        <ele>66</ele>
        <time>2011-10-09T08:18:26Z</time>
      </trkpt>
      <trkpt lat="47.31138" lon="-1.7127">
        <ele>66</ele>
        <time>2011-10-09T08:18:28Z</time>
      </trkpt>
      <trkpt lat="47.31114" lon="-1.71276">
        <ele>66</ele>
        <time>2011-10-09T08:18:31Z</time>
      </trkpt>
      <trkpt lat="47.31098" lon="-1.71277">
        <ele>66</ele>
        <time>2011-10-09T08:18:33Z</time>
      </trkpt>
      <trkpt lat="47.31075" lon="-1.71278">
        <ele>66</ele>
        <time>2011-10-09T08:18:36Z</time>
      </trkpt>
      <trkpt lat="47.31059" lon="-1.71281">
        <ele>66</ele>
        <time>2011-10-09T08:18:38Z</time>
      </trkpt>
      <trkpt lat="47.31045" lon="-1.71283">
        <ele>66</ele>
        <time>2011-10-09T08:18:40Z</time>
      </trkpt>
      <trkpt lat="47.31024" lon="-1.71287">
        <ele>66</ele>
        <time>2011-10-09T08:18:43Z</time>
      </trkpt>
      <trkpt lat="47.3101" lon="-1.7129">
        <ele>66</ele>
        <time>2011-10-09T08:18:45Z</time>
      </trkpt>
      <trkpt lat="47.30992" lon="-1.71295">
        <ele>66</ele>
        <time>2011-10-09T08:18:48Z</time>
      </trkpt>
      <trkpt lat="47.3098" lon="-1.71298">
        <ele>66</ele>
        <time>2011-10-09T08:18:50Z</time>
      </trkpt>
      <trkpt lat="47.30962" lon="-1.71302">
        <ele>66</ele>
        <time>2011-10-09T08:18:53Z</time>
      </trkpt>
      <trkpt lat="47.30951" lon="-1.71305">
        <ele>67</ele>
        <time>2011-10-09T08:18:55Z</time>
      </trkpt>
      <trkpt lat="47.30935" lon="-1.71307">
        <ele>67</ele>
        <time>2011-10-09T08:18:58Z</time>
      </trkpt>
      <trkpt lat="47.3092" lon="-1.71307">
        <ele>67</ele>
        <time>2011-10-09T08:19:01Z</time>
      </trkpt>
      <trkpt lat="47.30906" lon="-1.71309">
        <ele>67</ele>
        <time>2011-10-09T08:19:04Z</time>
      </trkpt>
      <trkpt lat="47.30891" lon="-1.71314">
        <ele>68</ele>
        <time>2011-10-09T08:19:07Z</time>
      </trkpt>
      <trkpt lat="47.30877" lon="-1.71319">
        <ele>68</ele>
        <time>2011-10-09T08:19:10Z</time>
      </trkpt>
      <trkpt lat="47.30863" lon="-1.71324">
        <ele>68</ele>
        <time>2011-10-09T08:19:13Z</time>
      </trkpt>
      <trkpt lat="47.30849" lon="-1.71328">
        <ele>68</ele>
        <time>2011-10-09T08:19:16Z</time>
      </trkpt>
      <trkpt lat="47.30835" lon="-1.71332">
        <ele>69</ele>
        <time>2011-10-09T08:19:19Z</time>
      </trkpt>
      <trkpt lat="47.30826" lon="-1.71333">
        <ele>69</ele>
        <time>2011-10-09T08:19:21Z</time>
      </trkpt>
      <trkpt lat="47.30811" lon="-1.71336">
        <ele>69</ele>
        <time>2011-10-09T08:19:24Z</time>
      </trkpt>
      <trkpt lat="47.30796" lon="-1.7134">
        <ele>69</ele>
        <time>2011-10-09T08:19:27Z</time>
      </trkpt>
      <trkpt lat="47.30781" lon="-1.71344">
        <ele>69</ele>
        <time>2011-10-09T08:19:30Z</time>
      </trkpt>
      <trkpt lat="47.30771" lon="-1.71347">
        <ele>69</ele>
        <time>2011-10-09T08:19:32Z</time>
      </trkpt>
      <trkpt lat="47.3076" lon="-1.7135">
        <ele>69</ele>
        <time>2011-10-09T08:19:34Z</time>
      </trkpt>
      <trkpt lat="47.30744" lon="-1.71353">
        <ele>69</ele>
        <time>2011-10-09T08:19:37Z</time>
      </trkpt>
      <trkpt lat="47.30727" lon="-1.71356">
        <ele>69</ele>
        <time>2011-10-09T08:19:40Z</time>
      </trkpt>
      <trkpt lat="47.30716" lon="-1.71359">
        <ele>69</ele>
        <time>2011-10-09T08:19:42Z</time>
      </trkpt>
      <trkpt lat="47.307" lon="-1.71362">
        <ele>69</ele>
        <time>2011-10-09T08:19:45Z</time>
      </trkpt>
      <trkpt lat="47.30684" lon="-1.71366">
        <ele>69</ele>
        <time>2011-10-09T08:19:48Z</time>
      </trkpt>
      <trkpt lat="47.30668" lon="-1.71369">
        <ele>69</ele>
        <time>2011-10-09T08:19:51Z</time>
      </trkpt>
      <trkpt lat="47.30654" lon="-1.71372">
        <ele>70</ele>
        <time>2011-10-09T08:19:54Z</time>
      </trkpt>
      <trkpt lat="47.30645" lon="-1.71373">
        <ele>70</ele>
        <time>2011-10-09T08:19:56Z</time>
      </trkpt>
      <trkpt lat="47.30636" lon="-1.71375">
        <ele>70</ele>
        <time>2011-10-09T08:19:58Z</time>
      </trkpt>
      <trkpt lat="47.30623" lon="-1.71377">
        <ele>71</ele>
        <time>2011-10-09T08:20:01Z</time>
      </trkpt>
      <trkpt lat="47.30611" lon="-1.71379">
        <ele>71</ele>
        <time>2011-10-09T08:20:04Z</time>
      </trkpt>
      <trkpt lat="47.30599" lon="-1.71381">
        <ele>71</ele>
        <time>2011-10-09T08:20:07Z</time>
      </trkpt>
      <trkpt lat="47.30588" lon="-1.71382">
        <ele>71</ele>
        <time>2011-10-09T08:20:10Z</time>
      </trkpt>
      <trkpt lat="47.30577" lon="-1.71384">
        <ele>72</ele>
        <time>2011-10-09T08:20:13Z</time>
      </trkpt>
      <trkpt lat="47.30567" lon="-1.71387">
        <ele>72</ele>
        <time>2011-10-09T08:20:16Z</time>
      </trkpt>
      <trkpt lat="47.3056" lon="-1.7139">
        <ele>72</ele>
        <time>2011-10-09T08:20:18Z</time>
      </trkpt>
      <trkpt lat="47.30551" lon="-1.71395">
        <ele>72</ele>
        <time>2011-10-09T08:20:21Z</time>
      </trkpt>
      <trkpt lat="47.3054" lon="-1.71397">
        <ele>72</ele>
        <time>2011-10-09T08:20:24Z</time>
      </trkpt>
      <trkpt lat="47.3053" lon="-1.71393">
        <ele>72</ele>
        <time>2011-10-09T08:20:27Z</time>
      </trkpt>
      <trkpt lat="47.3052" lon="-1.71379">
        <ele>72</ele>
        <time>2011-10-09T08:20:30Z</time>
      </trkpt>
      <trkpt lat="47.30511" lon="-1.71364">
        <ele>72</ele>
        <time>2011-10-09T08:20:33Z</time>
      </trkpt>
      <trkpt lat="47.30503" lon="-1.71349">
        <ele>72</ele>
        <time>2011-10-09T08:20:36Z</time>
      </trkpt>
      <trkpt lat="47.30495" lon="-1.71334">
        <ele>72</ele>
        <time>2011-10-09T08:20:39Z</time>
      </trkpt>
      <trkpt lat="47.30489" lon="-1.71325">
        <ele>73</ele>
        <time>2011-10-09T08:20:41Z</time>
      </trkpt>
      <trkpt lat="47.30483" lon="-1.71317">
        <ele>73</ele>
        <time>2011-10-09T08:20:43Z</time>
      </trkpt>
      <trkpt lat="47.30477" lon="-1.71309">
        <ele>73</ele>
        <time>2011-10-09T08:20:45Z</time>
      </trkpt>
      <trkpt lat="47.30467" lon="-1.71296">
        <ele>73</ele>
        <time>2011-10-09T08:20:48Z</time>
      </trkpt>
      <trkpt lat="47.30461" lon="-1.71286">
        <ele>73</ele>
        <time>2011-10-09T08:20:50Z</time>
      </trkpt>
      <trkpt lat="47.30456" lon="-1.71275">
        <ele>74</ele>
        <time>2011-10-09T08:20:52Z</time>
      </trkpt>
      <trkpt lat="47.30449" lon="-1.71259">
        <ele>74</ele>
        <time>2011-10-09T08:20:55Z</time>
      </trkpt>
      <trkpt lat="47.30441" lon="-1.71242">
        <ele>74</ele>
        <time>2011-10-09T08:20:58Z</time>
      </trkpt>
      <trkpt lat="47.30433" lon="-1.71224">
        <ele>74</ele>
        <time>2011-10-09T08:21:01Z</time>
      </trkpt>
      <trkpt lat="47.30428" lon="-1.71211">
        <ele>74</ele>
        <time>2011-10-09T08:21:03Z</time>
      </trkpt>
      <trkpt lat="47.30419" lon="-1.71193">
        <ele>74</ele>
        <time>2011-10-09T08:21:06Z</time>
      </trkpt>
      <trkpt lat="47.30409" lon="-1.71173">
        <ele>74</ele>
        <time>2011-10-09T08:21:09Z</time>
      </trkpt>
      <trkpt lat="47.30401" lon="-1.71154">
        <ele>74</ele>
        <time>2011-10-09T08:21:12Z</time>
      </trkpt>
      <trkpt lat="47.30391" lon="-1.71135">
        <ele>74</ele>
        <time>2011-10-09T08:21:15Z</time>
      </trkpt>
      <trkpt lat="47.30383" lon="-1.71117">
        <ele>74</ele>
        <time>2011-10-09T08:21:18Z</time>
      </trkpt>
      <trkpt lat="47.3037" lon="-1.71102">
        <ele>74</ele>
        <time>2011-10-09T08:21:21Z</time>
      </trkpt>
      <trkpt lat="47.30362" lon="-1.71091">
        <ele>74</ele>
        <time>2011-10-09T08:21:23Z</time>
      </trkpt>
      <trkpt lat="47.30353" lon="-1.71094">
        <ele>74</ele>
        <time>2011-10-09T08:21:26Z</time>
      </trkpt>
      <trkpt lat="47.30345" lon="-1.71102">
        <ele>74</ele>
        <time>2011-10-09T08:21:28Z</time>
      </trkpt>
      <trkpt lat="47.30333" lon="-1.71118">
        <ele>75</ele>
        <time>2011-10-09T08:21:31Z</time>
      </trkpt>
      <trkpt lat="47.30325" lon="-1.71127">
        <ele>75</ele>
        <time>2011-10-09T08:21:33Z</time>
      </trkpt>
      <trkpt lat="47.30313" lon="-1.7114">
        <ele>76</ele>
        <time>2011-10-09T08:21:36Z</time>
      </trkpt>
      <trkpt lat="47.30301" lon="-1.71151">
        <ele>76</ele>
        <time>2011-10-09T08:21:39Z</time>
      </trkpt>
      <trkpt lat="47.30288" lon="-1.71151">
        <ele>76</ele>
        <time>2011-10-09T08:21:42Z</time>
      </trkpt>
      <trkpt lat="47.30281" lon="-1.71146">
        <ele>76</ele>
        <time>2011-10-09T08:21:44Z</time>
      </trkpt>
      <trkpt lat="47.30274" lon="-1.71138">
        <ele>76</ele>
        <time>2011-10-09T08:21:46Z</time>
      </trkpt>
      <trkpt lat="47.30264" lon="-1.71125">
        <ele>76</ele>
        <time>2011-10-09T08:21:49Z</time>
      </trkpt>
      <trkpt lat="47.30255" lon="-1.7111">
        <ele>77</ele>
        <time>2011-10-09T08:21:52Z</time>
      </trkpt>
      <trkpt lat="47.30246" lon="-1.71094">
        <ele>77</ele>
        <time>2011-10-09T08:21:55Z</time>
      </trkpt>
      <trkpt lat="47.30236" lon="-1.71078">
        <ele>77</ele>
        <time>2011-10-09T08:21:58Z</time>
      </trkpt>
      <trkpt lat="47.30228" lon="-1.71061">
        <ele>77</ele>
        <time>2011-10-09T08:22:01Z</time>
      </trkpt>
      <trkpt lat="47.30222" lon="-1.71051">
        <ele>77</ele>
        <time>2011-10-09T08:22:03Z</time>
      </trkpt>
      <trkpt lat="47.30212" lon="-1.71035">
        <ele>77</ele>
        <time>2011-10-09T08:22:06Z</time>
      </trkpt>
      <trkpt lat="47.30203" lon="-1.71019">
        <ele>77</ele>
        <time>2011-10-09T08:22:09Z</time>
      </trkpt>
      <trkpt lat="47.30197" lon="-1.71008">
        <ele>77</ele>
        <time>2011-10-09T08:22:11Z</time>
      </trkpt>
      <trkpt lat="47.30187" lon="-1.70991">
        <ele>77</ele>
        <time>2011-10-09T08:22:14Z</time>
      </trkpt>
      <trkpt lat="47.30178" lon="-1.70976">
        <ele>77</ele>
        <time>2011-10-09T08:22:17Z</time>
      </trkpt>
      <trkpt lat="47.30166" lon="-1.70963">
        <ele>76</ele>
        <time>2011-10-09T08:22:20Z</time>
      </trkpt>
      <trkpt lat="47.30157" lon="-1.70952">
        <ele>76</ele>
        <time>2011-10-09T08:22:22Z</time>
      </trkpt>
      <trkpt lat="47.30148" lon="-1.70941">
        <ele>76</ele>
        <time>2011-10-09T08:22:24Z</time>
      </trkpt>
      <trkpt lat="47.30132" lon="-1.70933">
        <ele>76</ele>
        <time>2011-10-09T08:22:27Z</time>
      </trkpt>
      <trkpt lat="47.30113" lon="-1.70929">
        <ele>76</ele>
        <time>2011-10-09T08:22:30Z</time>
      </trkpt>
      <trkpt lat="47.30095" lon="-1.70926">
        <ele>76</ele>
        <time>2011-10-09T08:22:33Z</time>
      </trkpt>
      <trkpt lat="47.30077" lon="-1.70926">
        <ele>76</ele>
        <time>2011-10-09T08:22:36Z</time>
      </trkpt>
      <trkpt lat="47.30065" lon="-1.70928">
        <ele>76</ele>
        <time>2011-10-09T08:22:38Z</time>
      </trkpt>
      <trkpt lat="47.30048" lon="-1.70928">
        <ele>75</ele>
        <time>2011-10-09T08:22:41Z</time>
      </trkpt>
      <trkpt lat="47.30036" lon="-1.70927">
        <ele>75</ele>
        <time>2011-10-09T08:22:43Z</time>
      </trkpt>
      <trkpt lat="47.30019" lon="-1.70924">
        <ele>75</ele>
        <time>2011-10-09T08:22:46Z</time>
      </trkpt>
      <trkpt lat="47.30002" lon="-1.70919">
        <ele>74</ele>
        <time>2011-10-09T08:22:49Z</time>
      </trkpt>
      <trkpt lat="47.29984" lon="-1.70913">
        <ele>74</ele>
        <time>2011-10-09T08:22:52Z</time>
      </trkpt>
      <trkpt lat="47.29967" lon="-1.70908">
        <ele>74</ele>
        <time>2011-10-09T08:22:55Z</time>
      </trkpt>
      <trkpt lat="47.29948" lon="-1.70909">
        <ele>73</ele>
        <time>2011-10-09T08:22:58Z</time>
      </trkpt>
      <trkpt lat="47.29934" lon="-1.7091">
        <ele>73</ele>
        <time>2011-10-09T08:23:00Z</time>
      </trkpt>
      <trkpt lat="47.29916" lon="-1.70912">
        <ele>73</ele>
        <time>2011-10-09T08:23:03Z</time>
      </trkpt>
      <trkpt lat="47.29904" lon="-1.70913">
        <ele>73</ele>
        <time>2011-10-09T08:23:05Z</time>
      </trkpt>
      <trkpt lat="47.29886" lon="-1.70914">
        <ele>72</ele>
        <time>2011-10-09T08:23:08Z</time>
      </trkpt>
      <trkpt lat="47.29876" lon="-1.70917">
        <ele>72</ele>
        <time>2011-10-09T08:23:10Z</time>
      </trkpt>
      <trkpt lat="47.29866" lon="-1.7092">
        <ele>72</ele>
        <time>2011-10-09T08:23:12Z</time>
      </trkpt>
      <trkpt lat="47.29857" lon="-1.70921">
        <ele>72</ele>
        <time>2011-10-09T08:23:14Z</time>
      </trkpt>
      <trkpt lat="47.29843" lon="-1.70926">
        <ele>72</ele>
        <time>2011-10-09T08:23:17Z</time>
      </trkpt>
      <trkpt lat="47.29835" lon="-1.70938">
        <ele>72</ele>
        <time>2011-10-09T08:23:19Z</time>
      </trkpt>
      <trkpt lat="47.29822" lon="-1.70949">
        <ele>70</ele>
        <time>2011-10-09T08:23:22Z</time>
      </trkpt>
      <trkpt lat="47.29813" lon="-1.70956">
        <ele>70</ele>
        <time>2011-10-09T08:23:24Z</time>
      </trkpt>
      <trkpt lat="47.29799" lon="-1.7097">
        <ele>70</ele>
        <time>2011-10-09T08:23:27Z</time>
      </trkpt>
      <trkpt lat="47.29786" lon="-1.70988">
        <ele>69</ele>
        <time>2011-10-09T08:23:30Z</time>
      </trkpt>
      <trkpt lat="47.29773" lon="-1.71004">
        <ele>68</ele>
        <time>2011-10-09T08:23:33Z</time>
      </trkpt>
      <trkpt lat="47.29764" lon="-1.71013">
        <ele>68</ele>
        <time>2011-10-09T08:23:35Z</time>
      </trkpt>
      <trkpt lat="47.29754" lon="-1.7102">
        <ele>68</ele>
        <time>2011-10-09T08:23:37Z</time>
      </trkpt>
      <trkpt lat="47.29744" lon="-1.71026">
        <ele>64</ele>
        <time>2011-10-09T08:23:39Z</time>
      </trkpt>
      <trkpt lat="47.29728" lon="-1.71038">
        <ele>64</ele>
        <time>2011-10-09T08:23:42Z</time>
      </trkpt>
      <trkpt lat="47.29713" lon="-1.71052">
        <ele>63</ele>
        <time>2011-10-09T08:23:45Z</time>
      </trkpt>
      <trkpt lat="47.297" lon="-1.7107">
        <ele>63</ele>
        <time>2011-10-09T08:23:48Z</time>
      </trkpt>
      <trkpt lat="47.29694" lon="-1.71087">
        <ele>62</ele>
        <time>2011-10-09T08:23:51Z</time>
      </trkpt>
      <trkpt lat="47.29685" lon="-1.71104">
        <ele>62</ele>
        <time>2011-10-09T08:23:54Z</time>
      </trkpt>
      <trkpt lat="47.29676" lon="-1.71118">
        <ele>62</ele>
        <time>2011-10-09T08:23:57Z</time>
      </trkpt>
      <trkpt lat="47.29668" lon="-1.7113">
        <ele>61</ele>
        <time>2011-10-09T08:24:00Z</time>
      </trkpt>
      <trkpt lat="47.29663" lon="-1.7114">
        <ele>60</ele>
        <time>2011-10-09T08:24:03Z</time>
      </trkpt>
      <trkpt lat="47.2966" lon="-1.71149">
        <ele>59</ele>
        <time>2011-10-09T08:24:06Z</time>
      </trkpt>
      <trkpt lat="47.2966" lon="-1.71157">
        <ele>59</ele>
        <time>2011-10-09T08:24:08Z</time>
      </trkpt>
      <trkpt lat="47.29684" lon="-1.71175">
        <ele>60</ele>
        <time>2011-10-09T08:24:18Z</time>
      </trkpt>
      <trkpt lat="47.29696" lon="-1.71184">
        <ele>61</ele>
        <time>2011-10-09T08:24:22Z</time>
      </trkpt>
      <trkpt lat="47.29719" lon="-1.71209">
        <ele>63</ele>
        <time>2011-10-09T08:24:35Z</time>
      </trkpt>
      <trkpt lat="47.29719" lon="-1.71209">
        <ele>63</ele>
        <time>2011-10-09T08:24:39Z</time>
      </trkpt>
      <trkpt lat="47.29737" lon="-1.71241">
        <ele>65</ele>
        <time>2011-10-09T08:24:56Z</time>
      </trkpt>
      <trkpt lat="47.29745" lon="-1.71248">
        <ele>66</ele>
        <time>2011-10-09T08:25:03Z</time>
      </trkpt>
      <trkpt lat="47.29753" lon="-1.71257">
        <ele>68</ele>
        <time>2011-10-09T08:25:11Z</time>
      </trkpt>
      <trkpt lat="47.2976" lon="-1.71268">
        <ele>68</ele>
        <time>2011-10-09T08:25:18Z</time>
      </trkpt>
      <trkpt lat="47.2977" lon="-1.71276">
        <ele>68</ele>
        <time>2011-10-09T08:25:26Z</time>
      </trkpt>
      <trkpt lat="47.29782" lon="-1.71282">
        <ele>69</ele>
        <time>2011-10-09T08:25:37Z</time>
      </trkpt>
      <trkpt lat="47.29786" lon="-1.71269">
        <ele>69</ele>
        <time>2011-10-09T08:25:49Z</time>
      </trkpt>
      <trkpt lat="47.29784" lon="-1.71254">
        <ele>69</ele>
        <time>2011-10-09T08:25:58Z</time>
      </trkpt>
      <trkpt lat="47.29776" lon="-1.71239">
        <ele>69</ele>
        <time>2011-10-09T08:26:06Z</time>
      </trkpt>
      <trkpt lat="47.29776" lon="-1.71239">
        <ele>69</ele>
        <time>2011-10-09T08:26:20Z</time>
      </trkpt>
      <trkpt lat="47.29751" lon="-1.71204">
        <ele>69</ele>
        <time>2011-10-09T08:26:57Z</time>
      </trkpt>
      <trkpt lat="47.29749" lon="-1.71187">
        <ele>65</ele>
        <time>2011-10-09T08:27:02Z</time>
      </trkpt>
      <trkpt lat="47.29747" lon="-1.71179">
        <ele>65</ele>
        <time>2011-10-09T08:27:04Z</time>
      </trkpt>
      <trkpt lat="47.2974" lon="-1.71167">
        <ele>65</ele>
        <time>2011-10-09T08:27:09Z</time>
      </trkpt>
      <trkpt lat="47.29734" lon="-1.71165">
        <ele>65</ele>
        <time>2011-10-09T08:27:12Z</time>
      </trkpt>
      <trkpt lat="47.29731" lon="-1.71159">
        <ele>64</ele>
        <time>2011-10-09T08:27:16Z</time>
      </trkpt>
      <trkpt lat="47.29726" lon="-1.71156">
        <ele>64</ele>
        <time>2011-10-09T08:27:24Z</time>
      </trkpt>
      <trkpt lat="47.29717" lon="-1.71162">
        <ele>63</ele>
        <time>2011-10-09T08:27:32Z</time>
      </trkpt>
      <trkpt lat="47.29712" lon="-1.71162">
        <ele>63</ele>
        <time>2011-10-09T08:27:35Z</time>
      </trkpt>
      <trkpt lat="47.29695" lon="-1.71156">
        <ele>62</ele>
        <time>2011-10-09T08:27:44Z</time>
      </trkpt>
      <trkpt lat="47.29689" lon="-1.71153">
        <ele>61</ele>
        <time>2011-10-09T08:27:47Z</time>
      </trkpt>
      <trkpt lat="47.29673" lon="-1.71139">
        <ele>61</ele>
        <time>2011-10-09T08:27:57Z</time>
      </trkpt>
      <trkpt lat="47.29666" lon="-1.71133">
        <ele>60</ele>
        <time>2011-10-09T08:28:00Z</time>
      </trkpt>
      <trkpt lat="47.29661" lon="-1.71128">
        <ele>60</ele>
        <time>2011-10-09T08:28:04Z</time>
      </trkpt>
      <trkpt lat="47.29656" lon="-1.71126">
        <ele>60</ele>
        <time>2011-10-09T08:28:08Z</time>
      </trkpt>
      <trkpt lat="47.29649" lon="-1.71118">
        <ele>60</ele>
        <time>2011-10-09T08:28:15Z</time>
      </trkpt>
      <trkpt lat="47.29641" lon="-1.7111">
        <ele>60</ele>
        <time>2011-10-09T08:28:20Z</time>
      </trkpt>
      <trkpt lat="47.29637" lon="-1.71105">
        <ele>61</ele>
        <time>2011-10-09T08:28:23Z</time>
      </trkpt>
      <trkpt lat="47.29634" lon="-1.71098">
        <ele>61</ele>
        <time>2011-10-09T08:28:26Z</time>
      </trkpt>
      <trkpt lat="47.29631" lon="-1.71092">
        <ele>61</ele>
        <time>2011-10-09T08:28:28Z</time>
      </trkpt>
      <trkpt lat="47.2962" lon="-1.71071">
        <ele>62</ele>
        <time>2011-10-09T08:28:35Z</time>
      </trkpt>
      <trkpt lat="47.29611" lon="-1.71057">
        <ele>62</ele>
        <time>2011-10-09T08:28:41Z</time>
      </trkpt>
      <trkpt lat="47.29608" lon="-1.71047">
        <ele>62</ele>
        <time>2011-10-09T08:28:44Z</time>
      </trkpt>
      <trkpt lat="47.29605" lon="-1.71036">
        <ele>62</ele>
        <time>2011-10-09T08:28:48Z</time>
      </trkpt>
      <trkpt lat="47.29604" lon="-1.71026">
        <ele>62</ele>
        <time>2011-10-09T08:28:51Z</time>
      </trkpt>
      <trkpt lat="47.29602" lon="-1.71018">
        <ele>62</ele>
        <time>2011-10-09T08:28:54Z</time>
      </trkpt>
      <trkpt lat="47.29599" lon="-1.71007">
        <ele>62</ele>
        <time>2011-10-09T08:28:57Z</time>
      </trkpt>
      <trkpt lat="47.29594" lon="-1.70986">
        <ele>61</ele>
        <time>2011-10-09T08:29:03Z</time>
      </trkpt>
      <trkpt lat="47.29582" lon="-1.70944">
        <ele>61</ele>
        <time>2011-10-09T08:29:11Z</time>
      </trkpt>
      <trkpt lat="47.29566" lon="-1.70904">
        <ele>59</ele>
        <time>2011-10-09T08:29:14Z</time>
      </trkpt>
      <trkpt lat="47.29556" lon="-1.70887">
        <ele>61</ele>
        <time>2011-10-09T08:29:16Z</time>
      </trkpt>
      <trkpt lat="47.29538" lon="-1.70857">
        <ele>62</ele>
        <time>2011-10-09T08:29:19Z</time>
      </trkpt>
      <trkpt lat="47.29538" lon="-1.70857">
        <ele>62</ele>
        <time>2011-10-09T08:29:20Z</time>
      </trkpt>
      <trkpt lat="47.29518" lon="-1.70814">
        <ele>63</ele>
        <time>2011-10-09T08:29:37Z</time>
      </trkpt>
      <trkpt lat="47.29516" lon="-1.70802">
        <ele>63</ele>
        <time>2011-10-09T08:29:40Z</time>
      </trkpt>
      <trkpt lat="47.29506" lon="-1.70763">
        <ele>64</ele>
        <time>2011-10-09T08:29:50Z</time>
      </trkpt>
      <trkpt lat="47.29504" lon="-1.70754">
        <ele>65</ele>
        <time>2011-10-09T08:29:52Z</time>
      </trkpt>
      <trkpt lat="47.29502" lon="-1.70744">
        <ele>65</ele>
        <time>2011-10-09T08:29:55Z</time>
      </trkpt>
      <trkpt lat="47.29493" lon="-1.70728">
        <ele>67</ele>
        <time>2011-10-09T08:29:57Z</time>
      </trkpt>
      <trkpt lat="47.29485" lon="-1.70723">
        <ele>68</ele>
        <time>2011-10-09T08:30:00Z</time>
      </trkpt>
      <trkpt lat="47.29472" lon="-1.7072">
        <ele>68</ele>
        <time>2011-10-09T08:30:04Z</time>
      </trkpt>
      <trkpt lat="47.29463" lon="-1.70718">
        <ele>68</ele>
        <time>2011-10-09T08:30:07Z</time>
      </trkpt>
      <trkpt lat="47.29452" lon="-1.70716">
        <ele>69</ele>
        <time>2011-10-09T08:30:11Z</time>
      </trkpt>
      <trkpt lat="47.29445" lon="-1.70716">
        <ele>69</ele>
        <time>2011-10-09T08:30:14Z</time>
      </trkpt>
      <trkpt lat="47.29439" lon="-1.70715">
        <ele>69</ele>
        <time>2011-10-09T08:30:18Z</time>
      </trkpt>
      <trkpt lat="47.29434" lon="-1.70713">
        <ele>69</ele>
        <time>2011-10-09T08:30:21Z</time>
      </trkpt>
      <trkpt lat="47.29429" lon="-1.70711">
        <ele>69</ele>
        <time>2011-10-09T08:30:23Z</time>
      </trkpt>
      <trkpt lat="47.29416" lon="-1.70704">
        <ele>71</ele>
        <time>2011-10-09T08:30:27Z</time>
      </trkpt>
      <trkpt lat="47.29406" lon="-1.70696">
        <ele>70</ele>
        <time>2011-10-09T08:30:30Z</time>
      </trkpt>
      <trkpt lat="47.29389" lon="-1.70675">
        <ele>70</ele>
        <time>2011-10-09T08:30:35Z</time>
      </trkpt>
      <trkpt lat="47.29372" lon="-1.70652">
        <ele>68</ele>
        <time>2011-10-09T08:30:38Z</time>
      </trkpt>
      <trkpt lat="47.29362" lon="-1.7064">
        <ele>68</ele>
        <time>2011-10-09T08:30:40Z</time>
      </trkpt>
      <trkpt lat="47.29352" lon="-1.70629">
        <ele>68</ele>
        <time>2011-10-09T08:30:42Z</time>
      </trkpt>
      <trkpt lat="47.29338" lon="-1.70608">
        <ele>68</ele>
        <time>2011-10-09T08:30:45Z</time>
      </trkpt>
      <trkpt lat="47.2933" lon="-1.70594">
        <ele>67</ele>
        <time>2011-10-09T08:30:47Z</time>
      </trkpt>
      <trkpt lat="47.29319" lon="-1.70577">
        <ele>66</ele>
        <time>2011-10-09T08:30:50Z</time>
      </trkpt>
      <trkpt lat="47.29307" lon="-1.70572">
        <ele>66</ele>
        <time>2011-10-09T08:30:52Z</time>
      </trkpt>
      <trkpt lat="47.2929" lon="-1.70577">
        <ele>65</ele>
        <time>2011-10-09T08:30:55Z</time>
      </trkpt>
      <trkpt lat="47.29278" lon="-1.70583">
        <ele>65</ele>
        <time>2011-10-09T08:30:58Z</time>
      </trkpt>
      <trkpt lat="47.29268" lon="-1.70592">
        <ele>66</ele>
        <time>2011-10-09T08:31:01Z</time>
      </trkpt>
      <trkpt lat="47.29261" lon="-1.70604">
        <ele>66</ele>
        <time>2011-10-09T08:31:04Z</time>
      </trkpt>
      <trkpt lat="47.29253" lon="-1.70616">
        <ele>66</ele>
        <time>2011-10-09T08:31:07Z</time>
      </trkpt>
      <trkpt lat="47.29245" lon="-1.70632">
        <ele>66</ele>
        <time>2011-10-09T08:31:10Z</time>
      </trkpt>
      <trkpt lat="47.29237" lon="-1.7065">
        <ele>67</ele>
        <time>2011-10-09T08:31:13Z</time>
      </trkpt>
      <trkpt lat="47.29232" lon="-1.7066">
        <ele>67</ele>
        <time>2011-10-09T08:31:15Z</time>
      </trkpt>
      <trkpt lat="47.29224" lon="-1.70673">
        <ele>69</ele>
        <time>2011-10-09T08:31:18Z</time>
      </trkpt>
      <trkpt lat="47.29219" lon="-1.7068">
        <ele>70</ele>
        <time>2011-10-09T08:31:20Z</time>
      </trkpt>
      <trkpt lat="47.29177" lon="-1.70706">
        <ele>71</ele>
        <time>2011-10-09T08:31:37Z</time>
      </trkpt>
      <trkpt lat="47.29177" lon="-1.70706">
        <ele>71</ele>
        <time>2011-10-09T08:31:41Z</time>
      </trkpt>
      <trkpt lat="47.29142" lon="-1.70728">
        <ele>74</ele>
        <time>2011-10-09T08:31:55Z</time>
      </trkpt>
      <trkpt lat="47.29132" lon="-1.70732">
        <ele>74</ele>
        <time>2011-10-09T08:31:58Z</time>
      </trkpt>
      <trkpt lat="47.29121" lon="-1.70736">
        <ele>74</ele>
        <time>2011-10-09T08:32:01Z</time>
      </trkpt>
      <trkpt lat="47.29113" lon="-1.70738">
        <ele>74</ele>
        <time>2011-10-09T08:32:03Z</time>
      </trkpt>
      <trkpt lat="47.29103" lon="-1.70743">
        <ele>75</ele>
        <time>2011-10-09T08:32:06Z</time>
      </trkpt>
      <trkpt lat="47.29093" lon="-1.70749">
        <ele>76</ele>
        <time>2011-10-09T08:32:09Z</time>
      </trkpt>
      <trkpt lat="47.29087" lon="-1.70753">
        <ele>77</ele>
        <time>2011-10-09T08:32:11Z</time>
      </trkpt>
      <trkpt lat="47.29078" lon="-1.7076">
        <ele>77</ele>
        <time>2011-10-09T08:32:14Z</time>
      </trkpt>
      <trkpt lat="47.29073" lon="-1.70765">
        <ele>77</ele>
        <time>2011-10-09T08:32:16Z</time>
      </trkpt>
      <trkpt lat="47.29066" lon="-1.70772">
        <ele>77</ele>
        <time>2011-10-09T08:32:18Z</time>
      </trkpt>
      <trkpt lat="47.29056" lon="-1.70783">
        <ele>77</ele>
        <time>2011-10-09T08:32:21Z</time>
      </trkpt>
      <trkpt lat="47.29046" lon="-1.70794">
        <ele>76</ele>
        <time>2011-10-09T08:32:24Z</time>
      </trkpt>
      <trkpt lat="47.29039" lon="-1.708">
        <ele>77</ele>
        <time>2011-10-09T08:32:26Z</time>
      </trkpt>
      <trkpt lat="47.29029" lon="-1.70807">
        <ele>77</ele>
        <time>2011-10-09T08:32:29Z</time>
      </trkpt>
      <trkpt lat="47.29023" lon="-1.70813">
        <ele>77</ele>
        <time>2011-10-09T08:32:31Z</time>
      </trkpt>
      <trkpt lat="47.29012" lon="-1.70821">
        <ele>77</ele>
        <time>2011-10-09T08:32:34Z</time>
      </trkpt>
      <trkpt lat="47.29001" lon="-1.70828">
        <ele>77</ele>
        <time>2011-10-09T08:32:37Z</time>
      </trkpt>
      <trkpt lat="47.28991" lon="-1.70834">
        <ele>77</ele>
        <time>2011-10-09T08:32:40Z</time>
      </trkpt>
      <trkpt lat="47.28981" lon="-1.70833">
        <ele>77</ele>
        <time>2011-10-09T08:32:43Z</time>
      </trkpt>
      <trkpt lat="47.28971" lon="-1.70832">
        <ele>76</ele>
        <time>2011-10-09T08:32:46Z</time>
      </trkpt>
      <trkpt lat="47.28962" lon="-1.70831">
        <ele>76</ele>
        <time>2011-10-09T08:32:49Z</time>
      </trkpt>
      <trkpt lat="47.28956" lon="-1.7083">
        <ele>76</ele>
        <time>2011-10-09T08:32:51Z</time>
      </trkpt>
      <trkpt lat="47.28947" lon="-1.70826">
        <ele>75</ele>
        <time>2011-10-09T08:32:54Z</time>
      </trkpt>
      <trkpt lat="47.2894" lon="-1.70821">
        <ele>75</ele>
        <time>2011-10-09T08:32:56Z</time>
      </trkpt>
      <trkpt lat="47.28928" lon="-1.70809">
        <ele>75</ele>
        <time>2011-10-09T08:32:59Z</time>
      </trkpt>
      <trkpt lat="47.2892" lon="-1.70799">
        <ele>75</ele>
        <time>2011-10-09T08:33:01Z</time>
      </trkpt>
      <trkpt lat="47.28909" lon="-1.7078">
        <ele>74</ele>
        <time>2011-10-09T08:33:04Z</time>
      </trkpt>
      <trkpt lat="47.28901" lon="-1.70758">
        <ele>74</ele>
        <time>2011-10-09T08:33:07Z</time>
      </trkpt>
      <trkpt lat="47.28896" lon="-1.70735">
        <ele>73</ele>
        <time>2011-10-09T08:33:10Z</time>
      </trkpt>
      <trkpt lat="47.28889" lon="-1.7071">
        <ele>73</ele>
        <time>2011-10-09T08:33:13Z</time>
      </trkpt>
      <trkpt lat="47.28879" lon="-1.70686">
        <ele>72</ele>
        <time>2011-10-09T08:33:16Z</time>
      </trkpt>
      <trkpt lat="47.2887" lon="-1.70671">
        <ele>72</ele>
        <time>2011-10-09T08:33:18Z</time>
      </trkpt>
      <trkpt lat="47.28857" lon="-1.70651">
        <ele>71</ele>
        <time>2011-10-09T08:33:21Z</time>
      </trkpt>
      <trkpt lat="47.28844" lon="-1.70632">
        <ele>71</ele>
        <time>2011-10-09T08:33:24Z</time>
      </trkpt>
      <trkpt lat="47.28835" lon="-1.70621">
        <ele>71</ele>
        <time>2011-10-09T08:33:26Z</time>
      </trkpt>
      <trkpt lat="47.28819" lon="-1.70607">
        <ele>70</ele>
        <time>2011-10-09T08:33:29Z</time>
      </trkpt>
      <trkpt lat="47.28808" lon="-1.706">
        <ele>70</ele>
        <time>2011-10-09T08:33:31Z</time>
      </trkpt>
      <trkpt lat="47.28796" lon="-1.70592">
        <ele>70</ele>
        <time>2011-10-09T08:33:33Z</time>
      </trkpt>
      <trkpt lat="47.28775" lon="-1.70581">
        <ele>69</ele>
        <time>2011-10-09T08:33:36Z</time>
      </trkpt>
      <trkpt lat="47.28753" lon="-1.70573">
        <ele>69</ele>
        <time>2011-10-09T08:33:39Z</time>
      </trkpt>
      <trkpt lat="47.28733" lon="-1.70566">
        <ele>70</ele>
        <time>2011-10-09T08:33:42Z</time>
      </trkpt>
      <trkpt lat="47.28714" lon="-1.70557">
        <ele>71</ele>
        <time>2011-10-09T08:33:45Z</time>
      </trkpt>
      <trkpt lat="47.28695" lon="-1.70551">
        <ele>72</ele>
        <time>2011-10-09T08:33:48Z</time>
      </trkpt>
      <trkpt lat="47.28683" lon="-1.70548">
        <ele>72</ele>
        <time>2011-10-09T08:33:50Z</time>
      </trkpt>
      <trkpt lat="47.28672" lon="-1.70547">
        <ele>72</ele>
        <time>2011-10-09T08:33:52Z</time>
      </trkpt>
      <trkpt lat="47.28656" lon="-1.70548">
        <ele>74</ele>
        <time>2011-10-09T08:33:55Z</time>
      </trkpt>
      <trkpt lat="47.28639" lon="-1.70547">
        <ele>74</ele>
        <time>2011-10-09T08:33:58Z</time>
      </trkpt>
      <trkpt lat="47.28622" lon="-1.70546">
        <ele>75</ele>
        <time>2011-10-09T08:34:01Z</time>
      </trkpt>
      <trkpt lat="47.28606" lon="-1.70544">
        <ele>75</ele>
        <time>2011-10-09T08:34:04Z</time>
      </trkpt>
      <trkpt lat="47.28595" lon="-1.70543">
        <ele>75</ele>
        <time>2011-10-09T08:34:06Z</time>
      </trkpt>
      <trkpt lat="47.28581" lon="-1.70541">
        <ele>75</ele>
        <time>2011-10-09T08:34:09Z</time>
      </trkpt>
      <trkpt lat="47.28567" lon="-1.70539">
        <ele>75</ele>
        <time>2011-10-09T08:34:12Z</time>
      </trkpt>
      <trkpt lat="47.28553" lon="-1.70538">
        <ele>75</ele>
        <time>2011-10-09T08:34:15Z</time>
      </trkpt>
      <trkpt lat="47.2854" lon="-1.70537">
        <ele>75</ele>
        <time>2011-10-09T08:34:18Z</time>
      </trkpt>
      <trkpt lat="47.28526" lon="-1.70535">
        <ele>75</ele>
        <time>2011-10-09T08:34:21Z</time>
      </trkpt>
      <trkpt lat="47.28518" lon="-1.70534">
        <ele>75</ele>
        <time>2011-10-09T08:34:23Z</time>
      </trkpt>
      <trkpt lat="47.28509" lon="-1.70533">
        <ele>75</ele>
        <time>2011-10-09T08:34:25Z</time>
      </trkpt>
      <trkpt lat="47.28496" lon="-1.70531">
        <ele>74</ele>
        <time>2011-10-09T08:34:28Z</time>
      </trkpt>
      <trkpt lat="47.28483" lon="-1.70529">
        <ele>74</ele>
        <time>2011-10-09T08:34:31Z</time>
      </trkpt>
      <trkpt lat="47.28474" lon="-1.70528">
        <ele>74</ele>
        <time>2011-10-09T08:34:33Z</time>
      </trkpt>
      <trkpt lat="47.28465" lon="-1.70527">
        <ele>74</ele>
        <time>2011-10-09T08:34:35Z</time>
      </trkpt>
      <trkpt lat="47.2845" lon="-1.70526">
        <ele>74</ele>
        <time>2011-10-09T08:34:38Z</time>
      </trkpt>
      <trkpt lat="47.2844" lon="-1.70525">
        <ele>74</ele>
        <time>2011-10-09T08:34:40Z</time>
      </trkpt>
      <trkpt lat="47.28424" lon="-1.70525">
        <ele>74</ele>
        <time>2011-10-09T08:34:43Z</time>
      </trkpt>
      <trkpt lat="47.28408" lon="-1.70525">
        <ele>73</ele>
        <time>2011-10-09T08:34:46Z</time>
      </trkpt>
      <trkpt lat="47.28396" lon="-1.70526">
        <ele>73</ele>
        <time>2011-10-09T08:34:48Z</time>
      </trkpt>
      <trkpt lat="47.28379" lon="-1.70527">
        <ele>73</ele>
        <time>2011-10-09T08:34:51Z</time>
      </trkpt>
      <trkpt lat="47.28366" lon="-1.70512">
        <ele>73</ele>
        <time>2011-10-09T08:34:54Z</time>
      </trkpt>
      <trkpt lat="47.2837" lon="-1.7049">
        <ele>73</ele>
        <time>2011-10-09T08:34:57Z</time>
      </trkpt>
      <trkpt lat="47.28376" lon="-1.70478">
        <ele>73</ele>
        <time>2011-10-09T08:34:59Z</time>
      </trkpt>
      <trkpt lat="47.28385" lon="-1.7046">
        <ele>73</ele>
        <time>2011-10-09T08:35:02Z</time>
      </trkpt>
      <trkpt lat="47.28392" lon="-1.70447">
        <ele>73</ele>
        <time>2011-10-09T08:35:04Z</time>
      </trkpt>
      <trkpt lat="47.28403" lon="-1.70428">
        <ele>73</ele>
        <time>2011-10-09T08:35:07Z</time>
      </trkpt>
      <trkpt lat="47.28412" lon="-1.70411">
        <ele>73</ele>
        <time>2011-10-09T08:35:10Z</time>
      </trkpt>
      <trkpt lat="47.28411" lon="-1.70393">
        <ele>73</ele>
        <time>2011-10-09T08:35:13Z</time>
      </trkpt>
      <trkpt lat="47.284" lon="-1.70375">
        <ele>72</ele>
        <time>2011-10-09T08:35:16Z</time>
      </trkpt>
      <trkpt lat="47.28389" lon="-1.70358">
        <ele>72</ele>
        <time>2011-10-09T08:35:19Z</time>
      </trkpt>
      <trkpt lat="47.28376" lon="-1.70342">
        <ele>72</ele>
        <time>2011-10-09T08:35:22Z</time>
      </trkpt>
      <trkpt lat="47.28364" lon="-1.70326">
        <ele>72</ele>
        <time>2011-10-09T08:35:25Z</time>
      </trkpt>
      <trkpt lat="47.28353" lon="-1.70309">
        <ele>72</ele>
        <time>2011-10-09T08:35:28Z</time>
      </trkpt>
      <trkpt lat="47.28343" lon="-1.70294">
        <ele>72</ele>
        <time>2011-10-09T08:35:31Z</time>
      </trkpt>
      <trkpt lat="47.28333" lon="-1.70279">
        <ele>72</ele>
        <time>2011-10-09T08:35:34Z</time>
      </trkpt>
      <trkpt lat="47.28328" lon="-1.70268">
        <ele>70</ele>
        <time>2011-10-09T08:35:36Z</time>
      </trkpt>
      <trkpt lat="47.28331" lon="-1.70248">
        <ele>71</ele>
        <time>2011-10-09T08:35:39Z</time>
      </trkpt>
      <trkpt lat="47.28338" lon="-1.70228">
        <ele>72</ele>
        <time>2011-10-09T08:35:42Z</time>
      </trkpt>
      <trkpt lat="47.28343" lon="-1.70214">
        <ele>72</ele>
        <time>2011-10-09T08:35:44Z</time>
      </trkpt>
      <trkpt lat="47.28351" lon="-1.70194">
        <ele>72</ele>
        <time>2011-10-09T08:35:47Z</time>
      </trkpt>
      <trkpt lat="47.28358" lon="-1.70174">
        <ele>72</ele>
        <time>2011-10-09T08:35:50Z</time>
      </trkpt>
      <trkpt lat="47.28366" lon="-1.70154">
        <ele>71</ele>
        <time>2011-10-09T08:35:53Z</time>
      </trkpt>
      <trkpt lat="47.28371" lon="-1.70141">
        <ele>71</ele>
        <time>2011-10-09T08:35:55Z</time>
      </trkpt>
      <trkpt lat="47.28378" lon="-1.70121">
        <ele>71</ele>
        <time>2011-10-09T08:35:58Z</time>
      </trkpt>
      <trkpt lat="47.28387" lon="-1.70101">
        <ele>71</ele>
        <time>2011-10-09T08:36:01Z</time>
      </trkpt>
      <trkpt lat="47.28396" lon="-1.70079">
        <ele>70</ele>
        <time>2011-10-09T08:36:04Z</time>
      </trkpt>
      <trkpt lat="47.28404" lon="-1.70055">
        <ele>70</ele>
        <time>2011-10-09T08:36:07Z</time>
      </trkpt>
      <trkpt lat="47.28413" lon="-1.70031">
        <ele>70</ele>
        <time>2011-10-09T08:36:10Z</time>
      </trkpt>
      <trkpt lat="47.28424" lon="-1.70002">
        <ele>70</ele>
        <time>2011-10-09T08:36:13Z</time>
      </trkpt>
      <trkpt lat="47.28436" lon="-1.6997">
        <ele>68</ele>
        <time>2011-10-09T08:36:16Z</time>
      </trkpt>
      <trkpt lat="47.28444" lon="-1.69947">
        <ele>68</ele>
        <time>2011-10-09T08:36:18Z</time>
      </trkpt>
      <trkpt lat="47.28455" lon="-1.69916">
        <ele>66</ele>
        <time>2011-10-09T08:36:21Z</time>
      </trkpt>
      <trkpt lat="47.28467" lon="-1.69883">
        <ele>66</ele>
        <time>2011-10-09T08:36:24Z</time>
      </trkpt>
      <trkpt lat="47.28477" lon="-1.69852">
        <ele>66</ele>
        <time>2011-10-09T08:36:27Z</time>
      </trkpt>
      <trkpt lat="47.28475" lon="-1.69838">
        <ele>66</ele>
        <time>2011-10-09T08:36:30Z</time>
      </trkpt>
      <trkpt lat="47.28462" lon="-1.69829">
        <ele>64</ele>
        <time>2011-10-09T08:36:33Z</time>
      </trkpt>
      <trkpt lat="47.28446" lon="-1.69817">
        <ele>64</ele>
        <time>2011-10-09T08:36:36Z</time>
      </trkpt>
      <trkpt lat="47.28435" lon="-1.69808">
        <ele>64</ele>
        <time>2011-10-09T08:36:38Z</time>
      </trkpt>
      <trkpt lat="47.28424" lon="-1.69799">
        <ele>64</ele>
        <time>2011-10-09T08:36:40Z</time>
      </trkpt>
      <trkpt lat="47.28407" lon="-1.69785">
        <ele>62</ele>
        <time>2011-10-09T08:36:43Z</time>
      </trkpt>
      <trkpt lat="47.28389" lon="-1.69775">
        <ele>62</ele>
        <time>2011-10-09T08:36:46Z</time>
      </trkpt>
      <trkpt lat="47.28374" lon="-1.69765">
        <ele>62</ele>
        <time>2011-10-09T08:36:49Z</time>
      </trkpt>
      <trkpt lat="47.28361" lon="-1.69752">
        <ele>62</ele>
        <time>2011-10-09T08:36:52Z</time>
      </trkpt>
      <trkpt lat="47.28355" lon="-1.69736">
        <ele>61</ele>
        <time>2011-10-09T08:36:55Z</time>
      </trkpt>
      <trkpt lat="47.28361" lon="-1.69722">
        <ele>60</ele>
        <time>2011-10-09T08:36:58Z</time>
      </trkpt>
      <trkpt lat="47.28372" lon="-1.697">
        <ele>60</ele>
        <time>2011-10-09T08:37:01Z</time>
      </trkpt>
      <trkpt lat="47.28382" lon="-1.69676">
        <ele>60</ele>
        <time>2011-10-09T08:37:04Z</time>
      </trkpt>
      <trkpt lat="47.28388" lon="-1.6965">
        <ele>59</ele>
        <time>2011-10-09T08:37:07Z</time>
      </trkpt>
      <trkpt lat="47.28392" lon="-1.69624">
        <ele>59</ele>
        <time>2011-10-09T08:37:10Z</time>
      </trkpt>
      <trkpt lat="47.28393" lon="-1.69596">
        <ele>59</ele>
        <time>2011-10-09T08:37:13Z</time>
      </trkpt>
      <trkpt lat="47.28391" lon="-1.69577">
        <ele>58</ele>
        <time>2011-10-09T08:37:15Z</time>
      </trkpt>
      <trkpt lat="47.28379" lon="-1.69555">
        <ele>58</ele>
        <time>2011-10-09T08:37:18Z</time>
      </trkpt>
      <trkpt lat="47.28359" lon="-1.6955">
        <ele>58</ele>
        <time>2011-10-09T08:37:21Z</time>
      </trkpt>
      <trkpt lat="47.28348" lon="-1.69546">
        <ele>58</ele>
        <time>2011-10-09T08:37:23Z</time>
      </trkpt>
      <trkpt lat="47.28337" lon="-1.69542">
        <ele>58</ele>
        <time>2011-10-09T08:37:25Z</time>
      </trkpt>
      <trkpt lat="47.28322" lon="-1.69535">
        <ele>59</ele>
        <time>2011-10-09T08:37:28Z</time>
      </trkpt>
      <trkpt lat="47.28309" lon="-1.69525">
        <ele>59</ele>
        <time>2011-10-09T08:37:31Z</time>
      </trkpt>
      <trkpt lat="47.28299" lon="-1.69514">
        <ele>59</ele>
        <time>2011-10-09T08:37:34Z</time>
      </trkpt>
      <trkpt lat="47.2829" lon="-1.69503">
        <ele>59</ele>
        <time>2011-10-09T08:37:37Z</time>
      </trkpt>
      <trkpt lat="47.28284" lon="-1.69497">
        <ele>58</ele>
        <time>2011-10-09T08:37:39Z</time>
      </trkpt>
      <trkpt lat="47.28274" lon="-1.69486">
        <ele>58</ele>
        <time>2011-10-09T08:37:42Z</time>
      </trkpt>
      <trkpt lat="47.28266" lon="-1.69479">
        <ele>58</ele>
        <time>2011-10-09T08:37:44Z</time>
      </trkpt>
      <trkpt lat="47.28259" lon="-1.69473">
        <ele>58</ele>
        <time>2011-10-09T08:37:46Z</time>
      </trkpt>
      <trkpt lat="47.28248" lon="-1.69463">
        <ele>59</ele>
        <time>2011-10-09T08:37:49Z</time>
      </trkpt>
      <trkpt lat="47.28236" lon="-1.69449">
        <ele>59</ele>
        <time>2011-10-09T08:37:52Z</time>
      </trkpt>
      <trkpt lat="47.28225" lon="-1.69428">
        <ele>59</ele>
        <time>2011-10-09T08:37:55Z</time>
      </trkpt>
      <trkpt lat="47.28217" lon="-1.69416">
        <ele>58</ele>
        <time>2011-10-09T08:37:57Z</time>
      </trkpt>
      <trkpt lat="47.28208" lon="-1.69402">
        <ele>58</ele>
        <time>2011-10-09T08:37:59Z</time>
      </trkpt>
      <trkpt lat="47.282" lon="-1.69384">
        <ele>58</ele>
        <time>2011-10-09T08:38:01Z</time>
      </trkpt>
      <trkpt lat="47.28195" lon="-1.69354">
        <ele>57</ele>
        <time>2011-10-09T08:38:04Z</time>
      </trkpt>
      <trkpt lat="47.28188" lon="-1.69331">
        <ele>56</ele>
        <time>2011-10-09T08:38:07Z</time>
      </trkpt>
      <trkpt lat="47.28182" lon="-1.69318">
        <ele>56</ele>
        <time>2011-10-09T08:38:10Z</time>
      </trkpt>
      <trkpt lat="47.2818" lon="-1.69309">
        <ele>55</ele>
        <time>2011-10-09T08:38:12Z</time>
      </trkpt>
      <trkpt lat="47.28181" lon="-1.69292">
        <ele>55</ele>
        <time>2011-10-09T08:38:15Z</time>
      </trkpt>
      <trkpt lat="47.28183" lon="-1.69268">
        <ele>55</ele>
        <time>2011-10-09T08:38:18Z</time>
      </trkpt>
      <trkpt lat="47.28187" lon="-1.69242">
        <ele>53</ele>
        <time>2011-10-09T08:38:21Z</time>
      </trkpt>
      <trkpt lat="47.28191" lon="-1.69214">
        <ele>52</ele>
        <time>2011-10-09T08:38:24Z</time>
      </trkpt>
      <trkpt lat="47.28194" lon="-1.69182">
        <ele>52</ele>
        <time>2011-10-09T08:38:27Z</time>
      </trkpt>
      <trkpt lat="47.28194" lon="-1.69161">
        <ele>51</ele>
        <time>2011-10-09T08:38:29Z</time>
      </trkpt>
      <trkpt lat="47.28187" lon="-1.69133">
        <ele>50</ele>
        <time>2011-10-09T08:38:32Z</time>
      </trkpt>
      <trkpt lat="47.28177" lon="-1.69115">
        <ele>50</ele>
        <time>2011-10-09T08:38:35Z</time>
      </trkpt>
      <trkpt lat="47.28165" lon="-1.69105">
        <ele>49</ele>
        <time>2011-10-09T08:38:37Z</time>
      </trkpt>
      <trkpt lat="47.28142" lon="-1.69098">
        <ele>49</ele>
        <time>2011-10-09T08:38:40Z</time>
      </trkpt>
      <trkpt lat="47.28118" lon="-1.69099">
        <ele>49</ele>
        <time>2011-10-09T08:38:43Z</time>
      </trkpt>
      <trkpt lat="47.28096" lon="-1.69103">
        <ele>49</ele>
        <time>2011-10-09T08:38:46Z</time>
      </trkpt>
      <trkpt lat="47.28073" lon="-1.6911">
        <ele>48</ele>
        <time>2011-10-09T08:38:49Z</time>
      </trkpt>
      <trkpt lat="47.28051" lon="-1.69113">
        <ele>48</ele>
        <time>2011-10-09T08:38:52Z</time>
      </trkpt>
      <trkpt lat="47.28036" lon="-1.69112">
        <ele>47</ele>
        <time>2011-10-09T08:38:54Z</time>
      </trkpt>
      <trkpt lat="47.28015" lon="-1.69107">
        <ele>47</ele>
        <time>2011-10-09T08:38:57Z</time>
      </trkpt>
      <trkpt lat="47.27995" lon="-1.691">
        <ele>46</ele>
        <time>2011-10-09T08:39:00Z</time>
      </trkpt>
      <trkpt lat="47.27975" lon="-1.69098">
        <ele>46</ele>
        <time>2011-10-09T08:39:03Z</time>
      </trkpt>
      <trkpt lat="47.27953" lon="-1.69097">
        <ele>46</ele>
        <time>2011-10-09T08:39:06Z</time>
      </trkpt>
      <trkpt lat="47.2793" lon="-1.69098">
        <ele>45</ele>
        <time>2011-10-09T08:39:09Z</time>
      </trkpt>
      <trkpt lat="47.27908" lon="-1.69093">
        <ele>45</ele>
        <time>2011-10-09T08:39:12Z</time>
      </trkpt>
      <trkpt lat="47.27887" lon="-1.6908">
        <ele>47</ele>
        <time>2011-10-09T08:39:15Z</time>
      </trkpt>
      <trkpt lat="47.2787" lon="-1.69059">
        <ele>47</ele>
        <time>2011-10-09T08:39:18Z</time>
      </trkpt>
      <trkpt lat="47.27856" lon="-1.69044">
        <ele>48</ele>
        <time>2011-10-09T08:39:21Z</time>
      </trkpt>
      <trkpt lat="47.27851" lon="-1.69038">
        <ele>48</ele>
        <time>2011-10-09T08:39:23Z</time>
      </trkpt>
      <trkpt lat="47.27821" lon="-1.69007">
        <ele>52</ele>
        <time>2011-10-09T08:39:39Z</time>
      </trkpt>
      <trkpt lat="47.27821" lon="-1.69007">
        <ele>52</ele>
        <time>2011-10-09T08:39:42Z</time>
      </trkpt>
      <trkpt lat="47.27789" lon="-1.6898">
        <ele>55</ele>
        <time>2011-10-09T08:39:53Z</time>
      </trkpt>
      <trkpt lat="47.27789" lon="-1.6898">
        <ele>55</ele>
        <time>2011-10-09T08:39:56Z</time>
      </trkpt>
      <trkpt lat="47.27755" lon="-1.68955">
        <ele>57</ele>
        <time>2011-10-09T08:40:06Z</time>
      </trkpt>
      <trkpt lat="47.27745" lon="-1.68947">
        <ele>60</ele>
        <time>2011-10-09T08:40:10Z</time>
      </trkpt>
      <trkpt lat="47.27747" lon="-1.68903">
        <ele>61</ele>
        <time>2011-10-09T08:40:24Z</time>
      </trkpt>
      <trkpt lat="47.27753" lon="-1.68893">
        <ele>58</ele>
        <time>2011-10-09T08:40:26Z</time>
      </trkpt>
      <trkpt lat="47.27766" lon="-1.68878">
        <ele>58</ele>
        <time>2011-10-09T08:40:29Z</time>
      </trkpt>
      <trkpt lat="47.27774" lon="-1.68869">
        <ele>58</ele>
        <time>2011-10-09T08:40:31Z</time>
      </trkpt>
      <trkpt lat="47.27781" lon="-1.6886">
        <ele>58</ele>
        <time>2011-10-09T08:40:33Z</time>
      </trkpt>
      <trkpt lat="47.27786" lon="-1.68843">
        <ele>57</ele>
        <time>2011-10-09T08:40:36Z</time>
      </trkpt>
      <trkpt lat="47.2778" lon="-1.68817">
        <ele>56</ele>
        <time>2011-10-09T08:40:39Z</time>
      </trkpt>
      <trkpt lat="47.2778" lon="-1.68817">
        <ele>56</ele>
        <time>2011-10-09T08:40:40Z</time>
      </trkpt>
      <trkpt lat="47.27765" lon="-1.68782">
        <ele>55</ele>
        <time>2011-10-09T08:40:51Z</time>
      </trkpt>
      <trkpt lat="47.27765" lon="-1.68782">
        <ele>55</ele>
        <time>2011-10-09T08:40:55Z</time>
      </trkpt>
      <trkpt lat="47.27734" lon="-1.68747">
        <ele>52</ele>
        <time>2011-10-09T08:41:09Z</time>
      </trkpt>
      <trkpt lat="47.27723" lon="-1.68732">
        <ele>51</ele>
        <time>2011-10-09T08:41:20Z</time>
      </trkpt>
      <trkpt lat="47.27723" lon="-1.68732">
        <ele>51</ele>
        <time>2011-10-09T08:41:35Z</time>
      </trkpt>
      <trkpt lat="47.27696" lon="-1.68727">
        <ele>51</ele>
        <time>2011-10-09T08:41:41Z</time>
      </trkpt>
      <trkpt lat="47.27665" lon="-1.68736">
        <ele>52</ele>
        <time>2011-10-09T08:41:54Z</time>
      </trkpt>
      <trkpt lat="47.27647" lon="-1.68737">
        <ele>53</ele>
        <time>2011-10-09T08:42:02Z</time>
      </trkpt>
      <trkpt lat="47.27625" lon="-1.68724">
        <ele>53</ele>
        <time>2011-10-09T08:42:15Z</time>
      </trkpt>
      <trkpt lat="47.27621" lon="-1.68718">
        <ele>53</ele>
        <time>2011-10-09T08:42:17Z</time>
      </trkpt>
      <trkpt lat="47.27615" lon="-1.68708">
        <ele>53</ele>
        <time>2011-10-09T08:42:20Z</time>
      </trkpt>
      <trkpt lat="47.27612" lon="-1.68702">
        <ele>53</ele>
        <time>2011-10-09T08:42:22Z</time>
      </trkpt>
      <trkpt lat="47.27609" lon="-1.68694">
        <ele>53</ele>
        <time>2011-10-09T08:42:24Z</time>
      </trkpt>
      <trkpt lat="47.27601" lon="-1.68682">
        <ele>53</ele>
        <time>2011-10-09T08:42:27Z</time>
      </trkpt>
      <trkpt lat="47.27598" lon="-1.68676">
        <ele>53</ele>
        <time>2011-10-09T08:42:29Z</time>
      </trkpt>
      <trkpt lat="47.27595" lon="-1.68668">
        <ele>52</ele>
        <time>2011-10-09T08:42:32Z</time>
      </trkpt>
      <trkpt lat="47.27591" lon="-1.68662">
        <ele>52</ele>
        <time>2011-10-09T08:42:34Z</time>
      </trkpt>
      <trkpt lat="47.27571" lon="-1.68639">
        <ele>53</ele>
        <time>2011-10-09T08:42:38Z</time>
      </trkpt>
      <trkpt lat="47.27567" lon="-1.68635">
        <ele>53</ele>
        <time>2011-10-09T08:42:40Z</time>
      </trkpt>
      <trkpt lat="47.27546" lon="-1.6862">
        <ele>53</ele>
        <time>2011-10-09T08:42:49Z</time>
      </trkpt>
      <trkpt lat="47.27537" lon="-1.68615">
        <ele>53</ele>
        <time>2011-10-09T08:42:52Z</time>
      </trkpt>
      <trkpt lat="47.27524" lon="-1.68606">
        <ele>53</ele>
        <time>2011-10-09T08:42:58Z</time>
      </trkpt>
      <trkpt lat="47.27517" lon="-1.68597">
        <ele>53</ele>
        <time>2011-10-09T08:43:01Z</time>
      </trkpt>
      <trkpt lat="47.2751" lon="-1.68588">
        <ele>53</ele>
        <time>2011-10-09T08:43:04Z</time>
      </trkpt>
      <trkpt lat="47.27501" lon="-1.68576">
        <ele>52</ele>
        <time>2011-10-09T08:43:07Z</time>
      </trkpt>
      <trkpt lat="47.27493" lon="-1.6857">
        <ele>51</ele>
        <time>2011-10-09T08:43:09Z</time>
      </trkpt>
      <trkpt lat="47.27484" lon="-1.68565">
        <ele>50</ele>
        <time>2011-10-09T08:43:12Z</time>
      </trkpt>
      <trkpt lat="47.27484" lon="-1.68565">
        <ele>50</ele>
        <time>2011-10-09T08:43:14Z</time>
      </trkpt>
      <trkpt lat="47.27453" lon="-1.6857">
        <ele>50</ele>
        <time>2011-10-09T08:43:21Z</time>
      </trkpt>
      <trkpt lat="47.27453" lon="-1.6857">
        <ele>50</ele>
        <time>2011-10-09T08:43:24Z</time>
      </trkpt>
      <trkpt lat="47.27423" lon="-1.68581">
        <ele>50</ele>
        <time>2011-10-09T08:43:40Z</time>
      </trkpt>
      <trkpt lat="47.27423" lon="-1.68581">
        <ele>50</ele>
        <time>2011-10-09T08:43:43Z</time>
      </trkpt>
      <trkpt lat="47.27395" lon="-1.68605">
        <ele>52</ele>
        <time>2011-10-09T08:43:56Z</time>
      </trkpt>
      <trkpt lat="47.2739" lon="-1.6861">
        <ele>53</ele>
        <time>2011-10-09T08:43:59Z</time>
      </trkpt>
      <trkpt lat="47.27386" lon="-1.68615">
        <ele>53</ele>
        <time>2011-10-09T08:44:02Z</time>
      </trkpt>
      <trkpt lat="47.27381" lon="-1.68619">
        <ele>53</ele>
        <time>2011-10-09T08:44:05Z</time>
      </trkpt>
      <trkpt lat="47.27377" lon="-1.68624">
        <ele>53</ele>
        <time>2011-10-09T08:44:08Z</time>
      </trkpt>
      <trkpt lat="47.27372" lon="-1.68629">
        <ele>53</ele>
        <time>2011-10-09T08:44:11Z</time>
      </trkpt>
      <trkpt lat="47.27368" lon="-1.68634">
        <ele>53</ele>
        <time>2011-10-09T08:44:14Z</time>
      </trkpt>
      <trkpt lat="47.27364" lon="-1.6864">
        <ele>53</ele>
        <time>2011-10-09T08:44:17Z</time>
      </trkpt>
      <trkpt lat="47.27359" lon="-1.68646">
        <ele>54</ele>
        <time>2011-10-09T08:44:20Z</time>
      </trkpt>
      <trkpt lat="47.27354" lon="-1.68652">
        <ele>54</ele>
        <time>2011-10-09T08:44:23Z</time>
      </trkpt>
      <trkpt lat="47.2735" lon="-1.68658">
        <ele>54</ele>
        <time>2011-10-09T08:44:26Z</time>
      </trkpt>
      <trkpt lat="47.27346" lon="-1.68662">
        <ele>54</ele>
        <time>2011-10-09T08:44:28Z</time>
      </trkpt>
      <trkpt lat="47.27341" lon="-1.6867">
        <ele>55</ele>
        <time>2011-10-09T08:44:31Z</time>
      </trkpt>
      <trkpt lat="47.27335" lon="-1.68678">
        <ele>55</ele>
        <time>2011-10-09T08:44:34Z</time>
      </trkpt>
      <trkpt lat="47.27328" lon="-1.68686">
        <ele>57</ele>
        <time>2011-10-09T08:44:37Z</time>
      </trkpt>
      <trkpt lat="47.27321" lon="-1.68694">
        <ele>57</ele>
        <time>2011-10-09T08:44:40Z</time>
      </trkpt>
      <trkpt lat="47.27313" lon="-1.68701">
        <ele>58</ele>
        <time>2011-10-09T08:44:43Z</time>
      </trkpt>
      <trkpt lat="47.27305" lon="-1.68706">
        <ele>58</ele>
        <time>2011-10-09T08:44:46Z</time>
      </trkpt>
      <trkpt lat="47.273" lon="-1.68708">
        <ele>58</ele>
        <time>2011-10-09T08:44:48Z</time>
      </trkpt>
      <trkpt lat="47.27292" lon="-1.68711">
        <ele>58</ele>
        <time>2011-10-09T08:44:51Z</time>
      </trkpt>
      <trkpt lat="47.27287" lon="-1.68714">
        <ele>58</ele>
        <time>2011-10-09T08:44:53Z</time>
      </trkpt>
      <trkpt lat="47.27282" lon="-1.68716">
        <ele>59</ele>
        <time>2011-10-09T08:44:55Z</time>
      </trkpt>
      <trkpt lat="47.27275" lon="-1.68721">
        <ele>59</ele>
        <time>2011-10-09T08:44:58Z</time>
      </trkpt>
      <trkpt lat="47.2727" lon="-1.68723">
        <ele>59</ele>
        <time>2011-10-09T08:45:00Z</time>
      </trkpt>
      <trkpt lat="47.27263" lon="-1.68728">
        <ele>59</ele>
        <time>2011-10-09T08:45:03Z</time>
      </trkpt>
      <trkpt lat="47.27257" lon="-1.68733">
        <ele>60</ele>
        <time>2011-10-09T08:45:06Z</time>
      </trkpt>
      <trkpt lat="47.27251" lon="-1.68738">
        <ele>60</ele>
        <time>2011-10-09T08:45:09Z</time>
      </trkpt>
      <trkpt lat="47.27248" lon="-1.68742">
        <ele>61</ele>
        <time>2011-10-09T08:45:11Z</time>
      </trkpt>
      <trkpt lat="47.27242" lon="-1.68749">
        <ele>61</ele>
        <time>2011-10-09T08:45:14Z</time>
      </trkpt>
      <trkpt lat="47.27237" lon="-1.68755">
        <ele>62</ele>
        <time>2011-10-09T08:45:17Z</time>
      </trkpt>
      <trkpt lat="47.27232" lon="-1.68762">
        <ele>63</ele>
        <time>2011-10-09T08:45:20Z</time>
      </trkpt>
      <trkpt lat="47.27227" lon="-1.68769">
        <ele>63</ele>
        <time>2011-10-09T08:45:23Z</time>
      </trkpt>
      <trkpt lat="47.27222" lon="-1.68776">
        <ele>64</ele>
        <time>2011-10-09T08:45:26Z</time>
      </trkpt>
      <trkpt lat="47.27217" lon="-1.68784">
        <ele>64</ele>
        <time>2011-10-09T08:45:29Z</time>
      </trkpt>
      <trkpt lat="47.27214" lon="-1.68789">
        <ele>64</ele>
        <time>2011-10-09T08:45:31Z</time>
      </trkpt>
      <trkpt lat="47.27209" lon="-1.68796">
        <ele>64</ele>
        <time>2011-10-09T08:45:34Z</time>
      </trkpt>
      <trkpt lat="47.27205" lon="-1.68801">
        <ele>64</ele>
        <time>2011-10-09T08:45:36Z</time>
      </trkpt>
      <trkpt lat="47.27201" lon="-1.6881">
        <ele>65</ele>
        <time>2011-10-09T08:45:39Z</time>
      </trkpt>
      <trkpt lat="47.27196" lon="-1.68819">
        <ele>65</ele>
        <time>2011-10-09T08:45:42Z</time>
      </trkpt>
      <trkpt lat="47.27192" lon="-1.68826">
        <ele>65</ele>
        <time>2011-10-09T08:45:44Z</time>
      </trkpt>
      <trkpt lat="47.27189" lon="-1.68833">
        <ele>65</ele>
        <time>2011-10-09T08:45:46Z</time>
      </trkpt>
      <trkpt lat="47.27184" lon="-1.68844">
        <ele>66</ele>
        <time>2011-10-09T08:45:49Z</time>
      </trkpt>
      <trkpt lat="47.2718" lon="-1.68851">
        <ele>66</ele>
        <time>2011-10-09T08:45:51Z</time>
      </trkpt>
      <trkpt lat="47.27177" lon="-1.68862">
        <ele>66</ele>
        <time>2011-10-09T08:45:54Z</time>
      </trkpt>
      <trkpt lat="47.27177" lon="-1.6887">
        <ele>66</ele>
        <time>2011-10-09T08:45:56Z</time>
      </trkpt>
      <trkpt lat="47.2718" lon="-1.68877">
        <ele>66</ele>
        <time>2011-10-09T08:45:58Z</time>
      </trkpt>
      <trkpt lat="47.27184" lon="-1.68883">
        <ele>66</ele>
        <time>2011-10-09T08:46:00Z</time>
      </trkpt>
      <trkpt lat="47.27193" lon="-1.6889">
        <ele>66</ele>
        <time>2011-10-09T08:46:03Z</time>
      </trkpt>
      <trkpt lat="47.27201" lon="-1.68895">
        <ele>66</ele>
        <time>2011-10-09T08:46:05Z</time>
      </trkpt>
      <trkpt lat="47.27216" lon="-1.68903">
        <ele>66</ele>
        <time>2011-10-09T08:46:08Z</time>
      </trkpt>
      <trkpt lat="47.27228" lon="-1.68912">
        <ele>66</ele>
        <time>2011-10-09T08:46:11Z</time>
      </trkpt>
      <trkpt lat="47.27237" lon="-1.68917">
        <ele>66</ele>
        <time>2011-10-09T08:46:13Z</time>
      </trkpt>
      <trkpt lat="47.27246" lon="-1.68923">
        <ele>66</ele>
        <time>2011-10-09T08:46:15Z</time>
      </trkpt>
      <trkpt lat="47.27259" lon="-1.68931">
        <ele>66</ele>
        <time>2011-10-09T08:46:18Z</time>
      </trkpt>
      <trkpt lat="47.27273" lon="-1.6894">
        <ele>65</ele>
        <time>2011-10-09T08:46:21Z</time>
      </trkpt>
      <trkpt lat="47.27283" lon="-1.68946">
        <ele>65</ele>
        <time>2011-10-09T08:46:23Z</time>
      </trkpt>
      <trkpt lat="47.273" lon="-1.68954">
        <ele>65</ele>
        <time>2011-10-09T08:46:26Z</time>
      </trkpt>
      <trkpt lat="47.27313" lon="-1.68959">
        <ele>65</ele>
        <time>2011-10-09T08:46:28Z</time>
      </trkpt>
      <trkpt lat="47.27333" lon="-1.68967">
        <ele>65</ele>
        <time>2011-10-09T08:46:31Z</time>
      </trkpt>
      <trkpt lat="47.27345" lon="-1.68974">
        <ele>64</ele>
        <time>2011-10-09T08:46:33Z</time>
      </trkpt>
      <trkpt lat="47.27358" lon="-1.68982">
        <ele>64</ele>
        <time>2011-10-09T08:46:35Z</time>
      </trkpt>
      <trkpt lat="47.27377" lon="-1.68994">
        <ele>64</ele>
        <time>2011-10-09T08:46:38Z</time>
      </trkpt>
      <trkpt lat="47.27396" lon="-1.69005">
        <ele>64</ele>
        <time>2011-10-09T08:46:41Z</time>
      </trkpt>
      <trkpt lat="47.27408" lon="-1.69012">
        <ele>64</ele>
        <time>2011-10-09T08:46:43Z</time>
      </trkpt>
      <trkpt lat="47.27421" lon="-1.69019">
        <ele>64</ele>
        <time>2011-10-09T08:46:45Z</time>
      </trkpt>
      <trkpt lat="47.27438" lon="-1.69031">
        <ele>63</ele>
        <time>2011-10-09T08:46:48Z</time>
      </trkpt>
      <trkpt lat="47.27455" lon="-1.69045">
        <ele>63</ele>
        <time>2011-10-09T08:46:51Z</time>
      </trkpt>
      <trkpt lat="47.2747" lon="-1.69062">
        <ele>63</ele>
        <time>2011-10-09T08:46:54Z</time>
      </trkpt>
      <trkpt lat="47.27484" lon="-1.6908">
        <ele>64</ele>
        <time>2011-10-09T08:46:57Z</time>
      </trkpt>
      <trkpt lat="47.27494" lon="-1.69092">
        <ele>63</ele>
        <time>2011-10-09T08:46:59Z</time>
      </trkpt>
      <trkpt lat="47.27505" lon="-1.69102">
        <ele>62</ele>
        <time>2011-10-09T08:47:01Z</time>
      </trkpt>
      <trkpt lat="47.27521" lon="-1.69118">
        <ele>60</ele>
        <time>2011-10-09T08:47:04Z</time>
      </trkpt>
      <trkpt lat="47.27536" lon="-1.6913">
        <ele>59</ele>
        <time>2011-10-09T08:47:07Z</time>
      </trkpt>
      <trkpt lat="47.27538" lon="-1.69153">
        <ele>59</ele>
        <time>2011-10-09T08:47:10Z</time>
      </trkpt>
      <trkpt lat="47.27539" lon="-1.69166">
        <ele>59</ele>
        <time>2011-10-09T08:47:12Z</time>
      </trkpt>
      <trkpt lat="47.27549" lon="-1.69176">
        <ele>57</ele>
        <time>2011-10-09T08:47:15Z</time>
      </trkpt>
      <trkpt lat="47.27565" lon="-1.69184">
        <ele>56</ele>
        <time>2011-10-09T08:47:18Z</time>
      </trkpt>
      <trkpt lat="47.27584" lon="-1.69194">
        <ele>55</ele>
        <time>2011-10-09T08:47:21Z</time>
      </trkpt>
      <trkpt lat="47.27603" lon="-1.69207">
        <ele>54</ele>
        <time>2011-10-09T08:47:24Z</time>
      </trkpt>
      <trkpt lat="47.27624" lon="-1.69224">
        <ele>54</ele>
        <time>2011-10-09T08:47:27Z</time>
      </trkpt>
      <trkpt lat="47.27639" lon="-1.69236">
        <ele>53</ele>
        <time>2011-10-09T08:47:29Z</time>
      </trkpt>
      <trkpt lat="47.27654" lon="-1.6925">
        <ele>52</ele>
        <time>2011-10-09T08:47:31Z</time>
      </trkpt>
      <trkpt lat="47.27674" lon="-1.69271">
        <ele>50</ele>
        <time>2011-10-09T08:47:34Z</time>
      </trkpt>
      <trkpt lat="47.27683" lon="-1.6928">
        <ele>50</ele>
        <time>2011-10-09T08:47:36Z</time>
      </trkpt>
      <trkpt lat="47.27701" lon="-1.69283">
        <ele>50</ele>
        <time>2011-10-09T08:47:39Z</time>
      </trkpt>
      <trkpt lat="47.27723" lon="-1.69281">
        <ele>50</ele>
        <time>2011-10-09T08:47:42Z</time>
      </trkpt>
      <trkpt lat="47.27744" lon="-1.69282">
        <ele>50</ele>
        <time>2011-10-09T08:47:45Z</time>
      </trkpt>
      <trkpt lat="47.27761" lon="-1.69289">
        <ele>49</ele>
        <time>2011-10-09T08:47:48Z</time>
      </trkpt>
      <trkpt lat="47.27766" lon="-1.69293">
        <ele>49</ele>
        <time>2011-10-09T08:47:50Z</time>
      </trkpt>
      <trkpt lat="47.27776" lon="-1.69341">
        <ele>51</ele>
        <time>2011-10-09T08:48:06Z</time>
      </trkpt>
      <trkpt lat="47.27778" lon="-1.69354">
        <ele>52</ele>
        <time>2011-10-09T08:48:09Z</time>
      </trkpt>
      <trkpt lat="47.27778" lon="-1.69354">
        <ele>52</ele>
        <time>2011-10-09T08:48:10Z</time>
      </trkpt>
      <trkpt lat="47.27781" lon="-1.69379">
        <ele>52</ele>
        <time>2011-10-09T08:48:15Z</time>
      </trkpt>
      <trkpt lat="47.2778" lon="-1.69393">
        <ele>52</ele>
        <time>2011-10-09T08:48:18Z</time>
      </trkpt>
      <trkpt lat="47.27779" lon="-1.69409">
        <ele>52</ele>
        <time>2011-10-09T08:48:21Z</time>
      </trkpt>
      <trkpt lat="47.27779" lon="-1.69419">
        <ele>54</ele>
        <time>2011-10-09T08:48:23Z</time>
      </trkpt>
      <trkpt lat="47.27779" lon="-1.69432">
        <ele>54</ele>
        <time>2011-10-09T08:48:26Z</time>
      </trkpt>
      <trkpt lat="47.27778" lon="-1.6944">
        <ele>54</ele>
        <time>2011-10-09T08:48:28Z</time>
      </trkpt>
      <trkpt lat="47.27777" lon="-1.69448">
        <ele>54</ele>
        <time>2011-10-09T08:48:30Z</time>
      </trkpt>
      <trkpt lat="47.27776" lon="-1.69456">
        <ele>54</ele>
        <time>2011-10-09T08:48:32Z</time>
      </trkpt>
      <trkpt lat="47.27776" lon="-1.6947">
        <ele>55</ele>
        <time>2011-10-09T08:48:35Z</time>
      </trkpt>
      <trkpt lat="47.27776" lon="-1.69481">
        <ele>55</ele>
        <time>2011-10-09T08:48:37Z</time>
      </trkpt>
      <trkpt lat="47.27776" lon="-1.69499">
        <ele>55</ele>
        <time>2011-10-09T08:48:40Z</time>
      </trkpt>
      <trkpt lat="47.27777" lon="-1.69516">
        <ele>56</ele>
        <time>2011-10-09T08:48:43Z</time>
      </trkpt>
      <trkpt lat="47.27778" lon="-1.69532">
        <ele>56</ele>
        <time>2011-10-09T08:48:46Z</time>
      </trkpt>
      <trkpt lat="47.27779" lon="-1.69544">
        <ele>57</ele>
        <time>2011-10-09T08:48:48Z</time>
      </trkpt>
      <trkpt lat="47.27779" lon="-1.69555">
        <ele>57</ele>
        <time>2011-10-09T08:48:50Z</time>
      </trkpt>
      <trkpt lat="47.2778" lon="-1.69571">
        <ele>57</ele>
        <time>2011-10-09T08:48:53Z</time>
      </trkpt>
      <trkpt lat="47.27782" lon="-1.69586">
        <ele>58</ele>
        <time>2011-10-09T08:48:56Z</time>
      </trkpt>
      <trkpt lat="47.27784" lon="-1.69596">
        <ele>58</ele>
        <time>2011-10-09T08:48:58Z</time>
      </trkpt>
      <trkpt lat="47.27788" lon="-1.69611">
        <ele>58</ele>
        <time>2011-10-09T08:49:01Z</time>
      </trkpt>
      <trkpt lat="47.27791" lon="-1.6962">
        <ele>58</ele>
        <time>2011-10-09T08:49:03Z</time>
      </trkpt>
      <trkpt lat="47.27795" lon="-1.69632">
        <ele>58</ele>
        <time>2011-10-09T08:49:06Z</time>
      </trkpt>
      <trkpt lat="47.27801" lon="-1.69642">
        <ele>59</ele>
        <time>2011-10-09T08:49:09Z</time>
      </trkpt>
      <trkpt lat="47.27807" lon="-1.69646">
        <ele>59</ele>
        <time>2011-10-09T08:49:11Z</time>
      </trkpt>
      <trkpt lat="47.27816" lon="-1.69646">
        <ele>59</ele>
        <time>2011-10-09T08:49:14Z</time>
      </trkpt>
      <trkpt lat="47.27824" lon="-1.69646">
        <ele>59</ele>
        <time>2011-10-09T08:49:17Z</time>
      </trkpt>
      <trkpt lat="47.27831" lon="-1.6965">
        <ele>59</ele>
        <time>2011-10-09T08:49:20Z</time>
      </trkpt>
      <trkpt lat="47.27835" lon="-1.69654">
        <ele>60</ele>
        <time>2011-10-09T08:49:22Z</time>
      </trkpt>
      <trkpt lat="47.27835" lon="-1.69654">
        <ele>60</ele>
        <time>2011-10-09T08:49:25Z</time>
      </trkpt>
      <trkpt lat="47.27835" lon="-1.69654">
        <ele>60</ele>
        <time>2011-10-09T08:49:55Z</time>
      </trkpt>
      <trkpt lat="47.27815" lon="-1.69689">
        <ele>60</ele>
        <time>2011-10-09T08:54:52Z</time>
      </trkpt>
      <trkpt lat="47.2781" lon="-1.69692">
        <ele>60</ele>
        <time>2011-10-09T08:54:54Z</time>
      </trkpt>
      <trkpt lat="47.27806" lon="-1.69701">
        <ele>60</ele>
        <time>2011-10-09T08:54:57Z</time>
      </trkpt>
      <trkpt lat="47.27804" lon="-1.69714">
        <ele>60</ele>
        <time>2011-10-09T08:55:00Z</time>
      </trkpt>
      <trkpt lat="47.27804" lon="-1.69728">
        <ele>61</ele>
        <time>2011-10-09T08:55:03Z</time>
      </trkpt>
      <trkpt lat="47.27805" lon="-1.69742">
        <ele>61</ele>
        <time>2011-10-09T08:55:06Z</time>
      </trkpt>
      <trkpt lat="47.27804" lon="-1.6975">
        <ele>62</ele>
        <time>2011-10-09T08:55:08Z</time>
      </trkpt>
      <trkpt lat="47.27801" lon="-1.69757">
        <ele>62</ele>
        <time>2011-10-09T08:55:10Z</time>
      </trkpt>
      <trkpt lat="47.27794" lon="-1.69764">
        <ele>62</ele>
        <time>2011-10-09T08:55:13Z</time>
      </trkpt>
      <trkpt lat="47.27787" lon="-1.69766">
        <ele>62</ele>
        <time>2011-10-09T08:55:16Z</time>
      </trkpt>
      <trkpt lat="47.27775" lon="-1.69764">
        <ele>62</ele>
        <time>2011-10-09T08:55:19Z</time>
      </trkpt>
      <trkpt lat="47.27764" lon="-1.69762">
        <ele>62</ele>
        <time>2011-10-09T08:55:22Z</time>
      </trkpt>
      <trkpt lat="47.2775" lon="-1.69761">
        <ele>62</ele>
        <time>2011-10-09T08:55:24Z</time>
      </trkpt>
      <trkpt lat="47.27733" lon="-1.69762">
        <ele>61</ele>
        <time>2011-10-09T08:55:27Z</time>
      </trkpt>
      <trkpt lat="47.27715" lon="-1.69763">
        <ele>61</ele>
        <time>2011-10-09T08:55:30Z</time>
      </trkpt>
      <trkpt lat="47.27695" lon="-1.69768">
        <ele>60</ele>
        <time>2011-10-09T08:55:33Z</time>
      </trkpt>
      <trkpt lat="47.27671" lon="-1.69777">
        <ele>60</ele>
        <time>2011-10-09T08:55:36Z</time>
      </trkpt>
      <trkpt lat="47.27647" lon="-1.69788">
        <ele>57</ele>
        <time>2011-10-09T08:55:39Z</time>
      </trkpt>
      <trkpt lat="47.27632" lon="-1.69794">
        <ele>57</ele>
        <time>2011-10-09T08:55:41Z</time>
      </trkpt>
      <trkpt lat="47.27608" lon="-1.69804">
        <ele>57</ele>
        <time>2011-10-09T08:55:44Z</time>
      </trkpt>
      <trkpt lat="47.27593" lon="-1.69811">
        <ele>57</ele>
        <time>2011-10-09T08:55:46Z</time>
      </trkpt>
      <trkpt lat="47.27572" lon="-1.69822">
        <ele>55</ele>
        <time>2011-10-09T08:55:49Z</time>
      </trkpt>
      <trkpt lat="47.27558" lon="-1.69828">
        <ele>55</ele>
        <time>2011-10-09T08:55:51Z</time>
      </trkpt>
      <trkpt lat="47.2754" lon="-1.69835">
        <ele>55</ele>
        <time>2011-10-09T08:55:54Z</time>
      </trkpt>
      <trkpt lat="47.27528" lon="-1.69839">
        <ele>55</ele>
        <time>2011-10-09T08:55:57Z</time>
      </trkpt>
      <trkpt lat="47.27519" lon="-1.6984">
        <ele>55</ele>
        <time>2011-10-09T08:56:00Z</time>
      </trkpt>
      <trkpt lat="47.27512" lon="-1.69841">
        <ele>55</ele>
        <time>2011-10-09T08:56:02Z</time>
      </trkpt>
      <trkpt lat="47.275" lon="-1.69845">
        <ele>55</ele>
        <time>2011-10-09T08:56:05Z</time>
      </trkpt>
      <trkpt lat="47.27494" lon="-1.69848">
        <ele>57</ele>
        <time>2011-10-09T08:56:07Z</time>
      </trkpt>
      <trkpt lat="47.27484" lon="-1.69855">
        <ele>58</ele>
        <time>2011-10-09T08:56:10Z</time>
      </trkpt>
      <trkpt lat="47.27474" lon="-1.69862">
        <ele>58</ele>
        <time>2011-10-09T08:56:13Z</time>
      </trkpt>
      <trkpt lat="47.27468" lon="-1.69866">
        <ele>59</ele>
        <time>2011-10-09T08:56:15Z</time>
      </trkpt>
      <trkpt lat="47.27459" lon="-1.69873">
        <ele>59</ele>
        <time>2011-10-09T08:56:18Z</time>
      </trkpt>
      <trkpt lat="47.2745" lon="-1.69878">
        <ele>60</ele>
        <time>2011-10-09T08:56:21Z</time>
      </trkpt>
      <trkpt lat="47.2744" lon="-1.6988">
        <ele>60</ele>
        <time>2011-10-09T08:56:24Z</time>
      </trkpt>
      <trkpt lat="47.27433" lon="-1.69869">
        <ele>60</ele>
        <time>2011-10-09T08:56:27Z</time>
      </trkpt>
      <trkpt lat="47.27428" lon="-1.69853">
        <ele>61</ele>
        <time>2011-10-09T08:56:30Z</time>
      </trkpt>
      <trkpt lat="47.27423" lon="-1.69836">
        <ele>62</ele>
        <time>2011-10-09T08:56:33Z</time>
      </trkpt>
      <trkpt lat="47.27418" lon="-1.6982">
        <ele>61</ele>
        <time>2011-10-09T08:56:36Z</time>
      </trkpt>
      <trkpt lat="47.27415" lon="-1.69809">
        <ele>64</ele>
        <time>2011-10-09T08:56:38Z</time>
      </trkpt>
      <trkpt lat="47.27412" lon="-1.69798">
        <ele>64</ele>
        <time>2011-10-09T08:56:40Z</time>
      </trkpt>
      <trkpt lat="47.27409" lon="-1.69787">
        <ele>64</ele>
        <time>2011-10-09T08:56:42Z</time>
      </trkpt>
      <trkpt lat="47.27405" lon="-1.69771">
        <ele>64</ele>
        <time>2011-10-09T08:56:45Z</time>
      </trkpt>
      <trkpt lat="47.27402" lon="-1.6976">
        <ele>64</ele>
        <time>2011-10-09T08:56:47Z</time>
      </trkpt>
      <trkpt lat="47.27397" lon="-1.69744">
        <ele>64</ele>
        <time>2011-10-09T08:56:50Z</time>
      </trkpt>
      <trkpt lat="47.27395" lon="-1.69733">
        <ele>64</ele>
        <time>2011-10-09T08:56:52Z</time>
      </trkpt>
      <trkpt lat="47.27391" lon="-1.69716">
        <ele>64</ele>
        <time>2011-10-09T08:56:55Z</time>
      </trkpt>
      <trkpt lat="47.27387" lon="-1.69698">
        <ele>64</ele>
        <time>2011-10-09T08:56:58Z</time>
      </trkpt>
      <trkpt lat="47.27383" lon="-1.69686">
        <ele>64</ele>
        <time>2011-10-09T08:57:00Z</time>
      </trkpt>
      <trkpt lat="47.27378" lon="-1.69669">
        <ele>65</ele>
        <time>2011-10-09T08:57:03Z</time>
      </trkpt>
      <trkpt lat="47.27367" lon="-1.69652">
        <ele>65</ele>
        <time>2011-10-09T08:57:06Z</time>
      </trkpt>
      <trkpt lat="47.2736" lon="-1.69643">
        <ele>65</ele>
        <time>2011-10-09T08:57:08Z</time>
      </trkpt>
      <trkpt lat="47.27349" lon="-1.69632">
        <ele>65</ele>
        <time>2011-10-09T08:57:11Z</time>
      </trkpt>
      <trkpt lat="47.27337" lon="-1.69626">
        <ele>65</ele>
        <time>2011-10-09T08:57:14Z</time>
      </trkpt>
      <trkpt lat="47.2733" lon="-1.6963">
        <ele>67</ele>
        <time>2011-10-09T08:57:16Z</time>
      </trkpt>
      <trkpt lat="47.27318" lon="-1.69638">
        <ele>67</ele>
        <time>2011-10-09T08:57:19Z</time>
      </trkpt>
      <trkpt lat="47.27304" lon="-1.69642">
        <ele>67</ele>
        <time>2011-10-09T08:57:22Z</time>
      </trkpt>
      <trkpt lat="47.27292" lon="-1.69647">
        <ele>68</ele>
        <time>2011-10-09T08:57:25Z</time>
      </trkpt>
      <trkpt lat="47.2728" lon="-1.69653">
        <ele>68</ele>
        <time>2011-10-09T08:57:28Z</time>
      </trkpt>
      <trkpt lat="47.27267" lon="-1.69659">
        <ele>68</ele>
        <time>2011-10-09T08:57:31Z</time>
      </trkpt>
      <trkpt lat="47.27255" lon="-1.69666">
        <ele>69</ele>
        <time>2011-10-09T08:57:34Z</time>
      </trkpt>
      <trkpt lat="47.27247" lon="-1.6967">
        <ele>69</ele>
        <time>2011-10-09T08:57:36Z</time>
      </trkpt>
      <trkpt lat="47.27235" lon="-1.69675">
        <ele>69</ele>
        <time>2011-10-09T08:57:39Z</time>
      </trkpt>
      <trkpt lat="47.27226" lon="-1.69677">
        <ele>69</ele>
        <time>2011-10-09T08:57:41Z</time>
      </trkpt>
      <trkpt lat="47.27214" lon="-1.69683">
        <ele>68</ele>
        <time>2011-10-09T08:57:44Z</time>
      </trkpt>
      <trkpt lat="47.27201" lon="-1.6969">
        <ele>68</ele>
        <time>2011-10-09T08:57:47Z</time>
      </trkpt>
      <trkpt lat="47.27193" lon="-1.69694">
        <ele>68</ele>
        <time>2011-10-09T08:57:49Z</time>
      </trkpt>
      <trkpt lat="47.27179" lon="-1.69701">
        <ele>68</ele>
        <time>2011-10-09T08:57:52Z</time>
      </trkpt>
      <trkpt lat="47.27166" lon="-1.69708">
        <ele>67</ele>
        <time>2011-10-09T08:57:55Z</time>
      </trkpt>
      <trkpt lat="47.27153" lon="-1.69717">
        <ele>67</ele>
        <time>2011-10-09T08:57:58Z</time>
      </trkpt>
      <trkpt lat="47.27144" lon="-1.69722">
        <ele>67</ele>
        <time>2011-10-09T08:58:00Z</time>
      </trkpt>
      <trkpt lat="47.2713" lon="-1.69732">
        <ele>67</ele>
        <time>2011-10-09T08:58:03Z</time>
      </trkpt>
      <trkpt lat="47.27114" lon="-1.69741">
        <ele>66</ele>
        <time>2011-10-09T08:58:06Z</time>
      </trkpt>
      <trkpt lat="47.27098" lon="-1.69751">
        <ele>66</ele>
        <time>2011-10-09T08:58:09Z</time>
      </trkpt>
      <trkpt lat="47.27087" lon="-1.69757">
        <ele>65</ele>
        <time>2011-10-09T08:58:11Z</time>
      </trkpt>
      <trkpt lat="47.27077" lon="-1.69763">
        <ele>65</ele>
        <time>2011-10-09T08:58:13Z</time>
      </trkpt>
      <trkpt lat="47.27061" lon="-1.69773">
        <ele>65</ele>
        <time>2011-10-09T08:58:16Z</time>
      </trkpt>
      <trkpt lat="47.27045" lon="-1.6978">
        <ele>66</ele>
        <time>2011-10-09T08:58:19Z</time>
      </trkpt>
      <trkpt lat="47.27031" lon="-1.69787">
        <ele>66</ele>
        <time>2011-10-09T08:58:22Z</time>
      </trkpt>
      <trkpt lat="47.27019" lon="-1.69793">
        <ele>66</ele>
        <time>2011-10-09T08:58:25Z</time>
      </trkpt>
      <trkpt lat="47.27008" lon="-1.69797">
        <ele>66</ele>
        <time>2011-10-09T08:58:28Z</time>
      </trkpt>
      <trkpt lat="47.26998" lon="-1.69792">
        <ele>65</ele>
        <time>2011-10-09T08:58:31Z</time>
      </trkpt>
      <trkpt lat="47.26992" lon="-1.69784">
        <ele>65</ele>
        <time>2011-10-09T08:58:33Z</time>
      </trkpt>
      <trkpt lat="47.26984" lon="-1.69768">
        <ele>65</ele>
        <time>2011-10-09T08:58:36Z</time>
      </trkpt>
      <trkpt lat="47.26977" lon="-1.69748">
        <ele>64</ele>
        <time>2011-10-09T08:58:39Z</time>
      </trkpt>
      <trkpt lat="47.2697" lon="-1.6974">
        <ele>63</ele>
        <time>2011-10-09T08:58:41Z</time>
      </trkpt>
      <trkpt lat="47.26963" lon="-1.69754">
        <ele>64</ele>
        <time>2011-10-09T08:58:43Z</time>
      </trkpt>
      <trkpt lat="47.26961" lon="-1.69766">
        <ele>65</ele>
        <time>2011-10-09T08:58:45Z</time>
      </trkpt>
      <trkpt lat="47.26958" lon="-1.69787">
        <ele>65</ele>
        <time>2011-10-09T08:58:48Z</time>
      </trkpt>
      <trkpt lat="47.26956" lon="-1.69808">
        <ele>65</ele>
        <time>2011-10-09T08:58:51Z</time>
      </trkpt>
      <trkpt lat="47.26953" lon="-1.69827">
        <ele>65</ele>
        <time>2011-10-09T08:58:54Z</time>
      </trkpt>
      <trkpt lat="47.26951" lon="-1.69847">
        <ele>67</ele>
        <time>2011-10-09T08:58:57Z</time>
      </trkpt>
      <trkpt lat="47.26948" lon="-1.69865">
        <ele>68</ele>
        <time>2011-10-09T08:59:00Z</time>
      </trkpt>
      <trkpt lat="47.26945" lon="-1.69887">
        <ele>68</ele>
        <time>2011-10-09T08:59:03Z</time>
      </trkpt>
      <trkpt lat="47.26946" lon="-1.6991">
        <ele>68</ele>
        <time>2011-10-09T08:59:06Z</time>
      </trkpt>
      <trkpt lat="47.26946" lon="-1.69932">
        <ele>70</ele>
        <time>2011-10-09T08:59:09Z</time>
      </trkpt>
      <trkpt lat="47.26945" lon="-1.69946">
        <ele>70</ele>
        <time>2011-10-09T08:59:11Z</time>
      </trkpt>
      <trkpt lat="47.26944" lon="-1.6996">
        <ele>70</ele>
        <time>2011-10-09T08:59:13Z</time>
      </trkpt>
      <trkpt lat="47.26941" lon="-1.69981">
        <ele>70</ele>
        <time>2011-10-09T08:59:16Z</time>
      </trkpt>
      <trkpt lat="47.26939" lon="-1.69995">
        <ele>71</ele>
        <time>2011-10-09T08:59:18Z</time>
      </trkpt>
      <trkpt lat="47.26939" lon="-1.70009">
        <ele>71</ele>
        <time>2011-10-09T08:59:20Z</time>
      </trkpt>
      <trkpt lat="47.26936" lon="-1.70031">
        <ele>71</ele>
        <time>2011-10-09T08:59:23Z</time>
      </trkpt>
      <trkpt lat="47.26932" lon="-1.70045">
        <ele>71</ele>
        <time>2011-10-09T08:59:25Z</time>
      </trkpt>
      <trkpt lat="47.26928" lon="-1.70059">
        <ele>71</ele>
        <time>2011-10-09T08:59:27Z</time>
      </trkpt>
      <trkpt lat="47.26924" lon="-1.70081">
        <ele>70</ele>
        <time>2011-10-09T08:59:30Z</time>
      </trkpt>
      <trkpt lat="47.2692" lon="-1.70103">
        <ele>70</ele>
        <time>2011-10-09T08:59:33Z</time>
      </trkpt>
      <trkpt lat="47.26918" lon="-1.70117">
        <ele>70</ele>
        <time>2011-10-09T08:59:35Z</time>
      </trkpt>
      <trkpt lat="47.26915" lon="-1.70139">
        <ele>68</ele>
        <time>2011-10-09T08:59:38Z</time>
      </trkpt>
      <trkpt lat="47.26914" lon="-1.70155">
        <ele>68</ele>
        <time>2011-10-09T08:59:40Z</time>
      </trkpt>
      <trkpt lat="47.26912" lon="-1.70171">
        <ele>68</ele>
        <time>2011-10-09T08:59:42Z</time>
      </trkpt>
      <trkpt lat="47.2691" lon="-1.70196">
        <ele>68</ele>
        <time>2011-10-09T08:59:45Z</time>
      </trkpt>
      <trkpt lat="47.26908" lon="-1.70221">
        <ele>68</ele>
        <time>2011-10-09T08:59:48Z</time>
      </trkpt>
      <trkpt lat="47.26906" lon="-1.70247">
        <ele>69</ele>
        <time>2011-10-09T08:59:51Z</time>
      </trkpt>
      <trkpt lat="47.26904" lon="-1.70272">
        <ele>69</ele>
        <time>2011-10-09T08:59:54Z</time>
      </trkpt>
      <trkpt lat="47.26904" lon="-1.70296">
        <ele>68</ele>
        <time>2011-10-09T08:59:57Z</time>
      </trkpt>
      <trkpt lat="47.26894" lon="-1.70315">
        <ele>69</ele>
        <time>2011-10-09T09:00:00Z</time>
      </trkpt>
      <trkpt lat="47.26878" lon="-1.70322">
        <ele>68</ele>
        <time>2011-10-09T09:00:03Z</time>
      </trkpt>
      <trkpt lat="47.26861" lon="-1.70322">
        <ele>68</ele>
        <time>2011-10-09T09:00:06Z</time>
      </trkpt>
      <trkpt lat="47.26846" lon="-1.70323">
        <ele>68</ele>
        <time>2011-10-09T09:00:09Z</time>
      </trkpt>
      <trkpt lat="47.2683" lon="-1.70326">
        <ele>68</ele>
        <time>2011-10-09T09:00:12Z</time>
      </trkpt>
      <trkpt lat="47.26812" lon="-1.70331">
        <ele>67</ele>
        <time>2011-10-09T09:00:15Z</time>
      </trkpt>
      <trkpt lat="47.26794" lon="-1.70336">
        <ele>67</ele>
        <time>2011-10-09T09:00:18Z</time>
      </trkpt>
      <trkpt lat="47.26774" lon="-1.70344">
        <ele>67</ele>
        <time>2011-10-09T09:00:21Z</time>
      </trkpt>
      <trkpt lat="47.26761" lon="-1.70346">
        <ele>67</ele>
        <time>2011-10-09T09:00:23Z</time>
      </trkpt>
      <trkpt lat="47.26747" lon="-1.70347">
        <ele>66</ele>
        <time>2011-10-09T09:00:25Z</time>
      </trkpt>
      <trkpt lat="47.26727" lon="-1.7035">
        <ele>66</ele>
        <time>2011-10-09T09:00:28Z</time>
      </trkpt>
      <trkpt lat="47.26714" lon="-1.70353">
        <ele>66</ele>
        <time>2011-10-09T09:00:30Z</time>
      </trkpt>
      <trkpt lat="47.26694" lon="-1.70357">
        <ele>65</ele>
        <time>2011-10-09T09:00:33Z</time>
      </trkpt>
      <trkpt lat="47.26681" lon="-1.7036">
        <ele>65</ele>
        <time>2011-10-09T09:00:35Z</time>
      </trkpt>
      <trkpt lat="47.26661" lon="-1.70366">
        <ele>64</ele>
        <time>2011-10-09T09:00:38Z</time>
      </trkpt>
      <trkpt lat="47.26639" lon="-1.7037">
        <ele>63</ele>
        <time>2011-10-09T09:00:41Z</time>
      </trkpt>
      <trkpt lat="47.26623" lon="-1.70373">
        <ele>63</ele>
        <time>2011-10-09T09:00:43Z</time>
      </trkpt>
      <trkpt lat="47.26609" lon="-1.70377">
        <ele>63</ele>
        <time>2011-10-09T09:00:45Z</time>
      </trkpt>
      <trkpt lat="47.26588" lon="-1.70383">
        <ele>63</ele>
        <time>2011-10-09T09:00:48Z</time>
      </trkpt>
      <trkpt lat="47.26569" lon="-1.7039">
        <ele>63</ele>
        <time>2011-10-09T09:00:51Z</time>
      </trkpt>
      <trkpt lat="47.26557" lon="-1.70395">
        <ele>63</ele>
        <time>2011-10-09T09:00:53Z</time>
      </trkpt>
      <trkpt lat="47.26545" lon="-1.70401">
        <ele>63</ele>
        <time>2011-10-09T09:00:55Z</time>
      </trkpt>
      <trkpt lat="47.26527" lon="-1.7041">
        <ele>63</ele>
        <time>2011-10-09T09:00:58Z</time>
      </trkpt>
      <trkpt lat="47.26515" lon="-1.70416">
        <ele>63</ele>
        <time>2011-10-09T09:01:00Z</time>
      </trkpt>
      <trkpt lat="47.26497" lon="-1.70425">
        <ele>64</ele>
        <time>2011-10-09T09:01:03Z</time>
      </trkpt>
      <trkpt lat="47.26479" lon="-1.70433">
        <ele>64</ele>
        <time>2011-10-09T09:01:06Z</time>
      </trkpt>
      <trkpt lat="47.26467" lon="-1.70439">
        <ele>64</ele>
        <time>2011-10-09T09:01:08Z</time>
      </trkpt>
      <trkpt lat="47.2645" lon="-1.7045">
        <ele>64</ele>
        <time>2011-10-09T09:01:11Z</time>
      </trkpt>
      <trkpt lat="47.26439" lon="-1.70457">
        <ele>64</ele>
        <time>2011-10-09T09:01:13Z</time>
      </trkpt>
      <trkpt lat="47.26423" lon="-1.70465">
        <ele>64</ele>
        <time>2011-10-09T09:01:16Z</time>
      </trkpt>
      <trkpt lat="47.26406" lon="-1.70471">
        <ele>63</ele>
        <time>2011-10-09T09:01:19Z</time>
      </trkpt>
      <trkpt lat="47.26391" lon="-1.70476">
        <ele>63</ele>
        <time>2011-10-09T09:01:22Z</time>
      </trkpt>
      <trkpt lat="47.26375" lon="-1.70478">
        <ele>62</ele>
        <time>2011-10-09T09:01:25Z</time>
      </trkpt>
      <trkpt lat="47.26359" lon="-1.70471">
        <ele>62</ele>
        <time>2011-10-09T09:01:28Z</time>
      </trkpt>
      <trkpt lat="47.26351" lon="-1.70459">
        <ele>62</ele>
        <time>2011-10-09T09:01:31Z</time>
      </trkpt>
      <trkpt lat="47.26339" lon="-1.70441">
        <ele>62</ele>
        <time>2011-10-09T09:01:34Z</time>
      </trkpt>
      <trkpt lat="47.26326" lon="-1.70421">
        <ele>61</ele>
        <time>2011-10-09T09:01:37Z</time>
      </trkpt>
      <trkpt lat="47.26314" lon="-1.70402">
        <ele>61</ele>
        <time>2011-10-09T09:01:40Z</time>
      </trkpt>
      <trkpt lat="47.26303" lon="-1.70382">
        <ele>61</ele>
        <time>2011-10-09T09:01:43Z</time>
      </trkpt>
      <trkpt lat="47.26292" lon="-1.70363">
        <ele>60</ele>
        <time>2011-10-09T09:01:46Z</time>
      </trkpt>
      <trkpt lat="47.26285" lon="-1.70351">
        <ele>60</ele>
        <time>2011-10-09T09:01:48Z</time>
      </trkpt>
      <trkpt lat="47.2628" lon="-1.70328">
        <ele>60</ele>
        <time>2011-10-09T09:01:51Z</time>
      </trkpt>
      <trkpt lat="47.26285" lon="-1.70316">
        <ele>61</ele>
        <time>2011-10-09T09:01:53Z</time>
      </trkpt>
      <trkpt lat="47.26293" lon="-1.70307">
        <ele>61</ele>
        <time>2011-10-09T09:01:55Z</time>
      </trkpt>
      <trkpt lat="47.263" lon="-1.70301">
        <ele>61</ele>
        <time>2011-10-09T09:01:57Z</time>
      </trkpt>
      <trkpt lat="47.2631" lon="-1.7029">
        <ele>61</ele>
        <time>2011-10-09T09:02:00Z</time>
      </trkpt>
      <trkpt lat="47.26322" lon="-1.70279">
        <ele>61</ele>
        <time>2011-10-09T09:02:03Z</time>
      </trkpt>
      <trkpt lat="47.26333" lon="-1.7027">
        <ele>61</ele>
        <time>2011-10-09T09:02:06Z</time>
      </trkpt>
      <trkpt lat="47.26341" lon="-1.70259">
        <ele>62</ele>
        <time>2011-10-09T09:02:09Z</time>
      </trkpt>
      <trkpt lat="47.26339" lon="-1.70249">
        <ele>62</ele>
        <time>2011-10-09T09:02:12Z</time>
      </trkpt>
      <trkpt lat="47.26328" lon="-1.70255">
        <ele>62</ele>
        <time>2011-10-09T09:02:15Z</time>
      </trkpt>
      <trkpt lat="47.26316" lon="-1.7027">
        <ele>61</ele>
        <time>2011-10-09T09:02:18Z</time>
      </trkpt>
      <trkpt lat="47.26303" lon="-1.70284">
        <ele>61</ele>
        <time>2011-10-09T09:02:21Z</time>
      </trkpt>
      <trkpt lat="47.26295" lon="-1.70291">
        <ele>61</ele>
        <time>2011-10-09T09:02:23Z</time>
      </trkpt>
      <trkpt lat="47.26286" lon="-1.70295">
        <ele>61</ele>
        <time>2011-10-09T09:02:25Z</time>
      </trkpt>
      <trkpt lat="47.26273" lon="-1.70293">
        <ele>60</ele>
        <time>2011-10-09T09:02:28Z</time>
      </trkpt>
      <trkpt lat="47.26266" lon="-1.70282">
        <ele>60</ele>
        <time>2011-10-09T09:02:30Z</time>
      </trkpt>
      <trkpt lat="47.2626" lon="-1.7027">
        <ele>60</ele>
        <time>2011-10-09T09:02:32Z</time>
      </trkpt>
      <trkpt lat="47.26253" lon="-1.70254">
        <ele>60</ele>
        <time>2011-10-09T09:02:34Z</time>
      </trkpt>
      <trkpt lat="47.26244" lon="-1.70226">
        <ele>59</ele>
        <time>2011-10-09T09:02:37Z</time>
      </trkpt>
      <trkpt lat="47.26235" lon="-1.70196">
        <ele>60</ele>
        <time>2011-10-09T09:02:40Z</time>
      </trkpt>
      <trkpt lat="47.26227" lon="-1.70166">
        <ele>60</ele>
        <time>2011-10-09T09:02:43Z</time>
      </trkpt>
      <trkpt lat="47.26223" lon="-1.70142">
        <ele>60</ele>
        <time>2011-10-09T09:02:45Z</time>
      </trkpt>
      <trkpt lat="47.26217" lon="-1.70105">
        <ele>59</ele>
        <time>2011-10-09T09:02:48Z</time>
      </trkpt>
      <trkpt lat="47.26213" lon="-1.70081">
        <ele>59</ele>
        <time>2011-10-09T09:02:50Z</time>
      </trkpt>
      <trkpt lat="47.26212" lon="-1.70056">
        <ele>59</ele>
        <time>2011-10-09T09:02:52Z</time>
      </trkpt>
      <trkpt lat="47.26211" lon="-1.70033">
        <ele>60</ele>
        <time>2011-10-09T09:02:54Z</time>
      </trkpt>
      <trkpt lat="47.2621" lon="-1.69998">
        <ele>61</ele>
        <time>2011-10-09T09:02:57Z</time>
      </trkpt>
      <trkpt lat="47.26212" lon="-1.69967">
        <ele>61</ele>
        <time>2011-10-09T09:03:00Z</time>
      </trkpt>
      <trkpt lat="47.26213" lon="-1.69936">
        <ele>62</ele>
        <time>2011-10-09T09:03:03Z</time>
      </trkpt>
      <trkpt lat="47.26213" lon="-1.69906">
        <ele>63</ele>
        <time>2011-10-09T09:03:06Z</time>
      </trkpt>
      <trkpt lat="47.26217" lon="-1.69886">
        <ele>63</ele>
        <time>2011-10-09T09:03:08Z</time>
      </trkpt>
      <trkpt lat="47.26221" lon="-1.69857">
        <ele>63</ele>
        <time>2011-10-09T09:03:11Z</time>
      </trkpt>
      <trkpt lat="47.26224" lon="-1.69841">
        <ele>63</ele>
        <time>2011-10-09T09:03:13Z</time>
      </trkpt>
      <trkpt lat="47.2623" lon="-1.69828">
        <ele>64</ele>
        <time>2011-10-09T09:03:15Z</time>
      </trkpt>
      <trkpt lat="47.26237" lon="-1.69809">
        <ele>64</ele>
        <time>2011-10-09T09:03:18Z</time>
      </trkpt>
      <trkpt lat="47.26242" lon="-1.69787">
        <ele>63</ele>
        <time>2011-10-09T09:03:21Z</time>
      </trkpt>
      <trkpt lat="47.26247" lon="-1.69763">
        <ele>63</ele>
        <time>2011-10-09T09:03:24Z</time>
      </trkpt>
      <trkpt lat="47.26251" lon="-1.69741">
        <ele>63</ele>
        <time>2011-10-09T09:03:27Z</time>
      </trkpt>
      <trkpt lat="47.26252" lon="-1.69715">
        <ele>63</ele>
        <time>2011-10-09T09:03:30Z</time>
      </trkpt>
      <trkpt lat="47.26256" lon="-1.6969">
        <ele>63</ele>
        <time>2011-10-09T09:03:33Z</time>
      </trkpt>
      <trkpt lat="47.2626" lon="-1.69661">
        <ele>63</ele>
        <time>2011-10-09T09:03:36Z</time>
      </trkpt>
      <trkpt lat="47.26264" lon="-1.69634">
        <ele>62</ele>
        <time>2011-10-09T09:03:39Z</time>
      </trkpt>
      <trkpt lat="47.26266" lon="-1.69616">
        <ele>62</ele>
        <time>2011-10-09T09:03:41Z</time>
      </trkpt>
      <trkpt lat="47.26269" lon="-1.69589">
        <ele>62</ele>
        <time>2011-10-09T09:03:44Z</time>
      </trkpt>
      <trkpt lat="47.26267" lon="-1.69568">
        <ele>61</ele>
        <time>2011-10-09T09:03:46Z</time>
      </trkpt>
      <trkpt lat="47.26267" lon="-1.69538">
        <ele>61</ele>
        <time>2011-10-09T09:03:49Z</time>
      </trkpt>
      <trkpt lat="47.26268" lon="-1.69508">
        <ele>60</ele>
        <time>2011-10-09T09:03:52Z</time>
      </trkpt>
      <trkpt lat="47.2627" lon="-1.69486">
        <ele>60</ele>
        <time>2011-10-09T09:03:54Z</time>
      </trkpt>
      <trkpt lat="47.26273" lon="-1.69449">
        <ele>59</ele>
        <time>2011-10-09T09:03:57Z</time>
      </trkpt>
      <trkpt lat="47.26276" lon="-1.69425">
        <ele>59</ele>
        <time>2011-10-09T09:03:59Z</time>
      </trkpt>
      <trkpt lat="47.26278" lon="-1.69403">
        <ele>59</ele>
        <time>2011-10-09T09:04:01Z</time>
      </trkpt>
      <trkpt lat="47.26285" lon="-1.69365">
        <ele>59</ele>
        <time>2011-10-09T09:04:04Z</time>
      </trkpt>
      <trkpt lat="47.2629" lon="-1.69343">
        <ele>59</ele>
        <time>2011-10-09T09:04:06Z</time>
      </trkpt>
      <trkpt lat="47.26297" lon="-1.6931">
        <ele>60</ele>
        <time>2011-10-09T09:04:09Z</time>
      </trkpt>
      <trkpt lat="47.26303" lon="-1.69289">
        <ele>61</ele>
        <time>2011-10-09T09:04:11Z</time>
      </trkpt>
      <trkpt lat="47.2631" lon="-1.69274">
        <ele>61</ele>
        <time>2011-10-09T09:04:13Z</time>
      </trkpt>
      <trkpt lat="47.2632" lon="-1.6925">
        <ele>64</ele>
        <time>2011-10-09T09:04:16Z</time>
      </trkpt>
      <trkpt lat="47.26328" lon="-1.69229">
        <ele>64</ele>
        <time>2011-10-09T09:04:19Z</time>
      </trkpt>
      <trkpt lat="47.26332" lon="-1.69216">
        <ele>64</ele>
        <time>2011-10-09T09:04:21Z</time>
      </trkpt>
      <trkpt lat="47.26336" lon="-1.69192">
        <ele>65</ele>
        <time>2011-10-09T09:04:24Z</time>
      </trkpt>
      <trkpt lat="47.26341" lon="-1.69173">
        <ele>66</ele>
        <time>2011-10-09T09:04:27Z</time>
      </trkpt>
      <trkpt lat="47.26345" lon="-1.69155">
        <ele>66</ele>
        <time>2011-10-09T09:04:30Z</time>
      </trkpt>
      <trkpt lat="47.26352" lon="-1.69137">
        <ele>66</ele>
        <time>2011-10-09T09:04:33Z</time>
      </trkpt>
      <trkpt lat="47.26359" lon="-1.69116">
        <ele>66</ele>
        <time>2011-10-09T09:04:36Z</time>
      </trkpt>
      <trkpt lat="47.26363" lon="-1.691">
        <ele>67</ele>
        <time>2011-10-09T09:04:38Z</time>
      </trkpt>
      <trkpt lat="47.26368" lon="-1.69079">
        <ele>67</ele>
        <time>2011-10-09T09:04:41Z</time>
      </trkpt>
      <trkpt lat="47.2637" lon="-1.69064">
        <ele>67</ele>
        <time>2011-10-09T09:04:43Z</time>
      </trkpt>
      <trkpt lat="47.26374" lon="-1.69053">
        <ele>67</ele>
        <time>2011-10-09T09:04:45Z</time>
      </trkpt>
      <trkpt lat="47.26383" lon="-1.69033">
        <ele>67</ele>
        <time>2011-10-09T09:04:48Z</time>
      </trkpt>
      <trkpt lat="47.26389" lon="-1.69018">
        <ele>67</ele>
        <time>2011-10-09T09:04:50Z</time>
      </trkpt>
      <trkpt lat="47.26398" lon="-1.68997">
        <ele>67</ele>
        <time>2011-10-09T09:04:53Z</time>
      </trkpt>
      <trkpt lat="47.26404" lon="-1.68985">
        <ele>67</ele>
        <time>2011-10-09T09:04:55Z</time>
      </trkpt>
      <trkpt lat="47.26415" lon="-1.68967">
        <ele>68</ele>
        <time>2011-10-09T09:04:58Z</time>
      </trkpt>
      <trkpt lat="47.26422" lon="-1.68947">
        <ele>68</ele>
        <time>2011-10-09T09:05:01Z</time>
      </trkpt>
      <trkpt lat="47.26426" lon="-1.68924">
        <ele>68</ele>
        <time>2011-10-09T09:05:04Z</time>
      </trkpt>
      <trkpt lat="47.26428" lon="-1.68899">
        <ele>68</ele>
        <time>2011-10-09T09:05:07Z</time>
      </trkpt>
      <trkpt lat="47.26432" lon="-1.68872">
        <ele>68</ele>
        <time>2011-10-09T09:05:10Z</time>
      </trkpt>
      <trkpt lat="47.26435" lon="-1.68852">
        <ele>68</ele>
        <time>2011-10-09T09:05:12Z</time>
      </trkpt>
      <trkpt lat="47.26438" lon="-1.68833">
        <ele>68</ele>
        <time>2011-10-09T09:05:14Z</time>
      </trkpt>
      <trkpt lat="47.26444" lon="-1.68801">
        <ele>69</ele>
        <time>2011-10-09T09:05:17Z</time>
      </trkpt>
      <trkpt lat="47.26448" lon="-1.68785">
        <ele>69</ele>
        <time>2011-10-09T09:05:19Z</time>
      </trkpt>
      <trkpt lat="47.26456" lon="-1.6876">
        <ele>70</ele>
        <time>2011-10-09T09:05:22Z</time>
      </trkpt>
      <trkpt lat="47.26468" lon="-1.68733">
        <ele>70</ele>
        <time>2011-10-09T09:05:25Z</time>
      </trkpt>
      <trkpt lat="47.26475" lon="-1.68716">
        <ele>70</ele>
        <time>2011-10-09T09:05:27Z</time>
      </trkpt>
      <trkpt lat="47.26486" lon="-1.68692">
        <ele>70</ele>
        <time>2011-10-09T09:05:30Z</time>
      </trkpt>
      <trkpt lat="47.26494" lon="-1.68667">
        <ele>69</ele>
        <time>2011-10-09T09:05:33Z</time>
      </trkpt>
      <trkpt lat="47.26498" lon="-1.68636">
        <ele>69</ele>
        <time>2011-10-09T09:05:36Z</time>
      </trkpt>
      <trkpt lat="47.26502" lon="-1.68608">
        <ele>69</ele>
        <time>2011-10-09T09:05:39Z</time>
      </trkpt>
      <trkpt lat="47.26506" lon="-1.6859">
        <ele>69</ele>
        <time>2011-10-09T09:05:41Z</time>
      </trkpt>
      <trkpt lat="47.26511" lon="-1.68565">
        <ele>69</ele>
        <time>2011-10-09T09:05:44Z</time>
      </trkpt>
      <trkpt lat="47.26515" lon="-1.68543">
        <ele>70</ele>
        <time>2011-10-09T09:05:47Z</time>
      </trkpt>
      <trkpt lat="47.26519" lon="-1.68519">
        <ele>70</ele>
        <time>2011-10-09T09:05:50Z</time>
      </trkpt>
      <trkpt lat="47.2652" lon="-1.68503">
        <ele>70</ele>
        <time>2011-10-09T09:05:52Z</time>
      </trkpt>
      <trkpt lat="47.26511" lon="-1.68477">
        <ele>70</ele>
        <time>2011-10-09T09:05:55Z</time>
      </trkpt>
      <trkpt lat="47.26502" lon="-1.68462">
        <ele>69</ele>
        <time>2011-10-09T09:05:57Z</time>
      </trkpt>
      <trkpt lat="47.26486" lon="-1.68445">
        <ele>68</ele>
        <time>2011-10-09T09:05:59Z</time>
      </trkpt>
      <trkpt lat="47.26472" lon="-1.68418">
        <ele>67</ele>
        <time>2011-10-09T09:06:02Z</time>
      </trkpt>
      <trkpt lat="47.26463" lon="-1.684">
        <ele>66</ele>
        <time>2011-10-09T09:06:04Z</time>
      </trkpt>
      <trkpt lat="47.26452" lon="-1.68371">
        <ele>66</ele>
        <time>2011-10-09T09:06:07Z</time>
      </trkpt>
      <trkpt lat="47.26439" lon="-1.68343">
        <ele>66</ele>
        <time>2011-10-09T09:06:10Z</time>
      </trkpt>
      <trkpt lat="47.2643" lon="-1.68326">
        <ele>66</ele>
        <time>2011-10-09T09:06:12Z</time>
      </trkpt>
      <trkpt lat="47.26417" lon="-1.68298">
        <ele>65</ele>
        <time>2011-10-09T09:06:15Z</time>
      </trkpt>
      <trkpt lat="47.26409" lon="-1.6828">
        <ele>65</ele>
        <time>2011-10-09T09:06:17Z</time>
      </trkpt>
      <trkpt lat="47.26403" lon="-1.68262">
        <ele>65</ele>
        <time>2011-10-09T09:06:19Z</time>
      </trkpt>
      <trkpt lat="47.26391" lon="-1.68232">
        <ele>66</ele>
        <time>2011-10-09T09:06:22Z</time>
      </trkpt>
      <trkpt lat="47.26381" lon="-1.68212">
        <ele>66</ele>
        <time>2011-10-09T09:06:24Z</time>
      </trkpt>
      <trkpt lat="47.26366" lon="-1.68182">
        <ele>66</ele>
        <time>2011-10-09T09:06:27Z</time>
      </trkpt>
      <trkpt lat="47.26351" lon="-1.68152">
        <ele>66</ele>
        <time>2011-10-09T09:06:30Z</time>
      </trkpt>
      <trkpt lat="47.26334" lon="-1.68121">
        <ele>66</ele>
        <time>2011-10-09T09:06:33Z</time>
      </trkpt>
      <trkpt lat="47.26323" lon="-1.68099">
        <ele>65</ele>
        <time>2011-10-09T09:06:35Z</time>
      </trkpt>
      <trkpt lat="47.26308" lon="-1.6807">
        <ele>65</ele>
        <time>2011-10-09T09:06:38Z</time>
      </trkpt>
      <trkpt lat="47.26291" lon="-1.68044">
        <ele>64</ele>
        <time>2011-10-09T09:06:41Z</time>
      </trkpt>
      <trkpt lat="47.26278" lon="-1.6803">
        <ele>64</ele>
        <time>2011-10-09T09:06:43Z</time>
      </trkpt>
      <trkpt lat="47.26259" lon="-1.68011">
        <ele>64</ele>
        <time>2011-10-09T09:06:46Z</time>
      </trkpt>
      <trkpt lat="47.26248" lon="-1.68">
        <ele>64</ele>
        <time>2011-10-09T09:06:48Z</time>
      </trkpt>
      <trkpt lat="47.2624" lon="-1.67992">
        <ele>63</ele>
        <time>2011-10-09T09:06:50Z</time>
      </trkpt>
      <trkpt lat="47.26226" lon="-1.68013">
        <ele>63</ele>
        <time>2011-10-09T09:06:53Z</time>
      </trkpt>
      <trkpt lat="47.26216" lon="-1.68025">
        <ele>63</ele>
        <time>2011-10-09T09:06:55Z</time>
      </trkpt>
      <trkpt lat="47.26203" lon="-1.68047">
        <ele>62</ele>
        <time>2011-10-09T09:06:58Z</time>
      </trkpt>
      <trkpt lat="47.26196" lon="-1.68064">
        <ele>62</ele>
        <time>2011-10-09T09:07:00Z</time>
      </trkpt>
      <trkpt lat="47.26189" lon="-1.68084">
        <ele>62</ele>
        <time>2011-10-09T09:07:02Z</time>
      </trkpt>
      <trkpt lat="47.26179" lon="-1.68106">
        <ele>62</ele>
        <time>2011-10-09T09:07:04Z</time>
      </trkpt>
      <trkpt lat="47.26167" lon="-1.68135">
        <ele>62</ele>
        <time>2011-10-09T09:07:07Z</time>
      </trkpt>
      <trkpt lat="47.26156" lon="-1.68166">
        <ele>60</ele>
        <time>2011-10-09T09:07:10Z</time>
      </trkpt>
      <trkpt lat="47.26148" lon="-1.68184">
        <ele>59</ele>
        <time>2011-10-09T09:07:12Z</time>
      </trkpt>
      <trkpt lat="47.26129" lon="-1.68182">
        <ele>58</ele>
        <time>2011-10-09T09:07:15Z</time>
      </trkpt>
      <trkpt lat="47.26116" lon="-1.68172">
        <ele>58</ele>
        <time>2011-10-09T09:07:17Z</time>
      </trkpt>
      <trkpt lat="47.26101" lon="-1.68165">
        <ele>58</ele>
        <time>2011-10-09T09:07:19Z</time>
      </trkpt>
      <trkpt lat="47.26085" lon="-1.68165">
        <ele>57</ele>
        <time>2011-10-09T09:07:21Z</time>
      </trkpt>
      <trkpt lat="47.26062" lon="-1.68169">
        <ele>57</ele>
        <time>2011-10-09T09:07:24Z</time>
      </trkpt>
      <trkpt lat="47.26041" lon="-1.68172">
        <ele>56</ele>
        <time>2011-10-09T09:07:27Z</time>
      </trkpt>
      <trkpt lat="47.26021" lon="-1.68158">
        <ele>57</ele>
        <time>2011-10-09T09:07:30Z</time>
      </trkpt>
      <trkpt lat="47.26003" lon="-1.68135">
        <ele>57</ele>
        <time>2011-10-09T09:07:33Z</time>
      </trkpt>
      <trkpt lat="47.25992" lon="-1.68125">
        <ele>57</ele>
        <time>2011-10-09T09:07:35Z</time>
      </trkpt>
      <trkpt lat="47.2598" lon="-1.68126">
        <ele>57</ele>
        <time>2011-10-09T09:07:37Z</time>
      </trkpt>
      <trkpt lat="47.25961" lon="-1.68134">
        <ele>57</ele>
        <time>2011-10-09T09:07:40Z</time>
      </trkpt>
      <trkpt lat="47.2595" lon="-1.68141">
        <ele>57</ele>
        <time>2011-10-09T09:07:42Z</time>
      </trkpt>
      <trkpt lat="47.2595" lon="-1.68141">
        <ele>57</ele>
        <time>2011-10-09T09:07:43Z</time>
      </trkpt>
      <trkpt lat="47.25926" lon="-1.68157">
        <ele>56</ele>
        <time>2011-10-09T09:07:51Z</time>
      </trkpt>
      <trkpt lat="47.25912" lon="-1.68167">
        <ele>56</ele>
        <time>2011-10-09T09:07:53Z</time>
      </trkpt>
      <trkpt lat="47.25893" lon="-1.6818">
        <ele>55</ele>
        <time>2011-10-09T09:07:56Z</time>
      </trkpt>
      <trkpt lat="47.2588" lon="-1.68192">
        <ele>55</ele>
        <time>2011-10-09T09:07:58Z</time>
      </trkpt>
      <trkpt lat="47.25863" lon="-1.68211">
        <ele>55</ele>
        <time>2011-10-09T09:08:01Z</time>
      </trkpt>
      <trkpt lat="47.25863" lon="-1.68211">
        <ele>55</ele>
        <time>2011-10-09T09:08:02Z</time>
      </trkpt>
      <trkpt lat="47.25847" lon="-1.68234">
        <ele>54</ele>
        <time>2011-10-09T09:08:05Z</time>
      </trkpt>
      <trkpt lat="47.25834" lon="-1.68246">
        <ele>54</ele>
        <time>2011-10-09T09:08:08Z</time>
      </trkpt>
      <trkpt lat="47.25825" lon="-1.68253">
        <ele>53</ele>
        <time>2011-10-09T09:08:11Z</time>
      </trkpt>
      <trkpt lat="47.25818" lon="-1.68257">
        <ele>53</ele>
        <time>2011-10-09T09:08:13Z</time>
      </trkpt>
      <trkpt lat="47.25806" lon="-1.68264">
        <ele>52</ele>
        <time>2011-10-09T09:08:16Z</time>
      </trkpt>
      <trkpt lat="47.25798" lon="-1.6827">
        <ele>52</ele>
        <time>2011-10-09T09:08:18Z</time>
      </trkpt>
      <trkpt lat="47.25785" lon="-1.68276">
        <ele>52</ele>
        <time>2011-10-09T09:08:21Z</time>
      </trkpt>
      <trkpt lat="47.2577" lon="-1.68283">
        <ele>51</ele>
        <time>2011-10-09T09:08:24Z</time>
      </trkpt>
      <trkpt lat="47.25746" lon="-1.68302">
        <ele>51</ele>
        <time>2011-10-09T09:08:27Z</time>
      </trkpt>
      <trkpt lat="47.25722" lon="-1.68326">
        <ele>51</ele>
        <time>2011-10-09T09:08:30Z</time>
      </trkpt>
      <trkpt lat="47.25707" lon="-1.68338">
        <ele>51</ele>
        <time>2011-10-09T09:08:32Z</time>
      </trkpt>
      <trkpt lat="47.2569" lon="-1.68357">
        <ele>51</ele>
        <time>2011-10-09T09:08:35Z</time>
      </trkpt>
      <trkpt lat="47.25685" lon="-1.6836">
        <ele>51</ele>
        <time>2011-10-09T09:08:37Z</time>
      </trkpt>
      <trkpt lat="47.25681" lon="-1.68364">
        <ele>51</ele>
        <time>2011-10-09T09:08:40Z</time>
      </trkpt>
      <trkpt lat="47.25681" lon="-1.68364">
        <ele>51</ele>
        <time>2011-10-09T09:08:42Z</time>
      </trkpt>
      <trkpt lat="47.2569" lon="-1.68294">
        <ele>52</ele>
        <time>2011-10-09T09:08:59Z</time>
      </trkpt>
      <trkpt lat="47.25689" lon="-1.68283">
        <ele>52</ele>
        <time>2011-10-09T09:09:01Z</time>
      </trkpt>
      <trkpt lat="47.25688" lon="-1.68274">
        <ele>52</ele>
        <time>2011-10-09T09:09:03Z</time>
      </trkpt>
      <trkpt lat="47.25688" lon="-1.68267">
        <ele>52</ele>
        <time>2011-10-09T09:09:05Z</time>
      </trkpt>
      <trkpt lat="47.25681" lon="-1.68239">
        <ele>52</ele>
        <time>2011-10-09T09:09:09Z</time>
      </trkpt>
      <trkpt lat="47.2567" lon="-1.68198">
        <ele>52</ele>
        <time>2011-10-09T09:09:12Z</time>
      </trkpt>
      <trkpt lat="47.25655" lon="-1.68162">
        <ele>52</ele>
        <time>2011-10-09T09:09:15Z</time>
      </trkpt>
      <trkpt lat="47.2564" lon="-1.68131">
        <ele>52</ele>
        <time>2011-10-09T09:09:18Z</time>
      </trkpt>
      <trkpt lat="47.25634" lon="-1.68113">
        <ele>52</ele>
        <time>2011-10-09T09:09:21Z</time>
      </trkpt>
      <trkpt lat="47.25608" lon="-1.68088">
        <ele>51</ele>
        <time>2011-10-09T09:09:24Z</time>
      </trkpt>
      <trkpt lat="47.25598" lon="-1.68074">
        <ele>51</ele>
        <time>2011-10-09T09:09:26Z</time>
      </trkpt>
      <trkpt lat="47.25585" lon="-1.6805">
        <ele>52</ele>
        <time>2011-10-09T09:09:29Z</time>
      </trkpt>
      <trkpt lat="47.25578" lon="-1.68032">
        <ele>50</ele>
        <time>2011-10-09T09:09:31Z</time>
      </trkpt>
      <trkpt lat="47.25571" lon="-1.67993">
        <ele>50</ele>
        <time>2011-10-09T09:09:34Z</time>
      </trkpt>
      <trkpt lat="47.25565" lon="-1.67957">
        <ele>49</ele>
        <time>2011-10-09T09:09:37Z</time>
      </trkpt>
      <trkpt lat="47.25584" lon="-1.67946">
        <ele>51</ele>
        <time>2011-10-09T09:09:40Z</time>
      </trkpt>
      <trkpt lat="47.256" lon="-1.67932">
        <ele>51</ele>
        <time>2011-10-09T09:09:43Z</time>
      </trkpt>
      <trkpt lat="47.25611" lon="-1.67911">
        <ele>50</ele>
        <time>2011-10-09T09:09:46Z</time>
      </trkpt>
      <trkpt lat="47.2562" lon="-1.67887">
        <ele>49</ele>
        <time>2011-10-09T09:09:49Z</time>
      </trkpt>
      <trkpt lat="47.25624" lon="-1.67859">
        <ele>48</ele>
        <time>2011-10-09T09:09:52Z</time>
      </trkpt>
      <trkpt lat="47.25617" lon="-1.67835">
        <ele>48</ele>
        <time>2011-10-09T09:09:55Z</time>
      </trkpt>
      <trkpt lat="47.25604" lon="-1.67799">
        <ele>46</ele>
        <time>2011-10-09T09:09:58Z</time>
      </trkpt>
      <trkpt lat="47.25583" lon="-1.67757">
        <ele>44</ele>
        <time>2011-10-09T09:10:01Z</time>
      </trkpt>
      <trkpt lat="47.25576" lon="-1.67735">
        <ele>43</ele>
        <time>2011-10-09T09:10:03Z</time>
      </trkpt>
      <trkpt lat="47.25573" lon="-1.67715">
        <ele>43</ele>
        <time>2011-10-09T09:10:05Z</time>
      </trkpt>
      <trkpt lat="47.25571" lon="-1.67696">
        <ele>43</ele>
        <time>2011-10-09T09:10:07Z</time>
      </trkpt>
      <trkpt lat="47.25567" lon="-1.67666">
        <ele>43</ele>
        <time>2011-10-09T09:10:10Z</time>
      </trkpt>
      <trkpt lat="47.25565" lon="-1.67648">
        <ele>43</ele>
        <time>2011-10-09T09:10:12Z</time>
      </trkpt>
      <trkpt lat="47.25564" lon="-1.67632">
        <ele>43</ele>
        <time>2011-10-09T09:10:14Z</time>
      </trkpt>
      <trkpt lat="47.2556" lon="-1.67606">
        <ele>44</ele>
        <time>2011-10-09T09:10:17Z</time>
      </trkpt>
      <trkpt lat="47.25556" lon="-1.67589">
        <ele>44</ele>
        <time>2011-10-09T09:10:19Z</time>
      </trkpt>
      <trkpt lat="47.25551" lon="-1.67571">
        <ele>44</ele>
        <time>2011-10-09T09:10:22Z</time>
      </trkpt>
      <trkpt lat="47.25545" lon="-1.67553">
        <ele>44</ele>
        <time>2011-10-09T09:10:25Z</time>
      </trkpt>
      <trkpt lat="47.25542" lon="-1.67541">
        <ele>44</ele>
        <time>2011-10-09T09:10:27Z</time>
      </trkpt>
      <trkpt lat="47.2554" lon="-1.67525">
        <ele>44</ele>
        <time>2011-10-09T09:10:30Z</time>
      </trkpt>
      <trkpt lat="47.25537" lon="-1.67506">
        <ele>44</ele>
        <time>2011-10-09T09:10:33Z</time>
      </trkpt>
      <trkpt lat="47.25533" lon="-1.67491">
        <ele>44</ele>
        <time>2011-10-09T09:10:35Z</time>
      </trkpt>
      <trkpt lat="47.25531" lon="-1.67478">
        <ele>44</ele>
        <time>2011-10-09T09:10:37Z</time>
      </trkpt>
      <trkpt lat="47.25525" lon="-1.67457">
        <ele>44</ele>
        <time>2011-10-09T09:10:40Z</time>
      </trkpt>
      <trkpt lat="47.25521" lon="-1.67444">
        <ele>43</ele>
        <time>2011-10-09T09:10:42Z</time>
      </trkpt>
      <trkpt lat="47.25516" lon="-1.67425">
        <ele>43</ele>
        <time>2011-10-09T09:10:45Z</time>
      </trkpt>
      <trkpt lat="47.25514" lon="-1.67414">
        <ele>44</ele>
        <time>2011-10-09T09:10:47Z</time>
      </trkpt>
      <trkpt lat="47.25511" lon="-1.67403">
        <ele>44</ele>
        <time>2011-10-09T09:10:49Z</time>
      </trkpt>
      <trkpt lat="47.25506" lon="-1.67394">
        <ele>45</ele>
        <time>2011-10-09T09:10:51Z</time>
      </trkpt>
      <trkpt lat="47.25494" lon="-1.67378">
        <ele>44</ele>
        <time>2011-10-09T09:10:54Z</time>
      </trkpt>
      <trkpt lat="47.25484" lon="-1.67367">
        <ele>45</ele>
        <time>2011-10-09T09:10:56Z</time>
      </trkpt>
      <trkpt lat="47.25478" lon="-1.67354">
        <ele>45</ele>
        <time>2011-10-09T09:10:58Z</time>
      </trkpt>
      <trkpt lat="47.25474" lon="-1.67343">
        <ele>45</ele>
        <time>2011-10-09T09:11:00Z</time>
      </trkpt>
      <trkpt lat="47.2547" lon="-1.67338">
        <ele>45</ele>
        <time>2011-10-09T09:11:02Z</time>
      </trkpt>
      <trkpt lat="47.25455" lon="-1.67336">
        <ele>45</ele>
        <time>2011-10-09T09:11:05Z</time>
      </trkpt>
      <trkpt lat="47.25438" lon="-1.67336">
        <ele>45</ele>
        <time>2011-10-09T09:11:08Z</time>
      </trkpt>
      <trkpt lat="47.25426" lon="-1.67353">
        <ele>45</ele>
        <time>2011-10-09T09:11:11Z</time>
      </trkpt>
      <trkpt lat="47.25422" lon="-1.67383">
        <ele>44</ele>
        <time>2011-10-09T09:11:14Z</time>
      </trkpt>
      <trkpt lat="47.25425" lon="-1.67418">
        <ele>43</ele>
        <time>2011-10-09T09:11:17Z</time>
      </trkpt>
      <trkpt lat="47.25426" lon="-1.67437">
        <ele>42</ele>
        <time>2011-10-09T09:11:19Z</time>
      </trkpt>
      <trkpt lat="47.25425" lon="-1.67453">
        <ele>42</ele>
        <time>2011-10-09T09:11:21Z</time>
      </trkpt>
      <trkpt lat="47.25425" lon="-1.67477">
        <ele>41</ele>
        <time>2011-10-09T09:11:24Z</time>
      </trkpt>
      <trkpt lat="47.25426" lon="-1.67493">
        <ele>41</ele>
        <time>2011-10-09T09:11:26Z</time>
      </trkpt>
      <trkpt lat="47.2542" lon="-1.67468">
        <ele>41</ele>
        <time>2011-10-09T09:11:27Z</time>
      </trkpt>
      <trkpt lat="47.25405" lon="-1.6748">
        <ele>42</ele>
        <time>2011-10-09T09:11:30Z</time>
      </trkpt>
      <trkpt lat="47.25396" lon="-1.67482">
        <ele>42</ele>
        <time>2011-10-09T09:11:32Z</time>
      </trkpt>
      <trkpt lat="47.25383" lon="-1.67472">
        <ele>42</ele>
        <time>2011-10-09T09:11:35Z</time>
      </trkpt>
      <trkpt lat="47.2538" lon="-1.67455">
        <ele>43</ele>
        <time>2011-10-09T09:11:38Z</time>
      </trkpt>
      <trkpt lat="47.25383" lon="-1.67447">
        <ele>43</ele>
        <time>2011-10-09T09:11:40Z</time>
      </trkpt>
      <trkpt lat="47.25379" lon="-1.6743">
        <ele>43</ele>
        <time>2011-10-09T09:11:43Z</time>
      </trkpt>
      <trkpt lat="47.25377" lon="-1.67415">
        <ele>44</ele>
        <time>2011-10-09T09:11:46Z</time>
      </trkpt>
      <trkpt lat="47.25377" lon="-1.674">
        <ele>44</ele>
        <time>2011-10-09T09:11:49Z</time>
      </trkpt>
      <trkpt lat="47.25379" lon="-1.67384">
        <ele>44</ele>
        <time>2011-10-09T09:11:52Z</time>
      </trkpt>
      <trkpt lat="47.25379" lon="-1.67375">
        <ele>44</ele>
        <time>2011-10-09T09:11:54Z</time>
      </trkpt>
      <trkpt lat="47.25386" lon="-1.67311">
        <ele>45</ele>
        <time>2011-10-09T09:12:17Z</time>
      </trkpt>
      <trkpt lat="47.25385" lon="-1.67297">
        <ele>45</ele>
        <time>2011-10-09T09:12:20Z</time>
      </trkpt>
      <trkpt lat="47.25381" lon="-1.67252">
        <ele>45</ele>
        <time>2011-10-09T09:12:27Z</time>
      </trkpt>
      <trkpt lat="47.25381" lon="-1.67252">
        <ele>45</ele>
        <time>2011-10-09T09:12:30Z</time>
      </trkpt>
      <trkpt lat="47.25382" lon="-1.672">
        <ele>47</ele>
        <time>2011-10-09T09:12:37Z</time>
      </trkpt>
      <trkpt lat="47.2538" lon="-1.67176">
        <ele>47</ele>
        <time>2011-10-09T09:12:40Z</time>
      </trkpt>
      <trkpt lat="47.25379" lon="-1.67161">
        <ele>48</ele>
        <time>2011-10-09T09:12:42Z</time>
      </trkpt>
      <trkpt lat="47.25376" lon="-1.67141">
        <ele>48</ele>
        <time>2011-10-09T09:12:45Z</time>
      </trkpt>
      <trkpt lat="47.25371" lon="-1.67119">
        <ele>48</ele>
        <time>2011-10-09T09:12:48Z</time>
      </trkpt>
      <trkpt lat="47.25368" lon="-1.67104">
        <ele>48</ele>
        <time>2011-10-09T09:12:50Z</time>
      </trkpt>
      <trkpt lat="47.25364" lon="-1.67081">
        <ele>49</ele>
        <time>2011-10-09T09:12:53Z</time>
      </trkpt>
      <trkpt lat="47.2536" lon="-1.67057">
        <ele>49</ele>
        <time>2011-10-09T09:12:56Z</time>
      </trkpt>
      <trkpt lat="47.25355" lon="-1.67031">
        <ele>49</ele>
        <time>2011-10-09T09:12:59Z</time>
      </trkpt>
      <trkpt lat="47.2535" lon="-1.67005">
        <ele>49</ele>
        <time>2011-10-09T09:13:02Z</time>
      </trkpt>
      <trkpt lat="47.25347" lon="-1.66989">
        <ele>49</ele>
        <time>2011-10-09T09:13:04Z</time>
      </trkpt>
      <trkpt lat="47.25343" lon="-1.66965">
        <ele>48</ele>
        <time>2011-10-09T09:13:07Z</time>
      </trkpt>
      <trkpt lat="47.2534" lon="-1.66949">
        <ele>48</ele>
        <time>2011-10-09T09:13:09Z</time>
      </trkpt>
      <trkpt lat="47.2534" lon="-1.66925">
        <ele>47</ele>
        <time>2011-10-09T09:13:12Z</time>
      </trkpt>
      <trkpt lat="47.25339" lon="-1.66908">
        <ele>47</ele>
        <time>2011-10-09T09:13:14Z</time>
      </trkpt>
      <trkpt lat="47.25337" lon="-1.66892">
        <ele>46</ele>
        <time>2011-10-09T09:13:16Z</time>
      </trkpt>
      <trkpt lat="47.25335" lon="-1.66866">
        <ele>46</ele>
        <time>2011-10-09T09:13:19Z</time>
      </trkpt>
      <trkpt lat="47.25336" lon="-1.66837">
        <ele>44</ele>
        <time>2011-10-09T09:13:22Z</time>
      </trkpt>
      <trkpt lat="47.25336" lon="-1.66816">
        <ele>44</ele>
        <time>2011-10-09T09:13:24Z</time>
      </trkpt>
      <trkpt lat="47.25336" lon="-1.66796">
        <ele>44</ele>
        <time>2011-10-09T09:13:26Z</time>
      </trkpt>
      <trkpt lat="47.25337" lon="-1.66762">
        <ele>44</ele>
        <time>2011-10-09T09:13:29Z</time>
      </trkpt>
      <trkpt lat="47.25337" lon="-1.66727">
        <ele>44</ele>
        <time>2011-10-09T09:13:32Z</time>
      </trkpt>
      <trkpt lat="47.25336" lon="-1.66694">
        <ele>43</ele>
        <time>2011-10-09T09:13:35Z</time>
      </trkpt>
      <trkpt lat="47.25336" lon="-1.66673">
        <ele>42</ele>
        <time>2011-10-09T09:13:37Z</time>
      </trkpt>
      <trkpt lat="47.25337" lon="-1.66642">
        <ele>42</ele>
        <time>2011-10-09T09:13:40Z</time>
      </trkpt>
      <trkpt lat="47.25338" lon="-1.66609">
        <ele>42</ele>
        <time>2011-10-09T09:13:43Z</time>
      </trkpt>
      <trkpt lat="47.25338" lon="-1.66575">
        <ele>42</ele>
        <time>2011-10-09T09:13:46Z</time>
      </trkpt>
      <trkpt lat="47.25335" lon="-1.66541">
        <ele>43</ele>
        <time>2011-10-09T09:13:49Z</time>
      </trkpt>
      <trkpt lat="47.25332" lon="-1.66508">
        <ele>42</ele>
        <time>2011-10-09T09:13:52Z</time>
      </trkpt>
      <trkpt lat="47.25325" lon="-1.66477">
        <ele>41</ele>
        <time>2011-10-09T09:13:55Z</time>
      </trkpt>
      <trkpt lat="47.25325" lon="-1.66455">
        <ele>41</ele>
        <time>2011-10-09T09:13:57Z</time>
      </trkpt>
      <trkpt lat="47.25324" lon="-1.66432">
        <ele>41</ele>
        <time>2011-10-09T09:14:00Z</time>
      </trkpt>
      <trkpt lat="47.25324" lon="-1.6642">
        <ele>41</ele>
        <time>2011-10-09T09:14:02Z</time>
      </trkpt>
      <trkpt lat="47.25326" lon="-1.6641">
        <ele>41</ele>
        <time>2011-10-09T09:14:04Z</time>
      </trkpt>
      <trkpt lat="47.25328" lon="-1.66393">
        <ele>41</ele>
        <time>2011-10-09T09:14:07Z</time>
      </trkpt>
      <trkpt lat="47.25329" lon="-1.66373">
        <ele>41</ele>
        <time>2011-10-09T09:14:10Z</time>
      </trkpt>
      <trkpt lat="47.2533" lon="-1.66352">
        <ele>41</ele>
        <time>2011-10-09T09:14:13Z</time>
      </trkpt>
      <trkpt lat="47.25331" lon="-1.66331">
        <ele>42</ele>
        <time>2011-10-09T09:14:16Z</time>
      </trkpt>
      <trkpt lat="47.25331" lon="-1.66308">
        <ele>41</ele>
        <time>2011-10-09T09:14:19Z</time>
      </trkpt>
      <trkpt lat="47.2533" lon="-1.66283">
        <ele>41</ele>
        <time>2011-10-09T09:14:22Z</time>
      </trkpt>
      <trkpt lat="47.25329" lon="-1.66267">
        <ele>42</ele>
        <time>2011-10-09T09:14:24Z</time>
      </trkpt>
      <trkpt lat="47.25329" lon="-1.66249">
        <ele>43</ele>
        <time>2011-10-09T09:14:26Z</time>
      </trkpt>
      <trkpt lat="47.25329" lon="-1.66223">
        <ele>43</ele>
        <time>2011-10-09T09:14:29Z</time>
      </trkpt>
      <trkpt lat="47.25329" lon="-1.66209">
        <ele>43</ele>
        <time>2011-10-09T09:14:31Z</time>
      </trkpt>
      <trkpt lat="47.2533" lon="-1.66188">
        <ele>43</ele>
        <time>2011-10-09T09:14:34Z</time>
      </trkpt>
      <trkpt lat="47.2533" lon="-1.66166">
        <ele>45</ele>
        <time>2011-10-09T09:14:37Z</time>
      </trkpt>
      <trkpt lat="47.25331" lon="-1.66144">
        <ele>44</ele>
        <time>2011-10-09T09:14:40Z</time>
      </trkpt>
      <trkpt lat="47.25332" lon="-1.66124">
        <ele>44</ele>
        <time>2011-10-09T09:14:43Z</time>
      </trkpt>
      <trkpt lat="47.25333" lon="-1.66112">
        <ele>44</ele>
        <time>2011-10-09T09:14:45Z</time>
      </trkpt>
      <trkpt lat="47.25333" lon="-1.66099">
        <ele>45</ele>
        <time>2011-10-09T09:14:47Z</time>
      </trkpt>
      <trkpt lat="47.25332" lon="-1.66088">
        <ele>45</ele>
        <time>2011-10-09T09:14:49Z</time>
      </trkpt>
      <trkpt lat="47.25328" lon="-1.66073">
        <ele>45</ele>
        <time>2011-10-09T09:14:52Z</time>
      </trkpt>
      <trkpt lat="47.25325" lon="-1.66064">
        <ele>45</ele>
        <time>2011-10-09T09:14:54Z</time>
      </trkpt>
      <trkpt lat="47.25313" lon="-1.66047">
        <ele>45</ele>
        <time>2011-10-09T09:14:57Z</time>
      </trkpt>
      <trkpt lat="47.25306" lon="-1.66035">
        <ele>45</ele>
        <time>2011-10-09T09:14:59Z</time>
      </trkpt>
      <trkpt lat="47.25299" lon="-1.66024">
        <ele>45</ele>
        <time>2011-10-09T09:15:01Z</time>
      </trkpt>
      <trkpt lat="47.25289" lon="-1.66008">
        <ele>45</ele>
        <time>2011-10-09T09:15:04Z</time>
      </trkpt>
      <trkpt lat="47.2528" lon="-1.65992">
        <ele>45</ele>
        <time>2011-10-09T09:15:07Z</time>
      </trkpt>
      <trkpt lat="47.25274" lon="-1.65981">
        <ele>45</ele>
        <time>2011-10-09T09:15:09Z</time>
      </trkpt>
      <trkpt lat="47.25269" lon="-1.65969">
        <ele>45</ele>
        <time>2011-10-09T09:15:11Z</time>
      </trkpt>
      <trkpt lat="47.25262" lon="-1.65949">
        <ele>45</ele>
        <time>2011-10-09T09:15:14Z</time>
      </trkpt>
      <trkpt lat="47.25255" lon="-1.65925">
        <ele>44</ele>
        <time>2011-10-09T09:15:17Z</time>
      </trkpt>
      <trkpt lat="47.25248" lon="-1.65901">
        <ele>44</ele>
        <time>2011-10-09T09:15:20Z</time>
      </trkpt>
      <trkpt lat="47.2524" lon="-1.65875">
        <ele>43</ele>
        <time>2011-10-09T09:15:23Z</time>
      </trkpt>
      <trkpt lat="47.25229" lon="-1.65845">
        <ele>43</ele>
        <time>2011-10-09T09:15:26Z</time>
      </trkpt>
      <trkpt lat="47.25217" lon="-1.65815">
        <ele>43</ele>
        <time>2011-10-09T09:15:29Z</time>
      </trkpt>
      <trkpt lat="47.25206" lon="-1.65785">
        <ele>42</ele>
        <time>2011-10-09T09:15:32Z</time>
      </trkpt>
      <trkpt lat="47.25196" lon="-1.65751">
        <ele>42</ele>
        <time>2011-10-09T09:15:35Z</time>
      </trkpt>
      <trkpt lat="47.25189" lon="-1.6573">
        <ele>40</ele>
        <time>2011-10-09T09:15:37Z</time>
      </trkpt>
      <trkpt lat="47.2518" lon="-1.65701">
        <ele>40</ele>
        <time>2011-10-09T09:15:40Z</time>
      </trkpt>
      <trkpt lat="47.25166" lon="-1.65679">
        <ele>38</ele>
        <time>2011-10-09T09:15:43Z</time>
      </trkpt>
      <trkpt lat="47.25164" lon="-1.65654">
        <ele>38</ele>
        <time>2011-10-09T09:15:46Z</time>
      </trkpt>
      <trkpt lat="47.25134" lon="-1.65652">
        <ele>36</ele>
        <time>2011-10-09T09:15:49Z</time>
      </trkpt>
      <trkpt lat="47.25105" lon="-1.6565">
        <ele>35</ele>
        <time>2011-10-09T09:15:52Z</time>
      </trkpt>
      <trkpt lat="47.25088" lon="-1.65639">
        <ele>34</ele>
        <time>2011-10-09T09:15:54Z</time>
      </trkpt>
      <trkpt lat="47.25083" lon="-1.65618">
        <ele>33</ele>
        <time>2011-10-09T09:15:56Z</time>
      </trkpt>
      <trkpt lat="47.25081" lon="-1.65593">
        <ele>33</ele>
        <time>2011-10-09T09:15:59Z</time>
      </trkpt>
      <trkpt lat="47.25086" lon="-1.65566">
        <ele>35</ele>
        <time>2011-10-09T09:16:02Z</time>
      </trkpt>
      <trkpt lat="47.2509" lon="-1.65547">
        <ele>36</ele>
        <time>2011-10-09T09:16:04Z</time>
      </trkpt>
      <trkpt lat="47.25098" lon="-1.65521">
        <ele>36</ele>
        <time>2011-10-09T09:16:07Z</time>
      </trkpt>
      <trkpt lat="47.25102" lon="-1.65509">
        <ele>36</ele>
        <time>2011-10-09T09:16:09Z</time>
      </trkpt>
      <trkpt lat="47.25105" lon="-1.65503">
        <ele>36</ele>
        <time>2011-10-09T09:16:11Z</time>
      </trkpt>
      <trkpt lat="47.25107" lon="-1.65493">
        <ele>37</ele>
        <time>2011-10-09T09:16:14Z</time>
      </trkpt>
      <trkpt lat="47.25108" lon="-1.65486">
        <ele>37</ele>
        <time>2011-10-09T09:16:16Z</time>
      </trkpt>
      <trkpt lat="47.25108" lon="-1.65473">
        <ele>38</ele>
        <time>2011-10-09T09:16:19Z</time>
      </trkpt>
      <trkpt lat="47.25108" lon="-1.65473">
        <ele>38</ele>
        <time>2011-10-09T09:16:21Z</time>
      </trkpt>
      <trkpt lat="47.25119" lon="-1.65416">
        <ele>41</ele>
        <time>2011-10-09T09:16:35Z</time>
      </trkpt>
      <trkpt lat="47.25126" lon="-1.654">
        <ele>41</ele>
        <time>2011-10-09T09:16:38Z</time>
      </trkpt>
      <trkpt lat="47.25135" lon="-1.65363">
        <ele>42</ele>
        <time>2011-10-09T09:16:48Z</time>
      </trkpt>
      <trkpt lat="47.25135" lon="-1.65363">
        <ele>42</ele>
        <time>2011-10-09T09:16:51Z</time>
      </trkpt>
      <trkpt lat="47.25146" lon="-1.65316">
        <ele>45</ele>
        <time>2011-10-09T09:16:57Z</time>
      </trkpt>
      <trkpt lat="47.25159" lon="-1.6528">
        <ele>46</ele>
        <time>2011-10-09T09:17:05Z</time>
      </trkpt>
      <trkpt lat="47.2516" lon="-1.65266">
        <ele>47</ele>
        <time>2011-10-09T09:17:09Z</time>
      </trkpt>
      <trkpt lat="47.25162" lon="-1.6525">
        <ele>48</ele>
        <time>2011-10-09T09:17:12Z</time>
      </trkpt>
      <trkpt lat="47.2516" lon="-1.65237">
        <ele>48</ele>
        <time>2011-10-09T09:17:15Z</time>
      </trkpt>
      <trkpt lat="47.25158" lon="-1.6522">
        <ele>48</ele>
        <time>2011-10-09T09:17:19Z</time>
      </trkpt>
      <trkpt lat="47.2516" lon="-1.65199">
        <ele>48</ele>
        <time>2011-10-09T09:17:24Z</time>
      </trkpt>
      <trkpt lat="47.25171" lon="-1.65175">
        <ele>50</ele>
        <time>2011-10-09T09:17:31Z</time>
      </trkpt>
      <trkpt lat="47.25172" lon="-1.65158">
        <ele>50</ele>
        <time>2011-10-09T09:17:36Z</time>
      </trkpt>
      <trkpt lat="47.2517" lon="-1.65118">
        <ele>51</ele>
        <time>2011-10-09T09:17:46Z</time>
      </trkpt>
      <trkpt lat="47.25168" lon="-1.651">
        <ele>51</ele>
        <time>2011-10-09T09:17:49Z</time>
      </trkpt>
      <trkpt lat="47.25165" lon="-1.65082">
        <ele>51</ele>
        <time>2011-10-09T09:17:52Z</time>
      </trkpt>
      <trkpt lat="47.25163" lon="-1.65058">
        <ele>49</ele>
        <time>2011-10-09T09:17:55Z</time>
      </trkpt>
      <trkpt lat="47.2516" lon="-1.65035">
        <ele>49</ele>
        <time>2011-10-09T09:17:58Z</time>
      </trkpt>
      <trkpt lat="47.25158" lon="-1.65013">
        <ele>49</ele>
        <time>2011-10-09T09:18:01Z</time>
      </trkpt>
      <trkpt lat="47.25158" lon="-1.65002">
        <ele>49</ele>
        <time>2011-10-09T09:18:03Z</time>
      </trkpt>
      <trkpt lat="47.25159" lon="-1.6498">
        <ele>48</ele>
        <time>2011-10-09T09:18:06Z</time>
      </trkpt>
      <trkpt lat="47.2516" lon="-1.64965">
        <ele>48</ele>
        <time>2011-10-09T09:18:08Z</time>
      </trkpt>
      <trkpt lat="47.25156" lon="-1.64948">
        <ele>48</ele>
        <time>2011-10-09T09:18:11Z</time>
      </trkpt>
      <trkpt lat="47.2516" lon="-1.64922">
        <ele>48</ele>
        <time>2011-10-09T09:18:14Z</time>
      </trkpt>
      <trkpt lat="47.25158" lon="-1.64895">
        <ele>47</ele>
        <time>2011-10-09T09:18:17Z</time>
      </trkpt>
      <trkpt lat="47.25152" lon="-1.64876">
        <ele>47</ele>
        <time>2011-10-09T09:18:20Z</time>
      </trkpt>
      <trkpt lat="47.25129" lon="-1.64852">
        <ele>46</ele>
        <time>2011-10-09T09:18:23Z</time>
      </trkpt>
      <trkpt lat="47.25116" lon="-1.64839">
        <ele>45</ele>
        <time>2011-10-09T09:18:25Z</time>
      </trkpt>
      <trkpt lat="47.25098" lon="-1.64823">
        <ele>44</ele>
        <time>2011-10-09T09:18:28Z</time>
      </trkpt>
      <trkpt lat="47.25095" lon="-1.64808">
        <ele>45</ele>
        <time>2011-10-09T09:18:31Z</time>
      </trkpt>
      <trkpt lat="47.25096" lon="-1.6479">
        <ele>45</ele>
        <time>2011-10-09T09:18:34Z</time>
      </trkpt>
      <trkpt lat="47.25098" lon="-1.64774">
        <ele>45</ele>
        <time>2011-10-09T09:18:37Z</time>
      </trkpt>
      <trkpt lat="47.25099" lon="-1.64762">
        <ele>45</ele>
        <time>2011-10-09T09:18:39Z</time>
      </trkpt>
      <trkpt lat="47.251" lon="-1.64746">
        <ele>45</ele>
        <time>2011-10-09T09:18:42Z</time>
      </trkpt>
      <trkpt lat="47.251" lon="-1.64736">
        <ele>45</ele>
        <time>2011-10-09T09:18:44Z</time>
      </trkpt>
      <trkpt lat="47.25102" lon="-1.64719">
        <ele>46</ele>
        <time>2011-10-09T09:18:47Z</time>
      </trkpt>
      <trkpt lat="47.25103" lon="-1.64708">
        <ele>46</ele>
        <time>2011-10-09T09:18:49Z</time>
      </trkpt>
      <trkpt lat="47.25103" lon="-1.64692">
        <ele>46</ele>
        <time>2011-10-09T09:18:52Z</time>
      </trkpt>
      <trkpt lat="47.25106" lon="-1.64682">
        <ele>46</ele>
        <time>2011-10-09T09:18:54Z</time>
      </trkpt>
      <trkpt lat="47.25108" lon="-1.64674">
        <ele>46</ele>
        <time>2011-10-09T09:18:56Z</time>
      </trkpt>
      <trkpt lat="47.2511" lon="-1.64665">
        <ele>47</ele>
        <time>2011-10-09T09:18:58Z</time>
      </trkpt>
      <trkpt lat="47.25113" lon="-1.64653">
        <ele>47</ele>
        <time>2011-10-09T09:19:01Z</time>
      </trkpt>
      <trkpt lat="47.25116" lon="-1.64632">
        <ele>47</ele>
        <time>2011-10-09T09:19:06Z</time>
      </trkpt>
      <trkpt lat="47.25118" lon="-1.6462">
        <ele>48</ele>
        <time>2011-10-09T09:19:08Z</time>
      </trkpt>
      <trkpt lat="47.2512" lon="-1.64601">
        <ele>48</ele>
        <time>2011-10-09T09:19:11Z</time>
      </trkpt>
      <trkpt lat="47.2512" lon="-1.64587">
        <ele>48</ele>
        <time>2011-10-09T09:19:13Z</time>
      </trkpt>
      <trkpt lat="47.25122" lon="-1.64568">
        <ele>48</ele>
        <time>2011-10-09T09:19:16Z</time>
      </trkpt>
      <trkpt lat="47.2512" lon="-1.64551">
        <ele>48</ele>
        <time>2011-10-09T09:19:19Z</time>
      </trkpt>
      <trkpt lat="47.25115" lon="-1.64536">
        <ele>48</ele>
        <time>2011-10-09T09:19:22Z</time>
      </trkpt>
      <trkpt lat="47.25115" lon="-1.64536">
        <ele>48</ele>
        <time>2011-10-09T09:19:23Z</time>
      </trkpt>
      <trkpt lat="47.25111" lon="-1.6451">
        <ele>48</ele>
        <time>2011-10-09T09:19:29Z</time>
      </trkpt>
      <trkpt lat="47.25111" lon="-1.64496">
        <ele>49</ele>
        <time>2011-10-09T09:19:32Z</time>
      </trkpt>
      <trkpt lat="47.25109" lon="-1.64487">
        <ele>49</ele>
        <time>2011-10-09T09:19:34Z</time>
      </trkpt>
      <trkpt lat="47.25102" lon="-1.64476">
        <ele>49</ele>
        <time>2011-10-09T09:19:37Z</time>
      </trkpt>
      <trkpt lat="47.25097" lon="-1.64467">
        <ele>49</ele>
        <time>2011-10-09T09:19:39Z</time>
      </trkpt>
      <trkpt lat="47.25097" lon="-1.64452">
        <ele>49</ele>
        <time>2011-10-09T09:19:42Z</time>
      </trkpt>
      <trkpt lat="47.25102" lon="-1.64441">
        <ele>49</ele>
        <time>2011-10-09T09:19:45Z</time>
      </trkpt>
      <trkpt lat="47.25105" lon="-1.64433">
        <ele>49</ele>
        <time>2011-10-09T09:19:47Z</time>
      </trkpt>
      <trkpt lat="47.25113" lon="-1.64427">
        <ele>50</ele>
        <time>2011-10-09T09:19:50Z</time>
      </trkpt>
      <trkpt lat="47.25118" lon="-1.64421">
        <ele>50</ele>
        <time>2011-10-09T09:19:52Z</time>
      </trkpt>
      <trkpt lat="47.25125" lon="-1.64412">
        <ele>51</ele>
        <time>2011-10-09T09:19:55Z</time>
      </trkpt>
      <trkpt lat="47.25132" lon="-1.64401">
        <ele>51</ele>
        <time>2011-10-09T09:19:58Z</time>
      </trkpt>
      <trkpt lat="47.25135" lon="-1.64393">
        <ele>51</ele>
        <time>2011-10-09T09:20:00Z</time>
      </trkpt>
      <trkpt lat="47.25137" lon="-1.6438">
        <ele>52</ele>
        <time>2011-10-09T09:20:03Z</time>
      </trkpt>
      <trkpt lat="47.25139" lon="-1.64372">
        <ele>52</ele>
        <time>2011-10-09T09:20:05Z</time>
      </trkpt>
      <trkpt lat="47.25139" lon="-1.6436">
        <ele>52</ele>
        <time>2011-10-09T09:20:08Z</time>
      </trkpt>
      <trkpt lat="47.25134" lon="-1.64348">
        <ele>52</ele>
        <time>2011-10-09T09:20:11Z</time>
      </trkpt>
      <trkpt lat="47.25126" lon="-1.64333">
        <ele>52</ele>
        <time>2011-10-09T09:20:14Z</time>
      </trkpt>
      <trkpt lat="47.25116" lon="-1.64318">
        <ele>53</ele>
        <time>2011-10-09T09:20:17Z</time>
      </trkpt>
      <trkpt lat="47.25104" lon="-1.64302">
        <ele>53</ele>
        <time>2011-10-09T09:20:20Z</time>
      </trkpt>
      <trkpt lat="47.25097" lon="-1.64293">
        <ele>53</ele>
        <time>2011-10-09T09:20:22Z</time>
      </trkpt>
      <trkpt lat="47.25086" lon="-1.64277">
        <ele>53</ele>
        <time>2011-10-09T09:20:25Z</time>
      </trkpt>
      <trkpt lat="47.25075" lon="-1.64256">
        <ele>51</ele>
        <time>2011-10-09T09:20:28Z</time>
      </trkpt>
      <trkpt lat="47.25069" lon="-1.64241">
        <ele>51</ele>
        <time>2011-10-09T09:20:30Z</time>
      </trkpt>
      <trkpt lat="47.25065" lon="-1.64223">
        <ele>51</ele>
        <time>2011-10-09T09:20:32Z</time>
      </trkpt>
      <trkpt lat="47.25062" lon="-1.64207">
        <ele>51</ele>
        <time>2011-10-09T09:20:34Z</time>
      </trkpt>
      <trkpt lat="47.25062" lon="-1.64189">
        <ele>51</ele>
        <time>2011-10-09T09:20:37Z</time>
      </trkpt>
      <trkpt lat="47.25053" lon="-1.64171">
        <ele>51</ele>
        <time>2011-10-09T09:20:40Z</time>
      </trkpt>
      <trkpt lat="47.25047" lon="-1.64157">
        <ele>50</ele>
        <time>2011-10-09T09:20:42Z</time>
      </trkpt>
      <trkpt lat="47.25041" lon="-1.64135">
        <ele>50</ele>
        <time>2011-10-09T09:20:45Z</time>
      </trkpt>
      <trkpt lat="47.25034" lon="-1.6411">
        <ele>50</ele>
        <time>2011-10-09T09:20:48Z</time>
      </trkpt>
      <trkpt lat="47.2503" lon="-1.64093">
        <ele>50</ele>
        <time>2011-10-09T09:20:50Z</time>
      </trkpt>
      <trkpt lat="47.25024" lon="-1.6407">
        <ele>52</ele>
        <time>2011-10-09T09:20:53Z</time>
      </trkpt>
      <trkpt lat="47.2502" lon="-1.64048">
        <ele>52</ele>
        <time>2011-10-09T09:20:56Z</time>
      </trkpt>
      <trkpt lat="47.25015" lon="-1.64027">
        <ele>53</ele>
        <time>2011-10-09T09:20:59Z</time>
      </trkpt>
      <trkpt lat="47.25009" lon="-1.64005">
        <ele>54</ele>
        <time>2011-10-09T09:21:02Z</time>
      </trkpt>
      <trkpt lat="47.25005" lon="-1.63985">
        <ele>55</ele>
        <time>2011-10-09T09:21:05Z</time>
      </trkpt>
      <trkpt lat="47.25005" lon="-1.63969">
        <ele>55</ele>
        <time>2011-10-09T09:21:08Z</time>
      </trkpt>
      <trkpt lat="47.24999" lon="-1.63958">
        <ele>54</ele>
        <time>2011-10-09T09:21:11Z</time>
      </trkpt>
      <trkpt lat="47.24984" lon="-1.63957">
        <ele>54</ele>
        <time>2011-10-09T09:21:14Z</time>
      </trkpt>
      <trkpt lat="47.24971" lon="-1.6396">
        <ele>54</ele>
        <time>2011-10-09T09:21:17Z</time>
      </trkpt>
      <trkpt lat="47.24958" lon="-1.63968">
        <ele>53</ele>
        <time>2011-10-09T09:21:20Z</time>
      </trkpt>
      <trkpt lat="47.24951" lon="-1.63975">
        <ele>53</ele>
        <time>2011-10-09T09:21:22Z</time>
      </trkpt>
      <trkpt lat="47.24939" lon="-1.63985">
        <ele>52</ele>
        <time>2011-10-09T09:21:25Z</time>
      </trkpt>
      <trkpt lat="47.24923" lon="-1.63994">
        <ele>51</ele>
        <time>2011-10-09T09:21:28Z</time>
      </trkpt>
      <trkpt lat="47.24913" lon="-1.64003">
        <ele>49</ele>
        <time>2011-10-09T09:21:30Z</time>
      </trkpt>
      <trkpt lat="47.24902" lon="-1.6402">
        <ele>47</ele>
        <time>2011-10-09T09:21:33Z</time>
      </trkpt>
      <trkpt lat="47.24902" lon="-1.6402">
        <ele>47</ele>
        <time>2011-10-09T09:21:34Z</time>
      </trkpt>
      <trkpt lat="47.24902" lon="-1.6402">
        <ele>47</ele>
        <time>2011-10-09T09:22:31Z</time>
      </trkpt>
    </trkseg>
  </trk>
</gpx>